<?xml version='1.0' encoding='UTF-8'?><gpx version="1.1" creator="JPX - https://github.com/jenetics/jpx" xmlns="http://www.topografix.com/GPX/1/1"><trk><trkseg><trkpt lat="45.6100118" lon="9.4272431"><ele>200.33333333333334</ele><time>2026-04-14T13:03:52.459Z</time></trkpt><trkpt lat="45.6099706" lon="9.4271186"><ele>200.66666666666669</ele><time>2026-04-14T13:07:21.478Z</time></trkpt><trkpt lat="45.6099409" lon="9.4270225"><ele>201.0</ele><time>2026-04-14T13:07:22.479Z</time></trkpt><trkpt lat="45.6099181" lon="9.4269078"><ele>201.33333333333331</ele><time>2026-04-14T13:07:23.478Z</time></trkpt><trkpt lat="45.6098998" lon="9.4268078"><ele>201.66666666666666</ele><time>2026-04-14T13:07:24.479Z</time></trkpt><trkpt lat="45.6099126" lon="9.4266624"><ele>202.0</ele><time>2026-04-14T13:07:26.479Z</time></trkpt><trkpt lat="45.6098906" lon="9.4265083"><ele>202.0</ele><time>2026-04-14T13:07:28.479Z</time></trkpt><trkpt lat="45.6098837" lon="9.4263299"><ele>202.0</ele><time>2026-04-14T13:07:30.478Z</time></trkpt><trkpt lat="45.6098915" lon="9.4261722"><ele>202.0</ele><time>2026-04-14T13:07:32.479Z</time></trkpt><trkpt lat="45.609814" lon="9.4260189"><ele>202.0</ele><time>2026-04-14T13:07:35.479Z</time></trkpt><trkpt lat="45.6097619" lon="9.4259314"><ele>202.0</ele><time>2026-04-14T13:07:36.479Z</time></trkpt><trkpt lat="45.6096845" lon="9.4259888"><ele>201.99999999999997</ele><time>2026-04-14T13:07:40.479Z</time></trkpt><trkpt lat="45.6096143" lon="9.4260365"><ele>202.0</ele><time>2026-04-14T13:07:47.478Z</time></trkpt><trkpt lat="45.6095333" lon="9.4260666"><ele>202.0</ele><time>2026-04-14T13:07:50.479Z</time></trkpt><trkpt lat="45.6094631" lon="9.4260789"><ele>202.0</ele><time>2026-04-14T13:07:52.478Z</time></trkpt><trkpt lat="45.6093786" lon="9.4260883"><ele>201.99999999999997</ele><time>2026-04-14T13:07:54.479Z</time></trkpt><trkpt lat="45.6092897" lon="9.4261052"><ele>202.0</ele><time>2026-04-14T13:07:56.478Z</time></trkpt><trkpt lat="45.6092092" lon="9.4261236"><ele>201.39999999999998</ele><time>2026-04-14T13:07:58.479Z</time></trkpt><trkpt lat="45.6091121" lon="9.4260694"><ele>200.79999999999998</ele><time>2026-04-14T13:08:00.479Z</time></trkpt><trkpt lat="45.6090511" lon="9.4260194"><ele>200.2</ele><time>2026-04-14T13:08:02.479Z</time></trkpt><trkpt lat="45.6089449" lon="9.4260321"><ele>199.6</ele><time>2026-04-14T13:08:04.479Z</time></trkpt><trkpt lat="45.6088781" lon="9.4260434"><ele>199.0</ele><time>2026-04-14T13:08:05.479Z</time></trkpt><trkpt lat="45.6087585" lon="9.4260145"><ele>199.0</ele><time>2026-04-14T13:08:07.479Z</time></trkpt><trkpt lat="45.6086653" lon="9.4260192"><ele>199.0</ele><time>2026-04-14T13:08:09.478Z</time></trkpt><trkpt lat="45.6085779" lon="9.426001"><ele>199.0</ele><time>2026-04-14T13:08:11.479Z</time></trkpt><trkpt lat="45.6085012" lon="9.425984"><ele>199.0</ele><time>2026-04-14T13:08:13.479Z</time></trkpt><trkpt lat="45.608402" lon="9.4259756"><ele>199.0</ele><time>2026-04-14T13:08:15.479Z</time></trkpt><trkpt lat="45.6083038" lon="9.4259815"><ele>198.39999999999998</ele><time>2026-04-14T13:08:17.479Z</time></trkpt><trkpt lat="45.6081982" lon="9.4259898"><ele>197.8</ele><time>2026-04-14T13:08:19.479Z</time></trkpt><trkpt lat="45.6080886" lon="9.4260112"><ele>197.2</ele><time>2026-04-14T13:08:21.479Z</time></trkpt><trkpt lat="45.6080245" lon="9.4260127"><ele>196.60000000000002</ele><time>2026-04-14T13:08:22.478Z</time></trkpt><trkpt lat="45.6079611" lon="9.4260188"><ele>196.0</ele><time>2026-04-14T13:08:23.479Z</time></trkpt><trkpt lat="45.6078488" lon="9.4260089"><ele>195.83333333333331</ele><time>2026-04-14T13:08:25.478Z</time></trkpt><trkpt lat="45.6077361" lon="9.4260005"><ele>195.66666666666666</ele><time>2026-04-14T13:08:27.479Z</time></trkpt><trkpt lat="45.6076548" lon="9.4260206"><ele>195.5</ele><time>2026-04-14T13:08:29.478Z</time></trkpt><trkpt lat="45.6075542" lon="9.4259598"><ele>195.33333333333331</ele><time>2026-04-14T13:08:31.478Z</time></trkpt><trkpt lat="45.6074949" lon="9.4259222"><ele>195.16666666666666</ele><time>2026-04-14T13:08:32.479Z</time></trkpt><trkpt lat="45.6074409" lon="9.4258728"><ele>195.0</ele><time>2026-04-14T13:08:33.478Z</time></trkpt><trkpt lat="45.6074029" lon="9.4257472"><ele>195.0</ele><time>2026-04-14T13:08:35.479Z</time></trkpt><trkpt lat="45.6073843" lon="9.4256384"><ele>195.0</ele><time>2026-04-14T13:08:36.479Z</time></trkpt><trkpt lat="45.6073638" lon="9.425474"><ele>195.0</ele><time>2026-04-14T13:08:38.478Z</time></trkpt><trkpt lat="45.6073687" lon="9.4253657"><ele>195.0</ele><time>2026-04-14T13:08:39.479Z</time></trkpt><trkpt lat="45.6073767" lon="9.4252732"><ele>195.0</ele><time>2026-04-14T13:08:40.479Z</time></trkpt><trkpt lat="45.6073829" lon="9.4251392"><ele>195.0</ele><time>2026-04-14T13:08:42.479Z</time></trkpt><trkpt lat="45.6073987" lon="9.4250124"><ele>195.2</ele><time>2026-04-14T13:08:44.479Z</time></trkpt><trkpt lat="45.607398" lon="9.4248775"><ele>195.4</ele><time>2026-04-14T13:08:46.479Z</time></trkpt><trkpt lat="45.607404" lon="9.424762"><ele>195.60000000000002</ele><time>2026-04-14T13:08:47.478Z</time></trkpt><trkpt lat="45.6074242" lon="9.4246093"><ele>195.8</ele><time>2026-04-14T13:08:49.479Z</time></trkpt><trkpt lat="45.6074252" lon="9.4244011"><ele>196.0</ele><time>2026-04-14T13:08:51.479Z</time></trkpt><trkpt lat="45.607425" lon="9.4243004"><ele>195.66666666666666</ele><time>2026-04-14T13:08:52.478Z</time></trkpt><trkpt lat="45.6074245" lon="9.4241786"><ele>195.33333333333331</ele><time>2026-04-14T13:08:53.479Z</time></trkpt><trkpt lat="45.6073958" lon="9.4240953"><ele>195.0</ele><time>2026-04-14T13:08:54.478Z</time></trkpt><trkpt lat="45.6073707" lon="9.4239406"><ele>194.66666666666669</ele><time>2026-04-14T13:08:56.479Z</time></trkpt><trkpt lat="45.6073614" lon="9.4238168"><ele>194.33333333333334</ele><time>2026-04-14T13:08:57.479Z</time></trkpt><trkpt lat="45.6073081" lon="9.4237341"><ele>194.0</ele><time>2026-04-14T13:08:58.479Z</time></trkpt><trkpt lat="45.6072948" lon="9.4235833"><ele>193.83333333333334</ele><time>2026-04-14T13:08:59.479Z</time></trkpt><trkpt lat="45.6072932" lon="9.4234509"><ele>193.66666666666669</ele><time>2026-04-14T13:09:00.478Z</time></trkpt><trkpt lat="45.6072799" lon="9.4233074"><ele>193.5</ele><time>2026-04-14T13:09:01.479Z</time></trkpt><trkpt lat="45.6072631" lon="9.4231906"><ele>193.33333333333331</ele><time>2026-04-14T13:09:02.478Z</time></trkpt><trkpt lat="45.6072725" lon="9.4230751"><ele>193.16666666666666</ele><time>2026-04-14T13:09:03.479Z</time></trkpt><trkpt lat="45.6072721" lon="9.4229725"><ele>193.0</ele><time>2026-04-14T13:09:04.479Z</time></trkpt><trkpt lat="45.6072719" lon="9.4228714"><ele>192.99999999999997</ele><time>2026-04-14T13:09:05.478Z</time></trkpt><trkpt lat="45.607271" lon="9.4227542"><ele>193.0</ele><time>2026-04-14T13:09:06.479Z</time></trkpt><trkpt lat="45.6072648" lon="9.4226494"><ele>193.0</ele><time>2026-04-14T13:09:07.479Z</time></trkpt><trkpt lat="45.6072709" lon="9.4225548"><ele>193.0</ele><time>2026-04-14T13:09:08.479Z</time></trkpt><trkpt lat="45.6072803" lon="9.4224506"><ele>192.99999999999997</ele><time>2026-04-14T13:09:09.478Z</time></trkpt><trkpt lat="45.6072858" lon="9.4223436"><ele>193.0</ele><time>2026-04-14T13:09:10.478Z</time></trkpt><trkpt lat="45.6072984" lon="9.4222268"><ele>193.0</ele><time>2026-04-14T13:09:11.479Z</time></trkpt><trkpt lat="45.6073018" lon="9.4221152"><ele>193.0</ele><time>2026-04-14T13:09:12.479Z</time></trkpt><trkpt lat="45.6073057" lon="9.4220203"><ele>193.0</ele><time>2026-04-14T13:09:13.479Z</time></trkpt><trkpt lat="45.6073075" lon="9.421927"><ele>193.0</ele><time>2026-04-14T13:09:14.479Z</time></trkpt><trkpt lat="45.6073319" lon="9.4217294"><ele>193.0</ele><time>2026-04-14T13:09:16.478Z</time></trkpt><trkpt lat="45.60734" lon="9.4215467"><ele>193.0</ele><time>2026-04-14T13:09:18.478Z</time></trkpt><trkpt lat="45.6073434" lon="9.4214436"><ele>193.0</ele><time>2026-04-14T13:09:19.478Z</time></trkpt><trkpt lat="45.6073498" lon="9.4212868"><ele>193.0</ele><time>2026-04-14T13:09:21.478Z</time></trkpt><trkpt lat="45.6073551" lon="9.4210707"><ele>193.0</ele><time>2026-04-14T13:09:23.479Z</time></trkpt><trkpt lat="45.6073563" lon="9.4209651"><ele>193.0</ele><time>2026-04-14T13:09:24.479Z</time></trkpt><trkpt lat="45.6073594" lon="9.4208655"><ele>193.0</ele><time>2026-04-14T13:09:25.479Z</time></trkpt><trkpt lat="45.6073745" lon="9.4207212"><ele>193.0</ele><time>2026-04-14T13:09:27.478Z</time></trkpt><trkpt lat="45.6073765" lon="9.4206265"><ele>193.0</ele><time>2026-04-14T13:09:28.478Z</time></trkpt><trkpt lat="45.6073947" lon="9.4204574"><ele>193.0</ele><time>2026-04-14T13:09:30.479Z</time></trkpt><trkpt lat="45.6074336" lon="9.4202918"><ele>193.0</ele><time>2026-04-14T13:09:32.479Z</time></trkpt><trkpt lat="45.6074678" lon="9.420216"><ele>192.99999999999997</ele><time>2026-04-14T13:09:33.479Z</time></trkpt><trkpt lat="45.6075359" lon="9.4201457"><ele>193.0</ele><time>2026-04-14T13:09:35.479Z</time></trkpt><trkpt lat="45.6075797" lon="9.4200754"><ele>193.0</ele><time>2026-04-14T13:09:36.479Z</time></trkpt><trkpt lat="45.6076531" lon="9.4200005"><ele>193.0</ele><time>2026-04-14T13:09:38.479Z</time></trkpt><trkpt lat="45.6077188" lon="9.4199317"><ele>192.99999999999997</ele><time>2026-04-14T13:09:40.478Z</time></trkpt><trkpt lat="45.6076406" lon="9.4198593"><ele>193.0</ele><time>2026-04-14T13:09:42.478Z</time></trkpt><trkpt lat="45.6075543" lon="9.4198007"><ele>193.0</ele><time>2026-04-14T13:09:44.479Z</time></trkpt><trkpt lat="45.6074835" lon="9.4196866"><ele>193.0</ele><time>2026-04-14T13:09:46.479Z</time></trkpt><trkpt lat="45.6074083" lon="9.4195867"><ele>193.0</ele><time>2026-04-14T13:09:48.479Z</time></trkpt><trkpt lat="45.6073259" lon="9.4194813"><ele>193.0</ele><time>2026-04-14T13:09:50.478Z</time></trkpt><trkpt lat="45.6072042" lon="9.4194949"><ele>193.0</ele><time>2026-04-14T13:09:53.478Z</time></trkpt><trkpt lat="45.6070859" lon="9.4195359"><ele>192.66666666666666</ele><time>2026-04-14T13:09:54.479Z</time></trkpt><trkpt lat="45.6069932" lon="9.4194969"><ele>192.33333333333331</ele><time>2026-04-14T13:09:56.479Z</time></trkpt><trkpt lat="45.6069085" lon="9.4195544"><ele>192.0</ele><time>2026-04-14T13:09:57.479Z</time></trkpt><trkpt lat="45.6068623" lon="9.4194851"><ele>191.66666666666666</ele><time>2026-04-14T13:09:58.479Z</time></trkpt><trkpt lat="45.6067852" lon="9.419494"><ele>191.33333333333331</ele><time>2026-04-14T13:09:59.478Z</time></trkpt><trkpt lat="45.6066815" lon="9.4194801"><ele>191.0</ele><time>2026-04-14T13:10:00.478Z</time></trkpt><trkpt lat="45.606597" lon="9.4194254"><ele>191.0</ele><time>2026-04-14T13:10:02.479Z</time></trkpt><trkpt lat="45.606496" lon="9.4194588"><ele>191.0</ele><time>2026-04-14T13:10:03.479Z</time></trkpt><trkpt lat="45.6064218" lon="9.4194714"><ele>191.0</ele><time>2026-04-14T13:10:04.479Z</time></trkpt><trkpt lat="45.6063433" lon="9.4194945"><ele>191.0</ele><time>2026-04-14T13:10:05.478Z</time></trkpt><trkpt lat="45.6062427" lon="9.4195071"><ele>191.0</ele><time>2026-04-14T13:10:07.479Z</time></trkpt><trkpt lat="45.606166" lon="9.4195132"><ele>191.0</ele><time>2026-04-14T13:10:08.478Z</time></trkpt><trkpt lat="45.6060467" lon="9.4195365"><ele>191.0</ele><time>2026-04-14T13:10:09.479Z</time></trkpt><trkpt lat="45.6059876" lon="9.4194997"><ele>191.0</ele><time>2026-04-14T13:10:11.479Z</time></trkpt><trkpt lat="45.6059128" lon="9.4194816"><ele>191.0</ele><time>2026-04-14T13:10:12.479Z</time></trkpt><trkpt lat="45.6058071" lon="9.4194427"><ele>191.0</ele><time>2026-04-14T13:10:14.479Z</time></trkpt><trkpt lat="45.6057289" lon="9.4194551"><ele>191.0</ele><time>2026-04-14T13:10:15.478Z</time></trkpt><trkpt lat="45.6056075" lon="9.4194317"><ele>191.0</ele><time>2026-04-14T13:10:17.479Z</time></trkpt><trkpt lat="45.6055322" lon="9.4193992"><ele>191.0</ele><time>2026-04-14T13:10:18.479Z</time></trkpt><trkpt lat="45.6054578" lon="9.4194023"><ele>191.0</ele><time>2026-04-14T13:10:19.479Z</time></trkpt><trkpt lat="45.6053879" lon="9.4193995"><ele>191.0</ele><time>2026-04-14T13:10:20.479Z</time></trkpt><trkpt lat="45.6053068" lon="9.4194044"><ele>191.0</ele><time>2026-04-14T13:10:21.479Z</time></trkpt><trkpt lat="45.6052292" lon="9.4193974"><ele>191.0</ele><time>2026-04-14T13:10:22.479Z</time></trkpt><trkpt lat="45.6051599" lon="9.4193869"><ele>190.8</ele><time>2026-04-14T13:10:23.478Z</time></trkpt><trkpt lat="45.6050267" lon="9.4193901"><ele>190.60000000000002</ele><time>2026-04-14T13:10:25.478Z</time></trkpt><trkpt lat="45.6049565" lon="9.4193871"><ele>190.4</ele><time>2026-04-14T13:10:26.478Z</time></trkpt><trkpt lat="45.6048315" lon="9.4193665"><ele>190.2</ele><time>2026-04-14T13:10:28.479Z</time></trkpt><trkpt lat="45.60476" lon="9.4193455"><ele>190.0</ele><time>2026-04-14T13:10:29.479Z</time></trkpt><trkpt lat="45.6046391" lon="9.4193159"><ele>190.0</ele><time>2026-04-14T13:10:31.479Z</time></trkpt><trkpt lat="45.6044986" lon="9.4193029"><ele>190.0</ele><time>2026-04-14T13:10:33.479Z</time></trkpt><trkpt lat="45.6043832" lon="9.4192566"><ele>190.0</ele><time>2026-04-14T13:10:35.479Z</time></trkpt><trkpt lat="45.6042453" lon="9.4192469"><ele>190.0</ele><time>2026-04-14T13:10:37.478Z</time></trkpt><trkpt lat="45.6041349" lon="9.4192372"><ele>189.6</ele><time>2026-04-14T13:10:39.478Z</time></trkpt><trkpt lat="45.6040515" lon="9.4192022"><ele>189.2</ele><time>2026-04-14T13:10:41.479Z</time></trkpt><trkpt lat="45.6039593" lon="9.4191789"><ele>188.8</ele><time>2026-04-14T13:10:43.479Z</time></trkpt><trkpt lat="45.6038917" lon="9.4191267"><ele>188.4</ele><time>2026-04-14T13:10:45.478Z</time></trkpt><trkpt lat="45.603776" lon="9.4191147"><ele>188.0</ele><time>2026-04-14T13:10:47.479Z</time></trkpt><trkpt lat="45.6036745" lon="9.419099"><ele>188.2</ele><time>2026-04-14T13:10:49.479Z</time></trkpt><trkpt lat="45.6036115" lon="9.4191023"><ele>188.4</ele><time>2026-04-14T13:10:50.478Z</time></trkpt><trkpt lat="45.6034829" lon="9.4190763"><ele>188.6</ele><time>2026-04-14T13:10:52.479Z</time></trkpt><trkpt lat="45.6034065" lon="9.4190734"><ele>188.79999999999998</ele><time>2026-04-14T13:10:53.478Z</time></trkpt><trkpt lat="45.6032938" lon="9.4190373"><ele>189.0</ele><time>2026-04-14T13:10:55.479Z</time></trkpt><trkpt lat="45.6032259" lon="9.4190393"><ele>189.0</ele><time>2026-04-14T13:10:56.479Z</time></trkpt><trkpt lat="45.6031528" lon="9.4190501"><ele>189.0</ele><time>2026-04-14T13:10:57.479Z</time></trkpt><trkpt lat="45.6030868" lon="9.4190402"><ele>189.0</ele><time>2026-04-14T13:10:58.479Z</time></trkpt><trkpt lat="45.6030197" lon="9.4190427"><ele>189.0</ele><time>2026-04-14T13:10:59.479Z</time></trkpt><trkpt lat="45.6029037" lon="9.4190626"><ele>189.0</ele><time>2026-04-14T13:11:00.479Z</time></trkpt><trkpt lat="45.602829" lon="9.4190752"><ele>189.0</ele><time>2026-04-14T13:11:01.479Z</time></trkpt><trkpt lat="45.602709" lon="9.4190484"><ele>188.6</ele><time>2026-04-14T13:11:03.479Z</time></trkpt><trkpt lat="45.6026034" lon="9.4189721"><ele>188.2</ele><time>2026-04-14T13:11:05.479Z</time></trkpt><trkpt lat="45.6024956" lon="9.418956"><ele>187.79999999999998</ele><time>2026-04-14T13:11:07.479Z</time></trkpt><trkpt lat="45.602424" lon="9.4189479"><ele>187.39999999999998</ele><time>2026-04-14T13:11:08.479Z</time></trkpt><trkpt lat="45.6022935" lon="9.4189289"><ele>187.0</ele><time>2026-04-14T13:11:10.479Z</time></trkpt><trkpt lat="45.6022085" lon="9.4189305"><ele>187.0</ele><time>2026-04-14T13:11:11.479Z</time></trkpt><trkpt lat="45.6021434" lon="9.418936"><ele>187.0</ele><time>2026-04-14T13:11:12.479Z</time></trkpt><trkpt lat="45.6020653" lon="9.4189294"><ele>187.0</ele><time>2026-04-14T13:11:13.479Z</time></trkpt><trkpt lat="45.6019998" lon="9.4189277"><ele>187.0</ele><time>2026-04-14T13:11:14.479Z</time></trkpt><trkpt lat="45.6019364" lon="9.4189153"><ele>187.0</ele><time>2026-04-14T13:11:15.479Z</time></trkpt><trkpt lat="45.6017951" lon="9.4189048"><ele>187.0</ele><time>2026-04-14T13:11:17.479Z</time></trkpt><trkpt lat="45.601656" lon="9.4188794"><ele>187.0</ele><time>2026-04-14T13:11:19.479Z</time></trkpt><trkpt lat="45.6015954" lon="9.4188529"><ele>187.0</ele><time>2026-04-14T13:11:20.478Z</time></trkpt><trkpt lat="45.6014546" lon="9.4188349"><ele>187.0</ele><time>2026-04-14T13:11:22.479Z</time></trkpt><trkpt lat="45.6013763" lon="9.4188084"><ele>187.0</ele><time>2026-04-14T13:11:23.478Z</time></trkpt><trkpt lat="45.6012525" lon="9.4187953"><ele>187.0</ele><time>2026-04-14T13:11:25.478Z</time></trkpt><trkpt lat="45.6011696" lon="9.4187997"><ele>186.8</ele><time>2026-04-14T13:11:26.478Z</time></trkpt><trkpt lat="45.6010661" lon="9.4188158"><ele>186.6</ele><time>2026-04-14T13:11:27.479Z</time></trkpt><trkpt lat="45.6009687" lon="9.4188115"><ele>186.4</ele><time>2026-04-14T13:11:28.479Z</time></trkpt><trkpt lat="45.6008906" lon="9.418812"><ele>186.20000000000002</ele><time>2026-04-14T13:11:29.479Z</time></trkpt><trkpt lat="45.6007713" lon="9.4188523"><ele>186.0</ele><time>2026-04-14T13:11:30.479Z</time></trkpt><trkpt lat="45.6006771" lon="9.4188807"><ele>185.8</ele><time>2026-04-14T13:11:31.479Z</time></trkpt><trkpt lat="45.6005881" lon="9.418876"><ele>185.60000000000002</ele><time>2026-04-14T13:11:33.479Z</time></trkpt><trkpt lat="45.6004934" lon="9.4188962"><ele>185.4</ele><time>2026-04-14T13:11:34.478Z</time></trkpt><trkpt lat="45.6003897" lon="9.4189097"><ele>185.2</ele><time>2026-04-14T13:11:36.479Z</time></trkpt><trkpt lat="45.6003252" lon="9.4189166"><ele>185.0</ele><time>2026-04-14T13:11:37.479Z</time></trkpt><trkpt lat="45.6002232" lon="9.418939"><ele>185.0</ele><time>2026-04-14T13:11:38.479Z</time></trkpt><trkpt lat="45.6001365" lon="9.4189571"><ele>185.0</ele><time>2026-04-14T13:11:40.479Z</time></trkpt><trkpt lat="45.6000648" lon="9.4189694"><ele>185.0</ele><time>2026-04-14T13:11:41.479Z</time></trkpt><trkpt lat="45.5999634" lon="9.4189665"><ele>185.0</ele><time>2026-04-14T13:11:43.478Z</time></trkpt><trkpt lat="45.5998897" lon="9.418991"><ele>185.0</ele><time>2026-04-14T13:11:46.478Z</time></trkpt><trkpt lat="45.5997977" lon="9.4190305"><ele>185.0</ele><time>2026-04-14T13:11:49.479Z</time></trkpt><trkpt lat="45.5997256" lon="9.4190514"><ele>185.0</ele><time>2026-04-14T13:11:52.478Z</time></trkpt><trkpt lat="45.599623" lon="9.4190586"><ele>185.0</ele><time>2026-04-14T13:11:54.479Z</time></trkpt><trkpt lat="45.599518" lon="9.4190858"><ele>185.0</ele><time>2026-04-14T13:11:56.478Z</time></trkpt><trkpt lat="45.5994072" lon="9.4190938"><ele>185.0</ele><time>2026-04-14T13:11:58.478Z</time></trkpt><trkpt lat="45.5993416" lon="9.4191051"><ele>185.0</ele><time>2026-04-14T13:11:59.478Z</time></trkpt><trkpt lat="45.5992192" lon="9.4191298"><ele>184.75</ele><time>2026-04-14T13:12:01.479Z</time></trkpt><trkpt lat="45.5991085" lon="9.4191384"><ele>184.5</ele><time>2026-04-14T13:12:03.478Z</time></trkpt><trkpt lat="45.5990398" lon="9.4191538"><ele>184.25</ele><time>2026-04-14T13:12:04.478Z</time></trkpt><trkpt lat="45.5988659" lon="9.4191941"><ele>184.0</ele><time>2026-04-14T13:12:06.478Z</time></trkpt><trkpt lat="45.5987511" lon="9.4192504"><ele>184.0</ele><time>2026-04-14T13:12:08.479Z</time></trkpt><trkpt lat="45.5986826" lon="9.4192661"><ele>184.0</ele><time>2026-04-14T13:12:09.479Z</time></trkpt><trkpt lat="45.5986014" lon="9.4192932"><ele>184.0</ele><time>2026-04-14T13:12:10.478Z</time></trkpt><trkpt lat="45.5984756" lon="9.4193146"><ele>184.0</ele><time>2026-04-14T13:12:12.479Z</time></trkpt><trkpt lat="45.5984114" lon="9.4193184"><ele>184.0</ele><time>2026-04-14T13:12:13.479Z</time></trkpt><trkpt lat="45.5983277" lon="9.4193417"><ele>184.0</ele><time>2026-04-14T13:12:14.478Z</time></trkpt><trkpt lat="45.5982346" lon="9.4193507"><ele>184.0</ele><time>2026-04-14T13:12:15.478Z</time></trkpt><trkpt lat="45.5981318" lon="9.4193692"><ele>184.0</ele><time>2026-04-14T13:12:17.479Z</time></trkpt><trkpt lat="45.5980263" lon="9.4193959"><ele>184.0</ele><time>2026-04-14T13:12:18.478Z</time></trkpt><trkpt lat="45.5979133" lon="9.4194266"><ele>184.0</ele><time>2026-04-14T13:12:20.478Z</time></trkpt><trkpt lat="45.5978476" lon="9.4194349"><ele>184.0</ele><time>2026-04-14T13:12:21.479Z</time></trkpt><trkpt lat="45.5977333" lon="9.4194662"><ele>184.0</ele><time>2026-04-14T13:12:23.479Z</time></trkpt><trkpt lat="45.5976518" lon="9.4194923"><ele>184.0</ele><time>2026-04-14T13:12:24.479Z</time></trkpt><trkpt lat="45.5975622" lon="9.4194838"><ele>184.0</ele><time>2026-04-14T13:12:26.479Z</time></trkpt><trkpt lat="45.5974566" lon="9.4195031"><ele>184.0</ele><time>2026-04-14T13:12:28.478Z</time></trkpt><trkpt lat="45.5973811" lon="9.4194947"><ele>184.0</ele><time>2026-04-14T13:12:29.479Z</time></trkpt><trkpt lat="45.5972849" lon="9.419505"><ele>184.0</ele><time>2026-04-14T13:12:31.479Z</time></trkpt><trkpt lat="45.5972066" lon="9.4195371"><ele>184.0</ele><time>2026-04-14T13:12:32.478Z</time></trkpt><trkpt lat="45.5970575" lon="9.419564"><ele>184.0</ele><time>2026-04-14T13:12:34.479Z</time></trkpt><trkpt lat="45.5969562" lon="9.4195847"><ele>184.0</ele><time>2026-04-14T13:12:35.479Z</time></trkpt><trkpt lat="45.5968849" lon="9.4195625"><ele>184.0</ele><time>2026-04-14T13:12:36.478Z</time></trkpt><trkpt lat="45.5968247" lon="9.41951"><ele>183.39999999999998</ele><time>2026-04-14T13:12:37.478Z</time></trkpt><trkpt lat="45.5967622" lon="9.419458"><ele>182.8</ele><time>2026-04-14T13:12:38.478Z</time></trkpt><trkpt lat="45.5966837" lon="9.4193179"><ele>182.2</ele><time>2026-04-14T13:12:40.479Z</time></trkpt><trkpt lat="45.5966339" lon="9.4191624"><ele>181.60000000000002</ele><time>2026-04-14T13:12:42.478Z</time></trkpt><trkpt lat="45.5966172" lon="9.4190589"><ele>181.0</ele><time>2026-04-14T13:12:43.479Z</time></trkpt><trkpt lat="45.5965881" lon="9.4188622"><ele>181.4</ele><time>2026-04-14T13:12:45.479Z</time></trkpt><trkpt lat="45.5965662" lon="9.4187267"><ele>181.8</ele><time>2026-04-14T13:12:47.478Z</time></trkpt><trkpt lat="45.5965551" lon="9.4186254"><ele>182.20000000000002</ele><time>2026-04-14T13:12:48.479Z</time></trkpt><trkpt lat="45.5965392" lon="9.4184622"><ele>182.60000000000002</ele><time>2026-04-14T13:12:50.479Z</time></trkpt><trkpt lat="45.59653" lon="9.4183696"><ele>183.0</ele><time>2026-04-14T13:12:51.479Z</time></trkpt><trkpt lat="45.5965064" lon="9.4181986"><ele>183.0</ele><time>2026-04-14T13:12:53.479Z</time></trkpt><trkpt lat="45.5964856" lon="9.4181054"><ele>183.0</ele><time>2026-04-14T13:12:54.478Z</time></trkpt><trkpt lat="45.5964622" lon="9.417926"><ele>183.0</ele><time>2026-04-14T13:12:56.479Z</time></trkpt><trkpt lat="45.5964253" lon="9.4177646"><ele>183.0</ele><time>2026-04-14T13:12:58.479Z</time></trkpt><trkpt lat="45.5963908" lon="9.4175942"><ele>183.0</ele><time>2026-04-14T13:13:00.479Z</time></trkpt><trkpt lat="45.5963715" lon="9.4174067"><ele>182.8</ele><time>2026-04-14T13:13:02.478Z</time></trkpt><trkpt lat="45.5963309" lon="9.4172107"><ele>182.60000000000002</ele><time>2026-04-14T13:13:04.478Z</time></trkpt><trkpt lat="45.5962973" lon="9.4170863"><ele>182.39999999999998</ele><time>2026-04-14T13:13:05.478Z</time></trkpt><trkpt lat="45.596262" lon="9.4169836"><ele>182.2</ele><time>2026-04-14T13:13:06.478Z</time></trkpt><trkpt lat="45.5961715" lon="9.4169119"><ele>182.0</ele><time>2026-04-14T13:13:08.478Z</time></trkpt><trkpt lat="45.5961339" lon="9.416816"><ele>182.0</ele><time>2026-04-14T13:13:09.479Z</time></trkpt><trkpt lat="45.5960881" lon="9.4167113"><ele>182.0</ele><time>2026-04-14T13:13:10.479Z</time></trkpt><trkpt lat="45.5959618" lon="9.4167313"><ele>182.0</ele><time>2026-04-14T13:13:12.478Z</time></trkpt><trkpt lat="45.5958357" lon="9.4167412"><ele>182.0</ele><time>2026-04-14T13:13:14.478Z</time></trkpt><trkpt lat="45.5957709" lon="9.4167248"><ele>182.0</ele><time>2026-04-14T13:13:15.479Z</time></trkpt><trkpt lat="45.595685" lon="9.4166948"><ele>182.0</ele><time>2026-04-14T13:13:17.479Z</time></trkpt><trkpt lat="45.5956082" lon="9.4166983"><ele>182.0</ele><time>2026-04-14T13:13:18.479Z</time></trkpt><trkpt lat="45.5955046" lon="9.4166799"><ele>182.0</ele><time>2026-04-14T13:13:19.478Z</time></trkpt><trkpt lat="45.5953981" lon="9.4166238"><ele>182.0</ele><time>2026-04-14T13:13:21.478Z</time></trkpt><trkpt lat="45.5952972" lon="9.4166353"><ele>182.0</ele><time>2026-04-14T13:13:22.479Z</time></trkpt><trkpt lat="45.5951956" lon="9.4166037"><ele>181.5</ele><time>2026-04-14T13:13:24.479Z</time></trkpt><trkpt lat="45.5951094" lon="9.4165905"><ele>181.0</ele><time>2026-04-14T13:13:25.478Z</time></trkpt><trkpt lat="45.5950421" lon="9.4165562"><ele>180.5</ele><time>2026-04-14T13:13:26.479Z</time></trkpt><trkpt lat="45.594989" lon="9.4164916"><ele>180.0</ele><time>2026-04-14T13:13:28.478Z</time></trkpt><trkpt lat="45.5949022" lon="9.41649"><ele>179.5</ele><time>2026-04-14T13:13:29.479Z</time></trkpt><trkpt lat="45.5948026" lon="9.4164608"><ele>179.0</ele><time>2026-04-14T13:13:30.479Z</time></trkpt><trkpt lat="45.5947152" lon="9.4164454"><ele>179.0</ele><time>2026-04-14T13:13:31.478Z</time></trkpt><trkpt lat="45.5946473" lon="9.4164091"><ele>179.0</ele><time>2026-04-14T13:13:32.479Z</time></trkpt><trkpt lat="45.5945878" lon="9.4163765"><ele>179.0</ele><time>2026-04-14T13:13:33.479Z</time></trkpt><trkpt lat="45.5944893" lon="9.4163798"><ele>179.0</ele><time>2026-04-14T13:13:34.479Z</time></trkpt><trkpt lat="45.5944144" lon="9.4163736"><ele>179.0</ele><time>2026-04-14T13:13:35.479Z</time></trkpt><trkpt lat="45.5943356" lon="9.4163675"><ele>179.0</ele><time>2026-04-14T13:13:36.479Z</time></trkpt><trkpt lat="45.5942623" lon="9.4163521"><ele>178.83333333333331</ele><time>2026-04-14T13:13:37.478Z</time></trkpt><trkpt lat="45.5941433" lon="9.416404"><ele>178.66666666666666</ele><time>2026-04-14T13:13:39.478Z</time></trkpt><trkpt lat="45.5940789" lon="9.4164474"><ele>178.5</ele><time>2026-04-14T13:13:40.478Z</time></trkpt><trkpt lat="45.5940105" lon="9.4164899"><ele>178.33333333333334</ele><time>2026-04-14T13:13:41.479Z</time></trkpt><trkpt lat="45.5939432" lon="9.4165184"><ele>178.16666666666669</ele><time>2026-04-14T13:13:42.478Z</time></trkpt><trkpt lat="45.5938494" lon="9.4165624"><ele>178.0</ele><time>2026-04-14T13:13:43.479Z</time></trkpt><trkpt lat="45.5937803" lon="9.416578"><ele>178.0</ele><time>2026-04-14T13:13:44.479Z</time></trkpt><trkpt lat="45.5937172" lon="9.4165518"><ele>178.0</ele><time>2026-04-14T13:13:45.479Z</time></trkpt><trkpt lat="45.5936665" lon="9.4164919"><ele>178.0</ele><time>2026-04-14T13:13:46.478Z</time></trkpt><trkpt lat="45.5935812" lon="9.4164568"><ele>178.0</ele><time>2026-04-14T13:13:47.479Z</time></trkpt><trkpt lat="45.593519" lon="9.4164131"><ele>178.0</ele><time>2026-04-14T13:13:48.479Z</time></trkpt><trkpt lat="45.5934425" lon="9.4163715"><ele>178.0</ele><time>2026-04-14T13:13:49.479Z</time></trkpt><trkpt lat="45.5933748" lon="9.4163016"><ele>178.0</ele><time>2026-04-14T13:13:50.479Z</time></trkpt><trkpt lat="45.5933119" lon="9.4162368"><ele>178.0</ele><time>2026-04-14T13:13:51.479Z</time></trkpt><trkpt lat="45.5932415" lon="9.4161825"><ele>178.0</ele><time>2026-04-14T13:13:52.478Z</time></trkpt><trkpt lat="45.5931701" lon="9.4161637"><ele>178.0</ele><time>2026-04-14T13:13:53.478Z</time></trkpt><trkpt lat="45.5930895" lon="9.4161292"><ele>178.0</ele><time>2026-04-14T13:13:54.478Z</time></trkpt><trkpt lat="45.593022" lon="9.4161011"><ele>178.0</ele><time>2026-04-14T13:13:55.479Z</time></trkpt><trkpt lat="45.5929482" lon="9.4160727"><ele>177.99999999999997</ele><time>2026-04-14T13:13:56.479Z</time></trkpt><trkpt lat="45.592881" lon="9.4160658"><ele>178.0</ele><time>2026-04-14T13:13:57.479Z</time></trkpt><trkpt lat="45.5928164" lon="9.4160447"><ele>178.0</ele><time>2026-04-14T13:13:58.479Z</time></trkpt><trkpt lat="45.5927387" lon="9.4160551"><ele>178.0</ele><time>2026-04-14T13:13:59.479Z</time></trkpt><trkpt lat="45.5926691" lon="9.4160502"><ele>178.0</ele><time>2026-04-14T13:14:00.478Z</time></trkpt><trkpt lat="45.5926089" lon="9.4160193"><ele>177.99999999999997</ele><time>2026-04-14T13:14:01.478Z</time></trkpt><trkpt lat="45.5925299" lon="9.4160168"><ele>178.0</ele><time>2026-04-14T13:14:02.479Z</time></trkpt><trkpt lat="45.5924407" lon="9.4160398"><ele>177.8</ele><time>2026-04-14T13:14:03.479Z</time></trkpt><trkpt lat="45.5922846" lon="9.4160169"><ele>177.60000000000002</ele><time>2026-04-14T13:14:05.479Z</time></trkpt><trkpt lat="45.5922208" lon="9.4159841"><ele>177.39999999999998</ele><time>2026-04-14T13:14:06.478Z</time></trkpt><trkpt lat="45.5921391" lon="9.416"><ele>177.2</ele><time>2026-04-14T13:14:07.478Z</time></trkpt><trkpt lat="45.5920675" lon="9.4159843"><ele>177.0</ele><time>2026-04-14T13:14:08.478Z</time></trkpt><trkpt lat="45.591973" lon="9.4159797"><ele>176.83333333333334</ele><time>2026-04-14T13:14:09.479Z</time></trkpt><trkpt lat="45.591915" lon="9.41594"><ele>176.66666666666666</ele><time>2026-04-14T13:14:10.479Z</time></trkpt><trkpt lat="45.5918465" lon="9.4158966"><ele>176.5</ele><time>2026-04-14T13:14:11.479Z</time></trkpt><trkpt lat="45.5917783" lon="9.4158608"><ele>176.33333333333331</ele><time>2026-04-14T13:14:12.478Z</time></trkpt><trkpt lat="45.5917078" lon="9.4158668"><ele>176.16666666666666</ele><time>2026-04-14T13:14:13.478Z</time></trkpt><trkpt lat="45.5916009" lon="9.4157968"><ele>176.0</ele><time>2026-04-14T13:14:15.479Z</time></trkpt><trkpt lat="45.5915444" lon="9.4157396"><ele>176.0</ele><time>2026-04-14T13:14:16.479Z</time></trkpt><trkpt lat="45.5914877" lon="9.4156934"><ele>176.0</ele><time>2026-04-14T13:14:17.478Z</time></trkpt><trkpt lat="45.5914255" lon="9.415656"><ele>176.0</ele><time>2026-04-14T13:14:18.479Z</time></trkpt><trkpt lat="45.5913651" lon="9.4156034"><ele>176.0</ele><time>2026-04-14T13:14:19.479Z</time></trkpt><trkpt lat="45.5912944" lon="9.4156125"><ele>176.0</ele><time>2026-04-14T13:14:20.479Z</time></trkpt><trkpt lat="45.5912133" lon="9.4156352"><ele>176.0</ele><time>2026-04-14T13:14:21.478Z</time></trkpt><trkpt lat="45.5911484" lon="9.4156254"><ele>176.0</ele><time>2026-04-14T13:14:22.479Z</time></trkpt><trkpt lat="45.5910808" lon="9.415617"><ele>176.16666666666666</ele><time>2026-04-14T13:14:23.479Z</time></trkpt><trkpt lat="45.59102" lon="9.4155722"><ele>176.33333333333331</ele><time>2026-04-14T13:14:24.478Z</time></trkpt><trkpt lat="45.5909296" lon="9.4155976"><ele>176.5</ele><time>2026-04-14T13:14:25.478Z</time></trkpt><trkpt lat="45.5908444" lon="9.4156174"><ele>176.66666666666666</ele><time>2026-04-14T13:14:26.479Z</time></trkpt><trkpt lat="45.5907629" lon="9.4155986"><ele>176.83333333333334</ele><time>2026-04-14T13:14:27.478Z</time></trkpt><trkpt lat="45.5906888" lon="9.4155895"><ele>177.0</ele><time>2026-04-14T13:14:28.478Z</time></trkpt><trkpt lat="45.5906376" lon="9.4155344"><ele>177.0</ele><time>2026-04-14T13:14:29.478Z</time></trkpt><trkpt lat="45.5905663" lon="9.4154983"><ele>177.0</ele><time>2026-04-14T13:14:30.479Z</time></trkpt><trkpt lat="45.5904914" lon="9.4154707"><ele>177.0</ele><time>2026-04-14T13:14:31.478Z</time></trkpt><trkpt lat="45.5904119" lon="9.4154896"><ele>177.0</ele><time>2026-04-14T13:14:33.479Z</time></trkpt><trkpt lat="45.5903306" lon="9.4154596"><ele>177.0</ele><time>2026-04-14T13:14:35.479Z</time></trkpt><trkpt lat="45.5902563" lon="9.4154417"><ele>177.0</ele><time>2026-04-14T13:14:37.479Z</time></trkpt><trkpt lat="45.5901305" lon="9.4154191"><ele>177.39999999999998</ele><time>2026-04-14T13:14:38.478Z</time></trkpt><trkpt lat="45.590028" lon="9.4153158"><ele>177.79999999999998</ele><time>2026-04-14T13:14:39.478Z</time></trkpt><trkpt lat="45.5899482" lon="9.4152753"><ele>178.2</ele><time>2026-04-14T13:14:40.479Z</time></trkpt><trkpt lat="45.5898271" lon="9.4152313"><ele>178.6</ele><time>2026-04-14T13:14:42.478Z</time></trkpt><trkpt lat="45.5897554" lon="9.4152096"><ele>179.0</ele><time>2026-04-14T13:14:43.478Z</time></trkpt><trkpt lat="45.5896638" lon="9.4152006"><ele>179.0</ele><time>2026-04-14T13:14:44.478Z</time></trkpt><trkpt lat="45.5895978" lon="9.4151859"><ele>179.0</ele><time>2026-04-14T13:14:45.479Z</time></trkpt><trkpt lat="45.589527" lon="9.4151906"><ele>179.0</ele><time>2026-04-14T13:14:46.478Z</time></trkpt><trkpt lat="45.5894599" lon="9.4151841"><ele>179.0</ele><time>2026-04-14T13:14:47.479Z</time></trkpt><trkpt lat="45.5893912" lon="9.4151716"><ele>179.0</ele><time>2026-04-14T13:14:48.479Z</time></trkpt><trkpt lat="45.5893085" lon="9.4152111"><ele>179.0</ele><time>2026-04-14T13:14:49.478Z</time></trkpt><trkpt lat="45.5892393" lon="9.415117"><ele>178.79999999999998</ele><time>2026-04-14T13:14:52.479Z</time></trkpt><trkpt lat="45.5891938" lon="9.4149615"><ele>178.6</ele><time>2026-04-14T13:14:54.479Z</time></trkpt><trkpt lat="45.5891067" lon="9.414833"><ele>178.4</ele><time>2026-04-14T13:14:56.479Z</time></trkpt><trkpt lat="45.5890685" lon="9.4146971"><ele>178.2</ele><time>2026-04-14T13:14:58.479Z</time></trkpt><trkpt lat="45.5890494" lon="9.4145605"><ele>178.0</ele><time>2026-04-14T13:15:00.479Z</time></trkpt><trkpt lat="45.5891511" lon="9.4144882"><ele>178.0</ele><time>2026-04-14T13:15:02.479Z</time></trkpt><trkpt lat="45.5891387" lon="9.4143471"><ele>178.0</ele><time>2026-04-14T13:15:06.479Z</time></trkpt><trkpt lat="45.5891179" lon="9.4142308"><ele>178.0</ele><time>2026-04-14T13:15:07.479Z</time></trkpt><trkpt lat="45.5890887" lon="9.4140382"><ele>178.0</ele><time>2026-04-14T13:15:09.479Z</time></trkpt><trkpt lat="45.5890519" lon="9.4138923"><ele>178.0</ele><time>2026-04-14T13:15:11.479Z</time></trkpt><trkpt lat="45.5890337" lon="9.4138031"><ele>177.4</ele><time>2026-04-14T13:15:12.478Z</time></trkpt><trkpt lat="45.5890142" lon="9.4137095"><ele>176.8</ele><time>2026-04-14T13:15:13.479Z</time></trkpt><trkpt lat="45.5889891" lon="9.4135812"><ele>176.2</ele><time>2026-04-14T13:15:15.478Z</time></trkpt><trkpt lat="45.5889193" lon="9.413443"><ele>175.6</ele><time>2026-04-14T13:15:17.478Z</time></trkpt><trkpt lat="45.5888655" lon="9.4132751"><ele>175.0</ele><time>2026-04-14T13:15:19.478Z</time></trkpt><trkpt lat="45.5888004" lon="9.4131278"><ele>175.2</ele><time>2026-04-14T13:15:21.479Z</time></trkpt><trkpt lat="45.5887651" lon="9.412961"><ele>175.4</ele><time>2026-04-14T13:15:23.479Z</time></trkpt><trkpt lat="45.5887447" lon="9.4128584"><ele>175.60000000000002</ele><time>2026-04-14T13:15:24.479Z</time></trkpt><trkpt lat="45.588725" lon="9.4127386"><ele>175.8</ele><time>2026-04-14T13:15:25.479Z</time></trkpt><trkpt lat="45.5886525" lon="9.412574"><ele>176.0</ele><time>2026-04-14T13:15:27.479Z</time></trkpt><trkpt lat="45.588622" lon="9.4124806"><ele>176.0</ele><time>2026-04-14T13:15:28.478Z</time></trkpt><trkpt lat="45.5885573" lon="9.4123453"><ele>176.0</ele><time>2026-04-14T13:15:30.479Z</time></trkpt><trkpt lat="45.5885259" lon="9.412243"><ele>176.0</ele><time>2026-04-14T13:15:31.478Z</time></trkpt><trkpt lat="45.588467" lon="9.4120749"><ele>176.0</ele><time>2026-04-14T13:15:33.479Z</time></trkpt><trkpt lat="45.5884316" lon="9.4119937"><ele>176.0</ele><time>2026-04-14T13:15:34.479Z</time></trkpt><trkpt lat="45.5883617" lon="9.4118039"><ele>176.0</ele><time>2026-04-14T13:15:36.479Z</time></trkpt><trkpt lat="45.5883424" lon="9.4116772"><ele>176.0</ele><time>2026-04-14T13:15:37.479Z</time></trkpt><trkpt lat="45.5883177" lon="9.4115627"><ele>176.0</ele><time>2026-04-14T13:15:38.479Z</time></trkpt><trkpt lat="45.5882982" lon="9.4113764"><ele>176.0</ele><time>2026-04-14T13:15:39.478Z</time></trkpt><trkpt lat="45.5882832" lon="9.4112321"><ele>176.0</ele><time>2026-04-14T13:15:40.478Z</time></trkpt><trkpt lat="45.5882018" lon="9.4110888"><ele>175.8</ele><time>2026-04-14T13:15:42.478Z</time></trkpt><trkpt lat="45.5881714" lon="9.4109831"><ele>175.60000000000002</ele><time>2026-04-14T13:15:43.479Z</time></trkpt><trkpt lat="45.588137" lon="9.4108648"><ele>175.4</ele><time>2026-04-14T13:15:44.479Z</time></trkpt><trkpt lat="45.588072" lon="9.4106946"><ele>175.2</ele><time>2026-04-14T13:15:46.479Z</time></trkpt><trkpt lat="45.5880407" lon="9.4105984"><ele>175.0</ele><time>2026-04-14T13:15:47.479Z</time></trkpt><trkpt lat="45.587992" lon="9.4104052"><ele>175.0</ele><time>2026-04-14T13:15:49.479Z</time></trkpt><trkpt lat="45.587962" lon="9.4102668"><ele>175.0</ele><time>2026-04-14T13:15:50.479Z</time></trkpt><trkpt lat="45.5879295" lon="9.4101796"><ele>175.0</ele><time>2026-04-14T13:15:51.479Z</time></trkpt><trkpt lat="45.5878961" lon="9.4100873"><ele>175.0</ele><time>2026-04-14T13:15:52.478Z</time></trkpt><trkpt lat="45.587851" lon="9.4099063"><ele>175.0</ele><time>2026-04-14T13:15:54.475Z</time></trkpt><trkpt lat="45.5878144" lon="9.4097891"><ele>174.85714285714286</ele><time>2026-04-14T13:15:55.479Z</time></trkpt><trkpt lat="45.58779" lon="9.4096977"><ele>174.71428571428572</ele><time>2026-04-14T13:15:56.478Z</time></trkpt><trkpt lat="45.5877605" lon="9.4095897"><ele>174.57142857142856</ele><time>2026-04-14T13:15:57.478Z</time></trkpt><trkpt lat="45.5877244" lon="9.4094919"><ele>174.42857142857144</ele><time>2026-04-14T13:15:58.479Z</time></trkpt><trkpt lat="45.5876888" lon="9.4094089"><ele>174.28571428571428</ele><time>2026-04-14T13:15:59.479Z</time></trkpt><trkpt lat="45.5876515" lon="9.4092995"><ele>174.14285714285714</ele><time>2026-04-14T13:16:00.479Z</time></trkpt><trkpt lat="45.5876206" lon="9.4092169"><ele>174.0</ele><time>2026-04-14T13:16:01.479Z</time></trkpt><trkpt lat="45.5875785" lon="9.4091293"><ele>173.79999999999998</ele><time>2026-04-14T13:16:02.479Z</time></trkpt><trkpt lat="45.5875406" lon="9.4090143"><ele>173.6</ele><time>2026-04-14T13:16:03.478Z</time></trkpt><trkpt lat="45.5874672" lon="9.4088545"><ele>173.4</ele><time>2026-04-14T13:16:05.479Z</time></trkpt><trkpt lat="45.587423" lon="9.4087874"><ele>173.2</ele><time>2026-04-14T13:16:06.478Z</time></trkpt><trkpt lat="45.5873796" lon="9.4087113"><ele>173.0</ele><time>2026-04-14T13:16:07.478Z</time></trkpt><trkpt lat="45.587283" lon="9.4085516"><ele>173.0</ele><time>2026-04-14T13:16:09.478Z</time></trkpt><trkpt lat="45.5872363" lon="9.4084387"><ele>173.0</ele><time>2026-04-14T13:16:10.478Z</time></trkpt><trkpt lat="45.5871785" lon="9.4083511"><ele>173.0</ele><time>2026-04-14T13:16:11.478Z</time></trkpt><trkpt lat="45.5871164" lon="9.4082716"><ele>173.0</ele><time>2026-04-14T13:16:12.479Z</time></trkpt><trkpt lat="45.5870585" lon="9.4081907"><ele>173.0</ele><time>2026-04-14T13:16:13.478Z</time></trkpt><trkpt lat="45.5869937" lon="9.408115"><ele>173.0</ele><time>2026-04-14T13:16:14.478Z</time></trkpt><trkpt lat="45.586932" lon="9.4080438"><ele>173.0</ele><time>2026-04-14T13:16:15.478Z</time></trkpt><trkpt lat="45.5868631" lon="9.407999"><ele>173.0</ele><time>2026-04-14T13:16:16.479Z</time></trkpt><trkpt lat="45.5868035" lon="9.4079391"><ele>173.0</ele><time>2026-04-14T13:16:17.479Z</time></trkpt><trkpt lat="45.5867379" lon="9.4078921"><ele>173.0</ele><time>2026-04-14T13:16:18.479Z</time></trkpt><trkpt lat="45.5866451" lon="9.4078569"><ele>173.0</ele><time>2026-04-14T13:16:19.479Z</time></trkpt><trkpt lat="45.5865697" lon="9.4078413"><ele>173.0</ele><time>2026-04-14T13:16:20.478Z</time></trkpt><trkpt lat="45.5865028" lon="9.4078274"><ele>172.5</ele><time>2026-04-14T13:16:21.478Z</time></trkpt><trkpt lat="45.5864309" lon="9.4078162"><ele>172.0</ele><time>2026-04-14T13:16:22.479Z</time></trkpt><trkpt lat="45.5863592" lon="9.4077765"><ele>171.5</ele><time>2026-04-14T13:16:23.479Z</time></trkpt><trkpt lat="45.586284" lon="9.407761"><ele>171.0</ele><time>2026-04-14T13:16:24.479Z</time></trkpt><trkpt lat="45.5862027" lon="9.4077819"><ele>170.5</ele><time>2026-04-14T13:16:25.478Z</time></trkpt><trkpt lat="45.5861217" lon="9.4077835"><ele>170.0</ele><time>2026-04-14T13:16:26.478Z</time></trkpt><trkpt lat="45.585994" lon="9.4077858"><ele>170.0</ele><time>2026-04-14T13:16:28.479Z</time></trkpt><trkpt lat="45.5858376" lon="9.4078652"><ele>170.0</ele><time>2026-04-14T13:16:31.478Z</time></trkpt><trkpt lat="45.5857438" lon="9.4079012"><ele>170.0</ele><time>2026-04-14T13:16:32.479Z</time></trkpt><trkpt lat="45.5856446" lon="9.4079426"><ele>170.0</ele><time>2026-04-14T13:16:33.479Z</time></trkpt><trkpt lat="45.5855652" lon="9.4080126"><ele>170.0</ele><time>2026-04-14T13:16:34.479Z</time></trkpt><trkpt lat="45.5854287" lon="9.4081034"><ele>170.0</ele><time>2026-04-14T13:16:36.478Z</time></trkpt><trkpt lat="45.5853583" lon="9.4081361"><ele>170.0</ele><time>2026-04-14T13:16:37.478Z</time></trkpt><trkpt lat="45.5852482" lon="9.4082189"><ele>170.0</ele><time>2026-04-14T13:16:39.478Z</time></trkpt><trkpt lat="45.5851169" lon="9.4082596"><ele>170.16666666666666</ele><time>2026-04-14T13:16:41.478Z</time></trkpt><trkpt lat="45.5850486" lon="9.408307"><ele>170.33333333333331</ele><time>2026-04-14T13:16:42.479Z</time></trkpt><trkpt lat="45.5849661" lon="9.4083437"><ele>170.5</ele><time>2026-04-14T13:16:45.479Z</time></trkpt><trkpt lat="45.5848831" lon="9.4082922"><ele>170.66666666666666</ele><time>2026-04-14T13:16:47.479Z</time></trkpt><trkpt lat="45.5848153" lon="9.4082006"><ele>170.83333333333334</ele><time>2026-04-14T13:16:49.478Z</time></trkpt><trkpt lat="45.5847392" lon="9.4082008"><ele>171.0</ele><time>2026-04-14T13:16:51.478Z</time></trkpt><trkpt lat="45.5846726" lon="9.408241"><ele>171.0</ele><time>2026-04-14T13:16:53.479Z</time></trkpt><trkpt lat="45.5845571" lon="9.4082774"><ele>171.0</ele><time>2026-04-14T13:16:55.479Z</time></trkpt><trkpt lat="45.5844801" lon="9.4083623"><ele>171.0</ele><time>2026-04-14T13:16:57.479Z</time></trkpt><trkpt lat="45.5844002" lon="9.4084234"><ele>171.0</ele><time>2026-04-14T13:16:59.479Z</time></trkpt><trkpt lat="45.5843277" lon="9.4084719"><ele>171.0</ele><time>2026-04-14T13:17:00.479Z</time></trkpt><trkpt lat="45.5842574" lon="9.4085435"><ele>171.0</ele><time>2026-04-14T13:17:01.478Z</time></trkpt><trkpt lat="45.5841367" lon="9.4085882"><ele>171.0</ele><time>2026-04-14T13:17:03.478Z</time></trkpt><trkpt lat="45.5840001" lon="9.4086139"><ele>171.0</ele><time>2026-04-14T13:17:05.478Z</time></trkpt><trkpt lat="45.5838632" lon="9.4087094"><ele>171.0</ele><time>2026-04-14T13:17:07.478Z</time></trkpt><trkpt lat="45.5837943" lon="9.4087562"><ele>171.0</ele><time>2026-04-14T13:17:08.478Z</time></trkpt><trkpt lat="45.5837112" lon="9.4087774"><ele>171.0</ele><time>2026-04-14T13:17:09.479Z</time></trkpt><trkpt lat="45.5836089" lon="9.4088979"><ele>171.0</ele><time>2026-04-14T13:17:10.479Z</time></trkpt><trkpt lat="45.5835035" lon="9.408928"><ele>171.0</ele><time>2026-04-14T13:17:12.478Z</time></trkpt><trkpt lat="45.5834215" lon="9.4089992"><ele>171.0</ele><time>2026-04-14T13:17:13.479Z</time></trkpt><trkpt lat="45.5833368" lon="9.4090134"><ele>171.0</ele><time>2026-04-14T13:17:15.479Z</time></trkpt><trkpt lat="45.5832578" lon="9.4090559"><ele>171.0</ele><time>2026-04-14T13:17:16.479Z</time></trkpt><trkpt lat="45.5831807" lon="9.409065"><ele>171.0</ele><time>2026-04-14T13:17:17.479Z</time></trkpt><trkpt lat="45.5830732" lon="9.4090979"><ele>171.0</ele><time>2026-04-14T13:17:19.479Z</time></trkpt><trkpt lat="45.5829644" lon="9.4091355"><ele>171.0</ele><time>2026-04-14T13:17:20.479Z</time></trkpt><trkpt lat="45.5828164" lon="9.4092234"><ele>171.0</ele><time>2026-04-14T13:17:22.479Z</time></trkpt><trkpt lat="45.5826939" lon="9.4092869"><ele>171.0</ele><time>2026-04-14T13:17:24.478Z</time></trkpt><trkpt lat="45.5826069" lon="9.4093109"><ele>171.0</ele><time>2026-04-14T13:17:25.479Z</time></trkpt><trkpt lat="45.5825474" lon="9.4093525"><ele>171.0</ele><time>2026-04-14T13:17:26.479Z</time></trkpt><trkpt lat="45.5824124" lon="9.4093897"><ele>171.0</ele><time>2026-04-14T13:17:28.478Z</time></trkpt><trkpt lat="45.5823319" lon="9.4093777"><ele>171.0</ele><time>2026-04-14T13:17:30.479Z</time></trkpt><trkpt lat="45.5822372" lon="9.4094647"><ele>171.0</ele><time>2026-04-14T13:17:32.478Z</time></trkpt><trkpt lat="45.5821818" lon="9.4095285"><ele>171.0</ele><time>2026-04-14T13:17:33.479Z</time></trkpt><trkpt lat="45.5821256" lon="9.4096066"><ele>171.0</ele><time>2026-04-14T13:17:35.479Z</time></trkpt><trkpt lat="45.582007" lon="9.4096891"><ele>171.0</ele><time>2026-04-14T13:17:37.479Z</time></trkpt><trkpt lat="45.5819267" lon="9.4097177"><ele>171.0</ele><time>2026-04-14T13:17:39.478Z</time></trkpt><trkpt lat="45.5818368" lon="9.4097681"><ele>171.0</ele><time>2026-04-14T13:17:40.479Z</time></trkpt><trkpt lat="45.5817598" lon="9.4097964"><ele>171.0</ele><time>2026-04-14T13:17:41.479Z</time></trkpt><trkpt lat="45.5817015" lon="9.4098683"><ele>171.0</ele><time>2026-04-14T13:17:42.478Z</time></trkpt><trkpt lat="45.5816216" lon="9.4099017"><ele>171.0</ele><time>2026-04-14T13:17:44.479Z</time></trkpt><trkpt lat="45.581534" lon="9.4099576"><ele>171.0</ele><time>2026-04-14T13:17:45.479Z</time></trkpt><trkpt lat="45.5814688" lon="9.4100439"><ele>171.0</ele><time>2026-04-14T13:17:46.479Z</time></trkpt><trkpt lat="45.5814014" lon="9.410084"><ele>171.0</ele><time>2026-04-14T13:17:47.479Z</time></trkpt><trkpt lat="45.5812937" lon="9.4101858"><ele>171.0</ele><time>2026-04-14T13:17:49.479Z</time></trkpt><trkpt lat="45.5812514" lon="9.4102742"><ele>171.0</ele><time>2026-04-14T13:17:51.479Z</time></trkpt><trkpt lat="45.5811783" lon="9.4104022"><ele>171.0</ele><time>2026-04-14T13:17:53.479Z</time></trkpt><trkpt lat="45.5811074" lon="9.4105023"><ele>171.0</ele><time>2026-04-14T13:17:54.479Z</time></trkpt><trkpt lat="45.58108" lon="9.4105835"><ele>171.0</ele><time>2026-04-14T13:17:55.478Z</time></trkpt><trkpt lat="45.5810142" lon="9.4106804"><ele>171.0</ele><time>2026-04-14T13:17:56.478Z</time></trkpt><trkpt lat="45.5809554" lon="9.4107572"><ele>171.0</ele><time>2026-04-14T13:17:57.479Z</time></trkpt><trkpt lat="45.580854" lon="9.4108587"><ele>171.0</ele><time>2026-04-14T13:17:58.479Z</time></trkpt><trkpt lat="45.5807923" lon="9.4109371"><ele>171.0</ele><time>2026-04-14T13:17:59.478Z</time></trkpt><trkpt lat="45.5807525" lon="9.4110287"><ele>171.0</ele><time>2026-04-14T13:18:00.479Z</time></trkpt><trkpt lat="45.5806927" lon="9.4110885"><ele>171.0</ele><time>2026-04-14T13:18:01.478Z</time></trkpt><trkpt lat="45.5806226" lon="9.4111353"><ele>171.0</ele><time>2026-04-14T13:18:02.479Z</time></trkpt><trkpt lat="45.580563" lon="9.4111702"><ele>171.0</ele><time>2026-04-14T13:18:03.478Z</time></trkpt><trkpt lat="45.5804364" lon="9.4111488"><ele>171.0</ele><time>2026-04-14T13:18:05.479Z</time></trkpt><trkpt lat="45.5803948" lon="9.4110701"><ele>171.0</ele><time>2026-04-14T13:18:07.479Z</time></trkpt><trkpt lat="45.5803134" lon="9.411057"><ele>171.0</ele><time>2026-04-14T13:18:09.479Z</time></trkpt><trkpt lat="45.5802887" lon="9.4111767"><ele>171.0</ele><time>2026-04-14T13:18:10.478Z</time></trkpt><trkpt lat="45.5802938" lon="9.4113015"><ele>171.0</ele><time>2026-04-14T13:18:14.478Z</time></trkpt><trkpt lat="45.5802948" lon="9.4114376"><ele>171.0</ele><time>2026-04-14T13:18:16.479Z</time></trkpt><trkpt lat="45.5802538" lon="9.411577"><ele>171.0</ele><time>2026-04-14T13:18:18.479Z</time></trkpt><trkpt lat="45.5801784" lon="9.4116686"><ele>171.0</ele><time>2026-04-14T13:18:20.478Z</time></trkpt><trkpt lat="45.5801129" lon="9.4116976"><ele>171.0</ele><time>2026-04-14T13:18:22.479Z</time></trkpt><trkpt lat="45.5800177" lon="9.4117589"><ele>171.0</ele><time>2026-04-14T13:18:24.479Z</time></trkpt><trkpt lat="45.5799005" lon="9.4118424"><ele>171.0</ele><time>2026-04-14T13:18:26.478Z</time></trkpt><trkpt lat="45.5798293" lon="9.4118804"><ele>171.0</ele><time>2026-04-14T13:18:27.479Z</time></trkpt><trkpt lat="45.5797535" lon="9.4119181"><ele>171.0</ele><time>2026-04-14T13:18:28.478Z</time></trkpt><trkpt lat="45.5796459" lon="9.4119998"><ele>171.0</ele><time>2026-04-14T13:18:29.479Z</time></trkpt><trkpt lat="45.579555" lon="9.412038"><ele>171.0</ele><time>2026-04-14T13:18:30.479Z</time></trkpt><trkpt lat="45.5794864" lon="9.4120682"><ele>171.0</ele><time>2026-04-14T13:18:31.479Z</time></trkpt><trkpt lat="45.5793646" lon="9.4121342"><ele>171.0</ele><time>2026-04-14T13:18:33.479Z</time></trkpt><trkpt lat="45.579277" lon="9.4121676"><ele>170.60000000000002</ele><time>2026-04-14T13:18:34.478Z</time></trkpt><trkpt lat="45.5792068" lon="9.4121952"><ele>170.2</ele><time>2026-04-14T13:18:35.478Z</time></trkpt><trkpt lat="45.5790896" lon="9.4122413"><ele>169.8</ele><time>2026-04-14T13:18:37.478Z</time></trkpt><trkpt lat="45.5789743" lon="9.4122735"><ele>169.39999999999998</ele><time>2026-04-14T13:18:39.479Z</time></trkpt><trkpt lat="45.578859" lon="9.4123332"><ele>169.0</ele><time>2026-04-14T13:18:41.478Z</time></trkpt><trkpt lat="45.5787471" lon="9.412386"><ele>169.0</ele><time>2026-04-14T13:18:43.478Z</time></trkpt><trkpt lat="45.5786846" lon="9.4124103"><ele>169.0</ele><time>2026-04-14T13:18:44.478Z</time></trkpt><trkpt lat="45.5786048" lon="9.4124497"><ele>169.0</ele><time>2026-04-14T13:18:46.479Z</time></trkpt><trkpt lat="45.5785129" lon="9.4124978"><ele>169.0</ele><time>2026-04-14T13:18:48.478Z</time></trkpt><trkpt lat="45.5784173" lon="9.4125298"><ele>169.0</ele><time>2026-04-14T13:18:50.479Z</time></trkpt><trkpt lat="45.5783113" lon="9.4125579"><ele>168.66666666666669</ele><time>2026-04-14T13:18:52.479Z</time></trkpt><trkpt lat="45.5782268" lon="9.4125812"><ele>168.33333333333334</ele><time>2026-04-14T13:18:54.478Z</time></trkpt><trkpt lat="45.5781384" lon="9.4125994"><ele>168.0</ele><time>2026-04-14T13:18:56.479Z</time></trkpt><trkpt lat="45.5780645" lon="9.4126166"><ele>167.66666666666666</ele><time>2026-04-14T13:18:57.479Z</time></trkpt><trkpt lat="45.5779927" lon="9.4126302"><ele>167.33333333333331</ele><time>2026-04-14T13:18:58.479Z</time></trkpt><trkpt lat="45.5779227" lon="9.4126384"><ele>167.0</ele><time>2026-04-14T13:18:59.479Z</time></trkpt><trkpt lat="45.577853" lon="9.4126533"><ele>166.39999999999998</ele><time>2026-04-14T13:19:00.479Z</time></trkpt><trkpt lat="45.5777426" lon="9.4126903"><ele>165.79999999999998</ele><time>2026-04-14T13:19:02.478Z</time></trkpt><trkpt lat="45.5776325" lon="9.4127334"><ele>165.2</ele><time>2026-04-14T13:19:04.479Z</time></trkpt><trkpt lat="45.5775609" lon="9.4127554"><ele>164.6</ele><time>2026-04-14T13:19:05.478Z</time></trkpt><trkpt lat="45.5774784" lon="9.4127878"><ele>164.0</ele><time>2026-04-14T13:19:06.479Z</time></trkpt><trkpt lat="45.5774075" lon="9.4128133"><ele>164.0</ele><time>2026-04-14T13:19:07.479Z</time></trkpt><trkpt lat="45.5773246" lon="9.4128455"><ele>164.0</ele><time>2026-04-14T13:19:08.478Z</time></trkpt><trkpt lat="45.5772382" lon="9.412876"><ele>164.0</ele><time>2026-04-14T13:19:09.478Z</time></trkpt><trkpt lat="45.5771652" lon="9.4128978"><ele>164.0</ele><time>2026-04-14T13:19:10.479Z</time></trkpt><trkpt lat="45.577097" lon="9.4129219"><ele>164.0</ele><time>2026-04-14T13:19:11.479Z</time></trkpt><trkpt lat="45.5770352" lon="9.412943"><ele>164.0</ele><time>2026-04-14T13:19:12.478Z</time></trkpt><trkpt lat="45.5769648" lon="9.4129646"><ele>164.16666666666666</ele><time>2026-04-14T13:19:13.479Z</time></trkpt><trkpt lat="45.5768935" lon="9.4129888"><ele>164.33333333333331</ele><time>2026-04-14T13:19:14.479Z</time></trkpt><trkpt lat="45.5768207" lon="9.4130139"><ele>164.5</ele><time>2026-04-14T13:19:15.479Z</time></trkpt><trkpt lat="45.5767411" lon="9.4130356"><ele>164.66666666666666</ele><time>2026-04-14T13:19:16.479Z</time></trkpt><trkpt lat="45.5766561" lon="9.4130674"><ele>164.83333333333334</ele><time>2026-04-14T13:19:17.479Z</time></trkpt><trkpt lat="45.5765866" lon="9.4130963"><ele>165.0</ele><time>2026-04-14T13:19:18.478Z</time></trkpt><trkpt lat="45.5765082" lon="9.4131337"><ele>165.14285714285717</ele><time>2026-04-14T13:19:19.479Z</time></trkpt><trkpt lat="45.5764409" lon="9.4131697"><ele>165.28571428571428</ele><time>2026-04-14T13:19:20.479Z</time></trkpt><trkpt lat="45.5763765" lon="9.4132028"><ele>165.42857142857144</ele><time>2026-04-14T13:19:21.479Z</time></trkpt><trkpt lat="45.5763055" lon="9.4132319"><ele>165.57142857142858</ele><time>2026-04-14T13:19:22.479Z</time></trkpt><trkpt lat="45.5762325" lon="9.4132598"><ele>165.71428571428572</ele><time>2026-04-14T13:19:23.478Z</time></trkpt><trkpt lat="45.5761569" lon="9.4132921"><ele>165.85714285714286</ele><time>2026-04-14T13:19:24.478Z</time></trkpt><trkpt lat="45.5760821" lon="9.4133219"><ele>166.0</ele><time>2026-04-14T13:19:25.479Z</time></trkpt><trkpt lat="45.5760002" lon="9.4133499"><ele>165.66666666666669</ele><time>2026-04-14T13:19:26.478Z</time></trkpt><trkpt lat="45.5759186" lon="9.4133702"><ele>165.33333333333334</ele><time>2026-04-14T13:19:27.479Z</time></trkpt><trkpt lat="45.5758328" lon="9.4133899"><ele>165.0</ele><time>2026-04-14T13:19:28.478Z</time></trkpt><trkpt lat="45.5757351" lon="9.4134056"><ele>164.66666666666666</ele><time>2026-04-14T13:19:29.478Z</time></trkpt><trkpt lat="45.575655" lon="9.4134469"><ele>164.33333333333331</ele><time>2026-04-14T13:19:30.478Z</time></trkpt><trkpt lat="45.5755763" lon="9.413448"><ele>164.0</ele><time>2026-04-14T13:19:31.478Z</time></trkpt><trkpt lat="45.5754671" lon="9.4134915"><ele>163.75</ele><time>2026-04-14T13:19:32.479Z</time></trkpt><trkpt lat="45.5753448" lon="9.4134561"><ele>163.5</ele><time>2026-04-14T13:19:34.478Z</time></trkpt><trkpt lat="45.5752082" lon="9.4134539"><ele>163.25</ele><time>2026-04-14T13:19:35.478Z</time></trkpt><trkpt lat="45.5750751" lon="9.4134587"><ele>163.0</ele><time>2026-04-14T13:19:36.479Z</time></trkpt><trkpt lat="45.5749811" lon="9.4134867"><ele>163.0</ele><time>2026-04-14T13:19:37.479Z</time></trkpt><trkpt lat="45.5748558" lon="9.4136261"><ele>163.0</ele><time>2026-04-14T13:19:39.478Z</time></trkpt><trkpt lat="45.5747628" lon="9.413748"><ele>163.0</ele><time>2026-04-14T13:19:41.479Z</time></trkpt><trkpt lat="45.5747012" lon="9.4138479"><ele>163.0</ele><time>2026-04-14T13:19:42.479Z</time></trkpt><trkpt lat="45.5746087" lon="9.4139018"><ele>163.2</ele><time>2026-04-14T13:19:43.478Z</time></trkpt><trkpt lat="45.5745166" lon="9.4139527"><ele>163.4</ele><time>2026-04-14T13:19:44.479Z</time></trkpt><trkpt lat="45.5743759" lon="9.4140163"><ele>163.6</ele><time>2026-04-14T13:19:46.479Z</time></trkpt><trkpt lat="45.5743019" lon="9.4140475"><ele>163.79999999999998</ele><time>2026-04-14T13:19:47.479Z</time></trkpt><trkpt lat="45.5742402" lon="9.4140724"><ele>164.0</ele><time>2026-04-14T13:19:48.478Z</time></trkpt><trkpt lat="45.5741798" lon="9.4141018"><ele>164.0</ele><time>2026-04-14T13:19:49.478Z</time></trkpt><trkpt lat="45.574035" lon="9.4141429"><ele>164.0</ele><time>2026-04-14T13:19:51.479Z</time></trkpt><trkpt lat="45.5739314" lon="9.4141682"><ele>164.0</ele><time>2026-04-14T13:19:52.479Z</time></trkpt><trkpt lat="45.5738423" lon="9.4142103"><ele>164.0</ele><time>2026-04-14T13:19:53.478Z</time></trkpt><trkpt lat="45.5737692" lon="9.4142184"><ele>164.0</ele><time>2026-04-14T13:19:54.478Z</time></trkpt><trkpt lat="45.5736922" lon="9.4142497"><ele>163.5</ele><time>2026-04-14T13:19:55.479Z</time></trkpt><trkpt lat="45.57354" lon="9.4142931"><ele>163.0</ele><time>2026-04-14T13:19:57.478Z</time></trkpt><trkpt lat="45.5734554" lon="9.4142897"><ele>162.5</ele><time>2026-04-14T13:19:58.478Z</time></trkpt><trkpt lat="45.5733587" lon="9.4143235"><ele>162.0</ele><time>2026-04-14T13:19:59.479Z</time></trkpt><trkpt lat="45.5732114" lon="9.4143992"><ele>162.0</ele><time>2026-04-14T13:20:01.478Z</time></trkpt><trkpt lat="45.573129" lon="9.4144504"><ele>162.0</ele><time>2026-04-14T13:20:02.479Z</time></trkpt><trkpt lat="45.5730253" lon="9.4145044"><ele>162.0</ele><time>2026-04-14T13:20:03.478Z</time></trkpt><trkpt lat="45.5729547" lon="9.4144977"><ele>162.0</ele><time>2026-04-14T13:20:04.478Z</time></trkpt><trkpt lat="45.5728526" lon="9.414572"><ele>162.0</ele><time>2026-04-14T13:20:05.478Z</time></trkpt><trkpt lat="45.5727625" lon="9.4145846"><ele>161.66666666666666</ele><time>2026-04-14T13:20:06.479Z</time></trkpt><trkpt lat="45.5726646" lon="9.4146405"><ele>161.33333333333334</ele><time>2026-04-14T13:20:07.478Z</time></trkpt><trkpt lat="45.572584" lon="9.4146736"><ele>161.0</ele><time>2026-04-14T13:20:08.479Z</time></trkpt><trkpt lat="45.5725205" lon="9.4146781"><ele>160.66666666666669</ele><time>2026-04-14T13:20:09.479Z</time></trkpt><trkpt lat="45.5724216" lon="9.4146838"><ele>160.33333333333334</ele><time>2026-04-14T13:20:10.478Z</time></trkpt><trkpt lat="45.5723348" lon="9.4147318"><ele>160.0</ele><time>2026-04-14T13:20:11.479Z</time></trkpt><trkpt lat="45.5722748" lon="9.4147684"><ele>160.0</ele><time>2026-04-14T13:20:12.479Z</time></trkpt><trkpt lat="45.5721753" lon="9.4147824"><ele>160.0</ele><time>2026-04-14T13:20:13.479Z</time></trkpt><trkpt lat="45.5720979" lon="9.4148278"><ele>160.0</ele><time>2026-04-14T13:20:14.478Z</time></trkpt><trkpt lat="45.5720146" lon="9.4148684"><ele>160.0</ele><time>2026-04-14T13:20:15.479Z</time></trkpt><trkpt lat="45.5719332" lon="9.4149205"><ele>160.0</ele><time>2026-04-14T13:20:16.478Z</time></trkpt><trkpt lat="45.5718658" lon="9.4149033"><ele>160.0</ele><time>2026-04-14T13:20:17.478Z</time></trkpt><trkpt lat="45.5718018" lon="9.414917"><ele>159.4</ele><time>2026-04-14T13:20:18.479Z</time></trkpt><trkpt lat="45.5717079" lon="9.4149517"><ele>158.8</ele><time>2026-04-14T13:20:19.479Z</time></trkpt><trkpt lat="45.5716318" lon="9.4150024"><ele>158.2</ele><time>2026-04-14T13:20:20.479Z</time></trkpt><trkpt lat="45.5715506" lon="9.4150482"><ele>157.6</ele><time>2026-04-14T13:20:21.479Z</time></trkpt><trkpt lat="45.5714446" lon="9.4151025"><ele>157.0</ele><time>2026-04-14T13:20:22.479Z</time></trkpt><trkpt lat="45.5713553" lon="9.4151092"><ele>157.0</ele><time>2026-04-14T13:20:24.478Z</time></trkpt><trkpt lat="45.5712484" lon="9.41515"><ele>157.0</ele><time>2026-04-14T13:20:25.479Z</time></trkpt><trkpt lat="45.5711824" lon="9.4151493"><ele>157.0</ele><time>2026-04-14T13:20:26.479Z</time></trkpt><trkpt lat="45.5710853" lon="9.4151434"><ele>157.0</ele><time>2026-04-14T13:20:28.479Z</time></trkpt><trkpt lat="45.5709793" lon="9.4151853"><ele>157.0</ele><time>2026-04-14T13:20:29.479Z</time></trkpt><trkpt lat="45.5708941" lon="9.4152406"><ele>157.25</ele><time>2026-04-14T13:20:30.478Z</time></trkpt><trkpt lat="45.570783" lon="9.4153139"><ele>157.5</ele><time>2026-04-14T13:20:31.478Z</time></trkpt><trkpt lat="45.5706796" lon="9.4153541"><ele>157.75</ele><time>2026-04-14T13:20:32.478Z</time></trkpt><trkpt lat="45.570593" lon="9.4153904"><ele>158.0</ele><time>2026-04-14T13:20:33.479Z</time></trkpt><trkpt lat="45.5704507" lon="9.4154455"><ele>158.0</ele><time>2026-04-14T13:20:34.479Z</time></trkpt><trkpt lat="45.5703366" lon="9.4155263"><ele>158.0</ele><time>2026-04-14T13:20:35.479Z</time></trkpt><trkpt lat="45.5702336" lon="9.4155435"><ele>158.0</ele><time>2026-04-14T13:20:36.479Z</time></trkpt><trkpt lat="45.5701141" lon="9.4155514"><ele>158.0</ele><time>2026-04-14T13:20:38.479Z</time></trkpt><trkpt lat="45.5700248" lon="9.4156086"><ele>158.0</ele><time>2026-04-14T13:20:39.479Z</time></trkpt><trkpt lat="45.5699639" lon="9.4156412"><ele>158.0</ele><time>2026-04-14T13:20:40.478Z</time></trkpt><trkpt lat="45.5698815" lon="9.4156463"><ele>158.0</ele><time>2026-04-14T13:20:42.479Z</time></trkpt><trkpt lat="45.5697761" lon="9.4156141"><ele>158.0</ele><time>2026-04-14T13:20:44.479Z</time></trkpt><trkpt lat="45.5696465" lon="9.4156186"><ele>158.0</ele><time>2026-04-14T13:20:46.479Z</time></trkpt><trkpt lat="45.5695527" lon="9.4156671"><ele>158.0</ele><time>2026-04-14T13:20:48.478Z</time></trkpt><trkpt lat="45.569494" lon="9.4157102"><ele>157.8</ele><time>2026-04-14T13:20:49.479Z</time></trkpt><trkpt lat="45.5693905" lon="9.4157967"><ele>157.60000000000002</ele><time>2026-04-14T13:20:51.478Z</time></trkpt><trkpt lat="45.5693387" lon="9.4158584"><ele>157.39999999999998</ele><time>2026-04-14T13:20:52.478Z</time></trkpt><trkpt lat="45.5692633" lon="9.4159009"><ele>157.2</ele><time>2026-04-14T13:20:53.478Z</time></trkpt><trkpt lat="45.5691545" lon="9.4159616"><ele>157.0</ele><time>2026-04-14T13:20:55.478Z</time></trkpt><trkpt lat="45.5690391" lon="9.4160276"><ele>157.0</ele><time>2026-04-14T13:20:57.479Z</time></trkpt><trkpt lat="45.5689161" lon="9.4160966"><ele>157.0</ele><time>2026-04-14T13:20:59.479Z</time></trkpt><trkpt lat="45.5688378" lon="9.4161331"><ele>157.0</ele><time>2026-04-14T13:21:00.479Z</time></trkpt><trkpt lat="45.5687807" lon="9.416175"><ele>157.0</ele><time>2026-04-14T13:21:01.479Z</time></trkpt><trkpt lat="45.5686673" lon="9.416237"><ele>157.0</ele><time>2026-04-14T13:21:03.479Z</time></trkpt><trkpt lat="45.5685004" lon="9.4164098"><ele>156.6</ele><time>2026-04-14T13:21:05.478Z</time></trkpt><trkpt lat="45.5684386" lon="9.4164738"><ele>156.2</ele><time>2026-04-14T13:21:06.479Z</time></trkpt><trkpt lat="45.5682939" lon="9.4165547"><ele>155.8</ele><time>2026-04-14T13:21:08.479Z</time></trkpt><trkpt lat="45.5682303" lon="9.4166069"><ele>155.4</ele><time>2026-04-14T13:21:10.478Z</time></trkpt><trkpt lat="45.5681642" lon="9.4166651"><ele>155.0</ele><time>2026-04-14T13:21:11.479Z</time></trkpt><trkpt lat="45.5680754" lon="9.4167306"><ele>155.0</ele><time>2026-04-14T13:21:12.479Z</time></trkpt><trkpt lat="45.5679714" lon="9.4168409"><ele>155.0</ele><time>2026-04-14T13:21:14.479Z</time></trkpt><trkpt lat="45.5678992" lon="9.4169141"><ele>155.0</ele><time>2026-04-14T13:21:15.479Z</time></trkpt><trkpt lat="45.5678059" lon="9.4170311"><ele>155.0</ele><time>2026-04-14T13:21:17.479Z</time></trkpt><trkpt lat="45.5677371" lon="9.4171126"><ele>155.0</ele><time>2026-04-14T13:21:18.478Z</time></trkpt><trkpt lat="45.5676697" lon="9.4171887"><ele>155.33333333333331</ele><time>2026-04-14T13:21:19.478Z</time></trkpt><trkpt lat="45.5675836" lon="9.4172895"><ele>155.66666666666666</ele><time>2026-04-14T13:21:20.479Z</time></trkpt><trkpt lat="45.567516" lon="9.4173721"><ele>156.0</ele><time>2026-04-14T13:21:21.478Z</time></trkpt><trkpt lat="45.5674669" lon="9.41745"><ele>156.33333333333334</ele><time>2026-04-14T13:21:22.479Z</time></trkpt><trkpt lat="45.5673916" lon="9.417541"><ele>156.66666666666669</ele><time>2026-04-14T13:21:23.479Z</time></trkpt><trkpt lat="45.5673473" lon="9.4176215"><ele>157.0</ele><time>2026-04-14T13:21:24.479Z</time></trkpt><trkpt lat="45.5672622" lon="9.4177393"><ele>157.0</ele><time>2026-04-14T13:21:26.478Z</time></trkpt><trkpt lat="45.5672108" lon="9.4178143"><ele>157.0</ele><time>2026-04-14T13:21:27.478Z</time></trkpt><trkpt lat="45.5671452" lon="9.4179225"><ele>157.0</ele><time>2026-04-14T13:21:28.479Z</time></trkpt><trkpt lat="45.5671447" lon="9.4180136"><ele>157.0</ele><time>2026-04-14T13:21:29.479Z</time></trkpt><trkpt lat="45.5670785" lon="9.418104"><ele>157.0</ele><time>2026-04-14T13:21:30.479Z</time></trkpt><trkpt lat="45.567034" lon="9.4181914"><ele>157.0</ele><time>2026-04-14T13:21:31.479Z</time></trkpt><trkpt lat="45.5669902" lon="9.4182801"><ele>156.66666666666669</ele><time>2026-04-14T13:21:32.479Z</time></trkpt><trkpt lat="45.5669416" lon="9.4183762"><ele>156.33333333333334</ele><time>2026-04-14T13:21:33.479Z</time></trkpt><trkpt lat="45.5668922" lon="9.4184969"><ele>156.0</ele><time>2026-04-14T13:21:34.479Z</time></trkpt><trkpt lat="45.5668715" lon="9.4185847"><ele>155.66666666666666</ele><time>2026-04-14T13:21:35.479Z</time></trkpt><trkpt lat="45.5667849" lon="9.4186742"><ele>155.33333333333331</ele><time>2026-04-14T13:21:36.479Z</time></trkpt><trkpt lat="45.5667421" lon="9.418759"><ele>155.0</ele><time>2026-04-14T13:21:37.479Z</time></trkpt><trkpt lat="45.5667391" lon="9.4188705"><ele>155.0</ele><time>2026-04-14T13:21:38.479Z</time></trkpt><trkpt lat="45.5666862" lon="9.4189754"><ele>155.0</ele><time>2026-04-14T13:21:39.479Z</time></trkpt><trkpt lat="45.5666241" lon="9.4190689"><ele>155.0</ele><time>2026-04-14T13:21:40.479Z</time></trkpt><trkpt lat="45.5666008" lon="9.4191618"><ele>155.0</ele><time>2026-04-14T13:21:41.479Z</time></trkpt><trkpt lat="45.566587" lon="9.4192498"><ele>155.0</ele><time>2026-04-14T13:21:42.479Z</time></trkpt><trkpt lat="45.5665639" lon="9.4193483"><ele>155.0</ele><time>2026-04-14T13:21:43.478Z</time></trkpt><trkpt lat="45.566515" lon="9.4194482"><ele>155.0</ele><time>2026-04-14T13:21:44.479Z</time></trkpt><trkpt lat="45.5664875" lon="9.4195683"><ele>155.0</ele><time>2026-04-14T13:21:45.478Z</time></trkpt><trkpt lat="45.5664531" lon="9.4196764"><ele>155.0</ele><time>2026-04-14T13:21:46.479Z</time></trkpt><trkpt lat="45.5664075" lon="9.4198"><ele>155.0</ele><time>2026-04-14T13:21:47.479Z</time></trkpt><trkpt lat="45.5663858" lon="9.4199263"><ele>155.0</ele><time>2026-04-14T13:21:48.478Z</time></trkpt><trkpt lat="45.5663803" lon="9.4200459"><ele>155.0</ele><time>2026-04-14T13:21:49.478Z</time></trkpt><trkpt lat="45.5663541" lon="9.420173"><ele>155.0</ele><time>2026-04-14T13:21:50.479Z</time></trkpt><trkpt lat="45.5663343" lon="9.4202857"><ele>155.0</ele><time>2026-04-14T13:21:51.479Z</time></trkpt><trkpt lat="45.5662974" lon="9.4204135"><ele>155.0</ele><time>2026-04-14T13:21:52.479Z</time></trkpt><trkpt lat="45.5662792" lon="9.4205318"><ele>155.0</ele><time>2026-04-14T13:21:53.479Z</time></trkpt><trkpt lat="45.5662719" lon="9.4206464"><ele>155.0</ele><time>2026-04-14T13:21:54.478Z</time></trkpt><trkpt lat="45.566256" lon="9.4207889"><ele>155.0</ele><time>2026-04-14T13:21:55.478Z</time></trkpt><trkpt lat="45.5662561" lon="9.4209033"><ele>155.0</ele><time>2026-04-14T13:21:56.479Z</time></trkpt><trkpt lat="45.5662377" lon="9.4210482"><ele>155.0</ele><time>2026-04-14T13:21:57.479Z</time></trkpt><trkpt lat="45.5662332" lon="9.4211899"><ele>155.0</ele><time>2026-04-14T13:21:58.479Z</time></trkpt><trkpt lat="45.566206" lon="9.4213536"><ele>155.0</ele><time>2026-04-14T13:21:59.479Z</time></trkpt><trkpt lat="45.5662287" lon="9.4214546"><ele>155.0</ele><time>2026-04-14T13:22:00.478Z</time></trkpt><trkpt lat="45.5662085" lon="9.4215717"><ele>154.83333333333331</ele><time>2026-04-14T13:22:01.479Z</time></trkpt><trkpt lat="45.5662415" lon="9.4216759"><ele>154.66666666666666</ele><time>2026-04-14T13:22:02.478Z</time></trkpt><trkpt lat="45.5662299" lon="9.4217938"><ele>154.5</ele><time>2026-04-14T13:22:03.479Z</time></trkpt><trkpt lat="45.5662369" lon="9.4219361"><ele>154.33333333333334</ele><time>2026-04-14T13:22:04.479Z</time></trkpt><trkpt lat="45.5662355" lon="9.4220534"><ele>154.16666666666669</ele><time>2026-04-14T13:22:05.479Z</time></trkpt><trkpt lat="45.5662263" lon="9.4221868"><ele>154.0</ele><time>2026-04-14T13:22:06.478Z</time></trkpt><trkpt lat="45.566238" lon="9.4223027"><ele>154.0</ele><time>2026-04-14T13:22:07.478Z</time></trkpt><trkpt lat="45.5662592" lon="9.4223971"><ele>154.0</ele><time>2026-04-14T13:22:08.478Z</time></trkpt><trkpt lat="45.5662673" lon="9.422533"><ele>154.0</ele><time>2026-04-14T13:22:09.478Z</time></trkpt><trkpt lat="45.5662713" lon="9.4226563"><ele>154.0</ele><time>2026-04-14T13:22:10.479Z</time></trkpt><trkpt lat="45.5663014" lon="9.422784"><ele>154.0</ele><time>2026-04-14T13:22:11.479Z</time></trkpt><trkpt lat="45.5663098" lon="9.4229036"><ele>154.0</ele><time>2026-04-14T13:22:12.479Z</time></trkpt><trkpt lat="45.5663189" lon="9.423023"><ele>154.0</ele><time>2026-04-14T13:22:13.478Z</time></trkpt><trkpt lat="45.5663097" lon="9.4231306"><ele>154.0</ele><time>2026-04-14T13:22:14.479Z</time></trkpt><trkpt lat="45.566321" lon="9.4232662"><ele>154.0</ele><time>2026-04-14T13:22:15.479Z</time></trkpt><trkpt lat="45.5663351" lon="9.4233571"><ele>154.0</ele><time>2026-04-14T13:22:16.479Z</time></trkpt><trkpt lat="45.5663164" lon="9.4234698"><ele>154.0</ele><time>2026-04-14T13:22:17.478Z</time></trkpt><trkpt lat="45.5663682" lon="9.4236012"><ele>154.0</ele><time>2026-04-14T13:22:18.479Z</time></trkpt><trkpt lat="45.5663761" lon="9.4237352"><ele>153.8</ele><time>2026-04-14T13:22:19.478Z</time></trkpt><trkpt lat="45.5663788" lon="9.4238497"><ele>153.60000000000002</ele><time>2026-04-14T13:22:20.479Z</time></trkpt><trkpt lat="45.5664137" lon="9.4239874"><ele>153.4</ele><time>2026-04-14T13:22:21.478Z</time></trkpt><trkpt lat="45.5664339" lon="9.4241019"><ele>153.20000000000002</ele><time>2026-04-14T13:22:22.479Z</time></trkpt><trkpt lat="45.5664511" lon="9.4242463"><ele>153.0</ele><time>2026-04-14T13:22:23.479Z</time></trkpt><trkpt lat="45.5664842" lon="9.4243665"><ele>153.0</ele><time>2026-04-14T13:22:24.479Z</time></trkpt><trkpt lat="45.5664909" lon="9.4245103"><ele>153.0</ele><time>2026-04-14T13:22:25.478Z</time></trkpt><trkpt lat="45.5665383" lon="9.4246263"><ele>153.0</ele><time>2026-04-14T13:22:26.478Z</time></trkpt><trkpt lat="45.5665745" lon="9.4247492"><ele>153.0</ele><time>2026-04-14T13:22:27.479Z</time></trkpt><trkpt lat="45.5666242" lon="9.4249056"><ele>153.0</ele><time>2026-04-14T13:22:28.478Z</time></trkpt><trkpt lat="45.5666315" lon="9.4250179"><ele>152.83333333333334</ele><time>2026-04-14T13:22:29.479Z</time></trkpt><trkpt lat="45.566632" lon="9.4251414"><ele>152.66666666666666</ele><time>2026-04-14T13:22:30.478Z</time></trkpt><trkpt lat="45.5666747" lon="9.4252648"><ele>152.5</ele><time>2026-04-14T13:22:31.478Z</time></trkpt><trkpt lat="45.5667102" lon="9.425357"><ele>152.33333333333331</ele><time>2026-04-14T13:22:32.478Z</time></trkpt><trkpt lat="45.566717" lon="9.4254918"><ele>152.16666666666666</ele><time>2026-04-14T13:22:33.479Z</time></trkpt><trkpt lat="45.5667405" lon="9.4256229"><ele>152.0</ele><time>2026-04-14T13:22:34.478Z</time></trkpt><trkpt lat="45.5667582" lon="9.4257283"><ele>152.0</ele><time>2026-04-14T13:22:35.479Z</time></trkpt><trkpt lat="45.5667622" lon="9.4258286"><ele>152.0</ele><time>2026-04-14T13:22:36.478Z</time></trkpt><trkpt lat="45.5667535" lon="9.4259665"><ele>152.0</ele><time>2026-04-14T13:22:37.479Z</time></trkpt><trkpt lat="45.5667737" lon="9.4260728"><ele>152.0</ele><time>2026-04-14T13:22:38.479Z</time></trkpt><trkpt lat="45.5667771" lon="9.4262086"><ele>152.0</ele><time>2026-04-14T13:22:39.479Z</time></trkpt><trkpt lat="45.5667826" lon="9.4263214"><ele>152.0</ele><time>2026-04-14T13:22:40.479Z</time></trkpt><trkpt lat="45.5667903" lon="9.4264495"><ele>152.0</ele><time>2026-04-14T13:22:41.479Z</time></trkpt><trkpt lat="45.5668213" lon="9.4265844"><ele>152.0</ele><time>2026-04-14T13:22:42.479Z</time></trkpt><trkpt lat="45.5668491" lon="9.4267061"><ele>152.0</ele><time>2026-04-14T13:22:43.479Z</time></trkpt><trkpt lat="45.5668782" lon="9.4268079"><ele>152.0</ele><time>2026-04-14T13:22:44.478Z</time></trkpt><trkpt lat="45.5668946" lon="9.4269222"><ele>152.0</ele><time>2026-04-14T13:22:45.479Z</time></trkpt><trkpt lat="45.5669055" lon="9.427044"><ele>152.0</ele><time>2026-04-14T13:22:46.479Z</time></trkpt><trkpt lat="45.5669339" lon="9.4271546"><ele>152.0</ele><time>2026-04-14T13:22:47.478Z</time></trkpt><trkpt lat="45.566971" lon="9.4272547"><ele>152.0</ele><time>2026-04-14T13:22:48.478Z</time></trkpt><trkpt lat="45.5669958" lon="9.4273984"><ele>152.0</ele><time>2026-04-14T13:22:49.479Z</time></trkpt><trkpt lat="45.5670909" lon="9.4275318"><ele>152.0</ele><time>2026-04-14T13:22:50.478Z</time></trkpt><trkpt lat="45.5670913" lon="9.4276402"><ele>152.0</ele><time>2026-04-14T13:22:51.479Z</time></trkpt><trkpt lat="45.5671566" lon="9.4277545"><ele>152.0</ele><time>2026-04-14T13:22:52.478Z</time></trkpt><trkpt lat="45.5672098" lon="9.4278777"><ele>152.0</ele><time>2026-04-14T13:22:53.479Z</time></trkpt><trkpt lat="45.5672142" lon="9.4280216"><ele>152.0</ele><time>2026-04-14T13:22:54.479Z</time></trkpt><trkpt lat="45.5672179" lon="9.4281409"><ele>152.0</ele><time>2026-04-14T13:22:55.479Z</time></trkpt><trkpt lat="45.5672343" lon="9.4282521"><ele>152.0</ele><time>2026-04-14T13:22:56.478Z</time></trkpt><trkpt lat="45.5672521" lon="9.4283746"><ele>152.28571428571428</ele><time>2026-04-14T13:22:57.478Z</time></trkpt><trkpt lat="45.5672709" lon="9.4284623"><ele>152.57142857142858</ele><time>2026-04-14T13:22:58.478Z</time></trkpt><trkpt lat="45.5673065" lon="9.4285785"><ele>152.85714285714286</ele><time>2026-04-14T13:22:59.479Z</time></trkpt><trkpt lat="45.5673473" lon="9.428657"><ele>153.14285714285714</ele><time>2026-04-14T13:23:00.479Z</time></trkpt><trkpt lat="45.5673834" lon="9.4287353"><ele>153.42857142857144</ele><time>2026-04-14T13:23:01.479Z</time></trkpt><trkpt lat="45.5674079" lon="9.4288237"><ele>153.71428571428572</ele><time>2026-04-14T13:23:02.479Z</time></trkpt><trkpt lat="45.5674466" lon="9.4289343"><ele>154.0</ele><time>2026-04-14T13:23:03.479Z</time></trkpt><trkpt lat="45.5674804" lon="9.4290206"><ele>154.2</ele><time>2026-04-14T13:23:04.479Z</time></trkpt><trkpt lat="45.567511" lon="9.429227"><ele>154.4</ele><time>2026-04-14T13:23:06.479Z</time></trkpt><trkpt lat="45.567521" lon="9.4293239"><ele>154.6</ele><time>2026-04-14T13:23:07.478Z</time></trkpt><trkpt lat="45.5675267" lon="9.4294481"><ele>154.8</ele><time>2026-04-14T13:23:08.478Z</time></trkpt><trkpt lat="45.5675125" lon="9.4295631"><ele>155.0</ele><time>2026-04-14T13:23:09.478Z</time></trkpt><trkpt lat="45.5674464" lon="9.4296304"><ele>155.0</ele><time>2026-04-14T13:23:10.478Z</time></trkpt><trkpt lat="45.5673911" lon="9.4297162"><ele>155.0</ele><time>2026-04-14T13:23:11.479Z</time></trkpt><trkpt lat="45.5673677" lon="9.4298136"><ele>155.0</ele><time>2026-04-14T13:23:12.479Z</time></trkpt><trkpt lat="45.5672695" lon="9.4298668"><ele>155.0</ele><time>2026-04-14T13:23:13.478Z</time></trkpt><trkpt lat="45.5671699" lon="9.4299107"><ele>155.0</ele><time>2026-04-14T13:23:14.479Z</time></trkpt><trkpt lat="45.5670683" lon="9.4299638"><ele>154.8</ele><time>2026-04-14T13:23:15.479Z</time></trkpt><trkpt lat="45.5669775" lon="9.43"><ele>154.6</ele><time>2026-04-14T13:23:16.478Z</time></trkpt><trkpt lat="45.5668589" lon="9.4300312"><ele>154.4</ele><time>2026-04-14T13:23:18.479Z</time></trkpt><trkpt lat="45.5667944" lon="9.4300567"><ele>154.2</ele><time>2026-04-14T13:23:19.479Z</time></trkpt><trkpt lat="45.5666978" lon="9.4301139"><ele>154.0</ele><time>2026-04-14T13:23:20.479Z</time></trkpt><trkpt lat="45.566615" lon="9.430141"><ele>154.0</ele><time>2026-04-14T13:23:21.479Z</time></trkpt><trkpt lat="45.5665308" lon="9.4301655"><ele>154.0</ele><time>2026-04-14T13:23:22.479Z</time></trkpt><trkpt lat="45.5664499" lon="9.4302003"><ele>154.0</ele><time>2026-04-14T13:23:23.479Z</time></trkpt><trkpt lat="45.566385" lon="9.430237"><ele>154.0</ele><time>2026-04-14T13:23:24.479Z</time></trkpt><trkpt lat="45.5663214" lon="9.4302768"><ele>154.0</ele><time>2026-04-14T13:23:25.478Z</time></trkpt><trkpt lat="45.5662642" lon="9.4303183"><ele>154.0</ele><time>2026-04-14T13:23:26.478Z</time></trkpt><trkpt lat="45.5661096" lon="9.4303884"><ele>153.66666666666669</ele><time>2026-04-14T13:23:28.478Z</time></trkpt><trkpt lat="45.5660439" lon="9.4304633"><ele>153.33333333333334</ele><time>2026-04-14T13:23:29.478Z</time></trkpt><trkpt lat="45.5659806" lon="9.4304597"><ele>153.0</ele><time>2026-04-14T13:23:30.479Z</time></trkpt><trkpt lat="45.5658967" lon="9.4305037"><ele>152.66666666666666</ele><time>2026-04-14T13:23:31.479Z</time></trkpt><trkpt lat="45.5658189" lon="9.43052"><ele>152.33333333333331</ele><time>2026-04-14T13:23:32.478Z</time></trkpt><trkpt lat="45.5657507" lon="9.4305151"><ele>152.0</ele><time>2026-04-14T13:23:33.479Z</time></trkpt><trkpt lat="45.5655561" lon="9.4305698"><ele>151.6</ele><time>2026-04-14T13:23:36.483Z</time></trkpt><trkpt lat="45.5654869" lon="9.4306172"><ele>151.2</ele><time>2026-04-14T13:23:37.483Z</time></trkpt><trkpt lat="45.565399" lon="9.4306277"><ele>150.8</ele><time>2026-04-14T13:23:38.485Z</time></trkpt><trkpt lat="45.5653264" lon="9.4306659"><ele>150.4</ele><time>2026-04-14T13:23:39.486Z</time></trkpt><trkpt lat="45.5652647" lon="9.4307033"><ele>150.0</ele><time>2026-04-14T13:23:40.483Z</time></trkpt><trkpt lat="45.5651309" lon="9.4307696"><ele>150.0</ele><time>2026-04-14T13:23:42.484Z</time></trkpt><trkpt lat="45.565052" lon="9.4307993"><ele>150.0</ele><time>2026-04-14T13:23:43.484Z</time></trkpt><trkpt lat="45.5649774" lon="9.4308477"><ele>150.0</ele><time>2026-04-14T13:23:44.484Z</time></trkpt><trkpt lat="45.5649181" lon="9.4308928"><ele>150.0</ele><time>2026-04-14T13:23:45.484Z</time></trkpt><trkpt lat="45.5648367" lon="9.4309433"><ele>150.0</ele><time>2026-04-14T13:23:46.484Z</time></trkpt><trkpt lat="45.564759" lon="9.430974"><ele>150.0</ele><time>2026-04-14T13:23:47.484Z</time></trkpt><trkpt lat="45.5646914" lon="9.4309592"><ele>150.0</ele><time>2026-04-14T13:23:48.484Z</time></trkpt><trkpt lat="45.5645808" lon="9.4309793"><ele>150.0</ele><time>2026-04-14T13:23:49.484Z</time></trkpt><trkpt lat="45.5645128" lon="9.4309909"><ele>150.0</ele><time>2026-04-14T13:23:50.484Z</time></trkpt><trkpt lat="45.5644197" lon="9.431053"><ele>150.0</ele><time>2026-04-14T13:23:51.484Z</time></trkpt><trkpt lat="45.5643326" lon="9.4311014"><ele>150.0</ele><time>2026-04-14T13:23:52.484Z</time></trkpt><trkpt lat="45.5642522" lon="9.431142"><ele>150.0</ele><time>2026-04-14T13:23:53.484Z</time></trkpt><trkpt lat="45.5641656" lon="9.4312131"><ele>150.0</ele><time>2026-04-14T13:23:54.484Z</time></trkpt><trkpt lat="45.5640712" lon="9.4312584"><ele>150.0</ele><time>2026-04-14T13:23:55.484Z</time></trkpt><trkpt lat="45.5639967" lon="9.4312765"><ele>150.0</ele><time>2026-04-14T13:23:56.484Z</time></trkpt><trkpt lat="45.5639179" lon="9.4312724"><ele>150.0</ele><time>2026-04-14T13:23:57.484Z</time></trkpt><trkpt lat="45.5637714" lon="9.4312861"><ele>149.8</ele><time>2026-04-14T13:23:59.484Z</time></trkpt><trkpt lat="45.5636604" lon="9.4313395"><ele>149.6</ele><time>2026-04-14T13:24:00.483Z</time></trkpt><trkpt lat="45.5635965" lon="9.4313587"><ele>149.4</ele><time>2026-04-14T13:24:01.484Z</time></trkpt><trkpt lat="45.5635126" lon="9.4314021"><ele>149.2</ele><time>2026-04-14T13:24:02.484Z</time></trkpt><trkpt lat="45.5634236" lon="9.4314387"><ele>149.0</ele><time>2026-04-14T13:24:03.484Z</time></trkpt><trkpt lat="45.5633124" lon="9.4314972"><ele>149.0</ele><time>2026-04-14T13:24:04.484Z</time></trkpt><trkpt lat="45.5632227" lon="9.4315508"><ele>149.0</ele><time>2026-04-14T13:24:05.483Z</time></trkpt><trkpt lat="45.5631371" lon="9.4315875"><ele>149.0</ele><time>2026-04-14T13:24:06.483Z</time></trkpt><trkpt lat="45.5630103" lon="9.4316491"><ele>149.0</ele><time>2026-04-14T13:24:08.484Z</time></trkpt><trkpt lat="45.5629224" lon="9.4316727"><ele>149.0</ele><time>2026-04-14T13:24:10.483Z</time></trkpt><trkpt lat="45.5628017" lon="9.431698"><ele>148.66666666666666</ele><time>2026-04-14T13:24:11.483Z</time></trkpt><trkpt lat="45.5627262" lon="9.4317331"><ele>148.33333333333331</ele><time>2026-04-14T13:24:12.484Z</time></trkpt><trkpt lat="45.5626608" lon="9.4317692"><ele>148.0</ele><time>2026-04-14T13:24:13.483Z</time></trkpt><trkpt lat="45.5625809" lon="9.4317994"><ele>147.66666666666666</ele><time>2026-04-14T13:24:14.484Z</time></trkpt><trkpt lat="45.5625094" lon="9.4318367"><ele>147.33333333333334</ele><time>2026-04-14T13:24:15.483Z</time></trkpt><trkpt lat="45.5624249" lon="9.4318656"><ele>147.0</ele><time>2026-04-14T13:24:16.483Z</time></trkpt><trkpt lat="45.5623554" lon="9.4318744"><ele>147.0</ele><time>2026-04-14T13:24:17.483Z</time></trkpt><trkpt lat="45.5622855" lon="9.4319275"><ele>147.0</ele><time>2026-04-14T13:24:18.484Z</time></trkpt><trkpt lat="45.5621639" lon="9.4319905"><ele>147.0</ele><time>2026-04-14T13:24:19.484Z</time></trkpt><trkpt lat="45.56205" lon="9.4320194"><ele>147.0</ele><time>2026-04-14T13:24:21.483Z</time></trkpt><trkpt lat="45.5619522" lon="9.4320672"><ele>147.0</ele><time>2026-04-14T13:24:22.484Z</time></trkpt><trkpt lat="45.5618834" lon="9.4321005"><ele>147.0</ele><time>2026-04-14T13:24:23.484Z</time></trkpt><trkpt lat="45.5618068" lon="9.43211"><ele>147.0</ele><time>2026-04-14T13:24:24.483Z</time></trkpt><trkpt lat="45.5616594" lon="9.4321397"><ele>147.0</ele><time>2026-04-14T13:24:26.484Z</time></trkpt><trkpt lat="45.5615918" lon="9.4321572"><ele>147.0</ele><time>2026-04-14T13:24:27.484Z</time></trkpt><trkpt lat="45.5614884" lon="9.4322124"><ele>147.0</ele><time>2026-04-14T13:24:28.484Z</time></trkpt><trkpt lat="45.5614006" lon="9.4322594"><ele>147.0</ele><time>2026-04-14T13:24:29.483Z</time></trkpt><trkpt lat="45.5612515" lon="9.432304"><ele>147.0</ele><time>2026-04-14T13:24:31.483Z</time></trkpt><trkpt lat="45.5611611" lon="9.4323433"><ele>147.0</ele><time>2026-04-14T13:24:32.484Z</time></trkpt><trkpt lat="45.5610596" lon="9.4323849"><ele>147.0</ele><time>2026-04-14T13:24:33.483Z</time></trkpt><trkpt lat="45.560978" lon="9.4324203"><ele>147.0</ele><time>2026-04-14T13:24:34.483Z</time></trkpt><trkpt lat="45.5609092" lon="9.4324671"><ele>147.2</ele><time>2026-04-14T13:24:35.484Z</time></trkpt><trkpt lat="45.5607802" lon="9.4324713"><ele>147.39999999999998</ele><time>2026-04-14T13:24:38.484Z</time></trkpt><trkpt lat="45.5606971" lon="9.4325117"><ele>147.60000000000002</ele><time>2026-04-14T13:24:39.484Z</time></trkpt><trkpt lat="45.56056" lon="9.4325782"><ele>147.8</ele><time>2026-04-14T13:24:43.483Z</time></trkpt><trkpt lat="45.5604955" lon="9.4326293"><ele>148.0</ele><time>2026-04-14T13:24:45.484Z</time></trkpt><trkpt lat="45.5604342" lon="9.4326699"><ele>148.20000000000002</ele><time>2026-04-14T13:24:47.484Z</time></trkpt><trkpt lat="45.5603182" lon="9.4326954"><ele>148.4</ele><time>2026-04-14T13:24:49.483Z</time></trkpt><trkpt lat="45.5602047" lon="9.4326432"><ele>148.60000000000002</ele><time>2026-04-14T13:24:51.484Z</time></trkpt><trkpt lat="45.5601363" lon="9.4326237"><ele>148.8</ele><time>2026-04-14T13:24:52.484Z</time></trkpt><trkpt lat="45.5600726" lon="9.432627"><ele>149.0</ele><time>2026-04-14T13:24:53.484Z</time></trkpt><trkpt lat="45.5599595" lon="9.4326727"><ele>149.0</ele><time>2026-04-14T13:24:55.484Z</time></trkpt><trkpt lat="45.5598386" lon="9.4327257"><ele>149.0</ele><time>2026-04-14T13:24:57.483Z</time></trkpt><trkpt lat="45.559769" lon="9.4327704"><ele>149.0</ele><time>2026-04-14T13:24:58.484Z</time></trkpt><trkpt lat="45.5596202" lon="9.4328319"><ele>149.0</ele><time>2026-04-14T13:24:59.483Z</time></trkpt><trkpt lat="45.5594966" lon="9.4328698"><ele>148.6</ele><time>2026-04-14T13:25:01.483Z</time></trkpt><trkpt lat="45.559433" lon="9.4329085"><ele>148.2</ele><time>2026-04-14T13:25:02.484Z</time></trkpt><trkpt lat="45.5592929" lon="9.4329249"><ele>147.79999999999998</ele><time>2026-04-14T13:25:04.483Z</time></trkpt><trkpt lat="45.5592178" lon="9.432919"><ele>147.4</ele><time>2026-04-14T13:25:05.483Z</time></trkpt><trkpt lat="45.5591289" lon="9.4329752"><ele>147.0</ele><time>2026-04-14T13:25:06.483Z</time></trkpt><trkpt lat="45.559022" lon="9.4330532"><ele>147.0</ele><time>2026-04-14T13:25:07.484Z</time></trkpt><trkpt lat="45.5589375" lon="9.4330544"><ele>147.0</ele><time>2026-04-14T13:25:09.484Z</time></trkpt><trkpt lat="45.558855" lon="9.4331057"><ele>147.0</ele><time>2026-04-14T13:25:10.483Z</time></trkpt><trkpt lat="45.5587657" lon="9.433189"><ele>147.0</ele><time>2026-04-14T13:25:11.483Z</time></trkpt><trkpt lat="45.5586985" lon="9.4332232"><ele>147.0</ele><time>2026-04-14T13:25:12.483Z</time></trkpt><trkpt lat="45.5586097" lon="9.4331729"><ele>147.0</ele><time>2026-04-14T13:25:14.484Z</time></trkpt><trkpt lat="45.5584985" lon="9.4332207"><ele>146.6</ele><time>2026-04-14T13:25:15.484Z</time></trkpt><trkpt lat="45.5584273" lon="9.4332855"><ele>146.2</ele><time>2026-04-14T13:25:16.484Z</time></trkpt><trkpt lat="45.5583357" lon="9.4333438"><ele>145.8</ele><time>2026-04-14T13:25:17.483Z</time></trkpt><trkpt lat="45.5582584" lon="9.4333984"><ele>145.4</ele><time>2026-04-14T13:25:18.484Z</time></trkpt><trkpt lat="45.5581788" lon="9.4333985"><ele>145.0</ele><time>2026-04-14T13:25:19.484Z</time></trkpt><trkpt lat="45.558065" lon="9.4334662"><ele>145.0</ele><time>2026-04-14T13:25:20.483Z</time></trkpt><trkpt lat="45.5579489" lon="9.4334643"><ele>145.0</ele><time>2026-04-14T13:25:21.484Z</time></trkpt><trkpt lat="45.557854" lon="9.4335017"><ele>145.0</ele><time>2026-04-14T13:25:23.483Z</time></trkpt><trkpt lat="45.5577938" lon="9.4335517"><ele>145.0</ele><time>2026-04-14T13:25:24.484Z</time></trkpt><trkpt lat="45.5577337" lon="9.4336671"><ele>145.0</ele><time>2026-04-14T13:25:26.484Z</time></trkpt><trkpt lat="45.5576841" lon="9.4337519"><ele>145.0</ele><time>2026-04-14T13:25:27.484Z</time></trkpt><trkpt lat="45.5576049" lon="9.4338952"><ele>145.0</ele><time>2026-04-14T13:25:29.484Z</time></trkpt><trkpt lat="45.5575601" lon="9.433994"><ele>145.0</ele><time>2026-04-14T13:25:30.484Z</time></trkpt><trkpt lat="45.5575622" lon="9.434113"><ele>145.0</ele><time>2026-04-14T13:25:31.484Z</time></trkpt><trkpt lat="45.5575399" lon="9.4342196"><ele>145.0</ele><time>2026-04-14T13:25:32.484Z</time></trkpt><trkpt lat="45.5575575" lon="9.4343177"><ele>145.0</ele><time>2026-04-14T13:25:33.484Z</time></trkpt><trkpt lat="45.5575577" lon="9.4344376"><ele>145.0</ele><time>2026-04-14T13:25:34.484Z</time></trkpt><trkpt lat="45.5576034" lon="9.4345414"><ele>145.0</ele><time>2026-04-14T13:25:35.484Z</time></trkpt><trkpt lat="45.5577002" lon="9.4346909"><ele>145.0</ele><time>2026-04-14T13:25:36.483Z</time></trkpt><trkpt lat="45.557516" lon="9.4347258"><ele>145.0</ele><time>2026-04-14T13:25:37.483Z</time></trkpt><trkpt lat="45.5574985" lon="9.4348449"><ele>145.0</ele><time>2026-04-14T13:25:39.484Z</time></trkpt><trkpt lat="45.5576259" lon="9.4349192"><ele>145.0</ele><time>2026-04-14T13:25:40.483Z</time></trkpt><trkpt lat="45.5575378" lon="9.4349369"><ele>145.0</ele><time>2026-04-14T13:25:41.483Z</time></trkpt><trkpt lat="45.5574305" lon="9.4349819"><ele>145.0</ele><time>2026-04-14T13:25:43.484Z</time></trkpt><trkpt lat="45.557291" lon="9.4349676"><ele>145.0</ele><time>2026-04-14T13:25:44.483Z</time></trkpt><trkpt lat="45.5572113" lon="9.4349767"><ele>145.0</ele><time>2026-04-14T13:25:45.484Z</time></trkpt><trkpt lat="45.5570816" lon="9.4349611"><ele>145.0</ele><time>2026-04-14T13:25:47.484Z</time></trkpt><trkpt lat="45.556955" lon="9.4349281"><ele>145.0</ele><time>2026-04-14T13:25:49.484Z</time></trkpt><trkpt lat="45.5568591" lon="9.4349207"><ele>145.0</ele><time>2026-04-14T13:25:51.484Z</time></trkpt><trkpt lat="45.5567647" lon="9.4349301"><ele>145.2</ele><time>2026-04-14T13:25:53.484Z</time></trkpt><trkpt lat="45.5568395" lon="9.4350421"><ele>145.4</ele><time>2026-04-14T13:26:24.484Z</time></trkpt><trkpt lat="45.5567676" lon="9.4350426"><ele>145.6</ele><time>2026-04-14T13:26:27.484Z</time></trkpt><trkpt lat="45.5565863" lon="9.434996"><ele>145.8</ele><time>2026-04-14T13:26:28.483Z</time></trkpt><trkpt lat="45.5565519" lon="9.4349157"><ele>146.0</ele><time>2026-04-14T13:26:29.484Z</time></trkpt><trkpt lat="45.5564592" lon="9.4349718"><ele>146.0</ele><time>2026-04-14T13:26:30.483Z</time></trkpt><trkpt lat="45.5563655" lon="9.4350181"><ele>146.0</ele><time>2026-04-14T13:26:31.483Z</time></trkpt><trkpt lat="45.5562143" lon="9.4350111"><ele>146.0</ele><time>2026-04-14T13:26:33.483Z</time></trkpt><trkpt lat="45.5561236" lon="9.4350107"><ele>146.0</ele><time>2026-04-14T13:26:34.484Z</time></trkpt><trkpt lat="45.555979" lon="9.4350425"><ele>146.25</ele><time>2026-04-14T13:26:35.483Z</time></trkpt><trkpt lat="45.5558045" lon="9.435053"><ele>146.5</ele><time>2026-04-14T13:26:37.483Z</time></trkpt><trkpt lat="45.5556949" lon="9.4350146"><ele>146.75</ele><time>2026-04-14T13:26:40.483Z</time></trkpt><trkpt lat="45.5556129" lon="9.4349813"><ele>147.0</ele><time>2026-04-14T13:26:41.484Z</time></trkpt><trkpt lat="45.555471" lon="9.4350047"><ele>147.0</ele><time>2026-04-14T13:26:43.483Z</time></trkpt><trkpt lat="45.5553258" lon="9.4350501"><ele>147.0</ele><time>2026-04-14T13:26:45.484Z</time></trkpt><trkpt lat="45.5552156" lon="9.4350102"><ele>147.0</ele><time>2026-04-14T13:26:47.484Z</time></trkpt><trkpt lat="45.5551389" lon="9.4350359"><ele>147.0</ele><time>2026-04-14T13:26:48.484Z</time></trkpt><trkpt lat="45.5550543" lon="9.4350241"><ele>147.0</ele><time>2026-04-14T13:26:49.484Z</time></trkpt><trkpt lat="45.5549594" lon="9.435062"><ele>147.0</ele><time>2026-04-14T13:26:50.484Z</time></trkpt><trkpt lat="45.5548726" lon="9.4350826"><ele>147.0</ele><time>2026-04-14T13:26:51.483Z</time></trkpt><trkpt lat="45.5548018" lon="9.435078"><ele>147.0</ele><time>2026-04-14T13:26:52.484Z</time></trkpt><trkpt lat="45.5546694" lon="9.4351707"><ele>147.0</ele><time>2026-04-14T13:26:53.484Z</time></trkpt><trkpt lat="45.5545104" lon="9.4351968"><ele>146.66666666666666</ele><time>2026-04-14T13:26:55.483Z</time></trkpt><trkpt lat="45.5544471" lon="9.4352179"><ele>146.33333333333334</ele><time>2026-04-14T13:26:56.484Z</time></trkpt><trkpt lat="45.554357" lon="9.4352539"><ele>146.0</ele><time>2026-04-14T13:26:57.483Z</time></trkpt><trkpt lat="45.5542941" lon="9.4352621"><ele>145.66666666666669</ele><time>2026-04-14T13:26:58.483Z</time></trkpt><trkpt lat="45.5542095" lon="9.4352999"><ele>145.33333333333334</ele><time>2026-04-14T13:27:00.484Z</time></trkpt><trkpt lat="45.5541366" lon="9.4353226"><ele>145.0</ele><time>2026-04-14T13:27:01.484Z</time></trkpt><trkpt lat="45.5540744" lon="9.4353588"><ele>145.0</ele><time>2026-04-14T13:27:02.483Z</time></trkpt><trkpt lat="45.5539674" lon="9.4354199"><ele>145.0</ele><time>2026-04-14T13:27:03.483Z</time></trkpt><trkpt lat="45.5538227" lon="9.4354423"><ele>145.0</ele><time>2026-04-14T13:27:04.484Z</time></trkpt><trkpt lat="45.5537492" lon="9.4355027"><ele>145.0</ele><time>2026-04-14T13:27:06.484Z</time></trkpt><trkpt lat="45.5537975" lon="9.4354204"><ele>145.0</ele><time>2026-04-14T13:27:07.484Z</time></trkpt><trkpt lat="45.5536793" lon="9.4354415"><ele>144.5</ele><time>2026-04-14T13:27:08.484Z</time></trkpt><trkpt lat="45.5535492" lon="9.4354841"><ele>144.0</ele><time>2026-04-14T13:27:09.484Z</time></trkpt><trkpt lat="45.5534856" lon="9.4355239"><ele>143.5</ele><time>2026-04-14T13:27:10.484Z</time></trkpt><trkpt lat="45.5533991" lon="9.4355298"><ele>143.0</ele><time>2026-04-14T13:27:13.484Z</time></trkpt><trkpt lat="45.5533249" lon="9.435524"><ele>142.5</ele><time>2026-04-14T13:27:14.484Z</time></trkpt><trkpt lat="45.5532568" lon="9.4355335"><ele>142.0</ele><time>2026-04-14T13:27:16.483Z</time></trkpt><trkpt lat="45.5531614" lon="9.435531"><ele>142.0</ele><time>2026-04-14T13:27:17.483Z</time></trkpt><trkpt lat="45.5530228" lon="9.4355428"><ele>142.0</ele><time>2026-04-14T13:27:19.484Z</time></trkpt><trkpt lat="45.5529242" lon="9.4356068"><ele>142.0</ele><time>2026-04-14T13:27:25.483Z</time></trkpt><trkpt lat="45.5528378" lon="9.4356642"><ele>142.0</ele><time>2026-04-14T13:27:28.484Z</time></trkpt><trkpt lat="45.5527548" lon="9.4357052"><ele>142.0</ele><time>2026-04-14T13:27:29.484Z</time></trkpt><trkpt lat="45.5526842" lon="9.4357251"><ele>141.79999999999998</ele><time>2026-04-14T13:27:30.484Z</time></trkpt><trkpt lat="45.5525943" lon="9.435762"><ele>141.6</ele><time>2026-04-14T13:27:32.484Z</time></trkpt><trkpt lat="45.5525171" lon="9.4357829"><ele>141.39999999999998</ele><time>2026-04-14T13:27:33.483Z</time></trkpt><trkpt lat="45.5524083" lon="9.4358215"><ele>141.2</ele><time>2026-04-14T13:27:35.484Z</time></trkpt><trkpt lat="45.5522751" lon="9.4358816"><ele>141.0</ele><time>2026-04-14T13:27:37.484Z</time></trkpt><trkpt lat="45.5521782" lon="9.4358961"><ele>141.0</ele><time>2026-04-14T13:27:38.484Z</time></trkpt><trkpt lat="45.5520714" lon="9.4359271"><ele>141.0</ele><time>2026-04-14T13:27:40.484Z</time></trkpt><trkpt lat="45.5520056" lon="9.4359532"><ele>141.0</ele><time>2026-04-14T13:27:41.483Z</time></trkpt><trkpt lat="45.5519356" lon="9.435963"><ele>141.0</ele><time>2026-04-14T13:27:42.484Z</time></trkpt><trkpt lat="45.5518046" lon="9.436047"><ele>141.0</ele><time>2026-04-14T13:27:43.484Z</time></trkpt><trkpt lat="45.5517056" lon="9.4361282"><ele>140.8</ele><time>2026-04-14T13:27:45.484Z</time></trkpt><trkpt lat="45.5515902" lon="9.4361681"><ele>140.6</ele><time>2026-04-14T13:27:47.484Z</time></trkpt><trkpt lat="45.5515058" lon="9.4362002"><ele>140.4</ele><time>2026-04-14T13:27:48.484Z</time></trkpt><trkpt lat="45.5514223" lon="9.4362544"><ele>140.2</ele><time>2026-04-14T13:27:49.483Z</time></trkpt><trkpt lat="45.5512913" lon="9.4363244"><ele>140.0</ele><time>2026-04-14T13:27:50.484Z</time></trkpt><trkpt lat="45.5512049" lon="9.4363551"><ele>139.8</ele><time>2026-04-14T13:27:51.484Z</time></trkpt><trkpt lat="45.5511056" lon="9.4364155"><ele>139.6</ele><time>2026-04-14T13:27:52.484Z</time></trkpt><trkpt lat="45.5510168" lon="9.4364443"><ele>139.4</ele><time>2026-04-14T13:27:53.484Z</time></trkpt><trkpt lat="45.5509475" lon="9.4365487"><ele>139.2</ele><time>2026-04-14T13:27:55.483Z</time></trkpt><trkpt lat="45.5508406" lon="9.4365999"><ele>139.0</ele><time>2026-04-14T13:27:57.484Z</time></trkpt><trkpt lat="45.5507335" lon="9.4366431"><ele>139.0</ele><time>2026-04-14T13:27:58.483Z</time></trkpt><trkpt lat="45.5506485" lon="9.4366127"><ele>139.0</ele><time>2026-04-14T13:27:59.484Z</time></trkpt><trkpt lat="45.5505647" lon="9.436671"><ele>139.0</ele><time>2026-04-14T13:28:00.484Z</time></trkpt><trkpt lat="45.5505697" lon="9.4367647"><ele>139.0</ele><time>2026-04-14T13:28:02.484Z</time></trkpt><trkpt lat="45.5505859" lon="9.4369585"><ele>139.0</ele><time>2026-04-14T13:28:03.484Z</time></trkpt><trkpt lat="45.5505316" lon="9.4370655"><ele>139.0</ele><time>2026-04-14T13:28:04.484Z</time></trkpt><trkpt lat="45.5504739" lon="9.437178"><ele>139.0</ele><time>2026-04-14T13:28:05.483Z</time></trkpt><trkpt lat="45.5505179" lon="9.4373015"><ele>139.0</ele><time>2026-04-14T13:28:06.484Z</time></trkpt><trkpt lat="45.5505694" lon="9.437452"><ele>139.0</ele><time>2026-04-14T13:28:07.483Z</time></trkpt><trkpt lat="45.5505925" lon="9.4375359"><ele>139.0</ele><time>2026-04-14T13:28:08.484Z</time></trkpt><trkpt lat="45.5505789" lon="9.4376446"><ele>139.0</ele><time>2026-04-14T13:28:09.483Z</time></trkpt><trkpt lat="45.5505817" lon="9.4377446"><ele>139.0</ele><time>2026-04-14T13:28:10.484Z</time></trkpt><trkpt lat="45.5505433" lon="9.4378357"><ele>139.0</ele><time>2026-04-14T13:28:11.484Z</time></trkpt><trkpt lat="45.5505606" lon="9.4379782"><ele>139.0</ele><time>2026-04-14T13:28:12.483Z</time></trkpt><trkpt lat="45.5505524" lon="9.4380848"><ele>139.0</ele><time>2026-04-14T13:28:13.483Z</time></trkpt><trkpt lat="45.5504449" lon="9.4381735"><ele>139.0</ele><time>2026-04-14T13:28:14.483Z</time></trkpt><trkpt lat="45.5503516" lon="9.438271"><ele>138.8</ele><time>2026-04-14T13:28:15.484Z</time></trkpt><trkpt lat="45.5503608" lon="9.4385013"><ele>138.60000000000002</ele><time>2026-04-14T13:28:17.484Z</time></trkpt><trkpt lat="45.5503099" lon="9.4385744"><ele>138.4</ele><time>2026-04-14T13:28:18.484Z</time></trkpt><trkpt lat="45.5502192" lon="9.4386749"><ele>138.20000000000002</ele><time>2026-04-14T13:28:19.484Z</time></trkpt><trkpt lat="45.5501944" lon="9.4387979"><ele>138.0</ele><time>2026-04-14T13:28:20.484Z</time></trkpt><trkpt lat="45.5502219" lon="9.4389076"><ele>138.0</ele><time>2026-04-14T13:28:21.484Z</time></trkpt><trkpt lat="45.5502046" lon="9.4390218"><ele>138.0</ele><time>2026-04-14T13:28:22.483Z</time></trkpt><trkpt lat="45.5501768" lon="9.4391531"><ele>138.0</ele><time>2026-04-14T13:28:23.483Z</time></trkpt><trkpt lat="45.5501617" lon="9.4392849"><ele>138.0</ele><time>2026-04-14T13:28:24.484Z</time></trkpt><trkpt lat="45.550172" lon="9.4393862"><ele>138.0</ele><time>2026-04-14T13:28:25.483Z</time></trkpt><trkpt lat="45.5501872" lon="9.4394905"><ele>138.0</ele><time>2026-04-14T13:28:26.484Z</time></trkpt><trkpt lat="45.5501938" lon="9.4395891"><ele>138.20000000000002</ele><time>2026-04-14T13:28:27.484Z</time></trkpt><trkpt lat="45.5501615" lon="9.4396845"><ele>138.4</ele><time>2026-04-14T13:28:28.484Z</time></trkpt><trkpt lat="45.5500947" lon="9.4397798"><ele>138.60000000000002</ele><time>2026-04-14T13:28:29.484Z</time></trkpt><trkpt lat="45.5500421" lon="9.4398988"><ele>138.8</ele><time>2026-04-14T13:28:30.484Z</time></trkpt><trkpt lat="45.5499415" lon="9.439985"><ele>139.0</ele><time>2026-04-14T13:28:31.484Z</time></trkpt><trkpt lat="45.5498687" lon="9.4401461"><ele>139.0</ele><time>2026-04-14T13:28:33.484Z</time></trkpt><trkpt lat="45.5498176" lon="9.4402234"><ele>139.0</ele><time>2026-04-14T13:28:34.483Z</time></trkpt><trkpt lat="45.549723" lon="9.4403326"><ele>139.0</ele><time>2026-04-14T13:28:36.484Z</time></trkpt><trkpt lat="45.5495886" lon="9.440386"><ele>139.0</ele><time>2026-04-14T13:28:37.484Z</time></trkpt><trkpt lat="45.5495045" lon="9.4404039"><ele>139.0</ele><time>2026-04-14T13:28:38.484Z</time></trkpt><trkpt lat="45.5493888" lon="9.4404691"><ele>138.8</ele><time>2026-04-14T13:28:39.484Z</time></trkpt><trkpt lat="45.5493005" lon="9.4405133"><ele>138.60000000000002</ele><time>2026-04-14T13:28:40.483Z</time></trkpt><trkpt lat="45.5492124" lon="9.4405425"><ele>138.4</ele><time>2026-04-14T13:28:41.484Z</time></trkpt><trkpt lat="45.5491892" lon="9.4404442"><ele>138.20000000000002</ele><time>2026-04-14T13:28:42.484Z</time></trkpt><trkpt lat="45.5490145" lon="9.4404938"><ele>138.0</ele><time>2026-04-14T13:28:44.483Z</time></trkpt><trkpt lat="45.5489424" lon="9.4405183"><ele>138.0</ele><time>2026-04-14T13:28:45.484Z</time></trkpt><trkpt lat="45.5488683" lon="9.4405326"><ele>138.0</ele><time>2026-04-14T13:28:46.484Z</time></trkpt><trkpt lat="45.5488404" lon="9.4406295"><ele>138.0</ele><time>2026-04-14T13:28:47.484Z</time></trkpt><trkpt lat="45.548758" lon="9.4406411"><ele>138.0</ele><time>2026-04-14T13:28:48.484Z</time></trkpt><trkpt lat="45.5486986" lon="9.4407038"><ele>138.0</ele><time>2026-04-14T13:28:49.483Z</time></trkpt><trkpt lat="45.5486332" lon="9.4407304"><ele>138.0</ele><time>2026-04-14T13:28:51.484Z</time></trkpt><trkpt lat="45.548563" lon="9.4407671"><ele>138.0</ele><time>2026-04-14T13:28:52.484Z</time></trkpt><trkpt lat="45.5484523" lon="9.440842"><ele>138.4</ele><time>2026-04-14T13:28:53.483Z</time></trkpt><trkpt lat="45.5483741" lon="9.4408443"><ele>138.8</ele><time>2026-04-14T13:28:54.484Z</time></trkpt><trkpt lat="45.5483053" lon="9.4408465"><ele>139.2</ele><time>2026-04-14T13:28:55.483Z</time></trkpt><trkpt lat="45.5482146" lon="9.4408743"><ele>139.6</ele><time>2026-04-14T13:28:56.483Z</time></trkpt><trkpt lat="45.5480436" lon="9.4409352"><ele>140.0</ele><time>2026-04-14T13:28:58.484Z</time></trkpt><trkpt lat="45.5478871" lon="9.4410705"><ele>139.4</ele><time>2026-04-14T13:29:00.484Z</time></trkpt><trkpt lat="45.547827" lon="9.4411406"><ele>138.8</ele><time>2026-04-14T13:29:01.484Z</time></trkpt><trkpt lat="45.547752" lon="9.4411953"><ele>138.2</ele><time>2026-04-14T13:29:02.484Z</time></trkpt><trkpt lat="45.5476064" lon="9.4412861"><ele>137.6</ele><time>2026-04-14T13:29:04.484Z</time></trkpt><trkpt lat="45.5475103" lon="9.4413182"><ele>137.0</ele><time>2026-04-14T13:29:05.484Z</time></trkpt><trkpt lat="45.5474481" lon="9.4413842"><ele>136.79999999999998</ele><time>2026-04-14T13:29:06.484Z</time></trkpt><trkpt lat="45.5473742" lon="9.4414233"><ele>136.6</ele><time>2026-04-14T13:29:07.484Z</time></trkpt><trkpt lat="45.5472755" lon="9.4414917"><ele>136.39999999999998</ele><time>2026-04-14T13:29:08.483Z</time></trkpt><trkpt lat="45.5471559" lon="9.4415647"><ele>136.2</ele><time>2026-04-14T13:29:09.483Z</time></trkpt><trkpt lat="45.5470562" lon="9.4415636"><ele>136.0</ele><time>2026-04-14T13:29:10.484Z</time></trkpt><trkpt lat="45.5469379" lon="9.4416327"><ele>135.75</ele><time>2026-04-14T13:29:11.484Z</time></trkpt><trkpt lat="45.5468106" lon="9.4417117"><ele>135.5</ele><time>2026-04-14T13:29:12.483Z</time></trkpt><trkpt lat="45.5467137" lon="9.4416441"><ele>135.25</ele><time>2026-04-14T13:29:13.483Z</time></trkpt><trkpt lat="45.5466829" lon="9.4417959"><ele>135.0</ele><time>2026-04-14T13:29:15.484Z</time></trkpt><trkpt lat="45.5465898" lon="9.4418365"><ele>135.0</ele><time>2026-04-14T13:29:16.483Z</time></trkpt><trkpt lat="45.5465213" lon="9.4418488"><ele>135.0</ele><time>2026-04-14T13:29:17.484Z</time></trkpt><trkpt lat="45.5464457" lon="9.4418787"><ele>135.0</ele><time>2026-04-14T13:29:19.484Z</time></trkpt><trkpt lat="45.5463766" lon="9.4418918"><ele>135.0</ele><time>2026-04-14T13:29:20.484Z</time></trkpt><trkpt lat="45.5463047" lon="9.4418776"><ele>135.0</ele><time>2026-04-14T13:29:23.484Z</time></trkpt><trkpt lat="45.5462434" lon="9.4419144"><ele>135.0</ele><time>2026-04-14T13:29:24.483Z</time></trkpt><trkpt lat="45.5461653" lon="9.4419773"><ele>135.0</ele><time>2026-04-14T13:29:25.484Z</time></trkpt><trkpt lat="45.5460811" lon="9.4420554"><ele>134.8</ele><time>2026-04-14T13:29:27.483Z</time></trkpt><trkpt lat="45.5460273" lon="9.4421096"><ele>134.6</ele><time>2026-04-14T13:29:28.484Z</time></trkpt><trkpt lat="45.545919" lon="9.4422123"><ele>134.4</ele><time>2026-04-14T13:29:30.484Z</time></trkpt><trkpt lat="45.5458526" lon="9.4422757"><ele>134.2</ele><time>2026-04-14T13:29:31.484Z</time></trkpt><trkpt lat="45.5457434" lon="9.4423873"><ele>134.0</ele><time>2026-04-14T13:29:33.484Z</time></trkpt><trkpt lat="45.5456658" lon="9.4424259"><ele>134.0</ele><time>2026-04-14T13:29:34.484Z</time></trkpt><trkpt lat="45.5455071" lon="9.4425308"><ele>134.0</ele><time>2026-04-14T13:29:36.484Z</time></trkpt><trkpt lat="45.5454213" lon="9.4425782"><ele>134.0</ele><time>2026-04-14T13:29:37.484Z</time></trkpt><trkpt lat="45.5453128" lon="9.442686"><ele>134.0</ele><time>2026-04-14T13:29:39.484Z</time></trkpt><trkpt lat="45.54526" lon="9.4427368"><ele>134.16666666666666</ele><time>2026-04-14T13:29:40.483Z</time></trkpt><trkpt lat="45.5451865" lon="9.4427765"><ele>134.33333333333331</ele><time>2026-04-14T13:29:41.483Z</time></trkpt><trkpt lat="45.5451258" lon="9.4428268"><ele>134.5</ele><time>2026-04-14T13:29:42.483Z</time></trkpt><trkpt lat="45.5450651" lon="9.4428808"><ele>134.66666666666666</ele><time>2026-04-14T13:29:43.483Z</time></trkpt><trkpt lat="45.544995" lon="9.4429387"><ele>134.83333333333334</ele><time>2026-04-14T13:29:44.484Z</time></trkpt><trkpt lat="45.5449168" lon="9.4429769"><ele>135.0</ele><time>2026-04-14T13:29:45.483Z</time></trkpt><trkpt lat="45.5448372" lon="9.4430282"><ele>135.0</ele><time>2026-04-14T13:29:46.483Z</time></trkpt><trkpt lat="45.5447749" lon="9.4430665"><ele>135.0</ele><time>2026-04-14T13:29:47.484Z</time></trkpt><trkpt lat="45.5446791" lon="9.443144"><ele>135.0</ele><time>2026-04-14T13:29:48.484Z</time></trkpt><trkpt lat="45.5446172" lon="9.4432037"><ele>135.0</ele><time>2026-04-14T13:29:49.484Z</time></trkpt><trkpt lat="45.5445498" lon="9.4432662"><ele>135.0</ele><time>2026-04-14T13:29:50.484Z</time></trkpt><trkpt lat="45.5444405" lon="9.4432922"><ele>135.0</ele><time>2026-04-14T13:29:51.484Z</time></trkpt><trkpt lat="45.5443409" lon="9.4433407"><ele>134.8</ele><time>2026-04-14T13:29:53.483Z</time></trkpt><trkpt lat="45.5442339" lon="9.4433928"><ele>134.6</ele><time>2026-04-14T13:29:55.483Z</time></trkpt><trkpt lat="45.544261" lon="9.4433028"><ele>134.4</ele><time>2026-04-14T13:30:03.483Z</time></trkpt><trkpt lat="45.5443183" lon="9.4432649"><ele>134.2</ele><time>2026-04-14T13:30:12.484Z</time></trkpt><trkpt lat="45.5442105" lon="9.4434631"><ele>134.0</ele><time>2026-04-14T13:30:31.484Z</time></trkpt><trkpt lat="45.54412" lon="9.4435953"><ele>134.0</ele><time>2026-04-14T13:30:33.483Z</time></trkpt><trkpt lat="45.54412" lon="9.4437776"><ele>134.0</ele><time>2026-04-14T13:30:35.483Z</time></trkpt><trkpt lat="45.5441469" lon="9.4438781"><ele>134.0</ele><time>2026-04-14T13:30:36.484Z</time></trkpt><trkpt lat="45.544108" lon="9.4439847"><ele>134.0</ele><time>2026-04-14T13:30:37.484Z</time></trkpt><trkpt lat="45.5441208" lon="9.4441815"><ele>134.0</ele><time>2026-04-14T13:30:39.483Z</time></trkpt><trkpt lat="45.5440824" lon="9.4442824"><ele>134.2</ele><time>2026-04-14T13:30:40.484Z</time></trkpt><trkpt lat="45.5440976" lon="9.4444065"><ele>134.4</ele><time>2026-04-14T13:30:43.484Z</time></trkpt><trkpt lat="45.5440584" lon="9.4445735"><ele>134.6</ele><time>2026-04-14T13:30:44.484Z</time></trkpt><trkpt lat="45.5440223" lon="9.4447048"><ele>134.8</ele><time>2026-04-14T13:30:45.484Z</time></trkpt><trkpt lat="45.5440692" lon="9.4448192"><ele>135.0</ele><time>2026-04-14T13:30:46.484Z</time></trkpt><trkpt lat="45.5440899" lon="9.4449191"><ele>135.0</ele><time>2026-04-14T13:30:47.483Z</time></trkpt><trkpt lat="45.5440893" lon="9.445035"><ele>135.0</ele><time>2026-04-14T13:30:48.484Z</time></trkpt><trkpt lat="45.544072" lon="9.4451717"><ele>135.0</ele><time>2026-04-14T13:30:49.484Z</time></trkpt><trkpt lat="45.5440758" lon="9.4453182"><ele>135.0</ele><time>2026-04-14T13:30:50.484Z</time></trkpt><trkpt lat="45.5440419" lon="9.4454465"><ele>135.0</ele><time>2026-04-14T13:30:51.483Z</time></trkpt><trkpt lat="45.544008" lon="9.4455226"><ele>135.0</ele><time>2026-04-14T13:30:52.484Z</time></trkpt><trkpt lat="45.5440357" lon="9.4456426"><ele>135.0</ele><time>2026-04-14T13:30:53.483Z</time></trkpt><trkpt lat="45.5440743" lon="9.4458036"><ele>135.0</ele><time>2026-04-14T13:30:54.483Z</time></trkpt><trkpt lat="45.5440599" lon="9.4459146"><ele>135.0</ele><time>2026-04-14T13:30:55.483Z</time></trkpt><trkpt lat="45.5440661" lon="9.4460692"><ele>135.0</ele><time>2026-04-14T13:30:56.483Z</time></trkpt><trkpt lat="45.5440995" lon="9.4461511"><ele>135.0</ele><time>2026-04-14T13:30:57.483Z</time></trkpt><trkpt lat="45.5440825" lon="9.4462641"><ele>135.0</ele><time>2026-04-14T13:30:58.484Z</time></trkpt><trkpt lat="45.544054" lon="9.4463972"><ele>135.0</ele><time>2026-04-14T13:30:59.483Z</time></trkpt><trkpt lat="45.5440144" lon="9.4465917"><ele>135.0</ele><time>2026-04-14T13:31:01.484Z</time></trkpt><trkpt lat="45.5440267" lon="9.4466895"><ele>135.0</ele><time>2026-04-14T13:31:02.483Z</time></trkpt><trkpt lat="45.5439808" lon="9.4467871"><ele>135.0</ele><time>2026-04-14T13:31:03.484Z</time></trkpt><trkpt lat="45.5439692" lon="9.4469267"><ele>135.0</ele><time>2026-04-14T13:31:04.483Z</time></trkpt><trkpt lat="45.5439761" lon="9.4470238"><ele>135.0</ele><time>2026-04-14T13:31:05.484Z</time></trkpt><trkpt lat="45.543971" lon="9.4471379"><ele>135.0</ele><time>2026-04-14T13:31:06.484Z</time></trkpt><trkpt lat="45.5439762" lon="9.4472503"><ele>135.0</ele><time>2026-04-14T13:31:07.483Z</time></trkpt><trkpt lat="45.5439797" lon="9.4473472"><ele>135.0</ele><time>2026-04-14T13:31:08.484Z</time></trkpt><trkpt lat="45.5440114" lon="9.4474355"><ele>135.0</ele><time>2026-04-14T13:31:09.483Z</time></trkpt><trkpt lat="45.5440268" lon="9.4475366"><ele>135.0</ele><time>2026-04-14T13:31:10.483Z</time></trkpt><trkpt lat="45.5440253" lon="9.4476551"><ele>135.2</ele><time>2026-04-14T13:31:11.484Z</time></trkpt><trkpt lat="45.5440464" lon="9.4477786"><ele>135.4</ele><time>2026-04-14T13:31:12.483Z</time></trkpt><trkpt lat="45.54406" lon="9.447901"><ele>135.6</ele><time>2026-04-14T13:31:13.483Z</time></trkpt><trkpt lat="45.5440679" lon="9.4481113"><ele>135.8</ele><time>2026-04-14T13:31:15.484Z</time></trkpt><trkpt lat="45.5440538" lon="9.4482302"><ele>136.0</ele><time>2026-04-14T13:31:16.484Z</time></trkpt><trkpt lat="45.5440615" lon="9.4483341"><ele>135.5</ele><time>2026-04-14T13:31:17.484Z</time></trkpt><trkpt lat="45.5440913" lon="9.448462"><ele>135.0</ele><time>2026-04-14T13:31:18.484Z</time></trkpt><trkpt lat="45.5441024" lon="9.4486016"><ele>134.5</ele><time>2026-04-14T13:31:19.484Z</time></trkpt><trkpt lat="45.5441481" lon="9.4486965"><ele>134.0</ele><time>2026-04-14T13:31:20.484Z</time></trkpt><trkpt lat="45.5441717" lon="9.4488233"><ele>133.5</ele><time>2026-04-14T13:31:21.484Z</time></trkpt><trkpt lat="45.5441947" lon="9.4489235"><ele>133.0</ele><time>2026-04-14T13:31:22.483Z</time></trkpt><trkpt lat="45.5441857" lon="9.4490199"><ele>133.0</ele><time>2026-04-14T13:31:23.483Z</time></trkpt><trkpt lat="45.5442208" lon="9.4491156"><ele>133.0</ele><time>2026-04-14T13:31:24.484Z</time></trkpt><trkpt lat="45.5442083" lon="9.449238"><ele>133.0</ele><time>2026-04-14T13:31:25.484Z</time></trkpt><trkpt lat="45.544176" lon="9.4493377"><ele>133.0</ele><time>2026-04-14T13:31:26.483Z</time></trkpt><trkpt lat="45.5441712" lon="9.4494356"><ele>133.0</ele><time>2026-04-14T13:31:27.484Z</time></trkpt><trkpt lat="45.5441948" lon="9.4496344"><ele>133.0</ele><time>2026-04-14T13:31:29.484Z</time></trkpt><trkpt lat="45.5441921" lon="9.4497449"><ele>133.0</ele><time>2026-04-14T13:31:30.484Z</time></trkpt><trkpt lat="45.5441733" lon="9.4498818"><ele>133.0</ele><time>2026-04-14T13:31:32.484Z</time></trkpt><trkpt lat="45.544182" lon="9.4500111"><ele>133.0</ele><time>2026-04-14T13:31:34.483Z</time></trkpt><trkpt lat="45.5441916" lon="9.4501361"><ele>133.0</ele><time>2026-04-14T13:31:36.484Z</time></trkpt><trkpt lat="45.544184" lon="9.4502316"><ele>133.0</ele><time>2026-04-14T13:31:37.484Z</time></trkpt><trkpt lat="45.5441289" lon="9.4503847"><ele>133.20000000000002</ele><time>2026-04-14T13:31:39.484Z</time></trkpt><trkpt lat="45.5441145" lon="9.4504813"><ele>133.4</ele><time>2026-04-14T13:31:40.483Z</time></trkpt><trkpt lat="45.5441276" lon="9.4506018"><ele>133.60000000000002</ele><time>2026-04-14T13:31:41.484Z</time></trkpt><trkpt lat="45.5441677" lon="9.450797"><ele>133.8</ele><time>2026-04-14T13:31:43.484Z</time></trkpt><trkpt lat="45.5441486" lon="9.4508938"><ele>134.0</ele><time>2026-04-14T13:31:44.484Z</time></trkpt><trkpt lat="45.5441076" lon="9.4510822"><ele>134.0</ele><time>2026-04-14T13:31:46.484Z</time></trkpt><trkpt lat="45.5441159" lon="9.45124"><ele>134.0</ele><time>2026-04-14T13:31:48.484Z</time></trkpt><trkpt lat="45.5441282" lon="9.4513348"><ele>134.0</ele><time>2026-04-14T13:31:49.483Z</time></trkpt><trkpt lat="45.5440989" lon="9.4514184"><ele>134.0</ele><time>2026-04-14T13:31:50.483Z</time></trkpt><trkpt lat="45.5440995" lon="9.4515288"><ele>134.0</ele><time>2026-04-14T13:31:51.483Z</time></trkpt><trkpt lat="45.544046" lon="9.4516926"><ele>134.0</ele><time>2026-04-14T13:31:53.483Z</time></trkpt><trkpt lat="45.5440165" lon="9.4518117"><ele>134.0</ele><time>2026-04-14T13:31:54.484Z</time></trkpt><trkpt lat="45.5439909" lon="9.4519163"><ele>134.0</ele><time>2026-04-14T13:31:55.483Z</time></trkpt><trkpt lat="45.5439769" lon="9.4520375"><ele>134.0</ele><time>2026-04-14T13:31:56.483Z</time></trkpt><trkpt lat="45.543954" lon="9.4521645"><ele>134.0</ele><time>2026-04-14T13:31:57.484Z</time></trkpt><trkpt lat="45.5439432" lon="9.4522679"><ele>134.0</ele><time>2026-04-14T13:31:58.484Z</time></trkpt><trkpt lat="45.5439509" lon="9.4523602"><ele>134.0</ele><time>2026-04-14T13:31:59.483Z</time></trkpt><trkpt lat="45.543954" lon="9.4524739"><ele>134.0</ele><time>2026-04-14T13:32:00.484Z</time></trkpt><trkpt lat="45.5439379" lon="9.4525751"><ele>134.0</ele><time>2026-04-14T13:32:01.484Z</time></trkpt><trkpt lat="45.5439338" lon="9.4526717"><ele>134.0</ele><time>2026-04-14T13:32:02.483Z</time></trkpt><trkpt lat="45.5439197" lon="9.4527706"><ele>134.0</ele><time>2026-04-14T13:32:03.484Z</time></trkpt><trkpt lat="45.5439119" lon="9.4528647"><ele>134.0</ele><time>2026-04-14T13:32:04.484Z</time></trkpt><trkpt lat="45.5439439" lon="9.4530988"><ele>134.0</ele><time>2026-04-14T13:32:06.483Z</time></trkpt><trkpt lat="45.5439417" lon="9.4532299"><ele>134.0</ele><time>2026-04-14T13:32:07.484Z</time></trkpt><trkpt lat="45.5439461" lon="9.453327"><ele>134.0</ele><time>2026-04-14T13:32:08.484Z</time></trkpt><trkpt lat="45.5439479" lon="9.4534292"><ele>134.0</ele><time>2026-04-14T13:32:09.484Z</time></trkpt><trkpt lat="45.5439439" lon="9.4535603"><ele>134.0</ele><time>2026-04-14T13:32:10.484Z</time></trkpt><trkpt lat="45.5439253" lon="9.453673"><ele>134.0</ele><time>2026-04-14T13:32:11.483Z</time></trkpt><trkpt lat="45.5439375" lon="9.4537716"><ele>134.0</ele><time>2026-04-14T13:32:12.483Z</time></trkpt><trkpt lat="45.5439402" lon="9.453874"><ele>134.0</ele><time>2026-04-14T13:32:13.483Z</time></trkpt><trkpt lat="45.5439335" lon="9.4539954"><ele>134.0</ele><time>2026-04-14T13:32:14.483Z</time></trkpt><trkpt lat="45.5439297" lon="9.4541138"><ele>134.0</ele><time>2026-04-14T13:32:15.484Z</time></trkpt><trkpt lat="45.5439018" lon="9.4542388"><ele>134.0</ele><time>2026-04-14T13:32:17.484Z</time></trkpt><trkpt lat="45.5439115" lon="9.4543281"><ele>134.0</ele><time>2026-04-14T13:32:18.484Z</time></trkpt><trkpt lat="45.5438858" lon="9.454424"><ele>134.0</ele><time>2026-04-14T13:32:19.484Z</time></trkpt><trkpt lat="45.5438519" lon="9.4545702"><ele>134.2</ele><time>2026-04-14T13:32:20.484Z</time></trkpt><trkpt lat="45.5438345" lon="9.4547714"><ele>134.4</ele><time>2026-04-14T13:32:22.483Z</time></trkpt><trkpt lat="45.5438179" lon="9.4548723"><ele>134.6</ele><time>2026-04-14T13:32:23.483Z</time></trkpt><trkpt lat="45.5437946" lon="9.4549767"><ele>134.8</ele><time>2026-04-14T13:32:24.484Z</time></trkpt><trkpt lat="45.5437804" lon="9.4550858"><ele>135.0</ele><time>2026-04-14T13:32:25.484Z</time></trkpt><trkpt lat="45.543807" lon="9.4552059"><ele>135.0</ele><time>2026-04-14T13:32:26.484Z</time></trkpt><trkpt lat="45.5437368" lon="9.4553303"><ele>135.0</ele><time>2026-04-14T13:32:27.484Z</time></trkpt><trkpt lat="45.5437095" lon="9.4554785"><ele>135.0</ele><time>2026-04-14T13:32:28.484Z</time></trkpt><trkpt lat="45.543661" lon="9.4556585"><ele>135.0</ele><time>2026-04-14T13:32:30.484Z</time></trkpt><trkpt lat="45.5436373" lon="9.4557699"><ele>135.0</ele><time>2026-04-14T13:32:31.483Z</time></trkpt><trkpt lat="45.5436414" lon="9.4558956"><ele>134.66666666666666</ele><time>2026-04-14T13:32:32.484Z</time></trkpt><trkpt lat="45.5436405" lon="9.456022"><ele>134.33333333333334</ele><time>2026-04-14T13:32:33.484Z</time></trkpt><trkpt lat="45.5435945" lon="9.4561267"><ele>134.0</ele><time>2026-04-14T13:32:34.484Z</time></trkpt><trkpt lat="45.5435903" lon="9.4562571"><ele>133.66666666666669</ele><time>2026-04-14T13:32:35.483Z</time></trkpt><trkpt lat="45.5436004" lon="9.4563666"><ele>133.33333333333334</ele><time>2026-04-14T13:32:36.484Z</time></trkpt><trkpt lat="45.5435503" lon="9.456473"><ele>133.0</ele><time>2026-04-14T13:32:37.483Z</time></trkpt><trkpt lat="45.5435197" lon="9.4565786"><ele>132.8</ele><time>2026-04-14T13:32:38.484Z</time></trkpt><trkpt lat="45.54352" lon="9.4567006"><ele>132.60000000000002</ele><time>2026-04-14T13:32:39.484Z</time></trkpt><trkpt lat="45.543507" lon="9.4568095"><ele>132.39999999999998</ele><time>2026-04-14T13:32:40.484Z</time></trkpt><trkpt lat="45.5434612" lon="9.4569609"><ele>132.2</ele><time>2026-04-14T13:32:41.484Z</time></trkpt><trkpt lat="45.5435" lon="9.457085"><ele>132.0</ele><time>2026-04-14T13:32:42.483Z</time></trkpt><trkpt lat="45.5435544" lon="9.4571845"><ele>132.33333333333334</ele><time>2026-04-14T13:32:43.484Z</time></trkpt><trkpt lat="45.5435128" lon="9.457299"><ele>132.66666666666666</ele><time>2026-04-14T13:32:44.484Z</time></trkpt><trkpt lat="45.5434764" lon="9.4574103"><ele>133.0</ele><time>2026-04-14T13:32:45.484Z</time></trkpt><trkpt lat="45.5434651" lon="9.4575237"><ele>133.33333333333331</ele><time>2026-04-14T13:32:46.484Z</time></trkpt><trkpt lat="45.5434815" lon="9.4576405"><ele>133.66666666666666</ele><time>2026-04-14T13:32:47.484Z</time></trkpt><trkpt lat="45.543479" lon="9.4577523"><ele>134.0</ele><time>2026-04-14T13:32:48.484Z</time></trkpt><trkpt lat="45.5434555" lon="9.457879"><ele>134.4</ele><time>2026-04-14T13:32:49.483Z</time></trkpt><trkpt lat="45.5434576" lon="9.4580855"><ele>134.8</ele><time>2026-04-14T13:32:51.483Z</time></trkpt><trkpt lat="45.5434831" lon="9.4582056"><ele>135.2</ele><time>2026-04-14T13:32:52.484Z</time></trkpt><trkpt lat="45.5434998" lon="9.4583114"><ele>135.6</ele><time>2026-04-14T13:32:53.484Z</time></trkpt><trkpt lat="45.5434942" lon="9.4584664"><ele>136.0</ele><time>2026-04-14T13:32:54.484Z</time></trkpt><trkpt lat="45.5435055" lon="9.4586343"><ele>136.0</ele><time>2026-04-14T13:32:55.484Z</time></trkpt><trkpt lat="45.5435005" lon="9.4587498"><ele>136.0</ele><time>2026-04-14T13:32:56.484Z</time></trkpt><trkpt lat="45.5434851" lon="9.4589316"><ele>136.0</ele><time>2026-04-14T13:32:58.483Z</time></trkpt><trkpt lat="45.5434725" lon="9.459113"><ele>136.0</ele><time>2026-04-14T13:33:00.484Z</time></trkpt><trkpt lat="45.5434606" lon="9.4592264"><ele>136.0</ele><time>2026-04-14T13:33:01.484Z</time></trkpt><trkpt lat="45.5434408" lon="9.4593554"><ele>135.5</ele><time>2026-04-14T13:33:02.484Z</time></trkpt><trkpt lat="45.5434343" lon="9.4595049"><ele>135.0</ele><time>2026-04-14T13:33:03.484Z</time></trkpt><trkpt lat="45.5433928" lon="9.4595783"><ele>134.5</ele><time>2026-04-14T13:33:04.484Z</time></trkpt><trkpt lat="45.5433544" lon="9.4596977"><ele>134.0</ele><time>2026-04-14T13:33:05.483Z</time></trkpt><trkpt lat="45.5433512" lon="9.4598059"><ele>133.5</ele><time>2026-04-14T13:33:06.484Z</time></trkpt><trkpt lat="45.5433256" lon="9.4599095"><ele>133.0</ele><time>2026-04-14T13:33:07.483Z</time></trkpt><trkpt lat="45.5432754" lon="9.4601339"><ele>133.0</ele><time>2026-04-14T13:33:09.483Z</time></trkpt><trkpt lat="45.5432464" lon="9.4602625"><ele>133.0</ele><time>2026-04-14T13:33:10.483Z</time></trkpt><trkpt lat="45.5432224" lon="9.4603829"><ele>133.0</ele><time>2026-04-14T13:33:11.484Z</time></trkpt><trkpt lat="45.5432136" lon="9.4605026"><ele>133.0</ele><time>2026-04-14T13:33:12.484Z</time></trkpt><trkpt lat="45.5431904" lon="9.4606345"><ele>133.0</ele><time>2026-04-14T13:33:13.483Z</time></trkpt><trkpt lat="45.5431574" lon="9.4607591"><ele>133.0</ele><time>2026-04-14T13:33:14.484Z</time></trkpt><trkpt lat="45.5431482" lon="9.4608667"><ele>133.0</ele><time>2026-04-14T13:33:15.484Z</time></trkpt><trkpt lat="45.5431015" lon="9.4610649"><ele>133.0</ele><time>2026-04-14T13:33:17.484Z</time></trkpt><trkpt lat="45.5430854" lon="9.4612189"><ele>133.0</ele><time>2026-04-14T13:33:18.483Z</time></trkpt><trkpt lat="45.5430734" lon="9.4613497"><ele>133.0</ele><time>2026-04-14T13:33:19.484Z</time></trkpt><trkpt lat="45.5430692" lon="9.4614706"><ele>133.16666666666669</ele><time>2026-04-14T13:33:20.484Z</time></trkpt><trkpt lat="45.5430279" lon="9.4615913"><ele>133.33333333333334</ele><time>2026-04-14T13:33:21.484Z</time></trkpt><trkpt lat="45.5429895" lon="9.461678"><ele>133.5</ele><time>2026-04-14T13:33:22.484Z</time></trkpt><trkpt lat="45.5429595" lon="9.4617759"><ele>133.66666666666666</ele><time>2026-04-14T13:33:23.484Z</time></trkpt><trkpt lat="45.5429166" lon="9.461855"><ele>133.83333333333331</ele><time>2026-04-14T13:33:24.484Z</time></trkpt><trkpt lat="45.5428825" lon="9.4619537"><ele>134.0</ele><time>2026-04-14T13:33:25.484Z</time></trkpt><trkpt lat="45.5428622" lon="9.4620538"><ele>134.33333333333331</ele><time>2026-04-14T13:33:26.484Z</time></trkpt><trkpt lat="45.5428259" lon="9.4621931"><ele>134.66666666666666</ele><time>2026-04-14T13:33:27.484Z</time></trkpt><trkpt lat="45.5427992" lon="9.4623086"><ele>135.0</ele><time>2026-04-14T13:33:28.483Z</time></trkpt><trkpt lat="45.542786" lon="9.4624209"><ele>135.33333333333334</ele><time>2026-04-14T13:33:29.483Z</time></trkpt><trkpt lat="45.5427478" lon="9.4625333"><ele>135.66666666666669</ele><time>2026-04-14T13:33:30.484Z</time></trkpt><trkpt lat="45.542706" lon="9.4626307"><ele>136.0</ele><time>2026-04-14T13:33:31.484Z</time></trkpt><trkpt lat="45.5426549" lon="9.4626921"><ele>136.0</ele><time>2026-04-14T13:33:32.484Z</time></trkpt><trkpt lat="45.5426204" lon="9.4628264"><ele>136.0</ele><time>2026-04-14T13:33:33.483Z</time></trkpt><trkpt lat="45.5425803" lon="9.4629357"><ele>136.0</ele><time>2026-04-14T13:33:34.483Z</time></trkpt><trkpt lat="45.5425302" lon="9.463105"><ele>136.0</ele><time>2026-04-14T13:33:35.484Z</time></trkpt><trkpt lat="45.5424927" lon="9.4632167"><ele>136.0</ele><time>2026-04-14T13:33:36.484Z</time></trkpt><trkpt lat="45.5424611" lon="9.4633024"><ele>135.66666666666669</ele><time>2026-04-14T13:33:37.484Z</time></trkpt><trkpt lat="45.5424274" lon="9.4634927"><ele>135.33333333333334</ele><time>2026-04-14T13:33:39.484Z</time></trkpt><trkpt lat="45.542417" lon="9.4635855"><ele>135.0</ele><time>2026-04-14T13:33:40.483Z</time></trkpt><trkpt lat="45.5423898" lon="9.4636985"><ele>134.66666666666666</ele><time>2026-04-14T13:33:41.483Z</time></trkpt><trkpt lat="45.5423593" lon="9.4638212"><ele>134.33333333333331</ele><time>2026-04-14T13:33:42.484Z</time></trkpt><trkpt lat="45.5423532" lon="9.4639122"><ele>134.0</ele><time>2026-04-14T13:33:43.484Z</time></trkpt><trkpt lat="45.5423479" lon="9.4640124"><ele>134.0</ele><time>2026-04-14T13:33:44.484Z</time></trkpt><trkpt lat="45.542309" lon="9.464114"><ele>134.0</ele><time>2026-04-14T13:33:45.484Z</time></trkpt><trkpt lat="45.542287" lon="9.4642382"><ele>134.0</ele><time>2026-04-14T13:33:46.483Z</time></trkpt><trkpt lat="45.5422516" lon="9.4643568"><ele>134.0</ele><time>2026-04-14T13:33:47.484Z</time></trkpt><trkpt lat="45.5422206" lon="9.4644684"><ele>134.0</ele><time>2026-04-14T13:33:48.484Z</time></trkpt><trkpt lat="45.5421884" lon="9.4645706"><ele>134.0</ele><time>2026-04-14T13:33:49.484Z</time></trkpt><trkpt lat="45.5421695" lon="9.464685"><ele>133.75</ele><time>2026-04-14T13:33:50.483Z</time></trkpt><trkpt lat="45.5420995" lon="9.4648922"><ele>133.5</ele><time>2026-04-14T13:33:52.483Z</time></trkpt><trkpt lat="45.5420406" lon="9.4650744"><ele>133.25</ele><time>2026-04-14T13:33:54.483Z</time></trkpt><trkpt lat="45.5420124" lon="9.4652022"><ele>133.0</ele><time>2026-04-14T13:33:55.484Z</time></trkpt><trkpt lat="45.5419784" lon="9.4653778"><ele>133.6</ele><time>2026-04-14T13:33:57.484Z</time></trkpt><trkpt lat="45.5419605" lon="9.4654806"><ele>134.20000000000002</ele><time>2026-04-14T13:33:59.483Z</time></trkpt><trkpt lat="45.5419095" lon="9.4655872"><ele>134.8</ele><time>2026-04-14T13:34:00.484Z</time></trkpt><trkpt lat="45.5418792" lon="9.4657096"><ele>135.4</ele><time>2026-04-14T13:34:02.484Z</time></trkpt><trkpt lat="45.5418433" lon="9.4658871"><ele>136.0</ele><time>2026-04-14T13:34:04.483Z</time></trkpt><trkpt lat="45.5418188" lon="9.4659967"><ele>136.0</ele><time>2026-04-14T13:34:05.484Z</time></trkpt><trkpt lat="45.5418053" lon="9.4660849"><ele>136.0</ele><time>2026-04-14T13:34:06.484Z</time></trkpt><trkpt lat="45.5417886" lon="9.4661831"><ele>136.0</ele><time>2026-04-14T13:34:07.484Z</time></trkpt><trkpt lat="45.5417421" lon="9.4663322"><ele>136.0</ele><time>2026-04-14T13:34:09.483Z</time></trkpt><trkpt lat="45.5417223" lon="9.4664492"><ele>136.0</ele><time>2026-04-14T13:34:10.483Z</time></trkpt><trkpt lat="45.5417294" lon="9.4665698"><ele>136.0</ele><time>2026-04-14T13:34:11.483Z</time></trkpt><trkpt lat="45.541686" lon="9.4667543"><ele>135.5</ele><time>2026-04-14T13:34:13.484Z</time></trkpt><trkpt lat="45.5416553" lon="9.466845"><ele>135.0</ele><time>2026-04-14T13:34:14.483Z</time></trkpt><trkpt lat="45.5416273" lon="9.4669365"><ele>134.5</ele><time>2026-04-14T13:34:15.484Z</time></trkpt><trkpt lat="45.5415917" lon="9.4670608"><ele>134.0</ele><time>2026-04-14T13:34:16.484Z</time></trkpt><trkpt lat="45.5415683" lon="9.4671765"><ele>133.5</ele><time>2026-04-14T13:34:17.484Z</time></trkpt><trkpt lat="45.5415159" lon="9.467341"><ele>133.0</ele><time>2026-04-14T13:34:18.484Z</time></trkpt><trkpt lat="45.5414759" lon="9.4674157"><ele>133.0</ele><time>2026-04-14T13:34:19.484Z</time></trkpt><trkpt lat="45.5414485" lon="9.4675416"><ele>133.0</ele><time>2026-04-14T13:34:21.483Z</time></trkpt><trkpt lat="45.5414226" lon="9.4676645"><ele>133.0</ele><time>2026-04-14T13:34:22.484Z</time></trkpt><trkpt lat="45.5413877" lon="9.4677437"><ele>133.0</ele><time>2026-04-14T13:34:23.484Z</time></trkpt><trkpt lat="45.5413454" lon="9.4678717"><ele>133.0</ele><time>2026-04-14T13:34:24.484Z</time></trkpt><trkpt lat="45.5413249" lon="9.4679707"><ele>133.0</ele><time>2026-04-14T13:34:25.484Z</time></trkpt><trkpt lat="45.5412815" lon="9.4680609"><ele>133.0</ele><time>2026-04-14T13:34:26.483Z</time></trkpt><trkpt lat="45.5412544" lon="9.4681599"><ele>133.0</ele><time>2026-04-14T13:34:27.483Z</time></trkpt><trkpt lat="45.5412259" lon="9.4682519"><ele>133.0</ele><time>2026-04-14T13:34:28.484Z</time></trkpt><trkpt lat="45.541187" lon="9.4683495"><ele>133.0</ele><time>2026-04-14T13:34:29.484Z</time></trkpt><trkpt lat="45.541151" lon="9.4684571"><ele>133.0</ele><time>2026-04-14T13:34:30.483Z</time></trkpt><trkpt lat="45.5411265" lon="9.4685451"><ele>133.0</ele><time>2026-04-14T13:34:31.484Z</time></trkpt><trkpt lat="45.5410765" lon="9.4686382"><ele>133.0</ele><time>2026-04-14T13:34:32.484Z</time></trkpt><trkpt lat="45.5410294" lon="9.4688376"><ele>133.0</ele><time>2026-04-14T13:34:34.484Z</time></trkpt><trkpt lat="45.5409833" lon="9.4689874"><ele>133.0</ele><time>2026-04-14T13:34:35.483Z</time></trkpt><trkpt lat="45.5409535" lon="9.4690771"><ele>133.0</ele><time>2026-04-14T13:34:36.483Z</time></trkpt><trkpt lat="45.5409148" lon="9.4692677"><ele>133.0</ele><time>2026-04-14T13:34:38.484Z</time></trkpt><trkpt lat="45.5408694" lon="9.4693667"><ele>133.0</ele><time>2026-04-14T13:34:39.484Z</time></trkpt><trkpt lat="45.5408075" lon="9.4694552"><ele>133.0</ele><time>2026-04-14T13:34:40.484Z</time></trkpt><trkpt lat="45.5407959" lon="9.4696326"><ele>133.0</ele><time>2026-04-14T13:34:41.484Z</time></trkpt><trkpt lat="45.5407472" lon="9.4697418"><ele>133.0</ele><time>2026-04-14T13:34:42.483Z</time></trkpt><trkpt lat="45.5407098" lon="9.4698551"><ele>132.83333333333334</ele><time>2026-04-14T13:34:43.483Z</time></trkpt><trkpt lat="45.5406819" lon="9.4699829"><ele>132.66666666666669</ele><time>2026-04-14T13:34:44.484Z</time></trkpt><trkpt lat="45.5406863" lon="9.4700964"><ele>132.5</ele><time>2026-04-14T13:34:45.484Z</time></trkpt><trkpt lat="45.5406203" lon="9.4702012"><ele>132.33333333333334</ele><time>2026-04-14T13:34:46.484Z</time></trkpt><trkpt lat="45.5405799" lon="9.4703316"><ele>132.16666666666666</ele><time>2026-04-14T13:34:47.484Z</time></trkpt><trkpt lat="45.540589" lon="9.4704329"><ele>132.0</ele><time>2026-04-14T13:34:48.484Z</time></trkpt><trkpt lat="45.5405631" lon="9.4705252"><ele>131.83333333333334</ele><time>2026-04-14T13:34:49.484Z</time></trkpt><trkpt lat="45.5405517" lon="9.4706149"><ele>131.66666666666666</ele><time>2026-04-14T13:34:50.484Z</time></trkpt><trkpt lat="45.5405212" lon="9.4707062"><ele>131.5</ele><time>2026-04-14T13:34:51.483Z</time></trkpt><trkpt lat="45.5404721" lon="9.4708367"><ele>131.33333333333331</ele><time>2026-04-14T13:34:52.483Z</time></trkpt><trkpt lat="45.5404168" lon="9.4709588"><ele>131.16666666666666</ele><time>2026-04-14T13:34:53.483Z</time></trkpt><trkpt lat="45.5403779" lon="9.4710632"><ele>131.0</ele><time>2026-04-14T13:34:54.484Z</time></trkpt><trkpt lat="45.540349" lon="9.471151"><ele>131.0</ele><time>2026-04-14T13:34:55.483Z</time></trkpt><trkpt lat="45.5403072" lon="9.471254"><ele>131.0</ele><time>2026-04-14T13:34:56.484Z</time></trkpt><trkpt lat="45.5402412" lon="9.4714477"><ele>131.0</ele><time>2026-04-14T13:34:58.484Z</time></trkpt><trkpt lat="45.540215" lon="9.4716064"><ele>131.0</ele><time>2026-04-14T13:34:59.484Z</time></trkpt><trkpt lat="45.540199" lon="9.4717378"><ele>131.0</ele><time>2026-04-14T13:35:00.483Z</time></trkpt><trkpt lat="45.5401807" lon="9.4718278"><ele>131.0</ele><time>2026-04-14T13:35:01.483Z</time></trkpt><trkpt lat="45.5401852" lon="9.4719238"><ele>131.0</ele><time>2026-04-14T13:35:02.483Z</time></trkpt><trkpt lat="45.5401176" lon="9.4720829"><ele>131.0</ele><time>2026-04-14T13:35:04.484Z</time></trkpt><trkpt lat="45.540084" lon="9.4721617"><ele>131.0</ele><time>2026-04-14T13:35:05.484Z</time></trkpt><trkpt lat="45.5400547" lon="9.472268"><ele>131.0</ele><time>2026-04-14T13:35:06.483Z</time></trkpt><trkpt lat="45.5399819" lon="9.4723686"><ele>131.0</ele><time>2026-04-14T13:35:07.483Z</time></trkpt><trkpt lat="45.539983" lon="9.4724788"><ele>131.16666666666666</ele><time>2026-04-14T13:35:08.484Z</time></trkpt><trkpt lat="45.5399664" lon="9.4725661"><ele>131.33333333333331</ele><time>2026-04-14T13:35:09.484Z</time></trkpt><trkpt lat="45.5399311" lon="9.472699"><ele>131.5</ele><time>2026-04-14T13:35:10.484Z</time></trkpt><trkpt lat="45.5399128" lon="9.4728559"><ele>131.66666666666666</ele><time>2026-04-14T13:35:11.484Z</time></trkpt><trkpt lat="45.5399369" lon="9.4729546"><ele>131.83333333333334</ele><time>2026-04-14T13:35:12.484Z</time></trkpt><trkpt lat="45.5398701" lon="9.4730464"><ele>132.0</ele><time>2026-04-14T13:35:13.483Z</time></trkpt><trkpt lat="45.5398333" lon="9.4731213"><ele>131.83333333333334</ele><time>2026-04-14T13:35:14.484Z</time></trkpt><trkpt lat="45.5398069" lon="9.4732528"><ele>131.66666666666666</ele><time>2026-04-14T13:35:15.484Z</time></trkpt><trkpt lat="45.5397658" lon="9.4733825"><ele>131.5</ele><time>2026-04-14T13:35:16.483Z</time></trkpt><trkpt lat="45.5397509" lon="9.4735061"><ele>131.33333333333331</ele><time>2026-04-14T13:35:17.484Z</time></trkpt><trkpt lat="45.539712" lon="9.4735791"><ele>131.16666666666666</ele><time>2026-04-14T13:35:18.484Z</time></trkpt><trkpt lat="45.5396879" lon="9.4736715"><ele>131.0</ele><time>2026-04-14T13:35:19.483Z</time></trkpt><trkpt lat="45.5396766" lon="9.4738121"><ele>131.0</ele><time>2026-04-14T13:35:20.484Z</time></trkpt><trkpt lat="45.5396329" lon="9.4739078"><ele>131.0</ele><time>2026-04-14T13:35:21.484Z</time></trkpt><trkpt lat="45.5396167" lon="9.474031"><ele>131.0</ele><time>2026-04-14T13:35:22.484Z</time></trkpt><trkpt lat="45.5395346" lon="9.474093"><ele>131.0</ele><time>2026-04-14T13:35:23.483Z</time></trkpt><trkpt lat="45.5394785" lon="9.4741777"><ele>131.0</ele><time>2026-04-14T13:35:24.484Z</time></trkpt><trkpt lat="45.5394686" lon="9.4742776"><ele>131.0</ele><time>2026-04-14T13:35:25.483Z</time></trkpt><trkpt lat="45.539472" lon="9.4743874"><ele>131.4</ele><time>2026-04-14T13:35:26.484Z</time></trkpt><trkpt lat="45.5394454" lon="9.4745049"><ele>131.8</ele><time>2026-04-14T13:35:27.484Z</time></trkpt><trkpt lat="45.5394484" lon="9.4747103"><ele>132.20000000000002</ele><time>2026-04-14T13:35:29.483Z</time></trkpt><trkpt lat="45.5393859" lon="9.4748207"><ele>132.6</ele><time>2026-04-14T13:35:30.484Z</time></trkpt><trkpt lat="45.5393515" lon="9.4749355"><ele>133.0</ele><time>2026-04-14T13:35:31.484Z</time></trkpt><trkpt lat="45.5392842" lon="9.4750784"><ele>133.0</ele><time>2026-04-14T13:35:32.483Z</time></trkpt><trkpt lat="45.5392411" lon="9.4751992"><ele>133.0</ele><time>2026-04-14T13:35:33.484Z</time></trkpt><trkpt lat="45.5392439" lon="9.475307"><ele>133.0</ele><time>2026-04-14T13:35:34.484Z</time></trkpt><trkpt lat="45.5392213" lon="9.4754118"><ele>133.0</ele><time>2026-04-14T13:35:35.484Z</time></trkpt><trkpt lat="45.5391752" lon="9.4755208"><ele>133.0</ele><time>2026-04-14T13:35:36.484Z</time></trkpt><trkpt lat="45.5391321" lon="9.4756374"><ele>133.0</ele><time>2026-04-14T13:35:37.484Z</time></trkpt><trkpt lat="45.5391905" lon="9.4757201"><ele>132.8</ele><time>2026-04-14T13:35:38.483Z</time></trkpt><trkpt lat="45.5391633" lon="9.4758384"><ele>132.60000000000002</ele><time>2026-04-14T13:35:39.483Z</time></trkpt><trkpt lat="45.5391277" lon="9.4759649"><ele>132.39999999999998</ele><time>2026-04-14T13:35:40.484Z</time></trkpt><trkpt lat="45.5389854" lon="9.4760508"><ele>132.2</ele><time>2026-04-14T13:35:41.484Z</time></trkpt><trkpt lat="45.5389236" lon="9.4761423"><ele>132.0</ele><time>2026-04-14T13:35:42.483Z</time></trkpt><trkpt lat="45.5388165" lon="9.4762404"><ele>132.4</ele><time>2026-04-14T13:35:43.484Z</time></trkpt><trkpt lat="45.5387936" lon="9.4763699"><ele>132.79999999999998</ele><time>2026-04-14T13:35:44.483Z</time></trkpt><trkpt lat="45.5388163" lon="9.4764912"><ele>133.2</ele><time>2026-04-14T13:35:45.484Z</time></trkpt><trkpt lat="45.5387647" lon="9.4766246"><ele>133.6</ele><time>2026-04-14T13:35:46.483Z</time></trkpt><trkpt lat="45.538715" lon="9.476736"><ele>134.0</ele><time>2026-04-14T13:35:47.484Z</time></trkpt><trkpt lat="45.5386733" lon="9.4768713"><ele>134.2</ele><time>2026-04-14T13:35:49.483Z</time></trkpt><trkpt lat="45.5386899" lon="9.4770058"><ele>134.4</ele><time>2026-04-14T13:35:51.484Z</time></trkpt><trkpt lat="45.5386424" lon="9.4771751"><ele>134.6</ele><time>2026-04-14T13:35:52.484Z</time></trkpt><trkpt lat="45.5386116" lon="9.4773183"><ele>134.8</ele><time>2026-04-14T13:35:53.483Z</time></trkpt><trkpt lat="45.5386082" lon="9.4774206"><ele>135.0</ele><time>2026-04-14T13:35:54.484Z</time></trkpt><trkpt lat="45.5385877" lon="9.4775231"><ele>135.16666666666666</ele><time>2026-04-14T13:35:55.484Z</time></trkpt><trkpt lat="45.5385375" lon="9.4776303"><ele>135.33333333333334</ele><time>2026-04-14T13:35:56.484Z</time></trkpt><trkpt lat="45.5384962" lon="9.4777334"><ele>135.5</ele><time>2026-04-14T13:35:57.484Z</time></trkpt><trkpt lat="45.5384678" lon="9.4778441"><ele>135.66666666666669</ele><time>2026-04-14T13:35:58.484Z</time></trkpt><trkpt lat="45.538437" lon="9.4779512"><ele>135.83333333333334</ele><time>2026-04-14T13:35:59.483Z</time></trkpt><trkpt lat="45.5384247" lon="9.4780582"><ele>136.0</ele><time>2026-04-14T13:36:00.483Z</time></trkpt><trkpt lat="45.5383792" lon="9.4782533"><ele>136.0</ele><time>2026-04-14T13:36:02.483Z</time></trkpt><trkpt lat="45.538338" lon="9.4783617"><ele>136.0</ele><time>2026-04-14T13:36:03.484Z</time></trkpt><trkpt lat="45.5383053" lon="9.4784518"><ele>136.0</ele><time>2026-04-14T13:36:04.484Z</time></trkpt><trkpt lat="45.53831" lon="9.4785507"><ele>136.0</ele><time>2026-04-14T13:36:05.483Z</time></trkpt><trkpt lat="45.5382615" lon="9.4786431"><ele>136.0</ele><time>2026-04-14T13:36:06.484Z</time></trkpt><trkpt lat="45.5382173" lon="9.4787542"><ele>136.0</ele><time>2026-04-14T13:36:07.484Z</time></trkpt><trkpt lat="45.5381997" lon="9.4788462"><ele>136.16666666666669</ele><time>2026-04-14T13:36:08.484Z</time></trkpt><trkpt lat="45.5381716" lon="9.4789453"><ele>136.33333333333334</ele><time>2026-04-14T13:36:09.484Z</time></trkpt><trkpt lat="45.5380921" lon="9.4790387"><ele>136.5</ele><time>2026-04-14T13:36:10.484Z</time></trkpt><trkpt lat="45.5380193" lon="9.4791448"><ele>136.66666666666666</ele><time>2026-04-14T13:36:12.484Z</time></trkpt><trkpt lat="45.5380434" lon="9.4792632"><ele>136.83333333333331</ele><time>2026-04-14T13:36:16.484Z</time></trkpt><trkpt lat="45.5380459" lon="9.479359"><ele>137.0</ele><time>2026-04-14T13:36:21.483Z</time></trkpt><trkpt lat="45.5380825" lon="9.4794377"><ele>137.2</ele><time>2026-04-14T13:36:24.483Z</time></trkpt><trkpt lat="45.5380942" lon="9.4796028"><ele>137.39999999999998</ele><time>2026-04-14T13:36:25.484Z</time></trkpt><trkpt lat="45.5380926" lon="9.4797114"><ele>137.60000000000002</ele><time>2026-04-14T13:36:26.484Z</time></trkpt><trkpt lat="45.5380294" lon="9.4797631"><ele>137.8</ele><time>2026-04-14T13:36:27.484Z</time></trkpt><trkpt lat="45.5380423" lon="9.479887"><ele>138.0</ele><time>2026-04-14T13:36:28.484Z</time></trkpt><trkpt lat="45.5381254" lon="9.4800114"><ele>138.0</ele><time>2026-04-14T13:36:29.484Z</time></trkpt><trkpt lat="45.5381727" lon="9.4801011"><ele>138.0</ele><time>2026-04-14T13:36:30.484Z</time></trkpt><trkpt lat="45.5381696" lon="9.480221"><ele>138.0</ele><time>2026-04-14T13:36:31.483Z</time></trkpt><trkpt lat="45.5381106" lon="9.4803276"><ele>138.0</ele><time>2026-04-14T13:36:32.484Z</time></trkpt><trkpt lat="45.5381495" lon="9.4804004"><ele>138.0</ele><time>2026-04-14T13:36:34.484Z</time></trkpt><trkpt lat="45.5381979" lon="9.4804964"><ele>138.0</ele><time>2026-04-14T13:36:36.484Z</time></trkpt><trkpt lat="45.5382192" lon="9.4805925"><ele>137.8</ele><time>2026-04-14T13:36:38.484Z</time></trkpt><trkpt lat="45.5381819" lon="9.4807003"><ele>137.60000000000002</ele><time>2026-04-14T13:36:40.483Z</time></trkpt><trkpt lat="45.5382192" lon="9.4808587"><ele>137.39999999999998</ele><time>2026-04-14T13:36:42.484Z</time></trkpt><trkpt lat="45.53827" lon="9.4809839"><ele>137.2</ele><time>2026-04-14T13:36:44.484Z</time></trkpt><trkpt lat="45.5382859" lon="9.4811388"><ele>137.0</ele><time>2026-04-14T13:36:46.484Z</time></trkpt><trkpt lat="45.5382535" lon="9.48125"><ele>136.75</ele><time>2026-04-14T13:36:53.484Z</time></trkpt><trkpt lat="45.538267" lon="9.4813873"><ele>136.5</ele><time>2026-04-14T13:36:55.484Z</time></trkpt><trkpt lat="45.5382772" lon="9.4815222"><ele>136.25</ele><time>2026-04-14T13:36:56.483Z</time></trkpt><trkpt lat="45.5383658" lon="9.4817956"><ele>136.0</ele><time>2026-04-14T13:36:57.483Z</time></trkpt><trkpt lat="45.538387" lon="9.4819401"><ele>136.0</ele><time>2026-04-14T13:36:59.483Z</time></trkpt><trkpt lat="45.5384501" lon="9.4820302"><ele>136.0</ele><time>2026-04-14T13:37:00.484Z</time></trkpt><trkpt lat="45.5384317" lon="9.4821786"><ele>136.0</ele><time>2026-04-14T13:37:02.483Z</time></trkpt><trkpt lat="45.538451" lon="9.482274"><ele>136.0</ele><time>2026-04-14T13:37:03.484Z</time></trkpt><trkpt lat="45.5384906" lon="9.4824583"><ele>136.0</ele><time>2026-04-14T13:37:05.484Z</time></trkpt><trkpt lat="45.5385073" lon="9.4826507"><ele>136.0</ele><time>2026-04-14T13:37:07.483Z</time></trkpt><trkpt lat="45.5385474" lon="9.4828174"><ele>136.0</ele><time>2026-04-14T13:37:09.484Z</time></trkpt><trkpt lat="45.5385414" lon="9.4829223"><ele>136.0</ele><time>2026-04-14T13:37:10.483Z</time></trkpt><trkpt lat="45.5385938" lon="9.4830348"><ele>136.0</ele><time>2026-04-14T13:37:11.484Z</time></trkpt><trkpt lat="45.538659" lon="9.4831216"><ele>136.0</ele><time>2026-04-14T13:37:12.483Z</time></trkpt><trkpt lat="45.5386521" lon="9.4832142"><ele>136.0</ele><time>2026-04-14T13:37:13.483Z</time></trkpt><trkpt lat="45.5386761" lon="9.4833074"><ele>136.33333333333334</ele><time>2026-04-14T13:37:14.484Z</time></trkpt><trkpt lat="45.5387371" lon="9.4833894"><ele>136.66666666666669</ele><time>2026-04-14T13:37:15.484Z</time></trkpt><trkpt lat="45.5388026" lon="9.4835415"><ele>137.0</ele><time>2026-04-14T13:37:17.484Z</time></trkpt><trkpt lat="45.5387913" lon="9.4836556"><ele>137.33333333333334</ele><time>2026-04-14T13:37:18.484Z</time></trkpt><trkpt lat="45.5387935" lon="9.483759"><ele>137.66666666666666</ele><time>2026-04-14T13:37:19.484Z</time></trkpt><trkpt lat="45.538768" lon="9.4838516"><ele>138.0</ele><time>2026-04-14T13:37:20.484Z</time></trkpt><trkpt lat="45.5387431" lon="9.4839511"><ele>137.8</ele><time>2026-04-14T13:37:21.484Z</time></trkpt><trkpt lat="45.5386971" lon="9.4840977"><ele>137.60000000000002</ele><time>2026-04-14T13:37:23.484Z</time></trkpt><trkpt lat="45.5386711" lon="9.4841801"><ele>137.39999999999998</ele><time>2026-04-14T13:37:24.483Z</time></trkpt><trkpt lat="45.5386464" lon="9.4843688"><ele>137.2</ele><time>2026-04-14T13:37:26.484Z</time></trkpt><trkpt lat="45.5386097" lon="9.4844514"><ele>137.0</ele><time>2026-04-14T13:37:27.484Z</time></trkpt><trkpt lat="45.5385477" lon="9.4845804"><ele>137.2</ele><time>2026-04-14T13:37:29.484Z</time></trkpt><trkpt lat="45.5385701" lon="9.4847456"><ele>137.39999999999998</ele><time>2026-04-14T13:37:31.484Z</time></trkpt><trkpt lat="45.5386569" lon="9.484744"><ele>137.60000000000002</ele><time>2026-04-14T13:37:32.484Z</time></trkpt><trkpt lat="45.538599" lon="9.484887"><ele>137.8</ele><time>2026-04-14T13:37:34.484Z</time></trkpt><trkpt lat="45.5385696" lon="9.4849848"><ele>138.0</ele><time>2026-04-14T13:37:35.484Z</time></trkpt><trkpt lat="45.5384959" lon="9.4851012"><ele>138.0</ele><time>2026-04-14T13:37:36.483Z</time></trkpt><trkpt lat="45.5384157" lon="9.4852648"><ele>138.0</ele><time>2026-04-14T13:37:38.484Z</time></trkpt><trkpt lat="45.5383998" lon="9.4853722"><ele>138.0</ele><time>2026-04-14T13:37:39.484Z</time></trkpt><trkpt lat="45.5383816" lon="9.4854705"><ele>138.0</ele><time>2026-04-14T13:37:40.483Z</time></trkpt><trkpt lat="45.538307" lon="9.4856259"><ele>138.0</ele><time>2026-04-14T13:37:41.483Z</time></trkpt><trkpt lat="45.5382341" lon="9.485705"><ele>138.16666666666666</ele><time>2026-04-14T13:37:42.484Z</time></trkpt><trkpt lat="45.5382061" lon="9.4858105"><ele>138.33333333333334</ele><time>2026-04-14T13:37:43.484Z</time></trkpt><trkpt lat="45.538173" lon="9.4859366"><ele>138.5</ele><time>2026-04-14T13:37:44.483Z</time></trkpt><trkpt lat="45.5381287" lon="9.4860363"><ele>138.66666666666669</ele><time>2026-04-14T13:37:45.484Z</time></trkpt><trkpt lat="45.5380768" lon="9.4861377"><ele>138.83333333333334</ele><time>2026-04-14T13:37:46.484Z</time></trkpt><trkpt lat="45.5380358" lon="9.4862228"><ele>139.0</ele><time>2026-04-14T13:37:47.484Z</time></trkpt><trkpt lat="45.5379471" lon="9.4862723"><ele>138.75</ele><time>2026-04-14T13:37:48.484Z</time></trkpt><trkpt lat="45.5378817" lon="9.4863848"><ele>138.5</ele><time>2026-04-14T13:37:49.484Z</time></trkpt><trkpt lat="45.5378192" lon="9.4864803"><ele>138.25</ele><time>2026-04-14T13:37:50.483Z</time></trkpt><trkpt lat="45.5378303" lon="9.4866658"><ele>138.0</ele><time>2026-04-14T13:37:52.484Z</time></trkpt><trkpt lat="45.5377564" lon="9.4868624"><ele>138.0</ele><time>2026-04-14T13:37:54.483Z</time></trkpt><trkpt lat="45.5377114" lon="9.4869797"><ele>138.0</ele><time>2026-04-14T13:37:55.484Z</time></trkpt><trkpt lat="45.5375985" lon="9.4871273"><ele>138.0</ele><time>2026-04-14T13:37:56.484Z</time></trkpt><trkpt lat="45.5375378" lon="9.4872327"><ele>138.0</ele><time>2026-04-14T13:37:57.484Z</time></trkpt><trkpt lat="45.5375553" lon="9.4873674"><ele>138.0</ele><time>2026-04-14T13:37:58.484Z</time></trkpt><trkpt lat="45.5375496" lon="9.4874614"><ele>138.0</ele><time>2026-04-14T13:37:59.484Z</time></trkpt><trkpt lat="45.5376094" lon="9.4875771"><ele>138.0</ele><time>2026-04-14T13:38:00.484Z</time></trkpt><trkpt lat="45.5375465" lon="9.4876591"><ele>138.0</ele><time>2026-04-14T13:38:01.483Z</time></trkpt><trkpt lat="45.5375425" lon="9.4877579"><ele>138.0</ele><time>2026-04-14T13:38:02.484Z</time></trkpt><trkpt lat="45.5374868" lon="9.4878717"><ele>138.0</ele><time>2026-04-14T13:38:03.483Z</time></trkpt><trkpt lat="45.5374596" lon="9.4879768"><ele>138.0</ele><time>2026-04-14T13:38:04.483Z</time></trkpt><trkpt lat="45.5374294" lon="9.4880697"><ele>138.20000000000002</ele><time>2026-04-14T13:38:05.484Z</time></trkpt><trkpt lat="45.5374727" lon="9.4881666"><ele>138.4</ele><time>2026-04-14T13:38:06.484Z</time></trkpt><trkpt lat="45.5375584" lon="9.488273"><ele>138.60000000000002</ele><time>2026-04-14T13:38:07.483Z</time></trkpt><trkpt lat="45.5375131" lon="9.4883641"><ele>138.8</ele><time>2026-04-14T13:38:08.484Z</time></trkpt><trkpt lat="45.5374228" lon="9.4885301"><ele>139.0</ele><time>2026-04-14T13:38:09.483Z</time></trkpt><trkpt lat="45.5373697" lon="9.4886674"><ele>139.0</ele><time>2026-04-14T13:38:10.484Z</time></trkpt><trkpt lat="45.5373471" lon="9.4887557"><ele>139.0</ele><time>2026-04-14T13:38:11.483Z</time></trkpt><trkpt lat="45.5372894" lon="9.4888643"><ele>139.0</ele><time>2026-04-14T13:38:12.484Z</time></trkpt><trkpt lat="45.5372557" lon="9.4889651"><ele>139.0</ele><time>2026-04-14T13:38:13.483Z</time></trkpt><trkpt lat="45.5372577" lon="9.489099"><ele>139.0</ele><time>2026-04-14T13:38:14.483Z</time></trkpt><trkpt lat="45.5371821" lon="9.4892445"><ele>139.0</ele><time>2026-04-14T13:38:16.483Z</time></trkpt><trkpt lat="45.5371711" lon="9.4893474"><ele>139.0</ele><time>2026-04-14T13:38:17.483Z</time></trkpt><trkpt lat="45.5371998" lon="9.4894459"><ele>139.0</ele><time>2026-04-14T13:38:19.483Z</time></trkpt><trkpt lat="45.5371413" lon="9.4895155"><ele>139.0</ele><time>2026-04-14T13:38:21.484Z</time></trkpt><trkpt lat="45.5370952" lon="9.4896061"><ele>139.0</ele><time>2026-04-14T13:38:24.483Z</time></trkpt><trkpt lat="45.5370813" lon="9.4897465"><ele>139.0</ele><time>2026-04-14T13:38:26.483Z</time></trkpt><trkpt lat="45.5370806" lon="9.4898627"><ele>138.5</ele><time>2026-04-14T13:38:27.483Z</time></trkpt><trkpt lat="45.5371327" lon="9.4900114"><ele>138.0</ele><time>2026-04-14T13:38:28.484Z</time></trkpt><trkpt lat="45.5371453" lon="9.4901015"><ele>137.5</ele><time>2026-04-14T13:38:29.484Z</time></trkpt><trkpt lat="45.537146" lon="9.4902065"><ele>137.0</ele><time>2026-04-14T13:38:30.484Z</time></trkpt><trkpt lat="45.537142" lon="9.4903378"><ele>136.5</ele><time>2026-04-14T13:38:31.484Z</time></trkpt><trkpt lat="45.5371342" lon="9.4904531"><ele>136.0</ele><time>2026-04-14T13:38:32.484Z</time></trkpt><trkpt lat="45.5370762" lon="9.4905901"><ele>136.0</ele><time>2026-04-14T13:38:33.484Z</time></trkpt><trkpt lat="45.5370975" lon="9.4907301"><ele>136.0</ele><time>2026-04-14T13:38:34.483Z</time></trkpt><trkpt lat="45.5370585" lon="9.4909161"><ele>136.0</ele><time>2026-04-14T13:38:36.483Z</time></trkpt><trkpt lat="45.5370147" lon="9.4910372"><ele>136.0</ele><time>2026-04-14T13:38:37.484Z</time></trkpt><trkpt lat="45.5370009" lon="9.491169"><ele>136.0</ele><time>2026-04-14T13:38:39.484Z</time></trkpt><trkpt lat="45.5369633" lon="9.4912854"><ele>136.16666666666669</ele><time>2026-04-14T13:38:40.484Z</time></trkpt><trkpt lat="45.5369556" lon="9.4914083"><ele>136.33333333333334</ele><time>2026-04-14T13:38:41.483Z</time></trkpt><trkpt lat="45.5369028" lon="9.49146"><ele>136.5</ele><time>2026-04-14T13:38:42.484Z</time></trkpt><trkpt lat="45.5369143" lon="9.4915741"><ele>136.66666666666666</ele><time>2026-04-14T13:38:43.484Z</time></trkpt><trkpt lat="45.5369318" lon="9.4916918"><ele>136.83333333333331</ele><time>2026-04-14T13:38:44.484Z</time></trkpt><trkpt lat="45.5369294" lon="9.4917995"><ele>137.0</ele><time>2026-04-14T13:38:45.483Z</time></trkpt><trkpt lat="45.5369423" lon="9.4919729"><ele>137.0</ele><time>2026-04-14T13:38:47.484Z</time></trkpt><trkpt lat="45.5369664" lon="9.4920806"><ele>137.0</ele><time>2026-04-14T13:38:48.484Z</time></trkpt><trkpt lat="45.5369775" lon="9.4921968"><ele>137.0</ele><time>2026-04-14T13:38:49.484Z</time></trkpt><trkpt lat="45.5369383" lon="9.4923195"><ele>137.0</ele><time>2026-04-14T13:38:50.484Z</time></trkpt><trkpt lat="45.5369078" lon="9.4924256"><ele>137.0</ele><time>2026-04-14T13:38:51.484Z</time></trkpt><trkpt lat="45.5368797" lon="9.4925358"><ele>137.0</ele><time>2026-04-14T13:38:52.483Z</time></trkpt><trkpt lat="45.5368562" lon="9.4926257"><ele>137.16666666666666</ele><time>2026-04-14T13:38:53.483Z</time></trkpt><trkpt lat="45.5368601" lon="9.4927305"><ele>137.33333333333331</ele><time>2026-04-14T13:38:54.484Z</time></trkpt><trkpt lat="45.5367752" lon="9.4928236"><ele>137.5</ele><time>2026-04-14T13:38:55.484Z</time></trkpt><trkpt lat="45.5367483" lon="9.4929275"><ele>137.66666666666666</ele><time>2026-04-14T13:38:56.483Z</time></trkpt><trkpt lat="45.536696" lon="9.4930444"><ele>137.83333333333334</ele><time>2026-04-14T13:38:57.484Z</time></trkpt><trkpt lat="45.5366603" lon="9.4931427"><ele>138.0</ele><time>2026-04-14T13:38:58.483Z</time></trkpt><trkpt lat="45.536589" lon="9.4933348"><ele>138.0</ele><time>2026-04-14T13:39:00.484Z</time></trkpt><trkpt lat="45.5365836" lon="9.493516"><ele>138.0</ele><time>2026-04-14T13:39:02.483Z</time></trkpt><trkpt lat="45.5365572" lon="9.493701"><ele>138.0</ele><time>2026-04-14T13:39:04.484Z</time></trkpt><trkpt lat="45.5365272" lon="9.4938022"><ele>138.0</ele><time>2026-04-14T13:39:05.483Z</time></trkpt><trkpt lat="45.5364703" lon="9.4939346"><ele>138.0</ele><time>2026-04-14T13:39:06.484Z</time></trkpt><trkpt lat="45.5364295" lon="9.4940474"><ele>137.8</ele><time>2026-04-14T13:39:07.484Z</time></trkpt><trkpt lat="45.536397" lon="9.4941607"><ele>137.60000000000002</ele><time>2026-04-14T13:39:09.483Z</time></trkpt><trkpt lat="45.5363299" lon="9.4942748"><ele>137.39999999999998</ele><time>2026-04-14T13:39:10.484Z</time></trkpt><trkpt lat="45.5362822" lon="9.4943585"><ele>137.2</ele><time>2026-04-14T13:39:11.484Z</time></trkpt><trkpt lat="45.536281" lon="9.4944768"><ele>137.0</ele><time>2026-04-14T13:39:12.483Z</time></trkpt><trkpt lat="45.5362509" lon="9.4946202"><ele>137.0</ele><time>2026-04-14T13:39:13.484Z</time></trkpt><trkpt lat="45.5362115" lon="9.4947545"><ele>137.0</ele><time>2026-04-14T13:39:14.484Z</time></trkpt><trkpt lat="45.5361605" lon="9.4948762"><ele>137.0</ele><time>2026-04-14T13:39:15.483Z</time></trkpt><trkpt lat="45.5361395" lon="9.4950359"><ele>137.0</ele><time>2026-04-14T13:39:16.484Z</time></trkpt><trkpt lat="45.5361231" lon="9.4951231"><ele>137.0</ele><time>2026-04-14T13:39:17.483Z</time></trkpt><trkpt lat="45.5360939" lon="9.495241"><ele>137.0</ele><time>2026-04-14T13:39:18.484Z</time></trkpt><trkpt lat="45.5360717" lon="9.4953488"><ele>137.0</ele><time>2026-04-14T13:39:19.484Z</time></trkpt><trkpt lat="45.5360529" lon="9.4954505"><ele>137.0</ele><time>2026-04-14T13:39:20.484Z</time></trkpt><trkpt lat="45.5360248" lon="9.4955568"><ele>137.0</ele><time>2026-04-14T13:39:21.483Z</time></trkpt><trkpt lat="45.5360096" lon="9.4956819"><ele>137.0</ele><time>2026-04-14T13:39:22.484Z</time></trkpt><trkpt lat="45.5359769" lon="9.4957885"><ele>137.0</ele><time>2026-04-14T13:39:23.483Z</time></trkpt><trkpt lat="45.5359905" lon="9.4959083"><ele>137.0</ele><time>2026-04-14T13:39:24.483Z</time></trkpt><trkpt lat="45.5359765" lon="9.4960951"><ele>137.0</ele><time>2026-04-14T13:39:26.483Z</time></trkpt><trkpt lat="45.5358854" lon="9.4962128"><ele>137.0</ele><time>2026-04-14T13:39:27.484Z</time></trkpt><trkpt lat="45.5358793" lon="9.4963108"><ele>137.0</ele><time>2026-04-14T13:39:28.484Z</time></trkpt><trkpt lat="45.5358995" lon="9.4964883"><ele>137.0</ele><time>2026-04-14T13:39:30.484Z</time></trkpt><trkpt lat="45.5358622" lon="9.4965974"><ele>137.0</ele><time>2026-04-14T13:39:31.484Z</time></trkpt><trkpt lat="45.5358348" lon="9.4967037"><ele>137.0</ele><time>2026-04-14T13:39:32.483Z</time></trkpt><trkpt lat="45.535828" lon="9.4968146"><ele>137.0</ele><time>2026-04-14T13:39:33.484Z</time></trkpt><trkpt lat="45.5358089" lon="9.4970243"><ele>137.0</ele><time>2026-04-14T13:39:35.484Z</time></trkpt><trkpt lat="45.5357957" lon="9.4971491"><ele>137.0</ele><time>2026-04-14T13:39:36.483Z</time></trkpt><trkpt lat="45.5357605" lon="9.4972682"><ele>137.0</ele><time>2026-04-14T13:39:37.484Z</time></trkpt><trkpt lat="45.5357423" lon="9.4974672"><ele>137.0</ele><time>2026-04-14T13:39:39.483Z</time></trkpt><trkpt lat="45.5357231" lon="9.4975727"><ele>137.0</ele><time>2026-04-14T13:39:40.484Z</time></trkpt><trkpt lat="45.535683" lon="9.497676"><ele>137.0</ele><time>2026-04-14T13:39:41.483Z</time></trkpt><trkpt lat="45.5356613" lon="9.4977838"><ele>137.0</ele><time>2026-04-14T13:39:42.484Z</time></trkpt><trkpt lat="45.5356322" lon="9.4978903"><ele>136.79999999999998</ele><time>2026-04-14T13:39:43.483Z</time></trkpt><trkpt lat="45.5356027" lon="9.4980088"><ele>136.6</ele><time>2026-04-14T13:39:44.484Z</time></trkpt><trkpt lat="45.535559" lon="9.4982192"><ele>136.39999999999998</ele><time>2026-04-14T13:39:46.484Z</time></trkpt><trkpt lat="45.5354996" lon="9.4983366"><ele>136.2</ele><time>2026-04-14T13:39:47.483Z</time></trkpt><trkpt lat="45.5354422" lon="9.498451"><ele>136.0</ele><time>2026-04-14T13:39:48.484Z</time></trkpt><trkpt lat="45.5354185" lon="9.4985876"><ele>136.0</ele><time>2026-04-14T13:39:49.484Z</time></trkpt><trkpt lat="45.5353829" lon="9.4986865"><ele>136.0</ele><time>2026-04-14T13:39:50.484Z</time></trkpt><trkpt lat="45.5353125" lon="9.4987103"><ele>136.0</ele><time>2026-04-14T13:39:51.484Z</time></trkpt><trkpt lat="45.5352971" lon="9.498858"><ele>136.0</ele><time>2026-04-14T13:39:52.484Z</time></trkpt><trkpt lat="45.5352427" lon="9.49897"><ele>136.0</ele><time>2026-04-14T13:39:53.484Z</time></trkpt><trkpt lat="45.5352102" lon="9.4990799"><ele>136.0</ele><time>2026-04-14T13:39:54.483Z</time></trkpt><trkpt lat="45.5351756" lon="9.4991926"><ele>136.0</ele><time>2026-04-14T13:39:55.483Z</time></trkpt><trkpt lat="45.535167" lon="9.4994265"><ele>136.0</ele><time>2026-04-14T13:39:57.483Z</time></trkpt><trkpt lat="45.5351544" lon="9.4995159"><ele>136.0</ele><time>2026-04-14T13:39:58.484Z</time></trkpt><trkpt lat="45.5351402" lon="9.4996169"><ele>136.0</ele><time>2026-04-14T13:39:59.484Z</time></trkpt><trkpt lat="45.5351044" lon="9.4997293"><ele>136.0</ele><time>2026-04-14T13:40:00.483Z</time></trkpt><trkpt lat="45.5350489" lon="9.4998092"><ele>136.0</ele><time>2026-04-14T13:40:01.483Z</time></trkpt><trkpt lat="45.5349997" lon="9.4999522"><ele>136.0</ele><time>2026-04-14T13:40:02.484Z</time></trkpt><trkpt lat="45.5349601" lon="9.5000442"><ele>136.0</ele><time>2026-04-14T13:40:03.484Z</time></trkpt><trkpt lat="45.5349058" lon="9.5001566"><ele>136.0</ele><time>2026-04-14T13:40:04.484Z</time></trkpt><trkpt lat="45.5348738" lon="9.5002856"><ele>136.0</ele><time>2026-04-14T13:40:05.484Z</time></trkpt><trkpt lat="45.5348373" lon="9.5003969"><ele>135.83333333333334</ele><time>2026-04-14T13:40:06.484Z</time></trkpt><trkpt lat="45.534795" lon="9.5005193"><ele>135.66666666666669</ele><time>2026-04-14T13:40:07.484Z</time></trkpt><trkpt lat="45.534772" lon="9.5006251"><ele>135.5</ele><time>2026-04-14T13:40:08.484Z</time></trkpt><trkpt lat="45.5347424" lon="9.5007271"><ele>135.33333333333334</ele><time>2026-04-14T13:40:09.483Z</time></trkpt><trkpt lat="45.5347163" lon="9.50082"><ele>135.16666666666666</ele><time>2026-04-14T13:40:10.484Z</time></trkpt><trkpt lat="45.5347026" lon="9.5009274"><ele>135.0</ele><time>2026-04-14T13:40:11.484Z</time></trkpt><trkpt lat="45.5346713" lon="9.5010365"><ele>135.0</ele><time>2026-04-14T13:40:12.484Z</time></trkpt><trkpt lat="45.5346527" lon="9.5011473"><ele>135.0</ele><time>2026-04-14T13:40:13.484Z</time></trkpt><trkpt lat="45.5346196" lon="9.5012519"><ele>135.0</ele><time>2026-04-14T13:40:14.483Z</time></trkpt><trkpt lat="45.5345943" lon="9.5013691"><ele>135.0</ele><time>2026-04-14T13:40:15.484Z</time></trkpt><trkpt lat="45.5345616" lon="9.5014986"><ele>135.0</ele><time>2026-04-14T13:40:16.484Z</time></trkpt><trkpt lat="45.534525" lon="9.5016937"><ele>135.0</ele><time>2026-04-14T13:40:17.483Z</time></trkpt><trkpt lat="45.5344951" lon="9.5018665"><ele>135.0</ele><time>2026-04-14T13:40:19.484Z</time></trkpt><trkpt lat="45.5344766" lon="9.5019807"><ele>135.0</ele><time>2026-04-14T13:40:20.484Z</time></trkpt><trkpt lat="45.5344834" lon="9.5020983"><ele>135.0</ele><time>2026-04-14T13:40:21.483Z</time></trkpt><trkpt lat="45.534453" lon="9.5021804"><ele>135.0</ele><time>2026-04-14T13:40:22.483Z</time></trkpt><trkpt lat="45.53441" lon="9.5022977"><ele>135.0</ele><time>2026-04-14T13:40:23.483Z</time></trkpt><trkpt lat="45.5343457" lon="9.5024677"><ele>135.0</ele><time>2026-04-14T13:40:25.483Z</time></trkpt><trkpt lat="45.534338" lon="9.5025748"><ele>135.0</ele><time>2026-04-14T13:40:26.484Z</time></trkpt><trkpt lat="45.5343236" lon="9.5026764"><ele>135.0</ele><time>2026-04-14T13:40:27.484Z</time></trkpt><trkpt lat="45.5343223" lon="9.5028156"><ele>135.0</ele><time>2026-04-14T13:40:28.484Z</time></trkpt><trkpt lat="45.5343132" lon="9.5029579"><ele>135.0</ele><time>2026-04-14T13:40:29.484Z</time></trkpt><trkpt lat="45.5343155" lon="9.5030799"><ele>135.0</ele><time>2026-04-14T13:40:30.484Z</time></trkpt><trkpt lat="45.5343394" lon="9.5031865"><ele>134.8</ele><time>2026-04-14T13:40:31.484Z</time></trkpt><trkpt lat="45.5343785" lon="9.5033644"><ele>134.6</ele><time>2026-04-14T13:40:32.483Z</time></trkpt><trkpt lat="45.5344076" lon="9.5034518"><ele>134.4</ele><time>2026-04-14T13:40:33.483Z</time></trkpt><trkpt lat="45.534394" lon="9.5035949"><ele>134.2</ele><time>2026-04-14T13:40:34.484Z</time></trkpt><trkpt lat="45.5343992" lon="9.503729"><ele>134.0</ele><time>2026-04-14T13:40:35.484Z</time></trkpt><trkpt lat="45.5344054" lon="9.503837"><ele>134.0</ele><time>2026-04-14T13:40:36.483Z</time></trkpt><trkpt lat="45.5344127" lon="9.5039648"><ele>134.0</ele><time>2026-04-14T13:40:37.483Z</time></trkpt><trkpt lat="45.5344093" lon="9.504064"><ele>134.0</ele><time>2026-04-14T13:40:38.483Z</time></trkpt><trkpt lat="45.5344468" lon="9.5041423"><ele>134.0</ele><time>2026-04-14T13:40:39.484Z</time></trkpt><trkpt lat="45.5344611" lon="9.5042387"><ele>134.0</ele><time>2026-04-14T13:40:40.483Z</time></trkpt><trkpt lat="45.5344735" lon="9.5043565"><ele>134.0</ele><time>2026-04-14T13:40:41.484Z</time></trkpt><trkpt lat="45.5345378" lon="9.504441"><ele>134.0</ele><time>2026-04-14T13:40:42.484Z</time></trkpt><trkpt lat="45.534571" lon="9.5045533"><ele>134.0</ele><time>2026-04-14T13:40:43.484Z</time></trkpt><trkpt lat="45.534564" lon="9.5046999"><ele>134.0</ele><time>2026-04-14T13:40:44.484Z</time></trkpt><trkpt lat="45.5346117" lon="9.5048078"><ele>134.0</ele><time>2026-04-14T13:40:45.484Z</time></trkpt><trkpt lat="45.5345932" lon="9.504976"><ele>134.0</ele><time>2026-04-14T13:40:46.484Z</time></trkpt><trkpt lat="45.5345741" lon="9.5050961"><ele>134.2</ele><time>2026-04-14T13:40:47.484Z</time></trkpt><trkpt lat="45.5346428" lon="9.5052669"><ele>134.4</ele><time>2026-04-14T13:40:49.484Z</time></trkpt><trkpt lat="45.5346888" lon="9.5053851"><ele>134.6</ele><time>2026-04-14T13:40:50.483Z</time></trkpt><trkpt lat="45.5347478" lon="9.5055113"><ele>134.8</ele><time>2026-04-14T13:40:51.484Z</time></trkpt><trkpt lat="45.5347726" lon="9.5056234"><ele>135.0</ele><time>2026-04-14T13:40:52.483Z</time></trkpt><trkpt lat="45.5348028" lon="9.5057188"><ele>135.14285714285714</ele><time>2026-04-14T13:40:53.484Z</time></trkpt><trkpt lat="45.5348201" lon="9.5058066"><ele>135.28571428571428</ele><time>2026-04-14T13:40:54.483Z</time></trkpt><trkpt lat="45.5348197" lon="9.5058972"><ele>135.42857142857142</ele><time>2026-04-14T13:40:55.484Z</time></trkpt><trkpt lat="45.5348412" lon="9.506015"><ele>135.57142857142856</ele><time>2026-04-14T13:40:56.484Z</time></trkpt><trkpt lat="45.5348517" lon="9.5061207"><ele>135.71428571428572</ele><time>2026-04-14T13:40:57.483Z</time></trkpt><trkpt lat="45.5348853" lon="9.506224"><ele>135.85714285714283</ele><time>2026-04-14T13:40:58.483Z</time></trkpt><trkpt lat="45.5349051" lon="9.5063341"><ele>136.0</ele><time>2026-04-14T13:40:59.484Z</time></trkpt><trkpt lat="45.5349851" lon="9.5065307"><ele>136.2</ele><time>2026-04-14T13:41:01.483Z</time></trkpt><trkpt lat="45.5350076" lon="9.5066253"><ele>136.39999999999998</ele><time>2026-04-14T13:41:02.484Z</time></trkpt><trkpt lat="45.5350696" lon="9.5068317"><ele>136.6</ele><time>2026-04-14T13:41:04.484Z</time></trkpt><trkpt lat="45.5350543" lon="9.5069619"><ele>136.79999999999998</ele><time>2026-04-14T13:41:05.484Z</time></trkpt><trkpt lat="45.5349891" lon="9.5070668"><ele>137.0</ele><time>2026-04-14T13:41:06.483Z</time></trkpt><trkpt lat="45.5349985" lon="9.507168"><ele>137.0</ele><time>2026-04-14T13:41:07.484Z</time></trkpt><trkpt lat="45.5350155" lon="9.5072886"><ele>137.0</ele><time>2026-04-14T13:41:08.484Z</time></trkpt><trkpt lat="45.5350491" lon="9.5073988"><ele>137.0</ele><time>2026-04-14T13:41:09.483Z</time></trkpt><trkpt lat="45.5350605" lon="9.507518"><ele>137.0</ele><time>2026-04-14T13:41:10.484Z</time></trkpt><trkpt lat="45.5351031" lon="9.5076074"><ele>137.0</ele><time>2026-04-14T13:41:11.483Z</time></trkpt><trkpt lat="45.5351548" lon="9.5077412"><ele>137.0</ele><time>2026-04-14T13:41:12.484Z</time></trkpt><trkpt lat="45.5351883" lon="9.5078377"><ele>137.16666666666666</ele><time>2026-04-14T13:41:13.484Z</time></trkpt><trkpt lat="45.5352266" lon="9.5079262"><ele>137.33333333333331</ele><time>2026-04-14T13:41:14.484Z</time></trkpt><trkpt lat="45.5352376" lon="9.5081055"><ele>137.5</ele><time>2026-04-14T13:41:16.484Z</time></trkpt><trkpt lat="45.5352336" lon="9.5082015"><ele>137.66666666666666</ele><time>2026-04-14T13:41:17.483Z</time></trkpt><trkpt lat="45.5351907" lon="9.5083054"><ele>137.83333333333334</ele><time>2026-04-14T13:41:18.484Z</time></trkpt><trkpt lat="45.5351959" lon="9.5084217"><ele>138.0</ele><time>2026-04-14T13:41:19.484Z</time></trkpt><trkpt lat="45.5351559" lon="9.5085296"><ele>138.0</ele><time>2026-04-14T13:41:20.484Z</time></trkpt><trkpt lat="45.5351232" lon="9.5086329"><ele>138.0</ele><time>2026-04-14T13:41:21.483Z</time></trkpt><trkpt lat="45.5351" lon="9.5087449"><ele>138.0</ele><time>2026-04-14T13:41:22.484Z</time></trkpt><trkpt lat="45.5350722" lon="9.5088512"><ele>138.0</ele><time>2026-04-14T13:41:23.484Z</time></trkpt><trkpt lat="45.5350486" lon="9.5089456"><ele>138.0</ele><time>2026-04-14T13:41:24.484Z</time></trkpt><trkpt lat="45.5350126" lon="9.5090514"><ele>138.0</ele><time>2026-04-14T13:41:25.483Z</time></trkpt><trkpt lat="45.5349726" lon="9.5091259"><ele>137.75</ele><time>2026-04-14T13:41:26.483Z</time></trkpt><trkpt lat="45.5349377" lon="9.5093646"><ele>137.5</ele><time>2026-04-14T13:41:28.484Z</time></trkpt><trkpt lat="45.5348114" lon="9.5094738"><ele>137.25</ele><time>2026-04-14T13:41:29.484Z</time></trkpt><trkpt lat="45.5348593" lon="9.5096027"><ele>137.0</ele><time>2026-04-14T13:41:30.484Z</time></trkpt><trkpt lat="45.5348327" lon="9.5097324"><ele>136.79999999999998</ele><time>2026-04-14T13:41:31.484Z</time></trkpt><trkpt lat="45.5348541" lon="9.5098492"><ele>136.6</ele><time>2026-04-14T13:41:32.484Z</time></trkpt><trkpt lat="45.5348288" lon="9.509962"><ele>136.39999999999998</ele><time>2026-04-14T13:41:33.483Z</time></trkpt><trkpt lat="45.5347871" lon="9.5100685"><ele>136.2</ele><time>2026-04-14T13:41:34.484Z</time></trkpt><trkpt lat="45.5348176" lon="9.5102414"><ele>136.0</ele><time>2026-04-14T13:41:36.484Z</time></trkpt><trkpt lat="45.5348556" lon="9.510391"><ele>136.16666666666669</ele><time>2026-04-14T13:41:38.484Z</time></trkpt><trkpt lat="45.534835" lon="9.5104796"><ele>136.33333333333334</ele><time>2026-04-14T13:41:39.484Z</time></trkpt><trkpt lat="45.5348176" lon="9.5105991"><ele>136.5</ele><time>2026-04-14T13:41:40.484Z</time></trkpt><trkpt lat="45.5347758" lon="9.5107066"><ele>136.66666666666666</ele><time>2026-04-14T13:41:41.483Z</time></trkpt><trkpt lat="45.5347793" lon="9.5108005"><ele>136.83333333333331</ele><time>2026-04-14T13:41:42.483Z</time></trkpt><trkpt lat="45.5347498" lon="9.5109103"><ele>137.0</ele><time>2026-04-14T13:41:43.483Z</time></trkpt><trkpt lat="45.5347366" lon="9.5110039"><ele>137.0</ele><time>2026-04-14T13:41:44.484Z</time></trkpt><trkpt lat="45.534684" lon="9.5111262"><ele>137.0</ele><time>2026-04-14T13:41:45.483Z</time></trkpt><trkpt lat="45.5346385" lon="9.5112588"><ele>137.0</ele><time>2026-04-14T13:41:46.484Z</time></trkpt><trkpt lat="45.5345988" lon="9.5113669"><ele>137.0</ele><time>2026-04-14T13:41:47.484Z</time></trkpt><trkpt lat="45.5345707" lon="9.5114762"><ele>137.0</ele><time>2026-04-14T13:41:48.483Z</time></trkpt><trkpt lat="45.5345327" lon="9.5115603"><ele>137.0</ele><time>2026-04-14T13:41:49.484Z</time></trkpt><trkpt lat="45.5344718" lon="9.5117019"><ele>136.79999999999998</ele><time>2026-04-14T13:41:50.483Z</time></trkpt><trkpt lat="45.5344445" lon="9.5117884"><ele>136.6</ele><time>2026-04-14T13:41:51.483Z</time></trkpt><trkpt lat="45.5344129" lon="9.5119016"><ele>136.39999999999998</ele><time>2026-04-14T13:41:52.484Z</time></trkpt><trkpt lat="45.5343679" lon="9.5120816"><ele>136.2</ele><time>2026-04-14T13:41:54.484Z</time></trkpt><trkpt lat="45.5343639" lon="9.5121747"><ele>136.0</ele><time>2026-04-14T13:41:55.484Z</time></trkpt><trkpt lat="45.5343119" lon="9.5123085"><ele>136.0</ele><time>2026-04-14T13:41:56.484Z</time></trkpt><trkpt lat="45.534254" lon="9.5124038"><ele>136.0</ele><time>2026-04-14T13:41:57.483Z</time></trkpt><trkpt lat="45.5341918" lon="9.512511"><ele>136.0</ele><time>2026-04-14T13:41:58.484Z</time></trkpt><trkpt lat="45.5341404" lon="9.5126448"><ele>136.0</ele><time>2026-04-14T13:41:59.484Z</time></trkpt><trkpt lat="45.5340936" lon="9.5127686"><ele>136.0</ele><time>2026-04-14T13:42:00.484Z</time></trkpt><trkpt lat="45.5340689" lon="9.5128806"><ele>136.16666666666669</ele><time>2026-04-14T13:42:01.484Z</time></trkpt><trkpt lat="45.5340612" lon="9.5129771"><ele>136.33333333333334</ele><time>2026-04-14T13:42:02.484Z</time></trkpt><trkpt lat="45.5340711" lon="9.5130868"><ele>136.5</ele><time>2026-04-14T13:42:03.484Z</time></trkpt><trkpt lat="45.5340903" lon="9.5132165"><ele>136.66666666666666</ele><time>2026-04-14T13:42:04.483Z</time></trkpt><trkpt lat="45.5340473" lon="9.5133445"><ele>136.83333333333331</ele><time>2026-04-14T13:42:05.484Z</time></trkpt><trkpt lat="45.5340226" lon="9.5134529"><ele>137.0</ele><time>2026-04-14T13:42:06.484Z</time></trkpt><trkpt lat="45.5339314" lon="9.5135303"><ele>137.0</ele><time>2026-04-14T13:42:07.484Z</time></trkpt><trkpt lat="45.533906" lon="9.5136333"><ele>137.0</ele><time>2026-04-14T13:42:08.483Z</time></trkpt><trkpt lat="45.5338555" lon="9.5137482"><ele>137.0</ele><time>2026-04-14T13:42:09.484Z</time></trkpt><trkpt lat="45.533816" lon="9.5138757"><ele>137.0</ele><time>2026-04-14T13:42:10.484Z</time></trkpt><trkpt lat="45.5337766" lon="9.5139815"><ele>137.0</ele><time>2026-04-14T13:42:11.484Z</time></trkpt><trkpt lat="45.5337853" lon="9.5140832"><ele>137.0</ele><time>2026-04-14T13:42:12.484Z</time></trkpt><trkpt lat="45.5338236" lon="9.514201"><ele>137.0</ele><time>2026-04-14T13:42:13.484Z</time></trkpt><trkpt lat="45.5338113" lon="9.5144066"><ele>137.0</ele><time>2026-04-14T13:42:15.484Z</time></trkpt><trkpt lat="45.5337507" lon="9.5145715"><ele>137.0</ele><time>2026-04-14T13:42:16.484Z</time></trkpt><trkpt lat="45.5337016" lon="9.5147398"><ele>137.0</ele><time>2026-04-14T13:42:17.484Z</time></trkpt><trkpt lat="45.5335906" lon="9.5148881"><ele>137.0</ele><time>2026-04-14T13:42:18.484Z</time></trkpt><trkpt lat="45.533558" lon="9.5150175"><ele>137.0</ele><time>2026-04-14T13:42:19.484Z</time></trkpt><trkpt lat="45.5334923" lon="9.5150787"><ele>137.0</ele><time>2026-04-14T13:42:20.483Z</time></trkpt><trkpt lat="45.5335151" lon="9.5152271"><ele>137.0</ele><time>2026-04-14T13:42:21.483Z</time></trkpt><trkpt lat="45.533478" lon="9.5153586"><ele>137.0</ele><time>2026-04-14T13:42:22.483Z</time></trkpt><trkpt lat="45.5334883" lon="9.5154756"><ele>137.2</ele><time>2026-04-14T13:42:23.484Z</time></trkpt><trkpt lat="45.533454" lon="9.5155899"><ele>137.39999999999998</ele><time>2026-04-14T13:42:24.484Z</time></trkpt><trkpt lat="45.533439" lon="9.515714"><ele>137.60000000000002</ele><time>2026-04-14T13:42:25.483Z</time></trkpt><trkpt lat="45.5333798" lon="9.5159148"><ele>137.8</ele><time>2026-04-14T13:42:26.483Z</time></trkpt><trkpt lat="45.5334149" lon="9.5160305"><ele>138.0</ele><time>2026-04-14T13:42:27.484Z</time></trkpt><trkpt lat="45.5333676" lon="9.5161555"><ele>137.8</ele><time>2026-04-14T13:42:28.484Z</time></trkpt><trkpt lat="45.533263" lon="9.5163096"><ele>137.60000000000002</ele><time>2026-04-14T13:42:30.483Z</time></trkpt><trkpt lat="45.53322" lon="9.5163886"><ele>137.39999999999998</ele><time>2026-04-14T13:42:31.484Z</time></trkpt><trkpt lat="45.5331927" lon="9.5164909"><ele>137.2</ele><time>2026-04-14T13:42:32.484Z</time></trkpt><trkpt lat="45.5331594" lon="9.5165794"><ele>137.0</ele><time>2026-04-14T13:42:33.484Z</time></trkpt><trkpt lat="45.5331307" lon="9.5167148"><ele>137.0</ele><time>2026-04-14T13:42:34.483Z</time></trkpt><trkpt lat="45.5331013" lon="9.5168439"><ele>137.0</ele><time>2026-04-14T13:42:35.484Z</time></trkpt><trkpt lat="45.5330666" lon="9.5170325"><ele>137.0</ele><time>2026-04-14T13:42:36.484Z</time></trkpt><trkpt lat="45.5330777" lon="9.5171249"><ele>137.0</ele><time>2026-04-14T13:42:37.484Z</time></trkpt><trkpt lat="45.5329887" lon="9.5172112"><ele>137.0</ele><time>2026-04-14T13:42:38.484Z</time></trkpt><trkpt lat="45.5329729" lon="9.5173315"><ele>137.0</ele><time>2026-04-14T13:42:39.484Z</time></trkpt><trkpt lat="45.5329371" lon="9.5174442"><ele>137.0</ele><time>2026-04-14T13:42:40.484Z</time></trkpt><trkpt lat="45.5329285" lon="9.5175716"><ele>137.0</ele><time>2026-04-14T13:42:41.484Z</time></trkpt><trkpt lat="45.5329243" lon="9.5176961"><ele>137.0</ele><time>2026-04-14T13:42:42.484Z</time></trkpt><trkpt lat="45.5328414" lon="9.5178578"><ele>137.0</ele><time>2026-04-14T13:42:43.484Z</time></trkpt><trkpt lat="45.5328198" lon="9.5179725"><ele>137.0</ele><time>2026-04-14T13:42:44.484Z</time></trkpt><trkpt lat="45.5327683" lon="9.5181053"><ele>137.0</ele><time>2026-04-14T13:42:45.484Z</time></trkpt><trkpt lat="45.5327056" lon="9.518295"><ele>137.0</ele><time>2026-04-14T13:42:47.484Z</time></trkpt><trkpt lat="45.5327124" lon="9.5183952"><ele>137.0</ele><time>2026-04-14T13:42:48.484Z</time></trkpt><trkpt lat="45.5326979" lon="9.5185735"><ele>137.0</ele><time>2026-04-14T13:42:50.483Z</time></trkpt><trkpt lat="45.5326914" lon="9.5186922"><ele>137.0</ele><time>2026-04-14T13:42:51.483Z</time></trkpt><trkpt lat="45.5326157" lon="9.5188322"><ele>137.0</ele><time>2026-04-14T13:42:52.483Z</time></trkpt><trkpt lat="45.532523" lon="9.5189549"><ele>137.0</ele><time>2026-04-14T13:42:53.484Z</time></trkpt><trkpt lat="45.5324762" lon="9.5190344"><ele>137.0</ele><time>2026-04-14T13:42:54.484Z</time></trkpt><trkpt lat="45.532449" lon="9.5192345"><ele>137.2</ele><time>2026-04-14T13:42:56.484Z</time></trkpt><trkpt lat="45.5324427" lon="9.5193581"><ele>137.39999999999998</ele><time>2026-04-14T13:42:57.483Z</time></trkpt><trkpt lat="45.5324141" lon="9.5194497"><ele>137.60000000000002</ele><time>2026-04-14T13:42:58.483Z</time></trkpt><trkpt lat="45.5324379" lon="9.5195807"><ele>137.8</ele><time>2026-04-14T13:43:00.484Z</time></trkpt><trkpt lat="45.5324311" lon="9.5197511"><ele>138.0</ele><time>2026-04-14T13:43:02.483Z</time></trkpt><trkpt lat="45.5324058" lon="9.5198823"><ele>138.0</ele><time>2026-04-14T13:43:03.484Z</time></trkpt><trkpt lat="45.5324819" lon="9.5200325"><ele>138.0</ele><time>2026-04-14T13:43:05.483Z</time></trkpt><trkpt lat="45.532544" lon="9.520112"><ele>138.0</ele><time>2026-04-14T13:43:06.484Z</time></trkpt><trkpt lat="45.5325911" lon="9.5202502"><ele>138.0</ele><time>2026-04-14T13:43:08.483Z</time></trkpt><trkpt lat="45.5326821" lon="9.5203372"><ele>138.0</ele><time>2026-04-14T13:43:09.484Z</time></trkpt><trkpt lat="45.532768" lon="9.5203787"><ele>138.0</ele><time>2026-04-14T13:43:11.483Z</time></trkpt><trkpt lat="45.5329045" lon="9.5204526"><ele>138.0</ele><time>2026-04-14T13:43:12.483Z</time></trkpt><trkpt lat="45.5329905" lon="9.5205032"><ele>138.0</ele><time>2026-04-14T13:43:13.483Z</time></trkpt><trkpt lat="45.5330613" lon="9.5205286"><ele>138.0</ele><time>2026-04-14T13:43:14.483Z</time></trkpt><trkpt lat="45.5331721" lon="9.5205698"><ele>138.0</ele><time>2026-04-14T13:43:15.484Z</time></trkpt><trkpt lat="45.5332861" lon="9.5206022"><ele>138.0</ele><time>2026-04-14T13:43:17.484Z</time></trkpt><trkpt lat="45.5333773" lon="9.5206372"><ele>138.0</ele><time>2026-04-14T13:43:18.483Z</time></trkpt><trkpt lat="45.5334532" lon="9.5206669"><ele>138.0</ele><time>2026-04-14T13:43:21.484Z</time></trkpt><trkpt lat="45.533577" lon="9.5207043"><ele>138.0</ele><time>2026-04-14T13:43:22.484Z</time></trkpt><trkpt lat="45.5337101" lon="9.5207499"><ele>138.0</ele><time>2026-04-14T13:43:23.483Z</time></trkpt><trkpt lat="45.5338693" lon="9.5207571"><ele>137.8</ele><time>2026-04-14T13:43:26.483Z</time></trkpt><trkpt lat="45.5339548" lon="9.5207905"><ele>137.60000000000002</ele><time>2026-04-14T13:43:27.484Z</time></trkpt><trkpt lat="45.5340321" lon="9.5208215"><ele>137.39999999999998</ele><time>2026-04-14T13:43:28.484Z</time></trkpt><trkpt lat="45.5341608" lon="9.5208592"><ele>137.2</ele><time>2026-04-14T13:43:29.483Z</time></trkpt><trkpt lat="45.5342277" lon="9.5209447"><ele>137.0</ele><time>2026-04-14T13:43:31.483Z</time></trkpt><trkpt lat="45.5343151" lon="9.5209758"><ele>137.0</ele><time>2026-04-14T13:43:32.483Z</time></trkpt><trkpt lat="45.5343949" lon="9.521022"><ele>137.0</ele><time>2026-04-14T13:43:33.483Z</time></trkpt><trkpt lat="45.5344697" lon="9.5210454"><ele>137.0</ele><time>2026-04-14T13:43:34.483Z</time></trkpt><trkpt lat="45.5345917" lon="9.5210957"><ele>137.0</ele><time>2026-04-14T13:43:36.483Z</time></trkpt><trkpt lat="45.5347226" lon="9.5211851"><ele>137.0</ele><time>2026-04-14T13:43:38.483Z</time></trkpt><trkpt lat="45.5348299" lon="9.5212053"><ele>137.75</ele><time>2026-04-14T13:43:39.484Z</time></trkpt><trkpt lat="45.5349692" lon="9.5213195"><ele>138.5</ele><time>2026-04-14T13:43:41.483Z</time></trkpt><trkpt lat="45.5350882" lon="9.5213133"><ele>139.25</ele><time>2026-04-14T13:43:43.484Z</time></trkpt><trkpt lat="45.5351775" lon="9.5213253"><ele>140.0</ele><time>2026-04-14T13:43:44.483Z</time></trkpt><trkpt lat="45.5352819" lon="9.5213475"><ele>140.0</ele><time>2026-04-14T13:43:45.484Z</time></trkpt><trkpt lat="45.5353485" lon="9.5213614"><ele>140.0</ele><time>2026-04-14T13:43:46.483Z</time></trkpt><trkpt lat="45.5354712" lon="9.5214154"><ele>140.0</ele><time>2026-04-14T13:43:48.484Z</time></trkpt><trkpt lat="45.5356037" lon="9.5214737"><ele>140.0</ele><time>2026-04-14T13:43:49.484Z</time></trkpt><trkpt lat="45.5356975" lon="9.5215326"><ele>140.0</ele><time>2026-04-14T13:43:50.484Z</time></trkpt><trkpt lat="45.5358119" lon="9.5215629"><ele>140.2</ele><time>2026-04-14T13:43:51.484Z</time></trkpt><trkpt lat="45.5359173" lon="9.5216141"><ele>140.4</ele><time>2026-04-14T13:43:52.484Z</time></trkpt><trkpt lat="45.5360515" lon="9.5216255"><ele>140.6</ele><time>2026-04-14T13:43:54.484Z</time></trkpt><trkpt lat="45.5361232" lon="9.5216695"><ele>140.8</ele><time>2026-04-14T13:43:55.484Z</time></trkpt><trkpt lat="45.536229" lon="9.5217189"><ele>141.0</ele><time>2026-04-14T13:43:56.484Z</time></trkpt><trkpt lat="45.5363161" lon="9.5217461"><ele>140.6</ele><time>2026-04-14T13:43:58.484Z</time></trkpt><trkpt lat="45.5363893" lon="9.5217656"><ele>140.2</ele><time>2026-04-14T13:43:59.484Z</time></trkpt><trkpt lat="45.5364635" lon="9.5217511"><ele>139.8</ele><time>2026-04-14T13:44:00.484Z</time></trkpt><trkpt lat="45.5365412" lon="9.5217522"><ele>139.4</ele><time>2026-04-14T13:44:01.484Z</time></trkpt><trkpt lat="45.5367094" lon="9.521775"><ele>139.0</ele><time>2026-04-14T13:44:03.484Z</time></trkpt><trkpt lat="45.536783" lon="9.5217812"><ele>139.0</ele><time>2026-04-14T13:44:04.484Z</time></trkpt><trkpt lat="45.5369286" lon="9.5218419"><ele>139.0</ele><time>2026-04-14T13:44:06.484Z</time></trkpt><trkpt lat="45.5369918" lon="9.5218401"><ele>139.0</ele><time>2026-04-14T13:44:07.484Z</time></trkpt><trkpt lat="45.537066" lon="9.5218676"><ele>139.0</ele><time>2026-04-14T13:44:08.484Z</time></trkpt><trkpt lat="45.5372215" lon="9.5219204"><ele>139.0</ele><time>2026-04-14T13:44:10.484Z</time></trkpt><trkpt lat="45.5372895" lon="9.5219233"><ele>139.0</ele><time>2026-04-14T13:44:11.484Z</time></trkpt><trkpt lat="45.5373877" lon="9.5219267"><ele>139.0</ele><time>2026-04-14T13:44:12.483Z</time></trkpt><trkpt lat="45.5374757" lon="9.5219665"><ele>139.0</ele><time>2026-04-14T13:44:13.484Z</time></trkpt><trkpt lat="45.5375992" lon="9.521994"><ele>139.0</ele><time>2026-04-14T13:44:14.483Z</time></trkpt><trkpt lat="45.5376631" lon="9.5220089"><ele>139.0</ele><time>2026-04-14T13:44:15.483Z</time></trkpt><trkpt lat="45.5377486" lon="9.5220751"><ele>139.2</ele><time>2026-04-14T13:44:16.484Z</time></trkpt><trkpt lat="45.5378846" lon="9.5221027"><ele>139.4</ele><time>2026-04-14T13:44:18.484Z</time></trkpt><trkpt lat="45.5379587" lon="9.5221027"><ele>139.6</ele><time>2026-04-14T13:44:19.484Z</time></trkpt><trkpt lat="45.5380498" lon="9.5221107"><ele>139.8</ele><time>2026-04-14T13:44:20.483Z</time></trkpt><trkpt lat="45.5381818" lon="9.5221744"><ele>140.0</ele><time>2026-04-14T13:44:22.483Z</time></trkpt><trkpt lat="45.5382567" lon="9.5222239"><ele>140.2</ele><time>2026-04-14T13:44:23.483Z</time></trkpt><trkpt lat="45.5383481" lon="9.5222633"><ele>140.4</ele><time>2026-04-14T13:44:24.483Z</time></trkpt><trkpt lat="45.5384356" lon="9.5223065"><ele>140.6</ele><time>2026-04-14T13:44:25.483Z</time></trkpt><trkpt lat="45.5385683" lon="9.522297"><ele>140.8</ele><time>2026-04-14T13:44:27.484Z</time></trkpt><trkpt lat="45.5386506" lon="9.5223329"><ele>141.0</ele><time>2026-04-14T13:44:28.483Z</time></trkpt><trkpt lat="45.5387554" lon="9.5223606"><ele>141.2</ele><time>2026-04-14T13:44:29.483Z</time></trkpt><trkpt lat="45.5388698" lon="9.5224413"><ele>141.39999999999998</ele><time>2026-04-14T13:44:30.483Z</time></trkpt><trkpt lat="45.5389493" lon="9.5224973"><ele>141.6</ele><time>2026-04-14T13:44:31.484Z</time></trkpt><trkpt lat="45.5390328" lon="9.5225508"><ele>141.79999999999998</ele><time>2026-04-14T13:44:32.483Z</time></trkpt><trkpt lat="45.5391095" lon="9.5225866"><ele>142.0</ele><time>2026-04-14T13:44:33.484Z</time></trkpt><trkpt lat="45.5391779" lon="9.5225789"><ele>142.0</ele><time>2026-04-14T13:44:34.483Z</time></trkpt><trkpt lat="45.5392436" lon="9.5226182"><ele>142.0</ele><time>2026-04-14T13:44:35.484Z</time></trkpt><trkpt lat="45.5393511" lon="9.5226093"><ele>142.0</ele><time>2026-04-14T13:44:36.484Z</time></trkpt><trkpt lat="45.5394393" lon="9.5226483"><ele>142.0</ele><time>2026-04-14T13:44:37.484Z</time></trkpt><trkpt lat="45.5395302" lon="9.5226866"><ele>142.0</ele><time>2026-04-14T13:44:38.484Z</time></trkpt><trkpt lat="45.5396274" lon="9.5226981"><ele>142.16666666666669</ele><time>2026-04-14T13:44:39.483Z</time></trkpt><trkpt lat="45.5397012" lon="9.5227133"><ele>142.33333333333334</ele><time>2026-04-14T13:44:40.484Z</time></trkpt><trkpt lat="45.5397754" lon="9.5227277"><ele>142.5</ele><time>2026-04-14T13:44:41.484Z</time></trkpt><trkpt lat="45.5398819" lon="9.5227784"><ele>142.66666666666666</ele><time>2026-04-14T13:44:42.484Z</time></trkpt><trkpt lat="45.5399393" lon="9.5228166"><ele>142.83333333333331</ele><time>2026-04-14T13:44:43.483Z</time></trkpt><trkpt lat="45.5400382" lon="9.5228468"><ele>143.0</ele><time>2026-04-14T13:44:44.484Z</time></trkpt><trkpt lat="45.5401295" lon="9.5228294"><ele>143.0</ele><time>2026-04-14T13:44:45.483Z</time></trkpt><trkpt lat="45.5402096" lon="9.5228793"><ele>143.0</ele><time>2026-04-14T13:44:46.484Z</time></trkpt><trkpt lat="45.5403079" lon="9.5229086"><ele>143.0</ele><time>2026-04-14T13:44:47.483Z</time></trkpt><trkpt lat="45.5404005" lon="9.5229205"><ele>143.0</ele><time>2026-04-14T13:44:48.483Z</time></trkpt><trkpt lat="45.5404893" lon="9.5229317"><ele>143.0</ele><time>2026-04-14T13:44:49.484Z</time></trkpt><trkpt lat="45.5406283" lon="9.5229048"><ele>142.4</ele><time>2026-04-14T13:44:51.484Z</time></trkpt><trkpt lat="45.5407342" lon="9.5229691"><ele>141.8</ele><time>2026-04-14T13:44:53.484Z</time></trkpt><trkpt lat="45.5408071" lon="9.5229626"><ele>141.2</ele><time>2026-04-14T13:44:54.483Z</time></trkpt><trkpt lat="45.5409132" lon="9.5229907"><ele>140.6</ele><time>2026-04-14T13:44:56.483Z</time></trkpt><trkpt lat="45.5410366" lon="9.5230588"><ele>140.0</ele><time>2026-04-14T13:44:58.484Z</time></trkpt><trkpt lat="45.541146" lon="9.5230699"><ele>140.25</ele><time>2026-04-14T13:45:00.484Z</time></trkpt><trkpt lat="45.5412422" lon="9.5230178"><ele>140.5</ele><time>2026-04-14T13:45:02.483Z</time></trkpt><trkpt lat="45.5413652" lon="9.5230562"><ele>140.75</ele><time>2026-04-14T13:45:04.484Z</time></trkpt><trkpt lat="45.5414828" lon="9.5230971"><ele>141.0</ele><time>2026-04-14T13:45:06.483Z</time></trkpt><trkpt lat="45.5415996" lon="9.5231389"><ele>141.0</ele><time>2026-04-14T13:45:07.484Z</time></trkpt><trkpt lat="45.541705" lon="9.5231805"><ele>141.0</ele><time>2026-04-14T13:45:09.483Z</time></trkpt><trkpt lat="45.541828" lon="9.5231984"><ele>141.0</ele><time>2026-04-14T13:45:11.484Z</time></trkpt><trkpt lat="45.5418884" lon="9.523237"><ele>141.0</ele><time>2026-04-14T13:45:12.484Z</time></trkpt><trkpt lat="45.5419723" lon="9.5232608"><ele>141.0</ele><time>2026-04-14T13:45:13.484Z</time></trkpt><trkpt lat="45.5420525" lon="9.5232841"><ele>141.0</ele><time>2026-04-14T13:45:14.483Z</time></trkpt><trkpt lat="45.5421226" lon="9.5232712"><ele>141.0</ele><time>2026-04-14T13:45:15.483Z</time></trkpt><trkpt lat="45.5421978" lon="9.5232947"><ele>141.0</ele><time>2026-04-14T13:45:16.484Z</time></trkpt><trkpt lat="45.5422765" lon="9.5233342"><ele>141.0</ele><time>2026-04-14T13:45:17.484Z</time></trkpt><trkpt lat="45.5423615" lon="9.5233733"><ele>141.0</ele><time>2026-04-14T13:45:18.484Z</time></trkpt><trkpt lat="45.5424329" lon="9.5234057"><ele>141.0</ele><time>2026-04-14T13:45:19.484Z</time></trkpt><trkpt lat="45.5425792" lon="9.5234728"><ele>141.0</ele><time>2026-04-14T13:45:21.483Z</time></trkpt><trkpt lat="45.5426897" lon="9.5235044"><ele>141.0</ele><time>2026-04-14T13:45:22.483Z</time></trkpt><trkpt lat="45.542789" lon="9.5235298"><ele>141.0</ele><time>2026-04-14T13:45:23.483Z</time></trkpt><trkpt lat="45.5428766" lon="9.5235794"><ele>141.0</ele><time>2026-04-14T13:45:24.483Z</time></trkpt><trkpt lat="45.5429454" lon="9.5235647"><ele>141.0</ele><time>2026-04-14T13:45:25.484Z</time></trkpt><trkpt lat="45.5430717" lon="9.5235782"><ele>141.0</ele><time>2026-04-14T13:45:27.483Z</time></trkpt><trkpt lat="45.5431651" lon="9.5235065"><ele>141.0</ele><time>2026-04-14T13:45:29.484Z</time></trkpt><trkpt lat="45.5432432" lon="9.5234921"><ele>141.0</ele><time>2026-04-14T13:45:30.483Z</time></trkpt><trkpt lat="45.5433247" lon="9.5235499"><ele>141.0</ele><time>2026-04-14T13:45:31.484Z</time></trkpt><trkpt lat="45.5433937" lon="9.5235753"><ele>141.0</ele><time>2026-04-14T13:45:32.484Z</time></trkpt><trkpt lat="45.5434732" lon="9.5236105"><ele>141.0</ele><time>2026-04-14T13:45:33.484Z</time></trkpt><trkpt lat="45.5435408" lon="9.5236565"><ele>141.0</ele><time>2026-04-14T13:45:34.483Z</time></trkpt><trkpt lat="45.5436172" lon="9.5237251"><ele>141.0</ele><time>2026-04-14T13:45:35.484Z</time></trkpt><trkpt lat="45.5436938" lon="9.5237643"><ele>141.0</ele><time>2026-04-14T13:45:36.484Z</time></trkpt><trkpt lat="45.5437874" lon="9.5237888"><ele>141.0</ele><time>2026-04-14T13:45:37.484Z</time></trkpt><trkpt lat="45.5438527" lon="9.5237956"><ele>141.0</ele><time>2026-04-14T13:45:38.484Z</time></trkpt><trkpt lat="45.5439411" lon="9.5238263"><ele>141.0</ele><time>2026-04-14T13:45:41.484Z</time></trkpt><trkpt lat="45.5441462" lon="9.5238278"><ele>141.25</ele><time>2026-04-14T13:45:46.484Z</time></trkpt><trkpt lat="45.5442688" lon="9.5239268"><ele>141.5</ele><time>2026-04-14T13:45:47.483Z</time></trkpt><trkpt lat="45.5443989" lon="9.5240203"><ele>141.75</ele><time>2026-04-14T13:45:48.484Z</time></trkpt><trkpt lat="45.544529" lon="9.5241047"><ele>142.0</ele><time>2026-04-14T13:45:50.484Z</time></trkpt><trkpt lat="45.5446169" lon="9.5241715"><ele>142.0</ele><time>2026-04-14T13:45:51.484Z</time></trkpt><trkpt lat="45.5447422" lon="9.5242064"><ele>142.0</ele><time>2026-04-14T13:45:53.483Z</time></trkpt><trkpt lat="45.5448037" lon="9.5242339"><ele>142.0</ele><time>2026-04-14T13:45:54.484Z</time></trkpt><trkpt lat="45.5448613" lon="9.524275"><ele>142.0</ele><time>2026-04-14T13:45:55.483Z</time></trkpt><trkpt lat="45.5449274" lon="9.524297"><ele>142.0</ele><time>2026-04-14T13:45:56.484Z</time></trkpt><trkpt lat="45.5450531" lon="9.5243946"><ele>142.0</ele><time>2026-04-14T13:45:58.484Z</time></trkpt><trkpt lat="45.5451287" lon="9.5244309"><ele>142.0</ele><time>2026-04-14T13:45:59.483Z</time></trkpt><trkpt lat="45.5452098" lon="9.5245232"><ele>142.0</ele><time>2026-04-14T13:46:02.484Z</time></trkpt><trkpt lat="45.545281" lon="9.5245629"><ele>142.0</ele><time>2026-04-14T13:46:03.483Z</time></trkpt><trkpt lat="45.545535" lon="9.524613"><ele>139.25</ele><time>2026-04-14T13:46:06.484Z</time></trkpt><trkpt lat="45.5456272" lon="9.524643"><ele>136.5</ele><time>2026-04-14T13:46:07.484Z</time></trkpt><trkpt lat="45.5457156" lon="9.5247151"><ele>133.75</ele><time>2026-04-14T13:46:08.484Z</time></trkpt><trkpt lat="45.5458948" lon="9.5247841"><ele>131.0</ele><time>2026-04-14T13:46:09.484Z</time></trkpt><trkpt lat="45.5460284" lon="9.5248526"><ele>131.0</ele><time>2026-04-14T13:46:10.484Z</time></trkpt><trkpt lat="45.546145" lon="9.5248704"><ele>131.0</ele><time>2026-04-14T13:46:11.484Z</time></trkpt><trkpt lat="45.5462553" lon="9.5249341"><ele>131.0</ele><time>2026-04-14T13:46:12.484Z</time></trkpt><trkpt lat="45.546349" lon="9.5249835"><ele>131.0</ele><time>2026-04-14T13:46:13.483Z</time></trkpt><trkpt lat="45.5464694" lon="9.5249414"><ele>131.4</ele><time>2026-04-14T13:46:15.483Z</time></trkpt><trkpt lat="45.5465399" lon="9.5249322"><ele>131.8</ele><time>2026-04-14T13:46:16.483Z</time></trkpt><trkpt lat="45.546611" lon="9.5249219"><ele>132.20000000000002</ele><time>2026-04-14T13:46:17.483Z</time></trkpt><trkpt lat="45.5466916" lon="9.524911"><ele>132.6</ele><time>2026-04-14T13:46:18.483Z</time></trkpt><trkpt lat="45.5467861" lon="9.5249059"><ele>133.0</ele><time>2026-04-14T13:46:19.483Z</time></trkpt><trkpt lat="45.5470375" lon="9.5249026"><ele>133.20000000000002</ele><time>2026-04-14T13:46:22.483Z</time></trkpt><trkpt lat="45.5471094" lon="9.5248767"><ele>133.4</ele><time>2026-04-14T13:46:23.484Z</time></trkpt><trkpt lat="45.5471699" lon="9.5248205"><ele>133.60000000000002</ele><time>2026-04-14T13:46:24.483Z</time></trkpt><trkpt lat="45.5472667" lon="9.5247993"><ele>133.8</ele><time>2026-04-14T13:46:25.484Z</time></trkpt><trkpt lat="45.5473499" lon="9.5247684"><ele>134.0</ele><time>2026-04-14T13:46:26.483Z</time></trkpt><trkpt lat="45.5475149" lon="9.524834"><ele>134.0</ele><time>2026-04-14T13:46:27.484Z</time></trkpt><trkpt lat="45.5475853" lon="9.5247812"><ele>134.0</ele><time>2026-04-14T13:46:28.484Z</time></trkpt><trkpt lat="45.5476742" lon="9.5247293"><ele>134.0</ele><time>2026-04-14T13:46:29.484Z</time></trkpt><trkpt lat="45.5477623" lon="9.5246985"><ele>134.0</ele><time>2026-04-14T13:46:30.483Z</time></trkpt><trkpt lat="45.5478449" lon="9.5246607"><ele>134.0</ele><time>2026-04-14T13:46:31.483Z</time></trkpt><trkpt lat="45.547913" lon="9.5246231"><ele>134.0</ele><time>2026-04-14T13:46:32.483Z</time></trkpt><trkpt lat="45.5479993" lon="9.524592"><ele>135.8</ele><time>2026-04-14T13:46:33.484Z</time></trkpt><trkpt lat="45.5481246" lon="9.5245111"><ele>137.60000000000002</ele><time>2026-04-14T13:46:35.483Z</time></trkpt><trkpt lat="45.5482202" lon="9.5245003"><ele>139.4</ele><time>2026-04-14T13:46:36.484Z</time></trkpt><trkpt lat="45.548304" lon="9.5245084"><ele>141.20000000000002</ele><time>2026-04-14T13:46:37.483Z</time></trkpt><trkpt lat="45.5484223" lon="9.5244574"><ele>143.0</ele><time>2026-04-14T13:46:39.484Z</time></trkpt><trkpt lat="45.548583" lon="9.5244527"><ele>143.0</ele><time>2026-04-14T13:46:41.484Z</time></trkpt><trkpt lat="45.5486495" lon="9.5243919"><ele>143.0</ele><time>2026-04-14T13:46:42.483Z</time></trkpt><trkpt lat="45.5487229" lon="9.524398"><ele>143.0</ele><time>2026-04-14T13:46:43.483Z</time></trkpt><trkpt lat="45.5487984" lon="9.5243678"><ele>143.0</ele><time>2026-04-14T13:46:44.484Z</time></trkpt><trkpt lat="45.5488733" lon="9.5243298"><ele>143.0</ele><time>2026-04-14T13:46:45.484Z</time></trkpt><trkpt lat="45.5489343" lon="9.5243014"><ele>143.0</ele><time>2026-04-14T13:46:46.483Z</time></trkpt><trkpt lat="45.5490306" lon="9.5243188"><ele>141.8</ele><time>2026-04-14T13:46:47.484Z</time></trkpt><trkpt lat="45.5491569" lon="9.5242564"><ele>140.60000000000002</ele><time>2026-04-14T13:46:49.483Z</time></trkpt><trkpt lat="45.549259" lon="9.5242469"><ele>139.39999999999998</ele><time>2026-04-14T13:46:50.484Z</time></trkpt><trkpt lat="45.5493292" lon="9.5241844"><ele>138.2</ele><time>2026-04-14T13:46:51.484Z</time></trkpt><trkpt lat="45.5494541" lon="9.5241445"><ele>137.0</ele><time>2026-04-14T13:46:53.483Z</time></trkpt><trkpt lat="45.549543" lon="9.5241563"><ele>136.5</ele><time>2026-04-14T13:46:54.484Z</time></trkpt><trkpt lat="45.5496615" lon="9.5241036"><ele>136.0</ele><time>2026-04-14T13:46:56.483Z</time></trkpt><trkpt lat="45.5497569" lon="9.5241078"><ele>135.5</ele><time>2026-04-14T13:46:57.484Z</time></trkpt><trkpt lat="45.5498969" lon="9.5241406"><ele>135.0</ele><time>2026-04-14T13:46:59.484Z</time></trkpt><trkpt lat="45.549994" lon="9.5241499"><ele>135.0</ele><time>2026-04-14T13:47:00.483Z</time></trkpt><trkpt lat="45.5501046" lon="9.5241783"><ele>135.0</ele><time>2026-04-14T13:47:01.483Z</time></trkpt><trkpt lat="45.5502257" lon="9.5242099"><ele>135.0</ele><time>2026-04-14T13:47:02.484Z</time></trkpt><trkpt lat="45.5502962" lon="9.5242145"><ele>135.0</ele><time>2026-04-14T13:47:03.484Z</time></trkpt><trkpt lat="45.5503743" lon="9.5242433"><ele>135.0</ele><time>2026-04-14T13:47:04.484Z</time></trkpt><trkpt lat="45.5504359" lon="9.5242213"><ele>135.4</ele><time>2026-04-14T13:47:05.483Z</time></trkpt><trkpt lat="45.5505136" lon="9.5242089"><ele>135.8</ele><time>2026-04-14T13:47:06.483Z</time></trkpt><trkpt lat="45.5505926" lon="9.5242188"><ele>136.2</ele><time>2026-04-14T13:47:07.484Z</time></trkpt><trkpt lat="45.550706" lon="9.5242475"><ele>136.6</ele><time>2026-04-14T13:47:08.484Z</time></trkpt><trkpt lat="45.5507763" lon="9.5242403"><ele>137.0</ele><time>2026-04-14T13:47:09.484Z</time></trkpt><trkpt lat="45.5508923" lon="9.5243224"><ele>137.0</ele><time>2026-04-14T13:47:10.484Z</time></trkpt><trkpt lat="45.5509559" lon="9.5243019"><ele>137.0</ele><time>2026-04-14T13:47:11.484Z</time></trkpt><trkpt lat="45.5510262" lon="9.5242752"><ele>137.0</ele><time>2026-04-14T13:47:12.483Z</time></trkpt><trkpt lat="45.5511322" lon="9.5242883"><ele>137.0</ele><time>2026-04-14T13:47:13.484Z</time></trkpt><trkpt lat="45.5512367" lon="9.5242509"><ele>137.0</ele><time>2026-04-14T13:47:14.484Z</time></trkpt><trkpt lat="45.5513044" lon="9.5242218"><ele>137.0</ele><time>2026-04-14T13:47:15.483Z</time></trkpt><trkpt lat="45.5513934" lon="9.5241997"><ele>136.83333333333331</ele><time>2026-04-14T13:47:16.484Z</time></trkpt><trkpt lat="45.5514594" lon="9.5241806"><ele>136.66666666666666</ele><time>2026-04-14T13:47:17.484Z</time></trkpt><trkpt lat="45.5515518" lon="9.524188"><ele>136.5</ele><time>2026-04-14T13:47:18.484Z</time></trkpt><trkpt lat="45.5516026" lon="9.524122"><ele>136.33333333333334</ele><time>2026-04-14T13:47:19.483Z</time></trkpt><trkpt lat="45.5517101" lon="9.5241133"><ele>136.16666666666669</ele><time>2026-04-14T13:47:20.484Z</time></trkpt><trkpt lat="45.5517903" lon="9.5240938"><ele>136.0</ele><time>2026-04-14T13:47:21.484Z</time></trkpt><trkpt lat="45.5519648" lon="9.5240789"><ele>135.2</ele><time>2026-04-14T13:47:23.484Z</time></trkpt><trkpt lat="45.552074" lon="9.5240601"><ele>134.39999999999998</ele><time>2026-04-14T13:47:24.484Z</time></trkpt><trkpt lat="45.5521939" lon="9.5240539"><ele>133.6</ele><time>2026-04-14T13:47:25.484Z</time></trkpt><trkpt lat="45.5522749" lon="9.5240078"><ele>132.79999999999998</ele><time>2026-04-14T13:47:26.484Z</time></trkpt><trkpt lat="45.5523681" lon="9.5239585"><ele>132.0</ele><time>2026-04-14T13:47:27.484Z</time></trkpt><trkpt lat="45.5524067" lon="9.5238787"><ele>132.0</ele><time>2026-04-14T13:47:28.484Z</time></trkpt><trkpt lat="45.552491" lon="9.5238443"><ele>132.0</ele><time>2026-04-14T13:47:29.483Z</time></trkpt><trkpt lat="45.5525538" lon="9.5237795"><ele>132.0</ele><time>2026-04-14T13:47:30.484Z</time></trkpt><trkpt lat="45.552615" lon="9.5237217"><ele>132.0</ele><time>2026-04-14T13:47:31.484Z</time></trkpt><trkpt lat="45.5526619" lon="9.5236157"><ele>132.0</ele><time>2026-04-14T13:47:32.483Z</time></trkpt><trkpt lat="45.5527728" lon="9.5235917"><ele>132.0</ele><time>2026-04-14T13:47:33.483Z</time></trkpt><trkpt lat="45.5528427" lon="9.5235681"><ele>132.33333333333334</ele><time>2026-04-14T13:47:34.484Z</time></trkpt><trkpt lat="45.552917" lon="9.5235196"><ele>132.66666666666666</ele><time>2026-04-14T13:47:35.484Z</time></trkpt><trkpt lat="45.5529894" lon="9.5234143"><ele>133.0</ele><time>2026-04-14T13:47:36.484Z</time></trkpt><trkpt lat="45.5530342" lon="9.5233429"><ele>133.33333333333331</ele><time>2026-04-14T13:47:37.484Z</time></trkpt><trkpt lat="45.5531044" lon="9.5233063"><ele>133.66666666666666</ele><time>2026-04-14T13:47:38.483Z</time></trkpt><trkpt lat="45.553205" lon="9.5232665"><ele>134.0</ele><time>2026-04-14T13:47:39.484Z</time></trkpt><trkpt lat="45.5532529" lon="9.5231675"><ele>134.0</ele><time>2026-04-14T13:47:40.484Z</time></trkpt><trkpt lat="45.5533488" lon="9.5231495"><ele>134.0</ele><time>2026-04-14T13:47:41.484Z</time></trkpt><trkpt lat="45.5533558" lon="9.5230196"><ele>134.0</ele><time>2026-04-14T13:47:42.483Z</time></trkpt><trkpt lat="45.5534263" lon="9.5229564"><ele>134.0</ele><time>2026-04-14T13:47:43.483Z</time></trkpt><trkpt lat="45.5535077" lon="9.5228651"><ele>134.0</ele><time>2026-04-14T13:47:44.483Z</time></trkpt><trkpt lat="45.5535989" lon="9.5228187"><ele>134.6</ele><time>2026-04-14T13:47:45.484Z</time></trkpt><trkpt lat="45.5536582" lon="9.5227485"><ele>135.2</ele><time>2026-04-14T13:47:46.484Z</time></trkpt><trkpt lat="45.5537802" lon="9.5227544"><ele>135.79999999999998</ele><time>2026-04-14T13:47:47.483Z</time></trkpt><trkpt lat="45.5538952" lon="9.5227807"><ele>136.4</ele><time>2026-04-14T13:47:48.484Z</time></trkpt><trkpt lat="45.5539121" lon="9.5226578"><ele>137.0</ele><time>2026-04-14T13:47:49.483Z</time></trkpt><trkpt lat="45.5539791" lon="9.5226283"><ele>137.0</ele><time>2026-04-14T13:47:50.484Z</time></trkpt><trkpt lat="45.5540476" lon="9.5225589"><ele>137.0</ele><time>2026-04-14T13:47:51.483Z</time></trkpt><trkpt lat="45.5541213" lon="9.5225093"><ele>137.0</ele><time>2026-04-14T13:47:52.483Z</time></trkpt><trkpt lat="45.554239" lon="9.5223925"><ele>137.0</ele><time>2026-04-14T13:47:54.484Z</time></trkpt><trkpt lat="45.5543151" lon="9.5223324"><ele>137.0</ele><time>2026-04-14T13:47:55.483Z</time></trkpt><trkpt lat="45.5545463" lon="9.5222565"><ele>136.4</ele><time>2026-04-14T13:47:58.484Z</time></trkpt><trkpt lat="45.5546949" lon="9.5222768"><ele>135.79999999999998</ele><time>2026-04-14T13:47:59.484Z</time></trkpt><trkpt lat="45.5547656" lon="9.522293"><ele>135.2</ele><time>2026-04-14T13:48:00.483Z</time></trkpt><trkpt lat="45.5548771" lon="9.5222337"><ele>134.6</ele><time>2026-04-14T13:48:02.483Z</time></trkpt><trkpt lat="45.554941" lon="9.5221955"><ele>134.0</ele><time>2026-04-14T13:48:03.484Z</time></trkpt><trkpt lat="45.5550193" lon="9.5221874"><ele>134.0</ele><time>2026-04-14T13:48:04.484Z</time></trkpt><trkpt lat="45.5551305" lon="9.5222016"><ele>134.0</ele><time>2026-04-14T13:48:05.484Z</time></trkpt><trkpt lat="45.5552091" lon="9.5221687"><ele>134.0</ele><time>2026-04-14T13:48:06.484Z</time></trkpt><trkpt lat="45.5553144" lon="9.5222047"><ele>134.0</ele><time>2026-04-14T13:48:07.484Z</time></trkpt><trkpt lat="45.5554452" lon="9.5222413"><ele>134.0</ele><time>2026-04-14T13:48:08.483Z</time></trkpt><trkpt lat="45.555556" lon="9.5221465"><ele>134.2</ele><time>2026-04-14T13:48:10.484Z</time></trkpt><trkpt lat="45.5556509" lon="9.5221311"><ele>134.4</ele><time>2026-04-14T13:48:11.484Z</time></trkpt><trkpt lat="45.5557736" lon="9.5220566"><ele>134.6</ele><time>2026-04-14T13:48:13.484Z</time></trkpt><trkpt lat="45.5558505" lon="9.5219832"><ele>134.8</ele><time>2026-04-14T13:48:14.484Z</time></trkpt><trkpt lat="45.5559375" lon="9.5219455"><ele>135.0</ele><time>2026-04-14T13:48:15.484Z</time></trkpt><trkpt lat="45.5560084" lon="9.5219182"><ele>135.16666666666666</ele><time>2026-04-14T13:48:16.483Z</time></trkpt><trkpt lat="45.5560852" lon="9.5218646"><ele>135.33333333333334</ele><time>2026-04-14T13:48:17.484Z</time></trkpt><trkpt lat="45.5561694" lon="9.5218211"><ele>135.5</ele><time>2026-04-14T13:48:18.483Z</time></trkpt><trkpt lat="45.5562193" lon="9.5217503"><ele>135.66666666666669</ele><time>2026-04-14T13:48:19.483Z</time></trkpt><trkpt lat="45.556244" lon="9.5216"><ele>135.83333333333334</ele><time>2026-04-14T13:48:20.484Z</time></trkpt><trkpt lat="45.5563141" lon="9.5215422"><ele>136.0</ele><time>2026-04-14T13:48:21.483Z</time></trkpt><trkpt lat="45.5563532" lon="9.5214657"><ele>136.0</ele><time>2026-04-14T13:48:22.484Z</time></trkpt><trkpt lat="45.5564209" lon="9.5213737"><ele>136.0</ele><time>2026-04-14T13:48:23.483Z</time></trkpt><trkpt lat="45.5564715" lon="9.5212929"><ele>136.0</ele><time>2026-04-14T13:48:24.483Z</time></trkpt><trkpt lat="45.5565787" lon="9.521269"><ele>136.0</ele><time>2026-04-14T13:48:25.484Z</time></trkpt><trkpt lat="45.5566341" lon="9.5212152"><ele>136.0</ele><time>2026-04-14T13:48:26.483Z</time></trkpt><trkpt lat="45.5567457" lon="9.5211409"><ele>135.5</ele><time>2026-04-14T13:48:28.483Z</time></trkpt><trkpt lat="45.5568668" lon="9.5210187"><ele>135.0</ele><time>2026-04-14T13:48:30.483Z</time></trkpt><trkpt lat="45.556914" lon="9.5208877"><ele>134.5</ele><time>2026-04-14T13:48:31.484Z</time></trkpt><trkpt lat="45.556961" lon="9.5207712"><ele>134.0</ele><time>2026-04-14T13:48:32.483Z</time></trkpt><trkpt lat="45.5570475" lon="9.5206783"><ele>134.0</ele><time>2026-04-14T13:48:33.484Z</time></trkpt><trkpt lat="45.5570829" lon="9.5205787"><ele>134.0</ele><time>2026-04-14T13:48:34.483Z</time></trkpt><trkpt lat="45.5571451" lon="9.520442"><ele>134.0</ele><time>2026-04-14T13:48:35.484Z</time></trkpt><trkpt lat="45.5572581" lon="9.520434"><ele>134.0</ele><time>2026-04-14T13:48:36.484Z</time></trkpt><trkpt lat="45.5573058" lon="9.5203525"><ele>134.0</ele><time>2026-04-14T13:48:37.484Z</time></trkpt><trkpt lat="45.5573471" lon="9.5202742"><ele>134.0</ele><time>2026-04-14T13:48:38.483Z</time></trkpt><trkpt lat="45.5574261" lon="9.5202056"><ele>135.2</ele><time>2026-04-14T13:48:39.484Z</time></trkpt><trkpt lat="45.5575015" lon="9.5201566"><ele>136.4</ele><time>2026-04-14T13:48:40.483Z</time></trkpt><trkpt lat="45.5576006" lon="9.5200632"><ele>137.6</ele><time>2026-04-14T13:48:42.483Z</time></trkpt><trkpt lat="45.5576726" lon="9.5198851"><ele>138.8</ele><time>2026-04-14T13:48:44.483Z</time></trkpt><trkpt lat="45.5577467" lon="9.5198169"><ele>140.0</ele><time>2026-04-14T13:48:45.483Z</time></trkpt><trkpt lat="45.5578526" lon="9.5197041"><ele>139.2</ele><time>2026-04-14T13:48:47.484Z</time></trkpt><trkpt lat="45.5579434" lon="9.5196851"><ele>138.4</ele><time>2026-04-14T13:48:48.484Z</time></trkpt><trkpt lat="45.5580701" lon="9.5196636"><ele>137.6</ele><time>2026-04-14T13:48:49.484Z</time></trkpt><trkpt lat="45.558156" lon="9.5196173"><ele>136.8</ele><time>2026-04-14T13:48:50.483Z</time></trkpt><trkpt lat="45.5582501" lon="9.5196104"><ele>136.0</ele><time>2026-04-14T13:48:51.484Z</time></trkpt><trkpt lat="45.5583638" lon="9.5195269"><ele>136.0</ele><time>2026-04-14T13:48:53.484Z</time></trkpt><trkpt lat="45.5584628" lon="9.5195032"><ele>136.0</ele><time>2026-04-14T13:48:55.484Z</time></trkpt><trkpt lat="45.5586336" lon="9.5195431"><ele>136.0</ele><time>2026-04-14T13:48:57.484Z</time></trkpt><trkpt lat="45.5587675" lon="9.519523"><ele>136.0</ele><time>2026-04-14T13:49:00.483Z</time></trkpt><trkpt lat="45.5588439" lon="9.5195672"><ele>136.0</ele><time>2026-04-14T13:49:01.483Z</time></trkpt><trkpt lat="45.5589904" lon="9.5196449"><ele>136.0</ele><time>2026-04-14T13:49:02.484Z</time></trkpt><trkpt lat="45.5591062" lon="9.519708"><ele>136.0</ele><time>2026-04-14T13:49:03.483Z</time></trkpt><trkpt lat="45.5591992" lon="9.5197703"><ele>136.0</ele><time>2026-04-14T13:49:04.484Z</time></trkpt><trkpt lat="45.5593202" lon="9.5198474"><ele>136.0</ele><time>2026-04-14T13:49:05.484Z</time></trkpt><trkpt lat="45.5594846" lon="9.5199509"><ele>136.0</ele><time>2026-04-14T13:49:07.483Z</time></trkpt><trkpt lat="45.5595684" lon="9.5200423"><ele>136.0</ele><time>2026-04-14T13:49:08.483Z</time></trkpt><trkpt lat="45.559699" lon="9.5201243"><ele>136.0</ele><time>2026-04-14T13:49:09.484Z</time></trkpt><trkpt lat="45.5597703" lon="9.5201599"><ele>135.0</ele><time>2026-04-14T13:49:10.483Z</time></trkpt><trkpt lat="45.5598091" lon="9.5202919"><ele>134.0</ele><time>2026-04-14T13:49:11.484Z</time></trkpt><trkpt lat="45.5599041" lon="9.5203834"><ele>133.0</ele><time>2026-04-14T13:49:12.484Z</time></trkpt><trkpt lat="45.5599801" lon="9.5204729"><ele>132.0</ele><time>2026-04-14T13:49:13.484Z</time></trkpt><trkpt lat="45.5601181" lon="9.5205246"><ele>132.0</ele><time>2026-04-14T13:49:15.484Z</time></trkpt><trkpt lat="45.5601638" lon="9.5205929"><ele>132.0</ele><time>2026-04-14T13:49:16.484Z</time></trkpt><trkpt lat="45.560286" lon="9.5206507"><ele>132.0</ele><time>2026-04-14T13:49:17.483Z</time></trkpt><trkpt lat="45.5603769" lon="9.5207084"><ele>132.0</ele><time>2026-04-14T13:49:18.484Z</time></trkpt><trkpt lat="45.5604349" lon="9.5207775"><ele>132.0</ele><time>2026-04-14T13:49:19.484Z</time></trkpt><trkpt lat="45.5605772" lon="9.5209143"><ele>131.4</ele><time>2026-04-14T13:49:21.483Z</time></trkpt><trkpt lat="45.5606615" lon="9.5209457"><ele>130.79999999999998</ele><time>2026-04-14T13:49:22.484Z</time></trkpt><trkpt lat="45.5608004" lon="9.5210406"><ele>130.2</ele><time>2026-04-14T13:49:24.484Z</time></trkpt><trkpt lat="45.5608995" lon="9.5211117"><ele>129.6</ele><time>2026-04-14T13:49:25.483Z</time></trkpt><trkpt lat="45.5609761" lon="9.5211881"><ele>129.0</ele><time>2026-04-14T13:49:26.484Z</time></trkpt><trkpt lat="45.5611408" lon="9.5213029"><ele>130.6</ele><time>2026-04-14T13:49:28.483Z</time></trkpt><trkpt lat="45.5612087" lon="9.521385"><ele>132.2</ele><time>2026-04-14T13:49:29.483Z</time></trkpt><trkpt lat="45.5612751" lon="9.521433"><ele>133.79999999999998</ele><time>2026-04-14T13:49:30.483Z</time></trkpt><trkpt lat="45.5613202" lon="9.5215089"><ele>135.4</ele><time>2026-04-14T13:49:31.483Z</time></trkpt><trkpt lat="45.5614432" lon="9.5215955"><ele>137.0</ele><time>2026-04-14T13:49:33.484Z</time></trkpt><trkpt lat="45.5615191" lon="9.521651"><ele>137.0</ele><time>2026-04-14T13:49:34.484Z</time></trkpt><trkpt lat="45.5616044" lon="9.5217319"><ele>137.0</ele><time>2026-04-14T13:49:35.484Z</time></trkpt><trkpt lat="45.5616492" lon="9.5218286"><ele>137.0</ele><time>2026-04-14T13:49:36.484Z</time></trkpt><trkpt lat="45.5617056" lon="9.521913"><ele>137.0</ele><time>2026-04-14T13:49:37.484Z</time></trkpt><trkpt lat="45.5617706" lon="9.5219516"><ele>137.0</ele><time>2026-04-14T13:49:38.484Z</time></trkpt><trkpt lat="45.5618786" lon="9.5219895"><ele>137.0</ele><time>2026-04-14T13:49:40.484Z</time></trkpt><trkpt lat="45.5620129" lon="9.522038"><ele>137.2</ele><time>2026-04-14T13:49:41.484Z</time></trkpt><trkpt lat="45.5620569" lon="9.5221061"><ele>137.39999999999998</ele><time>2026-04-14T13:49:42.483Z</time></trkpt><trkpt lat="45.5620955" lon="9.5221799"><ele>137.60000000000002</ele><time>2026-04-14T13:49:43.484Z</time></trkpt><trkpt lat="45.5621525" lon="9.5222546"><ele>137.8</ele><time>2026-04-14T13:49:44.484Z</time></trkpt><trkpt lat="45.5623023" lon="9.5223179"><ele>138.0</ele><time>2026-04-14T13:49:45.483Z</time></trkpt><trkpt lat="45.5623855" lon="9.5224416"><ele>138.0</ele><time>2026-04-14T13:49:46.483Z</time></trkpt><trkpt lat="45.562523" lon="9.5225146"><ele>138.0</ele><time>2026-04-14T13:49:47.483Z</time></trkpt><trkpt lat="45.5626292" lon="9.5225923"><ele>138.0</ele><time>2026-04-14T13:49:48.483Z</time></trkpt><trkpt lat="45.5626631" lon="9.5226776"><ele>138.0</ele><time>2026-04-14T13:49:49.484Z</time></trkpt><trkpt lat="45.5627353" lon="9.5227449"><ele>138.0</ele><time>2026-04-14T13:49:50.483Z</time></trkpt><trkpt lat="45.562862" lon="9.522817"><ele>138.0</ele><time>2026-04-14T13:49:51.484Z</time></trkpt><trkpt lat="45.562736" lon="9.5228386"><ele>138.0</ele><time>2026-04-14T13:49:52.483Z</time></trkpt><trkpt lat="45.5627818" lon="9.5229453"><ele>138.0</ele><time>2026-04-14T13:49:53.484Z</time></trkpt><trkpt lat="45.5628722" lon="9.5230888"><ele>138.0</ele><time>2026-04-14T13:49:54.484Z</time></trkpt><trkpt lat="45.5629339" lon="9.523221"><ele>138.4</ele><time>2026-04-14T13:49:55.484Z</time></trkpt><trkpt lat="45.5630307" lon="9.5232976"><ele>138.8</ele><time>2026-04-14T13:49:56.484Z</time></trkpt><trkpt lat="45.5631271" lon="9.5233324"><ele>139.2</ele><time>2026-04-14T13:49:57.484Z</time></trkpt><trkpt lat="45.5632184" lon="9.5234008"><ele>139.6</ele><time>2026-04-14T13:49:58.483Z</time></trkpt><trkpt lat="45.5632682" lon="9.5234909"><ele>140.0</ele><time>2026-04-14T13:49:59.483Z</time></trkpt><trkpt lat="45.5632901" lon="9.5235844"><ele>140.0</ele><time>2026-04-14T13:50:00.484Z</time></trkpt><trkpt lat="45.5633804" lon="9.5236794"><ele>140.0</ele><time>2026-04-14T13:50:02.484Z</time></trkpt><trkpt lat="45.5635457" lon="9.5238259"><ele>140.0</ele><time>2026-04-14T13:50:04.483Z</time></trkpt><trkpt lat="45.5635187" lon="9.5239179"><ele>140.0</ele><time>2026-04-14T13:50:05.484Z</time></trkpt><trkpt lat="45.5635948" lon="9.5239471"><ele>140.16666666666666</ele><time>2026-04-14T13:50:06.483Z</time></trkpt><trkpt lat="45.5636825" lon="9.5239719"><ele>140.33333333333331</ele><time>2026-04-14T13:50:08.484Z</time></trkpt><trkpt lat="45.5637433" lon="9.5240036"><ele>140.5</ele><time>2026-04-14T13:50:09.483Z</time></trkpt><trkpt lat="45.5638443" lon="9.5239987"><ele>140.66666666666666</ele><time>2026-04-14T13:50:10.483Z</time></trkpt><trkpt lat="45.5639108" lon="9.5240318"><ele>140.83333333333334</ele><time>2026-04-14T13:50:11.484Z</time></trkpt><trkpt lat="45.5640192" lon="9.524063"><ele>141.0</ele><time>2026-04-14T13:50:12.483Z</time></trkpt><trkpt lat="45.5640975" lon="9.5240548"><ele>141.0</ele><time>2026-04-14T13:50:13.483Z</time></trkpt><trkpt lat="45.5642105" lon="9.5240674"><ele>141.0</ele><time>2026-04-14T13:50:14.484Z</time></trkpt><trkpt lat="45.5643075" lon="9.5240675"><ele>141.0</ele><time>2026-04-14T13:50:15.484Z</time></trkpt><trkpt lat="45.5643697" lon="9.5240454"><ele>141.0</ele><time>2026-04-14T13:50:16.484Z</time></trkpt><trkpt lat="45.5645761" lon="9.5241475"><ele>141.2</ele><time>2026-04-14T13:50:17.484Z</time></trkpt><trkpt lat="45.5647304" lon="9.5241314"><ele>141.39999999999998</ele><time>2026-04-14T13:50:19.484Z</time></trkpt><trkpt lat="45.5647984" lon="9.524136"><ele>141.6</ele><time>2026-04-14T13:50:20.484Z</time></trkpt><trkpt lat="45.5648851" lon="9.524145"><ele>141.79999999999998</ele><time>2026-04-14T13:50:21.483Z</time></trkpt><trkpt lat="45.5649605" lon="9.5241947"><ele>142.0</ele><time>2026-04-14T13:50:22.484Z</time></trkpt><trkpt lat="45.5650408" lon="9.5241761"><ele>142.0</ele><time>2026-04-14T13:50:23.484Z</time></trkpt><trkpt lat="45.5651216" lon="9.5242491"><ele>142.0</ele><time>2026-04-14T13:50:24.483Z</time></trkpt><trkpt lat="45.5651788" lon="9.5241978"><ele>142.0</ele><time>2026-04-14T13:50:25.484Z</time></trkpt><trkpt lat="45.5652587" lon="9.5242562"><ele>142.0</ele><time>2026-04-14T13:50:26.484Z</time></trkpt><trkpt lat="45.5653451" lon="9.5243024"><ele>142.0</ele><time>2026-04-14T13:50:27.483Z</time></trkpt><trkpt lat="45.5654084" lon="9.5243322"><ele>142.0</ele><time>2026-04-14T13:50:28.483Z</time></trkpt><trkpt lat="45.565522" lon="9.5243899"><ele>142.5</ele><time>2026-04-14T13:50:29.484Z</time></trkpt><trkpt lat="45.5655967" lon="9.5244266"><ele>143.0</ele><time>2026-04-14T13:50:30.483Z</time></trkpt><trkpt lat="45.5656779" lon="9.5245021"><ele>143.5</ele><time>2026-04-14T13:50:31.483Z</time></trkpt><trkpt lat="45.5657477" lon="9.5245165"><ele>144.0</ele><time>2026-04-14T13:50:32.483Z</time></trkpt><trkpt lat="45.5658736" lon="9.5244773"><ele>144.5</ele><time>2026-04-14T13:50:34.484Z</time></trkpt><trkpt lat="45.5659353" lon="9.5244978"><ele>145.0</ele><time>2026-04-14T13:50:35.483Z</time></trkpt><trkpt lat="45.5660077" lon="9.5245009"><ele>143.5</ele><time>2026-04-14T13:50:36.484Z</time></trkpt><trkpt lat="45.5660903" lon="9.5245936"><ele>142.0</ele><time>2026-04-14T13:50:38.484Z</time></trkpt><trkpt lat="45.5662532" lon="9.5246741"><ele>140.5</ele><time>2026-04-14T13:50:40.484Z</time></trkpt><trkpt lat="45.5663243" lon="9.524738"><ele>139.0</ele><time>2026-04-14T13:50:41.483Z</time></trkpt><trkpt lat="45.5664205" lon="9.5247705"><ele>139.0</ele><time>2026-04-14T13:50:42.484Z</time></trkpt><trkpt lat="45.5665236" lon="9.5248016"><ele>139.0</ele><time>2026-04-14T13:50:44.483Z</time></trkpt><trkpt lat="45.5666235" lon="9.5248775"><ele>139.0</ele><time>2026-04-14T13:50:45.483Z</time></trkpt><trkpt lat="45.5667168" lon="9.5249557"><ele>139.0</ele><time>2026-04-14T13:50:46.484Z</time></trkpt><trkpt lat="45.5667929" lon="9.5249561"><ele>139.0</ele><time>2026-04-14T13:50:47.483Z</time></trkpt><trkpt lat="45.5668995" lon="9.5250442"><ele>139.0</ele><time>2026-04-14T13:50:48.484Z</time></trkpt><trkpt lat="45.5669716" lon="9.5250593"><ele>139.0</ele><time>2026-04-14T13:50:49.484Z</time></trkpt><trkpt lat="45.5670464" lon="9.5251354"><ele>139.0</ele><time>2026-04-14T13:50:50.484Z</time></trkpt><trkpt lat="45.5672149" lon="9.525267"><ele>139.0</ele><time>2026-04-14T13:50:53.484Z</time></trkpt><trkpt lat="45.5673363" lon="9.5252942"><ele>137.75</ele><time>2026-04-14T13:50:55.483Z</time></trkpt><trkpt lat="45.5674222" lon="9.5253282"><ele>136.5</ele><time>2026-04-14T13:50:56.484Z</time></trkpt><trkpt lat="45.5675004" lon="9.5253323"><ele>135.25</ele><time>2026-04-14T13:50:57.483Z</time></trkpt><trkpt lat="45.5676216" lon="9.5253883"><ele>134.0</ele><time>2026-04-14T13:50:58.484Z</time></trkpt><trkpt lat="45.5677724" lon="9.5254751"><ele>135.2</ele><time>2026-04-14T13:50:59.483Z</time></trkpt><trkpt lat="45.5678685" lon="9.5254837"><ele>136.4</ele><time>2026-04-14T13:51:00.484Z</time></trkpt><trkpt lat="45.5679688" lon="9.5255089"><ele>137.6</ele><time>2026-04-14T13:51:01.484Z</time></trkpt><trkpt lat="45.5680362" lon="9.5255646"><ele>138.8</ele><time>2026-04-14T13:51:02.484Z</time></trkpt><trkpt lat="45.5681414" lon="9.5256137"><ele>140.0</ele><time>2026-04-14T13:51:03.484Z</time></trkpt><trkpt lat="45.5682698" lon="9.5257066"><ele>140.0</ele><time>2026-04-14T13:51:04.484Z</time></trkpt><trkpt lat="45.5685756" lon="9.5257568"><ele>140.0</ele><time>2026-04-14T13:51:07.483Z</time></trkpt><trkpt lat="45.568788" lon="9.5257812"><ele>140.33333333333331</ele><time>2026-04-14T13:51:09.484Z</time></trkpt><trkpt lat="45.5689049" lon="9.5258159"><ele>140.66666666666666</ele><time>2026-04-14T13:51:10.484Z</time></trkpt><trkpt lat="45.5689732" lon="9.5258145"><ele>141.0</ele><time>2026-04-14T13:51:11.483Z</time></trkpt><trkpt lat="45.5690483" lon="9.5258126"><ele>141.33333333333334</ele><time>2026-04-14T13:51:12.484Z</time></trkpt><trkpt lat="45.5691356" lon="9.5258392"><ele>141.66666666666669</ele><time>2026-04-14T13:51:13.484Z</time></trkpt><trkpt lat="45.5692119" lon="9.5258309"><ele>142.0</ele><time>2026-04-14T13:51:14.483Z</time></trkpt><trkpt lat="45.5693166" lon="9.5257904"><ele>142.0</ele><time>2026-04-14T13:51:15.483Z</time></trkpt><trkpt lat="45.5694401" lon="9.5257439"><ele>142.0</ele><time>2026-04-14T13:51:17.484Z</time></trkpt><trkpt lat="45.5695279" lon="9.5257566"><ele>142.0</ele><time>2026-04-14T13:51:18.483Z</time></trkpt><trkpt lat="45.569591" lon="9.5258032"><ele>142.0</ele><time>2026-04-14T13:51:19.483Z</time></trkpt><trkpt lat="45.569724" lon="9.5258872"><ele>142.0</ele><time>2026-04-14T13:51:21.484Z</time></trkpt><trkpt lat="45.5698568" lon="9.5259209"><ele>142.66666666666669</ele><time>2026-04-14T13:51:23.484Z</time></trkpt><trkpt lat="45.5699363" lon="9.5259474"><ele>143.33333333333334</ele><time>2026-04-14T13:51:24.484Z</time></trkpt><trkpt lat="45.5700233" lon="9.5259524"><ele>144.0</ele><time>2026-04-14T13:51:25.483Z</time></trkpt><trkpt lat="45.5700865" lon="9.5259479"><ele>144.66666666666666</ele><time>2026-04-14T13:51:26.484Z</time></trkpt><trkpt lat="45.5701661" lon="9.5259717"><ele>145.33333333333331</ele><time>2026-04-14T13:51:27.483Z</time></trkpt><trkpt lat="45.5702606" lon="9.5259719"><ele>146.0</ele><time>2026-04-14T13:51:28.484Z</time></trkpt><trkpt lat="45.5703195" lon="9.5260219"><ele>147.2</ele><time>2026-04-14T13:51:29.484Z</time></trkpt><trkpt lat="45.570387" lon="9.5259702"><ele>148.39999999999998</ele><time>2026-04-14T13:51:30.483Z</time></trkpt><trkpt lat="45.5704966" lon="9.526015"><ele>149.6</ele><time>2026-04-14T13:51:31.484Z</time></trkpt><trkpt lat="45.5706245" lon="9.5260765"><ele>150.79999999999998</ele><time>2026-04-14T13:51:33.484Z</time></trkpt><trkpt lat="45.5707138" lon="9.5261147"><ele>152.0</ele><time>2026-04-14T13:51:34.484Z</time></trkpt><trkpt lat="45.5708861" lon="9.5261679"><ele>152.0</ele><time>2026-04-14T13:51:36.484Z</time></trkpt><trkpt lat="45.5709537" lon="9.5262086"><ele>152.0</ele><time>2026-04-14T13:51:37.483Z</time></trkpt><trkpt lat="45.5710219" lon="9.5262252"><ele>152.0</ele><time>2026-04-14T13:51:38.484Z</time></trkpt><trkpt lat="45.5711302" lon="9.5263526"><ele>152.0</ele><time>2026-04-14T13:51:39.484Z</time></trkpt><trkpt lat="45.5712205" lon="9.5263967"><ele>152.0</ele><time>2026-04-14T13:51:40.484Z</time></trkpt><trkpt lat="45.5712953" lon="9.5264794"><ele>151.75</ele><time>2026-04-14T13:51:41.484Z</time></trkpt><trkpt lat="45.5714086" lon="9.5265953"><ele>151.5</ele><time>2026-04-14T13:51:42.484Z</time></trkpt><trkpt lat="45.5714608" lon="9.5266627"><ele>151.25</ele><time>2026-04-14T13:51:43.484Z</time></trkpt><trkpt lat="45.5716136" lon="9.5268269"><ele>151.0</ele><time>2026-04-14T13:51:46.484Z</time></trkpt><trkpt lat="45.5717229" lon="9.5268861"><ele>151.0</ele><time>2026-04-14T13:51:47.484Z</time></trkpt><trkpt lat="45.5718202" lon="9.5269909"><ele>151.0</ele><time>2026-04-14T13:51:48.483Z</time></trkpt><trkpt lat="45.5719117" lon="9.527097"><ele>151.0</ele><time>2026-04-14T13:51:49.483Z</time></trkpt><trkpt lat="45.5719752" lon="9.5272942"><ele>151.0</ele><time>2026-04-14T13:51:51.484Z</time></trkpt><trkpt lat="45.5720284" lon="9.5273763"><ele>150.75</ele><time>2026-04-14T13:51:52.484Z</time></trkpt><trkpt lat="45.5721286" lon="9.5274513"><ele>150.5</ele><time>2026-04-14T13:51:53.484Z</time></trkpt><trkpt lat="45.5721969" lon="9.5275119"><ele>150.25</ele><time>2026-04-14T13:51:54.484Z</time></trkpt><trkpt lat="45.5723625" lon="9.5276759"><ele>150.0</ele><time>2026-04-14T13:51:55.483Z</time></trkpt><trkpt lat="45.572448" lon="9.5277508"><ele>150.0</ele><time>2026-04-14T13:51:56.484Z</time></trkpt><trkpt lat="45.5725283" lon="9.5278315"><ele>150.0</ele><time>2026-04-14T13:51:57.483Z</time></trkpt><trkpt lat="45.5725884" lon="9.5278598"><ele>150.0</ele><time>2026-04-14T13:51:58.483Z</time></trkpt><trkpt lat="45.5726408" lon="9.5279515"><ele>150.0</ele><time>2026-04-14T13:51:59.483Z</time></trkpt><trkpt lat="45.5727268" lon="9.5280576"><ele>150.0</ele><time>2026-04-14T13:52:00.484Z</time></trkpt><trkpt lat="45.5728492" lon="9.5282"><ele>151.0</ele><time>2026-04-14T13:52:02.483Z</time></trkpt><trkpt lat="45.5729499" lon="9.5282508"><ele>152.0</ele><time>2026-04-14T13:52:03.483Z</time></trkpt><trkpt lat="45.573008" lon="9.5283468"><ele>153.0</ele><time>2026-04-14T13:52:04.483Z</time></trkpt><trkpt lat="45.5730845" lon="9.5283664"><ele>154.0</ele><time>2026-04-14T13:52:05.483Z</time></trkpt><trkpt lat="45.5731773" lon="9.528427"><ele>155.0</ele><time>2026-04-14T13:52:06.484Z</time></trkpt><trkpt lat="45.5733257" lon="9.5284607"><ele>155.0</ele><time>2026-04-14T13:52:08.484Z</time></trkpt><trkpt lat="45.5733957" lon="9.5285059"><ele>155.0</ele><time>2026-04-14T13:52:09.483Z</time></trkpt><trkpt lat="45.5734609" lon="9.5285642"><ele>155.0</ele><time>2026-04-14T13:52:11.484Z</time></trkpt><trkpt lat="45.5735264" lon="9.5286151"><ele>155.0</ele><time>2026-04-14T13:52:12.483Z</time></trkpt><trkpt lat="45.5735966" lon="9.528734"><ele>155.0</ele><time>2026-04-14T13:52:13.483Z</time></trkpt><trkpt lat="45.5737252" lon="9.5288427"><ele>153.6</ele><time>2026-04-14T13:52:14.484Z</time></trkpt><trkpt lat="45.5737835" lon="9.5289308"><ele>152.2</ele><time>2026-04-14T13:52:15.484Z</time></trkpt><trkpt lat="45.5738424" lon="9.5289887"><ele>150.8</ele><time>2026-04-14T13:52:16.483Z</time></trkpt><trkpt lat="45.5739249" lon="9.5291167"><ele>149.4</ele><time>2026-04-14T13:52:17.484Z</time></trkpt><trkpt lat="45.5739739" lon="9.5292059"><ele>148.0</ele><time>2026-04-14T13:52:18.484Z</time></trkpt><trkpt lat="45.574047" lon="9.5292901"><ele>148.0</ele><time>2026-04-14T13:52:19.483Z</time></trkpt><trkpt lat="45.5741143" lon="9.5294167"><ele>148.0</ele><time>2026-04-14T13:52:21.484Z</time></trkpt><trkpt lat="45.5741636" lon="9.5295125"><ele>148.0</ele><time>2026-04-14T13:52:22.483Z</time></trkpt><trkpt lat="45.5742254" lon="9.5296162"><ele>148.0</ele><time>2026-04-14T13:52:23.484Z</time></trkpt><trkpt lat="45.5743049" lon="9.5297657"><ele>148.0</ele><time>2026-04-14T13:52:24.484Z</time></trkpt><trkpt lat="45.5743315" lon="9.5298893"><ele>146.0</ele><time>2026-04-14T13:52:25.484Z</time></trkpt><trkpt lat="45.5743677" lon="9.5299922"><ele>144.0</ele><time>2026-04-14T13:52:26.483Z</time></trkpt><trkpt lat="45.5744531" lon="9.5301264"><ele>142.0</ele><time>2026-04-14T13:52:27.483Z</time></trkpt><trkpt lat="45.5744219" lon="9.5303234"><ele>140.0</ele><time>2026-04-14T13:52:28.484Z</time></trkpt><trkpt lat="45.5744274" lon="9.5304752"><ele>139.5</ele><time>2026-04-14T13:52:29.484Z</time></trkpt><trkpt lat="45.5743841" lon="9.5307401"><ele>139.0</ele><time>2026-04-14T13:52:31.484Z</time></trkpt><trkpt lat="45.5743746" lon="9.5308361"><ele>138.5</ele><time>2026-04-14T13:52:32.483Z</time></trkpt><trkpt lat="45.5744719" lon="9.530945"><ele>138.0</ele><time>2026-04-14T13:52:33.484Z</time></trkpt><trkpt lat="45.5743987" lon="9.5310637"><ele>138.0</ele><time>2026-04-14T13:52:34.484Z</time></trkpt><trkpt lat="45.5743595" lon="9.5312049"><ele>138.0</ele><time>2026-04-14T13:52:35.483Z</time></trkpt><trkpt lat="45.5744158" lon="9.5313735"><ele>138.0</ele><time>2026-04-14T13:52:37.484Z</time></trkpt><trkpt lat="45.5743525" lon="9.5314875"><ele>138.0</ele><time>2026-04-14T13:52:38.484Z</time></trkpt><trkpt lat="45.5743463" lon="9.5315992"><ele>138.0</ele><time>2026-04-14T13:52:39.484Z</time></trkpt><trkpt lat="45.5743217" lon="9.531725"><ele>138.20000000000002</ele><time>2026-04-14T13:52:40.484Z</time></trkpt><trkpt lat="45.5742703" lon="9.5318535"><ele>138.4</ele><time>2026-04-14T13:52:41.483Z</time></trkpt><trkpt lat="45.5742241" lon="9.5319632"><ele>138.60000000000002</ele><time>2026-04-14T13:52:42.484Z</time></trkpt><trkpt lat="45.5741481" lon="9.5321135"><ele>138.8</ele><time>2026-04-14T13:52:43.483Z</time></trkpt><trkpt lat="45.5740952" lon="9.5322452"><ele>139.0</ele><time>2026-04-14T13:52:44.484Z</time></trkpt><trkpt lat="45.5740299" lon="9.5323749"><ele>139.8</ele><time>2026-04-14T13:52:45.483Z</time></trkpt><trkpt lat="45.5739441" lon="9.5324815"><ele>140.60000000000002</ele><time>2026-04-14T13:52:46.484Z</time></trkpt><trkpt lat="45.5738948" lon="9.5326034"><ele>141.4</ele><time>2026-04-14T13:52:47.483Z</time></trkpt><trkpt lat="45.5738216" lon="9.5327284"><ele>142.20000000000002</ele><time>2026-04-14T13:52:48.483Z</time></trkpt><trkpt lat="45.573764" lon="9.5328458"><ele>143.0</ele><time>2026-04-14T13:52:49.484Z</time></trkpt><trkpt lat="45.5737139" lon="9.5329655"><ele>141.75</ele><time>2026-04-14T13:52:50.484Z</time></trkpt><trkpt lat="45.5736554" lon="9.5330491"><ele>140.5</ele><time>2026-04-14T13:52:51.483Z</time></trkpt><trkpt lat="45.5735419" lon="9.5331867"><ele>139.25</ele><time>2026-04-14T13:52:53.483Z</time></trkpt><trkpt lat="45.5734086" lon="9.5333218"><ele>138.0</ele><time>2026-04-14T13:52:55.483Z</time></trkpt><trkpt lat="45.5733865" lon="9.5334198"><ele>138.0</ele><time>2026-04-14T13:52:56.483Z</time></trkpt><trkpt lat="45.5733786" lon="9.5335224"><ele>138.0</ele><time>2026-04-14T13:52:57.484Z</time></trkpt><trkpt lat="45.5733485" lon="9.5336274"><ele>138.0</ele><time>2026-04-14T13:52:58.484Z</time></trkpt><trkpt lat="45.5733574" lon="9.5337261"><ele>138.0</ele><time>2026-04-14T13:52:59.483Z</time></trkpt><trkpt lat="45.5733806" lon="9.533853"><ele>138.0</ele><time>2026-04-14T13:53:01.483Z</time></trkpt><trkpt lat="45.5734317" lon="9.533941"><ele>138.0</ele><time>2026-04-14T13:53:02.483Z</time></trkpt><trkpt lat="45.5734961" lon="9.533968"><ele>137.0</ele><time>2026-04-14T13:53:03.483Z</time></trkpt><trkpt lat="45.5736257" lon="9.5340021"><ele>136.0</ele><time>2026-04-14T13:53:04.484Z</time></trkpt><trkpt lat="45.5737975" lon="9.534028"><ele>135.0</ele><time>2026-04-14T13:53:05.484Z</time></trkpt><trkpt lat="45.5739234" lon="9.5340427"><ele>134.0</ele><time>2026-04-14T13:53:06.484Z</time></trkpt><trkpt lat="45.574017" lon="9.5340503"><ele>134.0</ele><time>2026-04-14T13:53:07.484Z</time></trkpt><trkpt lat="45.5741209" lon="9.5340503"><ele>134.0</ele><time>2026-04-14T13:53:08.484Z</time></trkpt><trkpt lat="45.5742446" lon="9.534016"><ele>134.0</ele><time>2026-04-14T13:53:10.484Z</time></trkpt><trkpt lat="45.574349" lon="9.5340455"><ele>134.0</ele><time>2026-04-14T13:53:12.484Z</time></trkpt><trkpt lat="45.5744371" lon="9.5340889"><ele>134.0</ele><time>2026-04-14T13:53:13.484Z</time></trkpt><trkpt lat="45.5745506" lon="9.5341474"><ele>134.2</ele><time>2026-04-14T13:53:14.484Z</time></trkpt><trkpt lat="45.5746443" lon="9.5340827"><ele>134.4</ele><time>2026-04-14T13:53:15.484Z</time></trkpt><trkpt lat="45.574754" lon="9.5340609"><ele>134.6</ele><time>2026-04-14T13:53:16.484Z</time></trkpt><trkpt lat="45.5748743" lon="9.5340426"><ele>134.8</ele><time>2026-04-14T13:53:17.483Z</time></trkpt><trkpt lat="45.5749408" lon="9.5340191"><ele>135.0</ele><time>2026-04-14T13:53:18.484Z</time></trkpt><trkpt lat="45.5750169" lon="9.5339999"><ele>135.0</ele><time>2026-04-14T13:53:19.483Z</time></trkpt><trkpt lat="45.5751125" lon="9.5340345"><ele>135.0</ele><time>2026-04-14T13:53:20.484Z</time></trkpt><trkpt lat="45.5751864" lon="9.5340774"><ele>135.0</ele><time>2026-04-14T13:53:21.484Z</time></trkpt><trkpt lat="45.5753724" lon="9.5341098"><ele>135.0</ele><time>2026-04-14T13:53:23.483Z</time></trkpt><trkpt lat="45.5754651" lon="9.5341068"><ele>134.8</ele><time>2026-04-14T13:53:24.484Z</time></trkpt><trkpt lat="45.5755596" lon="9.5340993"><ele>134.6</ele><time>2026-04-14T13:53:25.484Z</time></trkpt><trkpt lat="45.5756905" lon="9.5339489"><ele>134.4</ele><time>2026-04-14T13:53:27.484Z</time></trkpt><trkpt lat="45.5757265" lon="9.5338464"><ele>134.2</ele><time>2026-04-14T13:53:28.483Z</time></trkpt><trkpt lat="45.5758019" lon="9.5338962"><ele>134.0</ele><time>2026-04-14T13:53:29.484Z</time></trkpt><trkpt lat="45.5759657" lon="9.5338943"><ele>134.0</ele><time>2026-04-14T13:53:31.484Z</time></trkpt><trkpt lat="45.5760486" lon="9.533951"><ele>134.0</ele><time>2026-04-14T13:53:32.484Z</time></trkpt><trkpt lat="45.576151" lon="9.5339911"><ele>134.0</ele><time>2026-04-14T13:53:33.483Z</time></trkpt><trkpt lat="45.5762451" lon="9.5340092"><ele>134.0</ele><time>2026-04-14T13:53:34.484Z</time></trkpt><trkpt lat="45.5763088" lon="9.5340357"><ele>134.0</ele><time>2026-04-14T13:53:35.484Z</time></trkpt><trkpt lat="45.5763799" lon="9.5340412"><ele>134.0</ele><time>2026-04-14T13:53:36.484Z</time></trkpt><trkpt lat="45.5766731" lon="9.5340591"><ele>134.66666666666666</ele><time>2026-04-14T13:53:42.484Z</time></trkpt><trkpt lat="45.5767252" lon="9.5341122"><ele>135.33333333333331</ele><time>2026-04-14T13:53:43.484Z</time></trkpt><trkpt lat="45.5768358" lon="9.5341965"><ele>136.0</ele><time>2026-04-14T13:53:44.484Z</time></trkpt><trkpt lat="45.5769077" lon="9.5342552"><ele>136.66666666666666</ele><time>2026-04-14T13:53:45.484Z</time></trkpt><trkpt lat="45.5769755" lon="9.5342812"><ele>137.33333333333334</ele><time>2026-04-14T13:53:46.483Z</time></trkpt><trkpt lat="45.5770514" lon="9.5343627"><ele>138.0</ele><time>2026-04-14T13:53:47.483Z</time></trkpt><trkpt lat="45.5771666" lon="9.5344386"><ele>136.8</ele><time>2026-04-14T13:53:49.484Z</time></trkpt><trkpt lat="45.5772449" lon="9.5344712"><ele>135.60000000000002</ele><time>2026-04-14T13:53:50.483Z</time></trkpt><trkpt lat="45.5773112" lon="9.534511"><ele>134.39999999999998</ele><time>2026-04-14T13:53:51.484Z</time></trkpt><trkpt lat="45.5773984" lon="9.5345606"><ele>133.2</ele><time>2026-04-14T13:53:52.483Z</time></trkpt><trkpt lat="45.5774615" lon="9.5346132"><ele>132.0</ele><time>2026-04-14T13:53:53.483Z</time></trkpt><trkpt lat="45.5776069" lon="9.5346501"><ele>132.0</ele><time>2026-04-14T13:53:55.484Z</time></trkpt><trkpt lat="45.5777295" lon="9.5346629"><ele>132.0</ele><time>2026-04-14T13:53:57.484Z</time></trkpt><trkpt lat="45.5778003" lon="9.5346672"><ele>132.0</ele><time>2026-04-14T13:53:58.484Z</time></trkpt><trkpt lat="45.5778883" lon="9.5346432"><ele>132.0</ele><time>2026-04-14T13:54:00.483Z</time></trkpt><trkpt lat="45.578011" lon="9.534684"><ele>132.0</ele><time>2026-04-14T13:54:02.484Z</time></trkpt><trkpt lat="45.5781158" lon="9.5347204"><ele>132.79999999999998</ele><time>2026-04-14T13:54:04.483Z</time></trkpt><trkpt lat="45.5782083" lon="9.5347139"><ele>133.6</ele><time>2026-04-14T13:54:05.483Z</time></trkpt><trkpt lat="45.5782774" lon="9.53472"><ele>134.39999999999998</ele><time>2026-04-14T13:54:06.484Z</time></trkpt><trkpt lat="45.5783909" lon="9.5347291"><ele>135.2</ele><time>2026-04-14T13:54:08.484Z</time></trkpt><trkpt lat="45.5784673" lon="9.5347333"><ele>136.0</ele><time>2026-04-14T13:54:09.484Z</time></trkpt><trkpt lat="45.5786168" lon="9.5348184"><ele>136.8</ele><time>2026-04-14T13:54:10.484Z</time></trkpt><trkpt lat="45.5786928" lon="9.5348076"><ele>137.6</ele><time>2026-04-14T13:54:11.484Z</time></trkpt><trkpt lat="45.5788291" lon="9.5348492"><ele>138.4</ele><time>2026-04-14T13:54:13.484Z</time></trkpt><trkpt lat="45.578896" lon="9.5348644"><ele>139.2</ele><time>2026-04-14T13:54:14.483Z</time></trkpt><trkpt lat="45.5789739" lon="9.5348774"><ele>140.0</ele><time>2026-04-14T13:54:15.484Z</time></trkpt><trkpt lat="45.5790505" lon="9.5347563"><ele>140.0</ele><time>2026-04-14T13:54:17.483Z</time></trkpt><trkpt lat="45.5791851" lon="9.5348953"><ele>140.0</ele><time>2026-04-14T13:54:18.484Z</time></trkpt><trkpt lat="45.5793603" lon="9.5349945"><ele>140.0</ele><time>2026-04-14T13:54:19.484Z</time></trkpt><trkpt lat="45.5794855" lon="9.5350373"><ele>140.8</ele><time>2026-04-14T13:54:21.483Z</time></trkpt><trkpt lat="45.5795677" lon="9.5350499"><ele>141.6</ele><time>2026-04-14T13:54:22.484Z</time></trkpt><trkpt lat="45.5796746" lon="9.5350712"><ele>142.4</ele><time>2026-04-14T13:54:23.483Z</time></trkpt><trkpt lat="45.5797772" lon="9.5351118"><ele>143.2</ele><time>2026-04-14T13:54:24.484Z</time></trkpt><trkpt lat="45.5798651" lon="9.5352056"><ele>144.0</ele><time>2026-04-14T13:54:25.484Z</time></trkpt><trkpt lat="45.5799264" lon="9.5352449"><ele>144.0</ele><time>2026-04-14T13:54:26.483Z</time></trkpt><trkpt lat="45.5799779" lon="9.5352981"><ele>144.0</ele><time>2026-04-14T13:54:27.484Z</time></trkpt><trkpt lat="45.5800685" lon="9.5353488"><ele>144.0</ele><time>2026-04-14T13:54:28.484Z</time></trkpt><trkpt lat="45.5801759" lon="9.5354628"><ele>144.0</ele><time>2026-04-14T13:54:30.483Z</time></trkpt><trkpt lat="45.5802552" lon="9.5355428"><ele>144.0</ele><time>2026-04-14T13:54:31.484Z</time></trkpt><trkpt lat="45.5803079" lon="9.5356196"><ele>143.75</ele><time>2026-04-14T13:54:32.483Z</time></trkpt><trkpt lat="45.5804645" lon="9.5357052"><ele>143.5</ele><time>2026-04-14T13:54:34.484Z</time></trkpt><trkpt lat="45.5805156" lon="9.5358755"><ele>143.25</ele><time>2026-04-14T13:54:36.484Z</time></trkpt><trkpt lat="45.5805961" lon="9.5359961"><ele>143.0</ele><time>2026-04-14T13:54:37.483Z</time></trkpt><trkpt lat="45.5806909" lon="9.536126"><ele>143.0</ele><time>2026-04-14T13:54:38.483Z</time></trkpt><trkpt lat="45.5807064" lon="9.5362134"><ele>143.0</ele><time>2026-04-14T13:54:39.483Z</time></trkpt><trkpt lat="45.5807265" lon="9.5363233"><ele>143.0</ele><time>2026-04-14T13:54:41.483Z</time></trkpt><trkpt lat="45.5808422" lon="9.5364639"><ele>143.0</ele><time>2026-04-14T13:54:43.484Z</time></trkpt><trkpt lat="45.58092" lon="9.5365156"><ele>143.0</ele><time>2026-04-14T13:54:44.484Z</time></trkpt><trkpt lat="45.5810799" lon="9.5366594"><ele>142.6</ele><time>2026-04-14T13:54:46.484Z</time></trkpt><trkpt lat="45.5811741" lon="9.5367332"><ele>142.20000000000002</ele><time>2026-04-14T13:54:47.484Z</time></trkpt><trkpt lat="45.5812475" lon="9.5368432"><ele>141.8</ele><time>2026-04-14T13:54:48.484Z</time></trkpt><trkpt lat="45.5813343" lon="9.5368876"><ele>141.4</ele><time>2026-04-14T13:54:49.484Z</time></trkpt><trkpt lat="45.581427" lon="9.5369286"><ele>141.0</ele><time>2026-04-14T13:54:50.484Z</time></trkpt><trkpt lat="45.5814778" lon="9.5370253"><ele>140.8</ele><time>2026-04-14T13:54:51.484Z</time></trkpt><trkpt lat="45.5814703" lon="9.5371369"><ele>140.6</ele><time>2026-04-14T13:54:52.484Z</time></trkpt><trkpt lat="45.5815212" lon="9.5372851"><ele>140.4</ele><time>2026-04-14T13:54:54.484Z</time></trkpt><trkpt lat="45.5814977" lon="9.5374317"><ele>140.2</ele><time>2026-04-14T13:54:56.484Z</time></trkpt><trkpt lat="45.5815638" lon="9.5374932"><ele>140.0</ele><time>2026-04-14T13:54:57.484Z</time></trkpt><trkpt lat="45.581673" lon="9.5374974"><ele>140.0</ele><time>2026-04-14T13:54:58.484Z</time></trkpt><trkpt lat="45.5817485" lon="9.5375543"><ele>140.0</ele><time>2026-04-14T13:54:59.484Z</time></trkpt><trkpt lat="45.5818419" lon="9.5375782"><ele>140.0</ele><time>2026-04-14T13:55:00.483Z</time></trkpt><trkpt lat="45.5819123" lon="9.537617"><ele>140.0</ele><time>2026-04-14T13:55:01.484Z</time></trkpt><trkpt lat="45.5819727" lon="9.5376526"><ele>140.0</ele><time>2026-04-14T13:55:02.483Z</time></trkpt><trkpt lat="45.5820428" lon="9.5376544"><ele>140.0</ele><time>2026-04-14T13:55:03.484Z</time></trkpt><trkpt lat="45.5821099" lon="9.5376728"><ele>141.2</ele><time>2026-04-14T13:55:04.483Z</time></trkpt><trkpt lat="45.5822205" lon="9.5377471"><ele>142.4</ele><time>2026-04-14T13:55:06.483Z</time></trkpt><trkpt lat="45.582289" lon="9.5377694"><ele>143.6</ele><time>2026-04-14T13:55:07.484Z</time></trkpt><trkpt lat="45.5823559" lon="9.5377948"><ele>144.8</ele><time>2026-04-14T13:55:08.484Z</time></trkpt><trkpt lat="45.5824883" lon="9.5378356"><ele>146.0</ele><time>2026-04-14T13:55:10.484Z</time></trkpt><trkpt lat="45.5825506" lon="9.5378207"><ele>146.0</ele><time>2026-04-14T13:55:12.484Z</time></trkpt><trkpt lat="45.5828228" lon="9.53784"><ele>146.0</ele><time>2026-04-14T13:55:17.484Z</time></trkpt><trkpt lat="45.5829236" lon="9.5378179"><ele>146.0</ele><time>2026-04-14T13:55:18.484Z</time></trkpt><trkpt lat="45.5830171" lon="9.5377538"><ele>146.2</ele><time>2026-04-14T13:55:20.484Z</time></trkpt><trkpt lat="45.5831185" lon="9.5377447"><ele>146.39999999999998</ele><time>2026-04-14T13:55:21.484Z</time></trkpt><trkpt lat="45.5831618" lon="9.5376229"><ele>146.6</ele><time>2026-04-14T13:55:22.484Z</time></trkpt><trkpt lat="45.5832279" lon="9.5375615"><ele>146.79999999999998</ele><time>2026-04-14T13:55:23.483Z</time></trkpt><trkpt lat="45.5833145" lon="9.5375929"><ele>147.0</ele><time>2026-04-14T13:55:24.483Z</time></trkpt><trkpt lat="45.5834392" lon="9.5376941"><ele>147.0</ele><time>2026-04-14T13:55:25.483Z</time></trkpt><trkpt lat="45.5836452" lon="9.5377346"><ele>147.0</ele><time>2026-04-14T13:55:27.484Z</time></trkpt><trkpt lat="45.5837138" lon="9.5377671"><ele>147.0</ele><time>2026-04-14T13:55:28.483Z</time></trkpt><trkpt lat="45.5837707" lon="9.5377197"><ele>147.0</ele><time>2026-04-14T13:55:29.484Z</time></trkpt><trkpt lat="45.5839152" lon="9.5376429"><ele>146.5</ele><time>2026-04-14T13:55:31.484Z</time></trkpt><trkpt lat="45.5840003" lon="9.5375793"><ele>146.0</ele><time>2026-04-14T13:55:32.483Z</time></trkpt><trkpt lat="45.5840789" lon="9.5375234"><ele>145.5</ele><time>2026-04-14T13:55:33.483Z</time></trkpt><trkpt lat="45.5841554" lon="9.537501"><ele>145.0</ele><time>2026-04-14T13:55:34.484Z</time></trkpt><trkpt lat="45.5842264" lon="9.5374597"><ele>144.5</ele><time>2026-04-14T13:55:35.484Z</time></trkpt><trkpt lat="45.5842886" lon="9.5373893"><ele>144.0</ele><time>2026-04-14T13:55:36.483Z</time></trkpt><trkpt lat="45.5843314" lon="9.5372834"><ele>144.0</ele><time>2026-04-14T13:55:37.484Z</time></trkpt><trkpt lat="45.5844092" lon="9.5372133"><ele>144.0</ele><time>2026-04-14T13:55:38.484Z</time></trkpt><trkpt lat="45.5844526" lon="9.5370761"><ele>144.0</ele><time>2026-04-14T13:55:40.484Z</time></trkpt><trkpt lat="45.584472" lon="9.5369869"><ele>144.0</ele><time>2026-04-14T13:55:41.483Z</time></trkpt><trkpt lat="45.5845339" lon="9.5369012"><ele>144.0</ele><time>2026-04-14T13:55:42.484Z</time></trkpt><trkpt lat="45.5846014" lon="9.5368022"><ele>144.0</ele><time>2026-04-14T13:55:43.483Z</time></trkpt><trkpt lat="45.5846421" lon="9.5367045"><ele>144.0</ele><time>2026-04-14T13:55:45.483Z</time></trkpt><trkpt lat="45.5846856" lon="9.5366378"><ele>144.0</ele><time>2026-04-14T13:55:46.484Z</time></trkpt><trkpt lat="45.5847477" lon="9.5365563"><ele>144.0</ele><time>2026-04-14T13:55:47.484Z</time></trkpt><trkpt lat="45.5847976" lon="9.5364684"><ele>144.0</ele><time>2026-04-14T13:55:48.484Z</time></trkpt><trkpt lat="45.5848875" lon="9.5364275"><ele>144.0</ele><time>2026-04-14T13:55:49.483Z</time></trkpt><trkpt lat="45.5850639" lon="9.536364"><ele>144.0</ele><time>2026-04-14T13:55:51.484Z</time></trkpt><trkpt lat="45.5851317" lon="9.5362793"><ele>144.0</ele><time>2026-04-14T13:55:52.484Z</time></trkpt><trkpt lat="45.5852073" lon="9.5361973"><ele>144.0</ele><time>2026-04-14T13:55:53.484Z</time></trkpt><trkpt lat="45.5852687" lon="9.53611"><ele>144.0</ele><time>2026-04-14T13:55:54.484Z</time></trkpt><trkpt lat="45.5853146" lon="9.5360254"><ele>144.0</ele><time>2026-04-14T13:55:55.483Z</time></trkpt><trkpt lat="45.585383" lon="9.5359244"><ele>144.0</ele><time>2026-04-14T13:55:56.484Z</time></trkpt><trkpt lat="45.5854444" lon="9.5358482"><ele>143.66666666666666</ele><time>2026-04-14T13:55:57.484Z</time></trkpt><trkpt lat="45.5854627" lon="9.5357415"><ele>143.33333333333334</ele><time>2026-04-14T13:55:58.484Z</time></trkpt><trkpt lat="45.5855209" lon="9.5356692"><ele>143.0</ele><time>2026-04-14T13:55:59.484Z</time></trkpt><trkpt lat="45.5855869" lon="9.5356107"><ele>142.66666666666669</ele><time>2026-04-14T13:56:00.484Z</time></trkpt><trkpt lat="45.5856128" lon="9.5355031"><ele>142.33333333333334</ele><time>2026-04-14T13:56:01.484Z</time></trkpt><trkpt lat="45.5856646" lon="9.5354401"><ele>142.0</ele><time>2026-04-14T13:56:02.484Z</time></trkpt><trkpt lat="45.5857133" lon="9.5353655"><ele>143.79999999999998</ele><time>2026-04-14T13:56:03.483Z</time></trkpt><trkpt lat="45.5857981" lon="9.5352826"><ele>145.6</ele><time>2026-04-14T13:56:04.484Z</time></trkpt><trkpt lat="45.5858487" lon="9.5351093"><ele>147.39999999999998</ele><time>2026-04-14T13:56:06.484Z</time></trkpt><trkpt lat="45.5859214" lon="9.5350202"><ele>149.2</ele><time>2026-04-14T13:56:07.484Z</time></trkpt><trkpt lat="45.5860048" lon="9.5350056"><ele>151.0</ele><time>2026-04-14T13:56:08.483Z</time></trkpt><trkpt lat="45.5860274" lon="9.5349018"><ele>151.0</ele><time>2026-04-14T13:56:09.483Z</time></trkpt><trkpt lat="45.5860556" lon="9.5347974"><ele>151.0</ele><time>2026-04-14T13:56:10.484Z</time></trkpt><trkpt lat="45.5860992" lon="9.5346942"><ele>151.0</ele><time>2026-04-14T13:56:11.484Z</time></trkpt><trkpt lat="45.5861526" lon="9.5345695"><ele>151.0</ele><time>2026-04-14T13:56:12.484Z</time></trkpt><trkpt lat="45.5861988" lon="9.5344627"><ele>151.0</ele><time>2026-04-14T13:56:13.484Z</time></trkpt><trkpt lat="45.5862708" lon="9.5343122"><ele>149.4</ele><time>2026-04-14T13:56:15.484Z</time></trkpt><trkpt lat="45.5863069" lon="9.5342251"><ele>147.8</ele><time>2026-04-14T13:56:16.483Z</time></trkpt><trkpt lat="45.5864557" lon="9.5341465"><ele>146.20000000000002</ele><time>2026-04-14T13:56:18.483Z</time></trkpt><trkpt lat="45.5865562" lon="9.534143"><ele>144.6</ele><time>2026-04-14T13:56:19.484Z</time></trkpt><trkpt lat="45.5866208" lon="9.534043"><ele>143.0</ele><time>2026-04-14T13:56:21.483Z</time></trkpt><trkpt lat="45.5867006" lon="9.5339894"><ele>143.0</ele><time>2026-04-14T13:56:22.484Z</time></trkpt><trkpt lat="45.5867113" lon="9.5338753"><ele>143.0</ele><time>2026-04-14T13:56:23.483Z</time></trkpt><trkpt lat="45.5868865" lon="9.5338323"><ele>143.0</ele><time>2026-04-14T13:56:25.483Z</time></trkpt><trkpt lat="45.5869613" lon="9.5337688"><ele>143.0</ele><time>2026-04-14T13:56:26.484Z</time></trkpt><trkpt lat="45.5870436" lon="9.533621"><ele>143.20000000000002</ele><time>2026-04-14T13:56:28.483Z</time></trkpt><trkpt lat="45.5871271" lon="9.5335462"><ele>143.4</ele><time>2026-04-14T13:56:30.484Z</time></trkpt><trkpt lat="45.5871873" lon="9.5335162"><ele>143.60000000000002</ele><time>2026-04-14T13:56:31.484Z</time></trkpt><trkpt lat="45.5873378" lon="9.5334654"><ele>143.8</ele><time>2026-04-14T13:56:33.484Z</time></trkpt><trkpt lat="45.5873995" lon="9.5334113"><ele>144.0</ele><time>2026-04-14T13:56:34.484Z</time></trkpt><trkpt lat="45.5874844" lon="9.5333519"><ele>144.0</ele><time>2026-04-14T13:56:35.484Z</time></trkpt><trkpt lat="45.5875855" lon="9.5333512"><ele>144.0</ele><time>2026-04-14T13:56:36.484Z</time></trkpt><trkpt lat="45.587662" lon="9.5332811"><ele>144.0</ele><time>2026-04-14T13:56:37.484Z</time></trkpt><trkpt lat="45.5877514" lon="9.5332483"><ele>144.0</ele><time>2026-04-14T13:56:38.484Z</time></trkpt><trkpt lat="45.5878434" lon="9.5332322"><ele>144.0</ele><time>2026-04-14T13:56:39.484Z</time></trkpt><trkpt lat="45.587924" lon="9.5332124"><ele>143.16666666666666</ele><time>2026-04-14T13:56:40.484Z</time></trkpt><trkpt lat="45.5879749" lon="9.5331398"><ele>142.33333333333334</ele><time>2026-04-14T13:56:41.484Z</time></trkpt><trkpt lat="45.5880525" lon="9.5330871"><ele>141.5</ele><time>2026-04-14T13:56:42.484Z</time></trkpt><trkpt lat="45.5881318" lon="9.5330505"><ele>140.66666666666669</ele><time>2026-04-14T13:56:43.484Z</time></trkpt><trkpt lat="45.588207" lon="9.5329832"><ele>139.83333333333334</ele><time>2026-04-14T13:56:44.484Z</time></trkpt><trkpt lat="45.5882851" lon="9.5329903"><ele>139.0</ele><time>2026-04-14T13:56:45.483Z</time></trkpt><trkpt lat="45.5883937" lon="9.5329508"><ele>139.0</ele><time>2026-04-14T13:56:46.483Z</time></trkpt><trkpt lat="45.5884504" lon="9.5329075"><ele>139.0</ele><time>2026-04-14T13:56:47.484Z</time></trkpt><trkpt lat="45.5885275" lon="9.5328903"><ele>139.0</ele><time>2026-04-14T13:56:48.484Z</time></trkpt><trkpt lat="45.5886042" lon="9.532872"><ele>139.0</ele><time>2026-04-14T13:56:49.484Z</time></trkpt><trkpt lat="45.5886712" lon="9.5328519"><ele>139.0</ele><time>2026-04-14T13:56:50.484Z</time></trkpt><trkpt lat="45.5887595" lon="9.5328347"><ele>139.0</ele><time>2026-04-14T13:56:51.484Z</time></trkpt><trkpt lat="45.5888261" lon="9.5328289"><ele>139.0</ele><time>2026-04-14T13:56:52.483Z</time></trkpt><trkpt lat="45.5889272" lon="9.5327886"><ele>140.66666666666669</ele><time>2026-04-14T13:56:54.483Z</time></trkpt><trkpt lat="45.5890201" lon="9.5327416"><ele>142.33333333333334</ele><time>2026-04-14T13:56:55.484Z</time></trkpt><trkpt lat="45.5891126" lon="9.5326496"><ele>144.0</ele><time>2026-04-14T13:56:57.483Z</time></trkpt><trkpt lat="45.5891994" lon="9.5326294"><ele>145.66666666666666</ele><time>2026-04-14T13:56:58.484Z</time></trkpt><trkpt lat="45.5892706" lon="9.5326189"><ele>147.33333333333331</ele><time>2026-04-14T13:56:59.484Z</time></trkpt><trkpt lat="45.5893335" lon="9.5326298"><ele>149.0</ele><time>2026-04-14T13:57:00.484Z</time></trkpt><trkpt lat="45.5894197" lon="9.5325263"><ele>149.0</ele><time>2026-04-14T13:57:02.483Z</time></trkpt><trkpt lat="45.589458" lon="9.5324404"><ele>149.0</ele><time>2026-04-14T13:57:03.483Z</time></trkpt><trkpt lat="45.5895297" lon="9.5324272"><ele>149.0</ele><time>2026-04-14T13:57:04.484Z</time></trkpt><trkpt lat="45.5896052" lon="9.5323956"><ele>149.0</ele><time>2026-04-14T13:57:05.484Z</time></trkpt><trkpt lat="45.589677" lon="9.5323779"><ele>149.0</ele><time>2026-04-14T13:57:06.483Z</time></trkpt><trkpt lat="45.589752" lon="9.5323495"><ele>149.0</ele><time>2026-04-14T13:57:07.483Z</time></trkpt><trkpt lat="45.5898552" lon="9.5323461"><ele>148.8</ele><time>2026-04-14T13:57:08.484Z</time></trkpt><trkpt lat="45.5899556" lon="9.5323591"><ele>148.60000000000002</ele><time>2026-04-14T13:57:09.483Z</time></trkpt><trkpt lat="45.5900526" lon="9.5324066"><ele>148.4</ele><time>2026-04-14T13:57:10.484Z</time></trkpt><trkpt lat="45.5901381" lon="9.5324029"><ele>148.20000000000002</ele><time>2026-04-14T13:57:11.484Z</time></trkpt><trkpt lat="45.5902295" lon="9.532422"><ele>148.0</ele><time>2026-04-14T13:57:12.484Z</time></trkpt><trkpt lat="45.590349" lon="9.5324776"><ele>147.6</ele><time>2026-04-14T13:57:13.483Z</time></trkpt><trkpt lat="45.5904644" lon="9.5325335"><ele>147.20000000000002</ele><time>2026-04-14T13:57:14.484Z</time></trkpt><trkpt lat="45.5905614" lon="9.5325183"><ele>146.8</ele><time>2026-04-14T13:57:15.484Z</time></trkpt><trkpt lat="45.5906301" lon="9.5324844"><ele>146.4</ele><time>2026-04-14T13:57:16.484Z</time></trkpt><trkpt lat="45.5907175" lon="9.532507"><ele>146.0</ele><time>2026-04-14T13:57:17.484Z</time></trkpt><trkpt lat="45.5908275" lon="9.5324822"><ele>146.0</ele><time>2026-04-14T13:57:19.483Z</time></trkpt><trkpt lat="45.590901" lon="9.5324642"><ele>146.0</ele><time>2026-04-14T13:57:20.483Z</time></trkpt><trkpt lat="45.5909801" lon="9.5324874"><ele>146.0</ele><time>2026-04-14T13:57:21.483Z</time></trkpt><trkpt lat="45.5910475" lon="9.5324709"><ele>146.0</ele><time>2026-04-14T13:57:22.484Z</time></trkpt><trkpt lat="45.5911237" lon="9.5324312"><ele>146.0</ele><time>2026-04-14T13:57:23.484Z</time></trkpt><trkpt lat="45.5912179" lon="9.5324791"><ele>146.0</ele><time>2026-04-14T13:57:24.484Z</time></trkpt><trkpt lat="45.591304" lon="9.5324554"><ele>145.2</ele><time>2026-04-14T13:57:25.484Z</time></trkpt><trkpt lat="45.591446" lon="9.5324601"><ele>144.39999999999998</ele><time>2026-04-14T13:57:26.484Z</time></trkpt><trkpt lat="45.5915236" lon="9.5324766"><ele>143.6</ele><time>2026-04-14T13:57:27.484Z</time></trkpt><trkpt lat="45.5915881" lon="9.5324191"><ele>142.79999999999998</ele><time>2026-04-14T13:57:28.484Z</time></trkpt><trkpt lat="45.5916895" lon="9.5324602"><ele>142.0</ele><time>2026-04-14T13:57:29.483Z</time></trkpt><trkpt lat="45.5917837" lon="9.5324519"><ele>142.0</ele><time>2026-04-14T13:57:30.483Z</time></trkpt><trkpt lat="45.5918878" lon="9.5324555"><ele>142.0</ele><time>2026-04-14T13:57:31.483Z</time></trkpt><trkpt lat="45.5919517" lon="9.5324278"><ele>142.0</ele><time>2026-04-14T13:57:32.483Z</time></trkpt><trkpt lat="45.5920369" lon="9.5324079"><ele>142.0</ele><time>2026-04-14T13:57:33.484Z</time></trkpt><trkpt lat="45.5921227" lon="9.5323833"><ele>142.0</ele><time>2026-04-14T13:57:34.484Z</time></trkpt><trkpt lat="45.5922284" lon="9.5323712"><ele>141.4</ele><time>2026-04-14T13:57:35.484Z</time></trkpt><trkpt lat="45.5922943" lon="9.532278"><ele>140.79999999999998</ele><time>2026-04-14T13:57:36.484Z</time></trkpt><trkpt lat="45.5923967" lon="9.5322217"><ele>140.2</ele><time>2026-04-14T13:57:38.484Z</time></trkpt><trkpt lat="45.5924737" lon="9.5321822"><ele>139.6</ele><time>2026-04-14T13:57:39.484Z</time></trkpt><trkpt lat="45.5925778" lon="9.5321612"><ele>139.0</ele><time>2026-04-14T13:57:40.484Z</time></trkpt><trkpt lat="45.5926437" lon="9.5321337"><ele>139.0</ele><time>2026-04-14T13:57:41.483Z</time></trkpt><trkpt lat="45.5927404" lon="9.5321235"><ele>139.0</ele><time>2026-04-14T13:57:42.483Z</time></trkpt><trkpt lat="45.5928141" lon="9.5321024"><ele>139.0</ele><time>2026-04-14T13:57:43.484Z</time></trkpt><trkpt lat="45.5928776" lon="9.5320516"><ele>139.0</ele><time>2026-04-14T13:57:44.484Z</time></trkpt><trkpt lat="45.5929651" lon="9.5320289"><ele>139.0</ele><time>2026-04-14T13:57:45.484Z</time></trkpt><trkpt lat="45.5930549" lon="9.5320419"><ele>139.0</ele><time>2026-04-14T13:57:46.483Z</time></trkpt><trkpt lat="45.593171" lon="9.532103"><ele>141.6</ele><time>2026-04-14T13:57:47.484Z</time></trkpt><trkpt lat="45.5932949" lon="9.5320566"><ele>144.2</ele><time>2026-04-14T13:57:49.484Z</time></trkpt><trkpt lat="45.5933753" lon="9.5320422"><ele>146.79999999999998</ele><time>2026-04-14T13:57:50.484Z</time></trkpt><trkpt lat="45.5934594" lon="9.5320249"><ele>149.4</ele><time>2026-04-14T13:57:51.483Z</time></trkpt><trkpt lat="45.5935315" lon="9.5320127"><ele>152.0</ele><time>2026-04-14T13:57:52.483Z</time></trkpt><trkpt lat="45.5936229" lon="9.5319996"><ele>151.4</ele><time>2026-04-14T13:57:53.484Z</time></trkpt><trkpt lat="45.593695" lon="9.5319893"><ele>150.79999999999998</ele><time>2026-04-14T13:57:54.484Z</time></trkpt><trkpt lat="45.5937733" lon="9.5319441"><ele>150.2</ele><time>2026-04-14T13:57:55.483Z</time></trkpt><trkpt lat="45.5938373" lon="9.5318591"><ele>149.6</ele><time>2026-04-14T13:57:56.484Z</time></trkpt><trkpt lat="45.5939047" lon="9.531833"><ele>149.0</ele><time>2026-04-14T13:57:57.483Z</time></trkpt><trkpt lat="45.5940781" lon="9.5318571"><ele>149.0</ele><time>2026-04-14T13:57:59.484Z</time></trkpt><trkpt lat="45.5941479" lon="9.5318541"><ele>149.0</ele><time>2026-04-14T13:58:00.484Z</time></trkpt><trkpt lat="45.5943034" lon="9.531823"><ele>149.0</ele><time>2026-04-14T13:58:02.483Z</time></trkpt><trkpt lat="45.5943984" lon="9.5318346"><ele>149.0</ele><time>2026-04-14T13:58:03.484Z</time></trkpt><trkpt lat="45.5944798" lon="9.5318236"><ele>149.0</ele><time>2026-04-14T13:58:04.483Z</time></trkpt><trkpt lat="45.5945496" lon="9.5317774"><ele>147.8</ele><time>2026-04-14T13:58:05.484Z</time></trkpt><trkpt lat="45.5946882" lon="9.5317728"><ele>146.60000000000002</ele><time>2026-04-14T13:58:07.483Z</time></trkpt><trkpt lat="45.5947679" lon="9.5317597"><ele>145.4</ele><time>2026-04-14T13:58:08.484Z</time></trkpt><trkpt lat="45.5948325" lon="9.5317206"><ele>144.20000000000002</ele><time>2026-04-14T13:58:09.483Z</time></trkpt><trkpt lat="45.5949603" lon="9.5316877"><ele>143.0</ele><time>2026-04-14T13:58:11.484Z</time></trkpt><trkpt lat="45.595047" lon="9.5316729"><ele>143.0</ele><time>2026-04-14T13:58:12.483Z</time></trkpt><trkpt lat="45.5951234" lon="9.531553"><ele>143.0</ele><time>2026-04-14T13:58:14.484Z</time></trkpt><trkpt lat="45.5952299" lon="9.5315516"><ele>143.0</ele><time>2026-04-14T13:58:15.484Z</time></trkpt><trkpt lat="45.5952954" lon="9.5315367"><ele>143.0</ele><time>2026-04-14T13:58:16.484Z</time></trkpt><trkpt lat="45.5953501" lon="9.5314686"><ele>143.0</ele><time>2026-04-14T13:58:17.484Z</time></trkpt><trkpt lat="45.5954467" lon="9.5314379"><ele>142.20000000000002</ele><time>2026-04-14T13:58:18.484Z</time></trkpt><trkpt lat="45.5955468" lon="9.5313971"><ele>141.4</ele><time>2026-04-14T13:58:20.483Z</time></trkpt><trkpt lat="45.5956858" lon="9.5313922"><ele>140.60000000000002</ele><time>2026-04-14T13:58:21.484Z</time></trkpt><trkpt lat="45.5957579" lon="9.531371"><ele>139.8</ele><time>2026-04-14T13:58:22.484Z</time></trkpt><trkpt lat="45.5958529" lon="9.5313124"><ele>139.0</ele><time>2026-04-14T13:58:23.483Z</time></trkpt><trkpt lat="45.5959517" lon="9.5313103"><ele>139.0</ele><time>2026-04-14T13:58:24.483Z</time></trkpt><trkpt lat="45.5960742" lon="9.531227"><ele>139.0</ele><time>2026-04-14T13:58:26.484Z</time></trkpt><trkpt lat="45.5961581" lon="9.5312092"><ele>139.0</ele><time>2026-04-14T13:58:27.484Z</time></trkpt><trkpt lat="45.596265" lon="9.5311445"><ele>139.0</ele><time>2026-04-14T13:58:29.483Z</time></trkpt><trkpt lat="45.5963539" lon="9.531172"><ele>139.0</ele><time>2026-04-14T13:58:30.484Z</time></trkpt><trkpt lat="45.596445" lon="9.5311888"><ele>138.5</ele><time>2026-04-14T13:58:31.484Z</time></trkpt><trkpt lat="45.5965548" lon="9.5311563"><ele>138.0</ele><time>2026-04-14T13:58:32.484Z</time></trkpt><trkpt lat="45.5967265" lon="9.5311885"><ele>137.5</ele><time>2026-04-14T13:58:33.484Z</time></trkpt><trkpt lat="45.5968556" lon="9.5312764"><ele>137.0</ele><time>2026-04-14T13:58:34.483Z</time></trkpt><trkpt lat="45.5969911" lon="9.5312164"><ele>139.79999999999998</ele><time>2026-04-14T13:58:35.484Z</time></trkpt><trkpt lat="45.5971026" lon="9.5311791"><ele>142.6</ele><time>2026-04-14T13:58:36.484Z</time></trkpt><trkpt lat="45.5972199" lon="9.5311555"><ele>145.39999999999998</ele><time>2026-04-14T13:58:37.484Z</time></trkpt><trkpt lat="45.5973377" lon="9.5311518"><ele>148.2</ele><time>2026-04-14T13:58:38.483Z</time></trkpt><trkpt lat="45.5974098" lon="9.5310997"><ele>151.0</ele><time>2026-04-14T13:58:39.484Z</time></trkpt><trkpt lat="45.5975429" lon="9.5311071"><ele>151.0</ele><time>2026-04-14T13:58:40.483Z</time></trkpt><trkpt lat="45.5976487" lon="9.531203"><ele>151.0</ele><time>2026-04-14T13:58:43.484Z</time></trkpt><trkpt lat="45.5977739" lon="9.5312529"><ele>151.0</ele><time>2026-04-14T13:58:44.483Z</time></trkpt><trkpt lat="45.5978542" lon="9.5312586"><ele>151.0</ele><time>2026-04-14T13:58:45.483Z</time></trkpt><trkpt lat="45.5979517" lon="9.5312716"><ele>151.0</ele><time>2026-04-14T13:58:47.484Z</time></trkpt><trkpt lat="45.5980833" lon="9.5312761"><ele>149.2</ele><time>2026-04-14T13:58:49.483Z</time></trkpt><trkpt lat="45.5981381" lon="9.5312027"><ele>147.39999999999998</ele><time>2026-04-14T13:58:50.484Z</time></trkpt><trkpt lat="45.598181" lon="9.5311241"><ele>145.6</ele><time>2026-04-14T13:58:51.483Z</time></trkpt><trkpt lat="45.5982562" lon="9.5310896"><ele>143.79999999999998</ele><time>2026-04-14T13:58:52.483Z</time></trkpt><trkpt lat="45.5983913" lon="9.5310332"><ele>142.0</ele><time>2026-04-14T13:58:54.483Z</time></trkpt><trkpt lat="45.5984858" lon="9.5309753"><ele>142.0</ele><time>2026-04-14T13:58:55.483Z</time></trkpt><trkpt lat="45.5985775" lon="9.5308831"><ele>142.0</ele><time>2026-04-14T13:58:56.484Z</time></trkpt><trkpt lat="45.5986679" lon="9.5308515"><ele>142.0</ele><time>2026-04-14T13:58:57.484Z</time></trkpt><trkpt lat="45.5987516" lon="9.5308369"><ele>142.0</ele><time>2026-04-14T13:58:58.484Z</time></trkpt><trkpt lat="45.5988411" lon="9.5307887"><ele>142.0</ele><time>2026-04-14T13:59:00.484Z</time></trkpt><trkpt lat="45.5988851" lon="9.5307024"><ele>140.6</ele><time>2026-04-14T13:59:01.483Z</time></trkpt><trkpt lat="45.5989604" lon="9.5306591"><ele>139.2</ele><time>2026-04-14T13:59:02.483Z</time></trkpt><trkpt lat="45.5990068" lon="9.5305897"><ele>137.8</ele><time>2026-04-14T13:59:03.484Z</time></trkpt><trkpt lat="45.5990751" lon="9.5305193"><ele>136.4</ele><time>2026-04-14T13:59:04.484Z</time></trkpt><trkpt lat="45.599199" lon="9.5304771"><ele>135.0</ele><time>2026-04-14T13:59:05.484Z</time></trkpt><trkpt lat="45.5993458" lon="9.530411"><ele>135.33333333333334</ele><time>2026-04-14T13:59:07.483Z</time></trkpt><trkpt lat="45.5994147" lon="9.5303515"><ele>135.66666666666666</ele><time>2026-04-14T13:59:08.484Z</time></trkpt><trkpt lat="45.5994826" lon="9.5302904"><ele>136.0</ele><time>2026-04-14T13:59:09.484Z</time></trkpt><trkpt lat="45.5995232" lon="9.5301924"><ele>136.33333333333331</ele><time>2026-04-14T13:59:10.484Z</time></trkpt><trkpt lat="45.5996158" lon="9.5302083"><ele>136.66666666666666</ele><time>2026-04-14T13:59:11.484Z</time></trkpt><trkpt lat="45.5997043" lon="9.5301611"><ele>137.0</ele><time>2026-04-14T13:59:12.483Z</time></trkpt><trkpt lat="45.5997371" lon="9.5300688"><ele>137.0</ele><time>2026-04-14T13:59:13.484Z</time></trkpt><trkpt lat="45.5998286" lon="9.5300646"><ele>137.0</ele><time>2026-04-14T13:59:14.483Z</time></trkpt><trkpt lat="45.5999438" lon="9.5300717"><ele>137.0</ele><time>2026-04-14T13:59:15.484Z</time></trkpt><trkpt lat="45.5999637" lon="9.5299828"><ele>137.0</ele><time>2026-04-14T13:59:16.484Z</time></trkpt><trkpt lat="45.6000588" lon="9.5299521"><ele>137.0</ele><time>2026-04-14T13:59:17.484Z</time></trkpt><trkpt lat="45.6001285" lon="9.5299229"><ele>137.0</ele><time>2026-04-14T13:59:18.483Z</time></trkpt><trkpt lat="45.6002139" lon="9.5298897"><ele>137.0</ele><time>2026-04-14T13:59:19.484Z</time></trkpt><trkpt lat="45.6003293" lon="9.5298359"><ele>137.0</ele><time>2026-04-14T13:59:21.484Z</time></trkpt><trkpt lat="45.6004094" lon="9.5298033"><ele>137.0</ele><time>2026-04-14T13:59:22.484Z</time></trkpt><trkpt lat="45.6005191" lon="9.5298239"><ele>137.0</ele><time>2026-04-14T13:59:23.483Z</time></trkpt><trkpt lat="45.6006192" lon="9.5298177"><ele>137.0</ele><time>2026-04-14T13:59:24.484Z</time></trkpt><trkpt lat="45.6007108" lon="9.529793"><ele>136.75</ele><time>2026-04-14T13:59:25.484Z</time></trkpt><trkpt lat="45.6009023" lon="9.5297542"><ele>136.5</ele><time>2026-04-14T13:59:27.484Z</time></trkpt><trkpt lat="45.6009831" lon="9.529704"><ele>136.25</ele><time>2026-04-14T13:59:28.482Z</time></trkpt><trkpt lat="45.6011061" lon="9.5296532"><ele>136.0</ele><time>2026-04-14T13:59:30.484Z</time></trkpt><trkpt lat="45.6011357" lon="9.5295678"><ele>137.4</ele><time>2026-04-14T13:59:31.484Z</time></trkpt><trkpt lat="45.601221" lon="9.5295231"><ele>138.8</ele><time>2026-04-14T13:59:32.483Z</time></trkpt><trkpt lat="45.6012983" lon="9.5294818"><ele>140.20000000000002</ele><time>2026-04-14T13:59:33.483Z</time></trkpt><trkpt lat="45.6013642" lon="9.5294473"><ele>141.6</ele><time>2026-04-14T13:59:34.484Z</time></trkpt><trkpt lat="45.6014669" lon="9.5294537"><ele>143.0</ele><time>2026-04-14T13:59:35.484Z</time></trkpt><trkpt lat="45.6015867" lon="9.5294705"><ele>143.0</ele><time>2026-04-14T13:59:36.483Z</time></trkpt><trkpt lat="45.6016652" lon="9.5294653"><ele>143.0</ele><time>2026-04-14T13:59:37.483Z</time></trkpt><trkpt lat="45.6017371" lon="9.5294958"><ele>143.0</ele><time>2026-04-14T13:59:38.484Z</time></trkpt><trkpt lat="45.6018269" lon="9.5295211"><ele>143.0</ele><time>2026-04-14T13:59:39.483Z</time></trkpt><trkpt lat="45.6019238" lon="9.5295193"><ele>143.0</ele><time>2026-04-14T13:59:41.484Z</time></trkpt><trkpt lat="45.6020509" lon="9.5295735"><ele>143.6</ele><time>2026-04-14T13:59:43.483Z</time></trkpt><trkpt lat="45.6021616" lon="9.5294499"><ele>144.20000000000002</ele><time>2026-04-14T13:59:47.484Z</time></trkpt><trkpt lat="45.6022404" lon="9.529379"><ele>144.8</ele><time>2026-04-14T13:59:49.483Z</time></trkpt><trkpt lat="45.6023305" lon="9.5293474"><ele>145.4</ele><time>2026-04-14T13:59:51.483Z</time></trkpt><trkpt lat="45.6024364" lon="9.5293094"><ele>146.0</ele><time>2026-04-14T13:59:54.484Z</time></trkpt><trkpt lat="45.6025116" lon="9.5292688"><ele>146.0</ele><time>2026-04-14T13:59:56.483Z</time></trkpt><trkpt lat="45.6025896" lon="9.5292315"><ele>146.0</ele><time>2026-04-14T13:59:58.484Z</time></trkpt><trkpt lat="45.6026772" lon="9.5291897"><ele>146.0</ele><time>2026-04-14T13:59:59.484Z</time></trkpt><trkpt lat="45.6028034" lon="9.5291452"><ele>146.0</ele><time>2026-04-14T14:00:01.484Z</time></trkpt><trkpt lat="45.6028835" lon="9.5290615"><ele>146.0</ele><time>2026-04-14T14:00:03.484Z</time></trkpt><trkpt lat="45.602978" lon="9.5289947"><ele>145.6</ele><time>2026-04-14T14:00:05.484Z</time></trkpt><trkpt lat="45.6030627" lon="9.5289721"><ele>145.2</ele><time>2026-04-14T14:00:06.484Z</time></trkpt><trkpt lat="45.6031212" lon="9.528848"><ele>144.8</ele><time>2026-04-14T14:00:08.484Z</time></trkpt><trkpt lat="45.6031759" lon="9.528774"><ele>144.4</ele><time>2026-04-14T14:00:09.484Z</time></trkpt><trkpt lat="45.6032438" lon="9.5286635"><ele>144.0</ele><time>2026-04-14T14:00:11.483Z</time></trkpt><trkpt lat="45.6033495" lon="9.5285617"><ele>144.8</ele><time>2026-04-14T14:00:13.484Z</time></trkpt><trkpt lat="45.603431" lon="9.528531"><ele>145.60000000000002</ele><time>2026-04-14T14:00:14.484Z</time></trkpt><trkpt lat="45.6035067" lon="9.5284926"><ele>146.4</ele><time>2026-04-14T14:00:15.483Z</time></trkpt><trkpt lat="45.6035725" lon="9.5284763"><ele>147.20000000000002</ele><time>2026-04-14T14:00:16.483Z</time></trkpt><trkpt lat="45.6036605" lon="9.5283756"><ele>148.0</ele><time>2026-04-14T14:00:18.484Z</time></trkpt><trkpt lat="45.6037968" lon="9.5283214"><ele>148.0</ele><time>2026-04-14T14:00:20.484Z</time></trkpt><trkpt lat="45.6038882" lon="9.5282469"><ele>148.0</ele><time>2026-04-14T14:00:22.484Z</time></trkpt><trkpt lat="45.6039978" lon="9.5282283"><ele>148.0</ele><time>2026-04-14T14:00:24.484Z</time></trkpt><trkpt lat="45.6041223" lon="9.5281877"><ele>148.0</ele><time>2026-04-14T14:00:26.483Z</time></trkpt><trkpt lat="45.604213" lon="9.5281468"><ele>148.0</ele><time>2026-04-14T14:00:27.483Z</time></trkpt><trkpt lat="45.6042785" lon="9.528129"><ele>148.0</ele><time>2026-04-14T14:00:28.484Z</time></trkpt><trkpt lat="45.6043544" lon="9.5281004"><ele>148.0</ele><time>2026-04-14T14:00:29.483Z</time></trkpt><trkpt lat="45.6044331" lon="9.5280797"><ele>148.0</ele><time>2026-04-14T14:00:30.483Z</time></trkpt><trkpt lat="45.6045352" lon="9.5279926"><ele>148.0</ele><time>2026-04-14T14:00:32.483Z</time></trkpt><trkpt lat="45.6045961" lon="9.5279571"><ele>148.0</ele><time>2026-04-14T14:00:33.484Z</time></trkpt><trkpt lat="45.6046795" lon="9.5278616"><ele>151.75</ele><time>2026-04-14T14:00:35.484Z</time></trkpt><trkpt lat="45.604772" lon="9.527817"><ele>155.5</ele><time>2026-04-14T14:00:37.483Z</time></trkpt><trkpt lat="45.6048767" lon="9.5276795"><ele>159.25</ele><time>2026-04-14T14:00:42.483Z</time></trkpt><trkpt lat="45.6049836" lon="9.5275904"><ele>163.0</ele><time>2026-04-14T14:00:44.484Z</time></trkpt><trkpt lat="45.6051151" lon="9.5275679"><ele>163.0</ele><time>2026-04-14T14:00:45.484Z</time></trkpt><trkpt lat="45.60527" lon="9.5273853"><ele>163.0</ele><time>2026-04-14T14:00:47.484Z</time></trkpt><trkpt lat="45.60537" lon="9.5273291"><ele>163.0</ele><time>2026-04-14T14:00:48.484Z</time></trkpt><trkpt lat="45.605494" lon="9.5272287"><ele>164.25</ele><time>2026-04-14T14:00:49.484Z</time></trkpt><trkpt lat="45.6057357" lon="9.5272408"><ele>165.5</ele><time>2026-04-14T14:00:54.484Z</time></trkpt><trkpt lat="45.6058476" lon="9.527225"><ele>166.75</ele><time>2026-04-14T14:00:56.484Z</time></trkpt><trkpt lat="45.6059178" lon="9.527169"><ele>168.0</ele><time>2026-04-14T14:00:57.483Z</time></trkpt><trkpt lat="45.6059657" lon="9.5270713"><ele>168.83333333333334</ele><time>2026-04-14T14:00:59.484Z</time></trkpt><trkpt lat="45.6060544" lon="9.5270423"><ele>169.66666666666666</ele><time>2026-04-14T14:01:01.483Z</time></trkpt><trkpt lat="45.6061576" lon="9.5270099"><ele>170.5</ele><time>2026-04-14T14:01:03.484Z</time></trkpt><trkpt lat="45.6062207" lon="9.5270023"><ele>171.33333333333331</ele><time>2026-04-14T14:01:04.484Z</time></trkpt><trkpt lat="45.6063142" lon="9.5269338"><ele>172.16666666666666</ele><time>2026-04-14T14:01:05.483Z</time></trkpt><trkpt lat="45.6063663" lon="9.5268777"><ele>173.0</ele><time>2026-04-14T14:01:06.484Z</time></trkpt><trkpt lat="45.6064657" lon="9.5267779"><ele>170.20000000000002</ele><time>2026-04-14T14:01:08.484Z</time></trkpt><trkpt lat="45.6065354" lon="9.5267311"><ele>167.4</ele><time>2026-04-14T14:01:10.484Z</time></trkpt><trkpt lat="45.6066002" lon="9.5266648"><ele>164.60000000000002</ele><time>2026-04-14T14:01:11.483Z</time></trkpt><trkpt lat="45.6067113" lon="9.5265945"><ele>161.8</ele><time>2026-04-14T14:01:13.484Z</time></trkpt><trkpt lat="45.6068228" lon="9.5264705"><ele>159.0</ele><time>2026-04-14T14:01:15.484Z</time></trkpt><trkpt lat="45.606896" lon="9.5264064"><ele>157.8</ele><time>2026-04-14T14:01:16.483Z</time></trkpt><trkpt lat="45.6070043" lon="9.5262993"><ele>156.60000000000002</ele><time>2026-04-14T14:01:18.484Z</time></trkpt><trkpt lat="45.6071246" lon="9.526242"><ele>155.4</ele><time>2026-04-14T14:01:20.484Z</time></trkpt><trkpt lat="45.6071901" lon="9.5262343"><ele>154.20000000000002</ele><time>2026-04-14T14:01:21.484Z</time></trkpt><trkpt lat="45.6072678" lon="9.5261951"><ele>153.0</ele><time>2026-04-14T14:01:22.483Z</time></trkpt><trkpt lat="45.6073344" lon="9.5261317"><ele>156.0</ele><time>2026-04-14T14:01:23.483Z</time></trkpt><trkpt lat="45.6074397" lon="9.5260208"><ele>159.0</ele><time>2026-04-14T14:01:24.484Z</time></trkpt><trkpt lat="45.6075776" lon="9.5258873"><ele>162.0</ele><time>2026-04-14T14:01:26.484Z</time></trkpt><trkpt lat="45.6076505" lon="9.5257679"><ele>165.0</ele><time>2026-04-14T14:01:28.484Z</time></trkpt><trkpt lat="45.6076971" lon="9.5256871"><ele>165.0</ele><time>2026-04-14T14:01:29.484Z</time></trkpt><trkpt lat="45.6077683" lon="9.5255519"><ele>165.0</ele><time>2026-04-14T14:01:31.483Z</time></trkpt><trkpt lat="45.6078492" lon="9.5254202"><ele>165.0</ele><time>2026-04-14T14:01:33.483Z</time></trkpt><trkpt lat="45.6079275" lon="9.5254117"><ele>165.0</ele><time>2026-04-14T14:01:34.484Z</time></trkpt><trkpt lat="45.6079866" lon="9.525362"><ele>165.0</ele><time>2026-04-14T14:01:35.484Z</time></trkpt><trkpt lat="45.6080751" lon="9.5253134"><ele>165.5</ele><time>2026-04-14T14:01:37.483Z</time></trkpt><trkpt lat="45.6081476" lon="9.5252974"><ele>166.0</ele><time>2026-04-14T14:01:38.484Z</time></trkpt><trkpt lat="45.6082282" lon="9.5252131"><ele>166.5</ele><time>2026-04-14T14:01:39.483Z</time></trkpt><trkpt lat="45.6083012" lon="9.5251325"><ele>167.0</ele><time>2026-04-14T14:01:40.484Z</time></trkpt><trkpt lat="45.6083691" lon="9.525117"><ele>167.5</ele><time>2026-04-14T14:01:41.484Z</time></trkpt><trkpt lat="45.6084396" lon="9.5250761"><ele>168.0</ele><time>2026-04-14T14:01:42.484Z</time></trkpt><trkpt lat="45.6085811" lon="9.5249759"><ele>162.0</ele><time>2026-04-14T14:01:44.484Z</time></trkpt><trkpt lat="45.6086627" lon="9.5249012"><ele>156.0</ele><time>2026-04-14T14:01:45.483Z</time></trkpt><trkpt lat="45.6089294" lon="9.52489"><ele>150.0</ele><time>2026-04-14T14:01:47.484Z</time></trkpt><trkpt lat="45.6089677" lon="9.5247402"><ele>150.0</ele><time>2026-04-14T14:01:48.484Z</time></trkpt><trkpt lat="45.6090405" lon="9.5246109"><ele>150.0</ele><time>2026-04-14T14:01:50.484Z</time></trkpt><trkpt lat="45.6091127" lon="9.5245603"><ele>150.0</ele><time>2026-04-14T14:01:51.484Z</time></trkpt><trkpt lat="45.6091893" lon="9.5245193"><ele>150.0</ele><time>2026-04-14T14:01:52.483Z</time></trkpt><trkpt lat="45.6092558" lon="9.5244506"><ele>150.0</ele><time>2026-04-14T14:01:53.483Z</time></trkpt><trkpt lat="45.6093443" lon="9.5243507"><ele>151.75</ele><time>2026-04-14T14:01:55.484Z</time></trkpt><trkpt lat="45.6094054" lon="9.5242062"><ele>153.5</ele><time>2026-04-14T14:01:56.484Z</time></trkpt><trkpt lat="45.6095827" lon="9.5242076"><ele>155.25</ele><time>2026-04-14T14:01:59.483Z</time></trkpt><trkpt lat="45.6096491" lon="9.5240703"><ele>157.0</ele><time>2026-04-14T14:02:00.483Z</time></trkpt><trkpt lat="45.6097506" lon="9.5240653"><ele>157.0</ele><time>2026-04-14T14:02:02.484Z</time></trkpt><trkpt lat="45.6098706" lon="9.5239855"><ele>157.0</ele><time>2026-04-14T14:02:04.484Z</time></trkpt><trkpt lat="45.6099679" lon="9.5239988"><ele>157.0</ele><time>2026-04-14T14:02:05.484Z</time></trkpt><trkpt lat="45.6100318" lon="9.5239756"><ele>157.0</ele><time>2026-04-14T14:02:06.483Z</time></trkpt><trkpt lat="45.6100765" lon="9.5238623"><ele>157.0</ele><time>2026-04-14T14:02:08.484Z</time></trkpt><trkpt lat="45.6101321" lon="9.5238026"><ele>157.5</ele><time>2026-04-14T14:02:09.483Z</time></trkpt><trkpt lat="45.6101842" lon="9.5237292"><ele>158.0</ele><time>2026-04-14T14:02:10.483Z</time></trkpt><trkpt lat="45.6102242" lon="9.5236468"><ele>158.5</ele><time>2026-04-14T14:02:11.484Z</time></trkpt><trkpt lat="45.6102764" lon="9.5235823"><ele>159.0</ele><time>2026-04-14T14:02:12.483Z</time></trkpt><trkpt lat="45.61033" lon="9.5234953"><ele>159.5</ele><time>2026-04-14T14:02:13.484Z</time></trkpt><trkpt lat="45.6103851" lon="9.5235706"><ele>160.0</ele><time>2026-04-14T14:02:14.484Z</time></trkpt><trkpt lat="45.6104615" lon="9.5235312"><ele>160.0</ele><time>2026-04-14T14:02:18.484Z</time></trkpt><trkpt lat="45.6105929" lon="9.5235239"><ele>160.0</ele><time>2026-04-14T14:02:21.483Z</time></trkpt><trkpt lat="45.6107278" lon="9.5235114"><ele>160.0</ele><time>2026-04-14T14:02:24.483Z</time></trkpt><trkpt lat="45.6108205" lon="9.5234478"><ele>160.0</ele><time>2026-04-14T14:02:28.483Z</time></trkpt><trkpt lat="45.6108741" lon="9.5233912"><ele>160.0</ele><time>2026-04-14T14:02:30.484Z</time></trkpt><trkpt lat="45.6109618" lon="9.5233226"><ele>160.0</ele><time>2026-04-14T14:02:32.484Z</time></trkpt><trkpt lat="45.61106" lon="9.5234156"><ele>160.0</ele><time>2026-04-14T14:02:33.484Z</time></trkpt><trkpt lat="45.6111562" lon="9.5233525"><ele>160.0</ele><time>2026-04-14T14:02:36.483Z</time></trkpt><trkpt lat="45.6112359" lon="9.5234048"><ele>160.0</ele><time>2026-04-14T14:02:37.484Z</time></trkpt><trkpt lat="45.6113189" lon="9.5233299"><ele>160.0</ele><time>2026-04-14T14:02:39.484Z</time></trkpt><trkpt lat="45.6114054" lon="9.5232995"><ele>159.0</ele><time>2026-04-14T14:02:41.483Z</time></trkpt><trkpt lat="45.6114785" lon="9.5232645"><ele>158.0</ele><time>2026-04-14T14:02:43.483Z</time></trkpt><trkpt lat="45.6115451" lon="9.5232381"><ele>157.0</ele><time>2026-04-14T14:02:45.484Z</time></trkpt><trkpt lat="45.611625" lon="9.5232127"><ele>156.0</ele><time>2026-04-14T14:02:47.483Z</time></trkpt><trkpt lat="45.611704" lon="9.5231991"><ele>155.0</ele><time>2026-04-14T14:02:49.483Z</time></trkpt><trkpt lat="45.611696" lon="9.5230924"><ele>154.0</ele><time>2026-04-14T14:02:51.484Z</time></trkpt><trkpt lat="45.6116708" lon="9.5230084"><ele>153.0</ele><time>2026-04-14T14:02:53.484Z</time></trkpt><trkpt lat="45.6115809" lon="9.5229988"><ele>153.0</ele><time>2026-04-14T14:02:58.484Z</time></trkpt><trkpt lat="45.6115093" lon="9.5230853"><ele>153.0</ele><time>2026-04-14T14:03:00.484Z</time></trkpt><trkpt lat="45.6114198" lon="9.5231664"><ele>153.0</ele><time>2026-04-14T14:03:02.484Z</time></trkpt><trkpt lat="45.6113361" lon="9.5232069"><ele>153.0</ele><time>2026-04-14T14:03:05.484Z</time></trkpt><trkpt lat="45.6112722" lon="9.5232378"><ele>153.0</ele><time>2026-04-14T14:03:06.484Z</time></trkpt><trkpt lat="45.6111781" lon="9.5232714"><ele>153.0</ele><time>2026-04-14T14:03:08.483Z</time></trkpt><trkpt lat="45.6111041" lon="9.5233347"><ele>153.0</ele><time>2026-04-14T14:03:09.484Z</time></trkpt><trkpt lat="45.6110499" lon="9.5231938"><ele>153.0</ele><time>2026-04-14T14:03:12.484Z</time></trkpt><trkpt lat="45.6109891" lon="9.5231577"><ele>153.0</ele><time>2026-04-14T14:03:14.483Z</time></trkpt><trkpt lat="45.611075" lon="9.5231612"><ele>153.0</ele><time>2026-04-14T14:03:16.483Z</time></trkpt><trkpt lat="45.6111544" lon="9.5231267"><ele>153.0</ele><time>2026-04-14T14:03:18.484Z</time></trkpt><trkpt lat="45.6112139" lon="9.5230775"><ele>153.0</ele><time>2026-04-14T14:03:20.484Z</time></trkpt><trkpt lat="45.611274" lon="9.5230397"><ele>153.0</ele><time>2026-04-14T14:03:22.483Z</time></trkpt><trkpt lat="45.6113459" lon="9.5229752"><ele>153.0</ele><time>2026-04-14T14:03:24.483Z</time></trkpt><trkpt lat="45.6114183" lon="9.5229519"><ele>153.0</ele><time>2026-04-14T14:03:26.484Z</time></trkpt><trkpt lat="45.6114799" lon="9.5229082"><ele>153.0</ele><time>2026-04-14T14:03:28.483Z</time></trkpt><trkpt lat="45.611498" lon="9.5228127"><ele>153.0</ele><time>2026-04-14T14:03:31.483Z</time></trkpt><trkpt lat="45.6113883" lon="9.5228173"><ele>153.0</ele><time>2026-04-14T14:03:36.484Z</time></trkpt><trkpt lat="45.6113217" lon="9.5228684"><ele>153.0</ele><time>2026-04-14T14:03:38.483Z</time></trkpt><trkpt lat="45.6112507" lon="9.5229378"><ele>153.0</ele><time>2026-04-14T14:03:40.484Z</time></trkpt><trkpt lat="45.6111745" lon="9.5229662"><ele>153.0</ele><time>2026-04-14T14:03:42.484Z</time></trkpt><trkpt lat="45.6110962" lon="9.5229995"><ele>153.0</ele><time>2026-04-14T14:03:44.484Z</time></trkpt><trkpt lat="45.6110335" lon="9.5229755"><ele>153.0</ele><time>2026-04-14T14:03:46.484Z</time></trkpt><trkpt lat="45.6109741" lon="9.5227825"><ele>156.83333333333334</ele><time>2026-04-14T14:03:48.483Z</time></trkpt><trkpt lat="45.610955" lon="9.5226316"><ele>160.66666666666666</ele><time>2026-04-14T14:03:53.484Z</time></trkpt><trkpt lat="45.61094" lon="9.5225226"><ele>164.5</ele><time>2026-04-14T14:03:55.483Z</time></trkpt><trkpt lat="45.6109298" lon="9.5224304"><ele>168.33333333333331</ele><time>2026-04-14T14:03:57.484Z</time></trkpt><trkpt lat="45.6109292" lon="9.5223315"><ele>172.16666666666666</ele><time>2026-04-14T14:03:59.484Z</time></trkpt><trkpt lat="45.6108855" lon="9.5222633"><ele>176.0</ele><time>2026-04-14T14:04:01.483Z</time></trkpt><trkpt lat="45.6106884" lon="9.522313"><ele>176.0</ele><time>2026-04-14T14:04:04.484Z</time></trkpt><trkpt lat="45.6105902" lon="9.5222873"><ele>176.0</ele><time>2026-04-14T14:04:06.484Z</time></trkpt><trkpt lat="45.6105381" lon="9.5222309"><ele>176.0</ele><time>2026-04-14T14:04:08.484Z</time></trkpt><trkpt lat="45.6106238" lon="9.5221426"><ele>176.0</ele><time>2026-04-14T14:04:10.483Z</time></trkpt><trkpt lat="45.610626" lon="9.5219892"><ele>176.0</ele><time>2026-04-14T14:04:12.483Z</time></trkpt><trkpt lat="45.610627" lon="9.5218463"><ele>175.83333333333331</ele><time>2026-04-14T14:04:14.484Z</time></trkpt><trkpt lat="45.6106442" lon="9.5217541"><ele>175.66666666666666</ele><time>2026-04-14T14:04:15.484Z</time></trkpt><trkpt lat="45.6106784" lon="9.5216541"><ele>175.5</ele><time>2026-04-14T14:04:16.484Z</time></trkpt><trkpt lat="45.6106906" lon="9.5215519"><ele>175.33333333333334</ele><time>2026-04-14T14:04:17.484Z</time></trkpt><trkpt lat="45.6107049" lon="9.5213585"><ele>175.16666666666669</ele><time>2026-04-14T14:04:19.484Z</time></trkpt><trkpt lat="45.6106277" lon="9.5213405"><ele>175.0</ele><time>2026-04-14T14:04:20.484Z</time></trkpt><trkpt lat="45.6106923" lon="9.5212487"><ele>175.5</ele><time>2026-04-14T14:04:21.484Z</time></trkpt><trkpt lat="45.6108287" lon="9.5211521"><ele>176.0</ele><time>2026-04-14T14:04:23.484Z</time></trkpt><trkpt lat="45.6109291" lon="9.5211163"><ele>176.5</ele><time>2026-04-14T14:04:24.484Z</time></trkpt><trkpt lat="45.6110525" lon="9.5210501"><ele>177.0</ele><time>2026-04-14T14:04:26.484Z</time></trkpt><trkpt lat="45.6110821" lon="9.5209686"><ele>171.33333333333334</ele><time>2026-04-14T14:04:27.484Z</time></trkpt><trkpt lat="45.6112116" lon="9.5207309"><ele>165.66666666666669</ele><time>2026-04-14T14:04:30.483Z</time></trkpt><trkpt lat="45.6113475" lon="9.5205362"><ele>160.0</ele><time>2026-04-14T14:04:32.484Z</time></trkpt><trkpt lat="45.6114269" lon="9.5203506"><ele>160.0</ele><time>2026-04-14T14:04:33.483Z</time></trkpt><trkpt lat="45.6114528" lon="9.520248"><ele>160.0</ele><time>2026-04-14T14:04:34.484Z</time></trkpt><trkpt lat="45.6115016" lon="9.5201689"><ele>160.0</ele><time>2026-04-14T14:04:35.484Z</time></trkpt><trkpt lat="45.6115853" lon="9.5201072"><ele>160.0</ele><time>2026-04-14T14:04:36.484Z</time></trkpt><trkpt lat="45.6116618" lon="9.5199792"><ele>160.0</ele><time>2026-04-14T14:04:38.484Z</time></trkpt><trkpt lat="45.6117302" lon="9.5198846"><ele>160.0</ele><time>2026-04-14T14:04:39.484Z</time></trkpt><trkpt lat="45.6118251" lon="9.5197199"><ele>160.0</ele><time>2026-04-14T14:04:41.483Z</time></trkpt><trkpt lat="45.6118724" lon="9.5195378"><ele>160.0</ele><time>2026-04-14T14:04:43.484Z</time></trkpt><trkpt lat="45.6119103" lon="9.5194423"><ele>160.0</ele><time>2026-04-14T14:04:44.484Z</time></trkpt><trkpt lat="45.6119219" lon="9.5193536"><ele>160.0</ele><time>2026-04-14T14:04:45.484Z</time></trkpt><trkpt lat="45.6119408" lon="9.5191277"><ele>161.6</ele><time>2026-04-14T14:04:47.484Z</time></trkpt><trkpt lat="45.6119724" lon="9.5189771"><ele>163.2</ele><time>2026-04-14T14:04:49.484Z</time></trkpt><trkpt lat="45.6120448" lon="9.5187939"><ele>164.8</ele><time>2026-04-14T14:04:51.484Z</time></trkpt><trkpt lat="45.6121043" lon="9.5186591"><ele>166.4</ele><time>2026-04-14T14:04:53.484Z</time></trkpt><trkpt lat="45.6121342" lon="9.5185552"><ele>168.0</ele><time>2026-04-14T14:04:54.484Z</time></trkpt><trkpt lat="45.6121127" lon="9.5184425"><ele>165.20000000000002</ele><time>2026-04-14T14:04:57.484Z</time></trkpt><trkpt lat="45.6121493" lon="9.5183145"><ele>162.4</ele><time>2026-04-14T14:04:59.483Z</time></trkpt><trkpt lat="45.6122011" lon="9.5182573"><ele>159.60000000000002</ele><time>2026-04-14T14:05:00.483Z</time></trkpt><trkpt lat="45.6122439" lon="9.518141"><ele>156.8</ele><time>2026-04-14T14:05:02.484Z</time></trkpt><trkpt lat="45.6122999" lon="9.5179893"><ele>154.0</ele><time>2026-04-14T14:05:04.484Z</time></trkpt><trkpt lat="45.6123469" lon="9.517834"><ele>154.0</ele><time>2026-04-14T14:05:06.484Z</time></trkpt><trkpt lat="45.6123924" lon="9.5177385"><ele>154.0</ele><time>2026-04-14T14:05:07.484Z</time></trkpt><trkpt lat="45.612429" lon="9.5176638"><ele>154.0</ele><time>2026-04-14T14:05:08.484Z</time></trkpt><trkpt lat="45.6124967" lon="9.5175606"><ele>154.0</ele><time>2026-04-14T14:05:09.484Z</time></trkpt><trkpt lat="45.6125541" lon="9.517472"><ele>154.0</ele><time>2026-04-14T14:05:10.483Z</time></trkpt><trkpt lat="45.6126374" lon="9.5173735"><ele>154.0</ele><time>2026-04-14T14:05:12.484Z</time></trkpt><trkpt lat="45.6127083" lon="9.5172642"><ele>154.0</ele><time>2026-04-14T14:05:13.484Z</time></trkpt><trkpt lat="45.6126959" lon="9.5171755"><ele>154.0</ele><time>2026-04-14T14:05:14.484Z</time></trkpt><trkpt lat="45.6127659" lon="9.5171476"><ele>154.0</ele><time>2026-04-14T14:05:15.484Z</time></trkpt><trkpt lat="45.6128028" lon="9.5170646"><ele>154.0</ele><time>2026-04-14T14:05:17.484Z</time></trkpt><trkpt lat="45.6129707" lon="9.5169826"><ele>154.0</ele><time>2026-04-14T14:05:19.484Z</time></trkpt><trkpt lat="45.613016" lon="9.5168775"><ele>156.0</ele><time>2026-04-14T14:05:20.483Z</time></trkpt><trkpt lat="45.6131563" lon="9.5167883"><ele>158.0</ele><time>2026-04-14T14:05:22.484Z</time></trkpt><trkpt lat="45.613252" lon="9.5167216"><ele>160.0</ele><time>2026-04-14T14:05:25.483Z</time></trkpt><trkpt lat="45.6133286" lon="9.5167028"><ele>162.0</ele><time>2026-04-14T14:05:26.483Z</time></trkpt><trkpt lat="45.6134186" lon="9.5166547"><ele>164.0</ele><time>2026-04-14T14:05:27.484Z</time></trkpt><trkpt lat="45.613546" lon="9.5165977"><ele>163.99999999999997</ele><time>2026-04-14T14:05:29.484Z</time></trkpt><trkpt lat="45.6136062" lon="9.516565"><ele>164.0</ele><time>2026-04-14T14:05:30.484Z</time></trkpt><trkpt lat="45.6136551" lon="9.5165051"><ele>164.0</ele><time>2026-04-14T14:05:31.483Z</time></trkpt><trkpt lat="45.6137187" lon="9.5164619"><ele>164.0</ele><time>2026-04-14T14:05:32.484Z</time></trkpt><trkpt lat="45.61379" lon="9.5164222"><ele>164.0</ele><time>2026-04-14T14:05:33.483Z</time></trkpt><trkpt lat="45.6138565" lon="9.5163951"><ele>163.99999999999997</ele><time>2026-04-14T14:05:34.484Z</time></trkpt><trkpt lat="45.6139391" lon="9.5163623"><ele>164.0</ele><time>2026-04-14T14:05:35.484Z</time></trkpt><trkpt lat="45.6140518" lon="9.5163068"><ele>162.79999999999998</ele><time>2026-04-14T14:05:36.484Z</time></trkpt><trkpt lat="45.6141265" lon="9.5162663"><ele>161.6</ele><time>2026-04-14T14:05:37.484Z</time></trkpt><trkpt lat="45.6142564" lon="9.5162021"><ele>160.4</ele><time>2026-04-14T14:05:39.484Z</time></trkpt><trkpt lat="45.6143382" lon="9.5161594"><ele>159.2</ele><time>2026-04-14T14:05:40.484Z</time></trkpt><trkpt lat="45.6144098" lon="9.5160686"><ele>158.0</ele><time>2026-04-14T14:05:41.483Z</time></trkpt><trkpt lat="45.6146363" lon="9.5160976"><ele>158.0</ele><time>2026-04-14T14:05:44.484Z</time></trkpt><trkpt lat="45.6147004" lon="9.5161384"><ele>158.0</ele><time>2026-04-14T14:05:45.483Z</time></trkpt><trkpt lat="45.614868" lon="9.5161258"><ele>158.0</ele><time>2026-04-14T14:05:47.484Z</time></trkpt><trkpt lat="45.6149301" lon="9.5161013"><ele>158.0</ele><time>2026-04-14T14:05:48.484Z</time></trkpt><trkpt lat="45.6150345" lon="9.5160663"><ele>158.0</ele><time>2026-04-14T14:05:50.483Z</time></trkpt><trkpt lat="45.6150707" lon="9.5159338"><ele>158.0</ele><time>2026-04-14T14:05:54.484Z</time></trkpt><trkpt lat="45.6151478" lon="9.5158652"><ele>158.0</ele><time>2026-04-14T14:05:58.483Z</time></trkpt><trkpt lat="45.615162" lon="9.5157588"><ele>158.0</ele><time>2026-04-14T14:06:00.483Z</time></trkpt><trkpt lat="45.6151674" lon="9.5156446"><ele>158.0</ele><time>2026-04-14T14:06:05.484Z</time></trkpt><trkpt lat="45.6151889" lon="9.5155387"><ele>158.0</ele><time>2026-04-14T14:06:09.484Z</time></trkpt><trkpt lat="45.6151611" lon="9.5154528"><ele>158.0</ele><time>2026-04-14T14:06:12.483Z</time></trkpt><trkpt lat="45.6151832" lon="9.5153234"><ele>160.5</ele><time>2026-04-14T14:06:14.483Z</time></trkpt><trkpt lat="45.6152079" lon="9.5151865"><ele>163.0</ele><time>2026-04-14T14:06:16.483Z</time></trkpt><trkpt lat="45.6151712" lon="9.5150865"><ele>165.5</ele><time>2026-04-14T14:06:18.484Z</time></trkpt><trkpt lat="45.6151913" lon="9.5149708"><ele>168.0</ele><time>2026-04-14T14:06:21.483Z</time></trkpt><trkpt lat="45.6151532" lon="9.5148844"><ele>170.5</ele><time>2026-04-14T14:06:25.483Z</time></trkpt><trkpt lat="45.6151557" lon="9.5147538"><ele>173.0</ele><time>2026-04-14T14:06:31.483Z</time></trkpt><trkpt lat="45.6152085" lon="9.5146524"><ele>174.57142857142856</ele><time>2026-04-14T14:06:43.475Z</time></trkpt><trkpt lat="45.6152438" lon="9.5145616"><ele>176.14285714285717</ele><time>2026-04-14T14:06:48.487Z</time></trkpt><trkpt lat="45.6152627" lon="9.5144575"><ele>177.71428571428572</ele><time>2026-04-14T14:06:52.487Z</time></trkpt><trkpt lat="45.615276" lon="9.5143694"><ele>179.28571428571428</ele><time>2026-04-14T14:06:58.487Z</time></trkpt><trkpt lat="45.6152772" lon="9.5142758"><ele>180.85714285714283</ele><time>2026-04-14T14:07:01.488Z</time></trkpt><trkpt lat="45.6152874" lon="9.5141858"><ele>182.42857142857144</ele><time>2026-04-14T14:07:06.487Z</time></trkpt><trkpt lat="45.6152928" lon="9.5140683"><ele>184.0</ele><time>2026-04-14T14:07:10.488Z</time></trkpt><trkpt lat="45.6152847" lon="9.5139659"><ele>184.0</ele><time>2026-04-14T14:07:14.488Z</time></trkpt><trkpt lat="45.6153044" lon="9.5138715"><ele>184.0</ele><time>2026-04-14T14:07:18.488Z</time></trkpt><trkpt lat="45.6153306" lon="9.5137709"><ele>184.0</ele><time>2026-04-14T14:07:21.488Z</time></trkpt><trkpt lat="45.6153796" lon="9.5136758"><ele>184.0</ele><time>2026-04-14T14:07:24.488Z</time></trkpt><trkpt lat="45.615408" lon="9.5135692"><ele>184.0</ele><time>2026-04-14T14:07:27.487Z</time></trkpt><trkpt lat="45.6154121" lon="9.5134281"><ele>184.0</ele><time>2026-04-14T14:07:30.488Z</time></trkpt><trkpt lat="45.615381" lon="9.5133423"><ele>184.0</ele><time>2026-04-14T14:07:33.488Z</time></trkpt><trkpt lat="45.6153214" lon="9.5134139"><ele>184.0</ele><time>2026-04-14T14:07:47.487Z</time></trkpt><trkpt lat="45.6152669" lon="9.5134833"><ele>184.0</ele><time>2026-04-14T14:07:50.488Z</time></trkpt><trkpt lat="45.6152273" lon="9.5135744"><ele>184.0</ele><time>2026-04-14T14:07:53.488Z</time></trkpt><trkpt lat="45.615186" lon="9.5136448"><ele>184.0</ele><time>2026-04-14T14:07:55.487Z</time></trkpt><trkpt lat="45.6151753" lon="9.5137871"><ele>184.0</ele><time>2026-04-14T14:07:57.488Z</time></trkpt><trkpt lat="45.6151394" lon="9.5139038"><ele>184.0</ele><time>2026-04-14T14:07:59.488Z</time></trkpt><trkpt lat="45.6150751" lon="9.5139789"><ele>184.0</ele><time>2026-04-14T14:08:04.488Z</time></trkpt><trkpt lat="45.6150173" lon="9.5140271"><ele>184.0</ele><time>2026-04-14T14:08:06.488Z</time></trkpt><trkpt lat="45.6149636" lon="9.5140812"><ele>184.0</ele><time>2026-04-14T14:08:08.488Z</time></trkpt><trkpt lat="45.6149323" lon="9.514163"><ele>184.0</ele><time>2026-04-14T14:08:09.488Z</time></trkpt><trkpt lat="45.6148816" lon="9.5143088"><ele>184.0</ele><time>2026-04-14T14:08:11.488Z</time></trkpt><trkpt lat="45.6148654" lon="9.5144103"><ele>184.0</ele><time>2026-04-14T14:08:13.487Z</time></trkpt><trkpt lat="45.6148155" lon="9.5145035"><ele>184.0</ele><time>2026-04-14T14:08:15.488Z</time></trkpt><trkpt lat="45.6147629" lon="9.5146417"><ele>184.0</ele><time>2026-04-14T14:08:17.487Z</time></trkpt><trkpt lat="45.6147259" lon="9.5147801"><ele>184.0</ele><time>2026-04-14T14:08:19.487Z</time></trkpt><trkpt lat="45.6146966" lon="9.5148957"><ele>184.0</ele><time>2026-04-14T14:08:21.488Z</time></trkpt><trkpt lat="45.6146693" lon="9.5150425"><ele>184.6</ele><time>2026-04-14T14:08:23.487Z</time></trkpt><trkpt lat="45.6145556" lon="9.5151237"><ele>185.2</ele><time>2026-04-14T14:08:25.487Z</time></trkpt><trkpt lat="45.6144435" lon="9.5151786"><ele>185.79999999999998</ele><time>2026-04-14T14:08:26.488Z</time></trkpt><trkpt lat="45.6144003" lon="9.5150678"><ele>186.39999999999998</ele><time>2026-04-14T14:08:28.488Z</time></trkpt><trkpt lat="45.6144935" lon="9.5150542"><ele>187.0</ele><time>2026-04-14T14:08:38.488Z</time></trkpt><trkpt lat="45.6145615" lon="9.5149755"><ele>186.5</ele><time>2026-04-14T14:08:40.487Z</time></trkpt><trkpt lat="45.6146256" lon="9.5149301"><ele>186.0</ele><time>2026-04-14T14:08:42.488Z</time></trkpt><trkpt lat="45.6147114" lon="9.5148211"><ele>185.5</ele><time>2026-04-14T14:08:44.488Z</time></trkpt><trkpt lat="45.6147377" lon="9.5147346"><ele>185.0</ele><time>2026-04-14T14:08:45.488Z</time></trkpt><trkpt lat="45.6147294" lon="9.5146342"><ele>184.5</ele><time>2026-04-14T14:08:46.488Z</time></trkpt><trkpt lat="45.6147727" lon="9.5145451"><ele>184.0</ele><time>2026-04-14T14:08:48.488Z</time></trkpt><trkpt lat="45.6147941" lon="9.5144574"><ele>184.0</ele><time>2026-04-14T14:08:49.487Z</time></trkpt><trkpt lat="45.6148673" lon="9.5143167"><ele>184.0</ele><time>2026-04-14T14:08:51.488Z</time></trkpt><trkpt lat="45.6149108" lon="9.5141879"><ele>184.0</ele><time>2026-04-14T14:08:53.488Z</time></trkpt><trkpt lat="45.6149437" lon="9.5140062"><ele>184.0</ele><time>2026-04-14T14:08:55.487Z</time></trkpt><trkpt lat="45.6149686" lon="9.5138261"><ele>184.79999999999998</ele><time>2026-04-14T14:08:57.488Z</time></trkpt><trkpt lat="45.6149919" lon="9.513665"><ele>185.6</ele><time>2026-04-14T14:08:59.488Z</time></trkpt><trkpt lat="45.6149668" lon="9.5135614"><ele>186.4</ele><time>2026-04-14T14:09:01.488Z</time></trkpt><trkpt lat="45.6149961" lon="9.5133942"><ele>187.2</ele><time>2026-04-14T14:09:03.487Z</time></trkpt><trkpt lat="45.6149862" lon="9.5132842"><ele>188.0</ele><time>2026-04-14T14:09:05.488Z</time></trkpt><trkpt lat="45.6150215" lon="9.5131703"><ele>188.0</ele><time>2026-04-14T14:09:06.487Z</time></trkpt><trkpt lat="45.615056" lon="9.5130514"><ele>188.0</ele><time>2026-04-14T14:09:07.488Z</time></trkpt><trkpt lat="45.615098" lon="9.5128795"><ele>188.0</ele><time>2026-04-14T14:09:09.488Z</time></trkpt><trkpt lat="45.6150909" lon="9.5127384"><ele>188.0</ele><time>2026-04-14T14:09:11.488Z</time></trkpt><trkpt lat="45.6151287" lon="9.512621"><ele>188.0</ele><time>2026-04-14T14:09:12.488Z</time></trkpt><trkpt lat="45.6151644" lon="9.5125084"><ele>188.0</ele><time>2026-04-14T14:09:13.488Z</time></trkpt><trkpt lat="45.6152015" lon="9.512353"><ele>188.0</ele><time>2026-04-14T14:09:14.488Z</time></trkpt><trkpt lat="45.6152494" lon="9.5122173"><ele>188.0</ele><time>2026-04-14T14:09:16.487Z</time></trkpt><trkpt lat="45.6152378" lon="9.5120796"><ele>188.0</ele><time>2026-04-14T14:09:18.487Z</time></trkpt><trkpt lat="45.6152619" lon="9.5119629"><ele>188.0</ele><time>2026-04-14T14:09:19.487Z</time></trkpt><trkpt lat="45.6152956" lon="9.5118387"><ele>188.4</ele><time>2026-04-14T14:09:20.488Z</time></trkpt><trkpt lat="45.6153018" lon="9.5117313"><ele>188.8</ele><time>2026-04-14T14:09:22.488Z</time></trkpt><trkpt lat="45.6153447" lon="9.5116128"><ele>189.2</ele><time>2026-04-14T14:09:24.487Z</time></trkpt><trkpt lat="45.6153871" lon="9.5115381"><ele>189.6</ele><time>2026-04-14T14:09:25.488Z</time></trkpt><trkpt lat="45.615487" lon="9.5114591"><ele>190.0</ele><time>2026-04-14T14:09:27.488Z</time></trkpt><trkpt lat="45.6155408" lon="9.5113379"><ele>190.6</ele><time>2026-04-14T14:09:29.488Z</time></trkpt><trkpt lat="45.6156055" lon="9.5112307"><ele>191.2</ele><time>2026-04-14T14:09:30.488Z</time></trkpt><trkpt lat="45.6156887" lon="9.5110787"><ele>191.8</ele><time>2026-04-14T14:09:32.487Z</time></trkpt><trkpt lat="45.6157211" lon="9.5109744"><ele>192.4</ele><time>2026-04-14T14:09:33.487Z</time></trkpt><trkpt lat="45.6157597" lon="9.5108755"><ele>193.0</ele><time>2026-04-14T14:09:34.488Z</time></trkpt><trkpt lat="45.6157818" lon="9.5107851"><ele>193.0</ele><time>2026-04-14T14:09:35.488Z</time></trkpt><trkpt lat="45.6158127" lon="9.5106158"><ele>193.0</ele><time>2026-04-14T14:09:37.487Z</time></trkpt><trkpt lat="45.6158246" lon="9.5105112"><ele>193.0</ele><time>2026-04-14T14:09:38.487Z</time></trkpt><trkpt lat="45.615907" lon="9.5104495"><ele>193.0</ele><time>2026-04-14T14:09:39.488Z</time></trkpt><trkpt lat="45.6159715" lon="9.510396"><ele>193.0</ele><time>2026-04-14T14:09:40.487Z</time></trkpt><trkpt lat="45.616067" lon="9.5103508"><ele>194.0</ele><time>2026-04-14T14:09:42.488Z</time></trkpt><trkpt lat="45.6161427" lon="9.5103662"><ele>195.0</ele><time>2026-04-14T14:09:43.488Z</time></trkpt><trkpt lat="45.6162123" lon="9.5103342"><ele>196.0</ele><time>2026-04-14T14:09:44.488Z</time></trkpt><trkpt lat="45.616342" lon="9.5103004"><ele>197.0</ele><time>2026-04-14T14:09:46.488Z</time></trkpt><trkpt lat="45.6164527" lon="9.5102444"><ele>198.0</ele><time>2026-04-14T14:09:48.487Z</time></trkpt><trkpt lat="45.6165378" lon="9.5102119"><ele>198.4</ele><time>2026-04-14T14:09:50.487Z</time></trkpt><trkpt lat="45.6166242" lon="9.5101949"><ele>198.8</ele><time>2026-04-14T14:09:51.488Z</time></trkpt><trkpt lat="45.6167017" lon="9.510132"><ele>199.2</ele><time>2026-04-14T14:09:52.488Z</time></trkpt><trkpt lat="45.6168192" lon="9.5100403"><ele>199.6</ele><time>2026-04-14T14:09:53.487Z</time></trkpt><trkpt lat="45.6169023" lon="9.510009"><ele>200.0</ele><time>2026-04-14T14:09:54.488Z</time></trkpt><trkpt lat="45.6169734" lon="9.5099406"><ele>200.6</ele><time>2026-04-14T14:09:55.488Z</time></trkpt><trkpt lat="45.6170592" lon="9.5098515"><ele>201.2</ele><time>2026-04-14T14:09:56.488Z</time></trkpt><trkpt lat="45.6171981" lon="9.5097473"><ele>201.8</ele><time>2026-04-14T14:09:59.488Z</time></trkpt><trkpt lat="45.6172758" lon="9.5097137"><ele>202.4</ele><time>2026-04-14T14:10:00.487Z</time></trkpt><trkpt lat="45.6173422" lon="9.5096153"><ele>203.0</ele><time>2026-04-14T14:10:01.488Z</time></trkpt><trkpt lat="45.6174369" lon="9.5095241"><ele>203.0</ele><time>2026-04-14T14:10:03.488Z</time></trkpt><trkpt lat="45.6175294" lon="9.5094177"><ele>203.0</ele><time>2026-04-14T14:10:05.488Z</time></trkpt><trkpt lat="45.6176148" lon="9.5093603"><ele>203.0</ele><time>2026-04-14T14:10:07.487Z</time></trkpt><trkpt lat="45.6177479" lon="9.5092897"><ele>203.0</ele><time>2026-04-14T14:10:09.488Z</time></trkpt><trkpt lat="45.617898" lon="9.5091896"><ele>202.2</ele><time>2026-04-14T14:10:11.488Z</time></trkpt><trkpt lat="45.617987" lon="9.5092188"><ele>201.4</ele><time>2026-04-14T14:10:13.487Z</time></trkpt><trkpt lat="45.6180719" lon="9.5092391"><ele>200.6</ele><time>2026-04-14T14:10:15.488Z</time></trkpt><trkpt lat="45.6181163" lon="9.5093164"><ele>199.79999999999998</ele><time>2026-04-14T14:10:17.487Z</time></trkpt><trkpt lat="45.6181926" lon="9.5094162"><ele>199.0</ele><time>2026-04-14T14:10:19.487Z</time></trkpt><trkpt lat="45.6183278" lon="9.5094242"><ele>198.99999999999997</ele><time>2026-04-14T14:10:21.488Z</time></trkpt><trkpt lat="45.6184092" lon="9.5094522"><ele>199.0</ele><time>2026-04-14T14:10:22.488Z</time></trkpt><trkpt lat="45.6184791" lon="9.509466"><ele>199.0</ele><time>2026-04-14T14:10:23.488Z</time></trkpt><trkpt lat="45.6185335" lon="9.509417"><ele>199.0</ele><time>2026-04-14T14:10:24.488Z</time></trkpt><trkpt lat="45.6186063" lon="9.5094324"><ele>199.0</ele><time>2026-04-14T14:10:25.487Z</time></trkpt><trkpt lat="45.6186902" lon="9.5093847"><ele>198.99999999999997</ele><time>2026-04-14T14:10:27.488Z</time></trkpt><trkpt lat="45.6187539" lon="9.5093765"><ele>199.0</ele><time>2026-04-14T14:10:28.488Z</time></trkpt><trkpt lat="45.6189354" lon="9.5094545"><ele>198.99999999999997</ele><time>2026-04-14T14:10:30.488Z</time></trkpt><trkpt lat="45.6190214" lon="9.5093828"><ele>199.0</ele><time>2026-04-14T14:10:32.488Z</time></trkpt><trkpt lat="45.6191039" lon="9.5093661"><ele>199.0</ele><time>2026-04-14T14:10:33.488Z</time></trkpt><trkpt lat="45.6191684" lon="9.509339"><ele>199.0</ele><time>2026-04-14T14:10:34.487Z</time></trkpt><trkpt lat="45.6192413" lon="9.509342"><ele>198.99999999999997</ele><time>2026-04-14T14:10:35.488Z</time></trkpt><trkpt lat="45.6193303" lon="9.5093839"><ele>199.0</ele><time>2026-04-14T14:10:37.488Z</time></trkpt><trkpt lat="45.6193982" lon="9.5093959"><ele>198.79999999999998</ele><time>2026-04-14T14:10:38.488Z</time></trkpt><trkpt lat="45.6194921" lon="9.5093957"><ele>198.6</ele><time>2026-04-14T14:10:41.488Z</time></trkpt><trkpt lat="45.6195735" lon="9.5094108"><ele>198.4</ele><time>2026-04-14T14:10:42.487Z</time></trkpt><trkpt lat="45.619671" lon="9.5094659"><ele>198.2</ele><time>2026-04-14T14:10:44.488Z</time></trkpt><trkpt lat="45.6197578" lon="9.5095252"><ele>198.0</ele><time>2026-04-14T14:10:46.488Z</time></trkpt><trkpt lat="45.6198512" lon="9.5096127"><ele>198.0</ele><time>2026-04-14T14:10:48.487Z</time></trkpt><trkpt lat="45.6199402" lon="9.509664"><ele>198.0</ele><time>2026-04-14T14:10:49.487Z</time></trkpt><trkpt lat="45.6200029" lon="9.5096808"><ele>198.0</ele><time>2026-04-14T14:10:50.487Z</time></trkpt><trkpt lat="45.6201063" lon="9.5097963"><ele>198.0</ele><time>2026-04-14T14:10:52.488Z</time></trkpt><trkpt lat="45.6201966" lon="9.5098236"><ele>198.0</ele><time>2026-04-14T14:10:54.488Z</time></trkpt><trkpt lat="45.6202747" lon="9.509848"><ele>198.60000000000002</ele><time>2026-04-14T14:10:55.488Z</time></trkpt><trkpt lat="45.6203754" lon="9.5099352"><ele>199.20000000000002</ele><time>2026-04-14T14:10:57.488Z</time></trkpt><trkpt lat="45.620462" lon="9.5100113"><ele>199.8</ele><time>2026-04-14T14:10:58.487Z</time></trkpt><trkpt lat="45.6205673" lon="9.5100808"><ele>200.4</ele><time>2026-04-14T14:11:00.488Z</time></trkpt><trkpt lat="45.6206326" lon="9.5100836"><ele>201.0</ele><time>2026-04-14T14:11:01.488Z</time></trkpt><trkpt lat="45.6207068" lon="9.5101085"><ele>201.0</ele><time>2026-04-14T14:11:02.488Z</time></trkpt><trkpt lat="45.6207699" lon="9.5101369"><ele>201.0</ele><time>2026-04-14T14:11:03.488Z</time></trkpt><trkpt lat="45.6208743" lon="9.5101423"><ele>201.0</ele><time>2026-04-14T14:11:04.488Z</time></trkpt><trkpt lat="45.6210135" lon="9.5100416"><ele>201.0</ele><time>2026-04-14T14:11:09.488Z</time></trkpt><trkpt lat="45.6211028" lon="9.5100241"><ele>201.0</ele><time>2026-04-14T14:11:11.487Z</time></trkpt><trkpt lat="45.6211986" lon="9.5099782"><ele>201.0</ele><time>2026-04-14T14:11:13.488Z</time></trkpt><trkpt lat="45.6212648" lon="9.5099698"><ele>201.0</ele><time>2026-04-14T14:11:14.488Z</time></trkpt><trkpt lat="45.6214886" lon="9.5099244"><ele>201.0</ele><time>2026-04-14T14:11:17.488Z</time></trkpt><trkpt lat="45.621568" lon="9.5098911"><ele>201.0</ele><time>2026-04-14T14:11:18.488Z</time></trkpt><trkpt lat="45.6216985" lon="9.5098541"><ele>201.0</ele><time>2026-04-14T14:11:20.488Z</time></trkpt><trkpt lat="45.6218242" lon="9.5097533"><ele>201.0</ele><time>2026-04-14T14:11:22.487Z</time></trkpt><trkpt lat="45.6219468" lon="9.509635"><ele>201.0</ele><time>2026-04-14T14:11:24.488Z</time></trkpt><trkpt lat="45.6219945" lon="9.5095625"><ele>201.0</ele><time>2026-04-14T14:11:25.487Z</time></trkpt><trkpt lat="45.6220584" lon="9.5094594"><ele>202.0</ele><time>2026-04-14T14:11:27.488Z</time></trkpt><trkpt lat="45.6221582" lon="9.5093818"><ele>203.0</ele><time>2026-04-14T14:11:29.487Z</time></trkpt><trkpt lat="45.6222038" lon="9.5093085"><ele>204.0</ele><time>2026-04-14T14:11:30.488Z</time></trkpt><trkpt lat="45.6222534" lon="9.5092499"><ele>205.0</ele><time>2026-04-14T14:11:31.488Z</time></trkpt><trkpt lat="45.6223266" lon="9.5091967"><ele>206.0</ele><time>2026-04-14T14:11:32.488Z</time></trkpt><trkpt lat="45.6223786" lon="9.5091391"><ele>207.0</ele><time>2026-04-14T14:11:33.488Z</time></trkpt><trkpt lat="45.6224612" lon="9.5090956"><ele>207.0</ele><time>2026-04-14T14:11:34.487Z</time></trkpt><trkpt lat="45.6225272" lon="9.5091099"><ele>207.0</ele><time>2026-04-14T14:11:35.488Z</time></trkpt><trkpt lat="45.6225997" lon="9.5090903"><ele>207.0</ele><time>2026-04-14T14:11:36.488Z</time></trkpt><trkpt lat="45.6226831" lon="9.5090219"><ele>207.0</ele><time>2026-04-14T14:11:37.488Z</time></trkpt><trkpt lat="45.6228119" lon="9.5089538"><ele>207.0</ele><time>2026-04-14T14:11:39.488Z</time></trkpt><trkpt lat="45.6228914" lon="9.5089428"><ele>208.25</ele><time>2026-04-14T14:11:40.487Z</time></trkpt><trkpt lat="45.6229651" lon="9.5087911"><ele>209.5</ele><time>2026-04-14T14:11:42.487Z</time></trkpt><trkpt lat="45.6230501" lon="9.5086759"><ele>210.75</ele><time>2026-04-14T14:11:43.487Z</time></trkpt><trkpt lat="45.6231999" lon="9.5086578"><ele>212.0</ele><time>2026-04-14T14:11:46.488Z</time></trkpt><trkpt lat="45.6232816" lon="9.5085395"><ele>212.0</ele><time>2026-04-14T14:11:48.488Z</time></trkpt><trkpt lat="45.6233271" lon="9.5084673"><ele>212.0</ele><time>2026-04-14T14:11:49.488Z</time></trkpt><trkpt lat="45.6234068" lon="9.5083701"><ele>212.0</ele><time>2026-04-14T14:11:50.488Z</time></trkpt><trkpt lat="45.6234836" lon="9.5082441"><ele>212.0</ele><time>2026-04-14T14:11:52.488Z</time></trkpt><trkpt lat="45.6235734" lon="9.5081515"><ele>212.0</ele><time>2026-04-14T14:11:53.487Z</time></trkpt><trkpt lat="45.6236046" lon="9.5080394"><ele>212.0</ele><time>2026-04-14T14:11:54.488Z</time></trkpt><trkpt lat="45.6236362" lon="9.5079575"><ele>212.0</ele><time>2026-04-14T14:11:55.488Z</time></trkpt><trkpt lat="45.6236856" lon="9.5078798"><ele>212.0</ele><time>2026-04-14T14:11:56.487Z</time></trkpt><trkpt lat="45.6237529" lon="9.5077827"><ele>212.0</ele><time>2026-04-14T14:11:58.487Z</time></trkpt><trkpt lat="45.6237868" lon="9.507674"><ele>212.0</ele><time>2026-04-14T14:11:59.487Z</time></trkpt><trkpt lat="45.6238551" lon="9.5075019"><ele>212.66666666666669</ele><time>2026-04-14T14:12:01.487Z</time></trkpt><trkpt lat="45.6238908" lon="9.5074"><ele>213.33333333333334</ele><time>2026-04-14T14:12:02.488Z</time></trkpt><trkpt lat="45.6239535" lon="9.5072915"><ele>214.0</ele><time>2026-04-14T14:12:03.488Z</time></trkpt><trkpt lat="45.6239661" lon="9.5071732"><ele>214.66666666666669</ele><time>2026-04-14T14:12:04.488Z</time></trkpt><trkpt lat="45.6240111" lon="9.5071086"><ele>215.33333333333334</ele><time>2026-04-14T14:12:05.488Z</time></trkpt><trkpt lat="45.6240288" lon="9.5069878"><ele>216.0</ele><time>2026-04-14T14:12:06.488Z</time></trkpt><trkpt lat="45.6240964" lon="9.506948"><ele>216.0</ele><time>2026-04-14T14:12:07.488Z</time></trkpt><trkpt lat="45.6241611" lon="9.506829"><ele>216.0</ele><time>2026-04-14T14:12:09.487Z</time></trkpt><trkpt lat="45.6242014" lon="9.5067402"><ele>216.0</ele><time>2026-04-14T14:12:11.488Z</time></trkpt><trkpt lat="45.62426" lon="9.5066519"><ele>216.0</ele><time>2026-04-14T14:12:12.488Z</time></trkpt><trkpt lat="45.6243056" lon="9.5065844"><ele>216.0</ele><time>2026-04-14T14:12:13.487Z</time></trkpt><trkpt lat="45.6243368" lon="9.5064974"><ele>216.0</ele><time>2026-04-14T14:12:15.488Z</time></trkpt><trkpt lat="45.6244084" lon="9.5063928"><ele>217.0</ele><time>2026-04-14T14:12:17.488Z</time></trkpt><trkpt lat="45.6244875" lon="9.5062556"><ele>218.00000000000003</ele><time>2026-04-14T14:12:19.487Z</time></trkpt><trkpt lat="45.6244723" lon="9.5061251"><ele>219.00000000000003</ele><time>2026-04-14T14:12:20.488Z</time></trkpt><trkpt lat="45.6245532" lon="9.5060339"><ele>220.0</ele><time>2026-04-14T14:12:21.488Z</time></trkpt><trkpt lat="45.6246195" lon="9.5059399"><ele>221.0</ele><time>2026-04-14T14:12:22.488Z</time></trkpt><trkpt lat="45.6246387" lon="9.5058185"><ele>220.0</ele><time>2026-04-14T14:12:23.487Z</time></trkpt><trkpt lat="45.6246807" lon="9.5057042"><ele>219.00000000000003</ele><time>2026-04-14T14:12:24.488Z</time></trkpt><trkpt lat="45.6247644" lon="9.5055768"><ele>218.00000000000003</ele><time>2026-04-14T14:12:26.488Z</time></trkpt><trkpt lat="45.624817" lon="9.5054875"><ele>217.0</ele><time>2026-04-14T14:12:27.488Z</time></trkpt><trkpt lat="45.624857" lon="9.5054042"><ele>216.0</ele><time>2026-04-14T14:12:28.487Z</time></trkpt><trkpt lat="45.6249152" lon="9.5053089"><ele>216.0</ele><time>2026-04-14T14:12:29.488Z</time></trkpt><trkpt lat="45.6249472" lon="9.5052282"><ele>216.0</ele><time>2026-04-14T14:12:30.488Z</time></trkpt><trkpt lat="45.6249838" lon="9.505135"><ele>216.0</ele><time>2026-04-14T14:12:31.488Z</time></trkpt><trkpt lat="45.6250295" lon="9.505015"><ele>216.0</ele><time>2026-04-14T14:12:32.487Z</time></trkpt><trkpt lat="45.6251027" lon="9.5049097"><ele>216.0</ele><time>2026-04-14T14:12:33.488Z</time></trkpt><trkpt lat="45.6251234" lon="9.5048157"><ele>216.0</ele><time>2026-04-14T14:12:35.488Z</time></trkpt><trkpt lat="45.6251628" lon="9.5047371"><ele>216.0</ele><time>2026-04-14T14:12:36.488Z</time></trkpt><trkpt lat="45.6251955" lon="9.5046531"><ele>216.00000000000003</ele><time>2026-04-14T14:12:37.487Z</time></trkpt><trkpt lat="45.6252164" lon="9.5044313"><ele>216.00000000000003</ele><time>2026-04-14T14:12:39.477Z</time></trkpt><trkpt lat="45.6252719" lon="9.5043603"><ele>216.0</ele><time>2026-04-14T14:12:40.481Z</time></trkpt><trkpt lat="45.625369" lon="9.5043031"><ele>216.0</ele><time>2026-04-14T14:12:41.477Z</time></trkpt><trkpt lat="45.6253291" lon="9.5042093"><ele>215.5</ele><time>2026-04-14T14:12:42.479Z</time></trkpt><trkpt lat="45.6253744" lon="9.5041214"><ele>215.0</ele><time>2026-04-14T14:12:43.477Z</time></trkpt><trkpt lat="45.6253962" lon="9.5040315"><ele>214.5</ele><time>2026-04-14T14:12:44.479Z</time></trkpt><trkpt lat="45.62543" lon="9.503926"><ele>214.0</ele><time>2026-04-14T14:12:45.478Z</time></trkpt><trkpt lat="45.6254645" lon="9.5038072"><ele>213.5</ele><time>2026-04-14T14:12:46.478Z</time></trkpt><trkpt lat="45.6254789" lon="9.5037147"><ele>213.0</ele><time>2026-04-14T14:12:47.479Z</time></trkpt><trkpt lat="45.6255518" lon="9.5035903"><ele>213.0</ele><time>2026-04-14T14:12:48.479Z</time></trkpt><trkpt lat="45.625622" lon="9.5034504"><ele>213.0</ele><time>2026-04-14T14:12:50.479Z</time></trkpt><trkpt lat="45.6256523" lon="9.5033326"><ele>213.0</ele><time>2026-04-14T14:12:52.479Z</time></trkpt><trkpt lat="45.6257057" lon="9.5031329"><ele>213.0</ele><time>2026-04-14T14:12:54.479Z</time></trkpt><trkpt lat="45.6257776" lon="9.5030913"><ele>213.0</ele><time>2026-04-14T14:12:55.479Z</time></trkpt><trkpt lat="45.6258462" lon="9.5030215"><ele>214.2</ele><time>2026-04-14T14:12:56.479Z</time></trkpt><trkpt lat="45.6259097" lon="9.5029137"><ele>215.4</ele><time>2026-04-14T14:12:57.478Z</time></trkpt><trkpt lat="45.6259492" lon="9.5027732"><ele>216.59999999999997</ele><time>2026-04-14T14:12:59.479Z</time></trkpt><trkpt lat="45.626014" lon="9.5026925"><ele>217.79999999999998</ele><time>2026-04-14T14:13:00.478Z</time></trkpt><trkpt lat="45.6260467" lon="9.5025591"><ele>219.0</ele><time>2026-04-14T14:13:01.478Z</time></trkpt><trkpt lat="45.6261014" lon="9.5025132"><ele>217.2</ele><time>2026-04-14T14:13:02.478Z</time></trkpt><trkpt lat="45.62615" lon="9.5023858"><ele>215.39999999999998</ele><time>2026-04-14T14:13:03.479Z</time></trkpt><trkpt lat="45.6262111" lon="9.5022987"><ele>213.6</ele><time>2026-04-14T14:13:04.479Z</time></trkpt><trkpt lat="45.6262576" lon="9.5021948"><ele>211.8</ele><time>2026-04-14T14:13:06.478Z</time></trkpt><trkpt lat="45.6263295" lon="9.5020676"><ele>210.0</ele><time>2026-04-14T14:13:07.479Z</time></trkpt><trkpt lat="45.6263887" lon="9.5019596"><ele>210.0</ele><time>2026-04-14T14:13:08.479Z</time></trkpt><trkpt lat="45.6264496" lon="9.5018553"><ele>210.0</ele><time>2026-04-14T14:13:09.479Z</time></trkpt><trkpt lat="45.6264833" lon="9.5017497"><ele>210.0</ele><time>2026-04-14T14:13:10.479Z</time></trkpt><trkpt lat="45.6265879" lon="9.5016468"><ele>210.0</ele><time>2026-04-14T14:13:12.478Z</time></trkpt><trkpt lat="45.6266349" lon="9.5015595"><ele>210.0</ele><time>2026-04-14T14:13:13.479Z</time></trkpt><trkpt lat="45.6266587" lon="9.5014468"><ele>210.0</ele><time>2026-04-14T14:13:14.479Z</time></trkpt><trkpt lat="45.6266954" lon="9.5013339"><ele>210.0</ele><time>2026-04-14T14:13:15.478Z</time></trkpt><trkpt lat="45.6267145" lon="9.5012427"><ele>210.0</ele><time>2026-04-14T14:13:16.479Z</time></trkpt><trkpt lat="45.6267587" lon="9.5011452"><ele>210.0</ele><time>2026-04-14T14:13:17.479Z</time></trkpt><trkpt lat="45.6268096" lon="9.501062"><ele>210.0</ele><time>2026-04-14T14:13:18.479Z</time></trkpt><trkpt lat="45.626903" lon="9.5009897"><ele>210.0</ele><time>2026-04-14T14:13:20.478Z</time></trkpt><trkpt lat="45.626929" lon="9.5009067"><ele>209.83333333333334</ele><time>2026-04-14T14:13:21.479Z</time></trkpt><trkpt lat="45.6269722" lon="9.5008229"><ele>209.66666666666669</ele><time>2026-04-14T14:13:22.478Z</time></trkpt><trkpt lat="45.6269949" lon="9.5007363"><ele>209.5</ele><time>2026-04-14T14:13:23.479Z</time></trkpt><trkpt lat="45.6270502" lon="9.500619"><ele>209.33333333333334</ele><time>2026-04-14T14:13:24.479Z</time></trkpt><trkpt lat="45.6270709" lon="9.5005115"><ele>209.16666666666669</ele><time>2026-04-14T14:13:25.479Z</time></trkpt><trkpt lat="45.6271195" lon="9.5003411"><ele>209.0</ele><time>2026-04-14T14:13:26.479Z</time></trkpt><trkpt lat="45.6271626" lon="9.5002231"><ele>209.00000000000003</ele><time>2026-04-14T14:13:27.478Z</time></trkpt><trkpt lat="45.627204" lon="9.5001287"><ele>209.0</ele><time>2026-04-14T14:13:28.479Z</time></trkpt><trkpt lat="45.6272327" lon="9.5000349"><ele>209.0</ele><time>2026-04-14T14:13:29.479Z</time></trkpt><trkpt lat="45.6272746" lon="9.4999191"><ele>209.0</ele><time>2026-04-14T14:13:30.479Z</time></trkpt><trkpt lat="45.6273189" lon="9.4998277"><ele>209.00000000000003</ele><time>2026-04-14T14:13:31.479Z</time></trkpt><trkpt lat="45.6273635" lon="9.4997142"><ele>209.0</ele><time>2026-04-14T14:13:32.479Z</time></trkpt><trkpt lat="45.6274034" lon="9.4995987"><ele>211.2</ele><time>2026-04-14T14:13:33.479Z</time></trkpt><trkpt lat="45.6274211" lon="9.4995038"><ele>213.39999999999998</ele><time>2026-04-14T14:13:34.478Z</time></trkpt><trkpt lat="45.6274367" lon="9.4993585"><ele>215.6</ele><time>2026-04-14T14:13:35.478Z</time></trkpt><trkpt lat="45.6274908" lon="9.4992622"><ele>217.8</ele><time>2026-04-14T14:13:36.478Z</time></trkpt><trkpt lat="45.6275315" lon="9.4991348"><ele>220.0</ele><time>2026-04-14T14:13:37.478Z</time></trkpt><trkpt lat="45.627624" lon="9.4989994"><ele>220.0</ele><time>2026-04-14T14:13:39.479Z</time></trkpt><trkpt lat="45.6276544" lon="9.4988562"><ele>220.0</ele><time>2026-04-14T14:13:40.479Z</time></trkpt><trkpt lat="45.6277139" lon="9.4987724"><ele>220.0</ele><time>2026-04-14T14:13:41.478Z</time></trkpt><trkpt lat="45.6277448" lon="9.4986627"><ele>220.0</ele><time>2026-04-14T14:13:42.478Z</time></trkpt><trkpt lat="45.6278133" lon="9.4985528"><ele>220.0</ele><time>2026-04-14T14:13:43.479Z</time></trkpt><trkpt lat="45.6278674" lon="9.4984424"><ele>217.4</ele><time>2026-04-14T14:13:44.479Z</time></trkpt><trkpt lat="45.6279525" lon="9.4983417"><ele>214.8</ele><time>2026-04-14T14:13:45.479Z</time></trkpt><trkpt lat="45.6279874" lon="9.4982388"><ele>212.2</ele><time>2026-04-14T14:13:46.478Z</time></trkpt><trkpt lat="45.6280391" lon="9.4981628"><ele>209.6</ele><time>2026-04-14T14:13:47.479Z</time></trkpt><trkpt lat="45.6280987" lon="9.4980508"><ele>207.0</ele><time>2026-04-14T14:13:48.479Z</time></trkpt><trkpt lat="45.6281753" lon="9.4979691"><ele>209.33333333333334</ele><time>2026-04-14T14:13:49.478Z</time></trkpt><trkpt lat="45.628229" lon="9.4979037"><ele>211.66666666666669</ele><time>2026-04-14T14:13:50.478Z</time></trkpt><trkpt lat="45.6282982" lon="9.4978462"><ele>214.0</ele><time>2026-04-14T14:13:51.479Z</time></trkpt><trkpt lat="45.6283548" lon="9.4977821"><ele>216.33333333333334</ele><time>2026-04-14T14:13:52.479Z</time></trkpt><trkpt lat="45.6284081" lon="9.497667"><ele>218.66666666666669</ele><time>2026-04-14T14:13:53.479Z</time></trkpt><trkpt lat="45.6284784" lon="9.4975808"><ele>221.0</ele><time>2026-04-14T14:13:54.478Z</time></trkpt><trkpt lat="45.6285401" lon="9.4974727"><ele>221.0</ele><time>2026-04-14T14:13:55.479Z</time></trkpt><trkpt lat="45.6286376" lon="9.4974003"><ele>221.00000000000003</ele><time>2026-04-14T14:13:56.478Z</time></trkpt><trkpt lat="45.6286725" lon="9.4972982"><ele>221.00000000000003</ele><time>2026-04-14T14:13:57.478Z</time></trkpt><trkpt lat="45.6287073" lon="9.4972037"><ele>221.0</ele><time>2026-04-14T14:13:58.479Z</time></trkpt><trkpt lat="45.6288" lon="9.4971841"><ele>221.0</ele><time>2026-04-14T14:13:59.479Z</time></trkpt><trkpt lat="45.6288932" lon="9.4971515"><ele>221.0</ele><time>2026-04-14T14:14:00.479Z</time></trkpt><trkpt lat="45.62895" lon="9.4970019"><ele>221.00000000000003</ele><time>2026-04-14T14:14:01.479Z</time></trkpt><trkpt lat="45.6290035" lon="9.4968912"><ele>221.00000000000003</ele><time>2026-04-14T14:14:02.479Z</time></trkpt><trkpt lat="45.6290811" lon="9.4967986"><ele>221.0</ele><time>2026-04-14T14:14:04.479Z</time></trkpt><trkpt lat="45.6291404" lon="9.4966872"><ele>221.0</ele><time>2026-04-14T14:14:06.479Z</time></trkpt><trkpt lat="45.6291691" lon="9.4966013"><ele>221.0</ele><time>2026-04-14T14:14:07.478Z</time></trkpt><trkpt lat="45.6292716" lon="9.4964661"><ele>221.00000000000003</ele><time>2026-04-14T14:14:09.478Z</time></trkpt><trkpt lat="45.6293024" lon="9.4963642"><ele>221.00000000000003</ele><time>2026-04-14T14:14:10.478Z</time></trkpt><trkpt lat="45.6293388" lon="9.4962603"><ele>221.0</ele><time>2026-04-14T14:14:11.479Z</time></trkpt><trkpt lat="45.6293927" lon="9.4961579"><ele>221.0</ele><time>2026-04-14T14:14:12.479Z</time></trkpt><trkpt lat="45.6294104" lon="9.4960352"><ele>221.66666666666669</ele><time>2026-04-14T14:14:13.479Z</time></trkpt><trkpt lat="45.629461" lon="9.4959275"><ele>222.33333333333334</ele><time>2026-04-14T14:14:14.479Z</time></trkpt><trkpt lat="45.629538" lon="9.4958363"><ele>223.0</ele><time>2026-04-14T14:14:15.478Z</time></trkpt><trkpt lat="45.6295857" lon="9.495765"><ele>223.66666666666669</ele><time>2026-04-14T14:14:16.479Z</time></trkpt><trkpt lat="45.6296201" lon="9.495686"><ele>224.33333333333334</ele><time>2026-04-14T14:14:17.479Z</time></trkpt><trkpt lat="45.6296937" lon="9.4955978"><ele>225.0</ele><time>2026-04-14T14:14:18.479Z</time></trkpt><trkpt lat="45.6297444" lon="9.4954769"><ele>224.83333333333334</ele><time>2026-04-14T14:14:20.478Z</time></trkpt><trkpt lat="45.629785" lon="9.4953882"><ele>224.66666666666669</ele><time>2026-04-14T14:14:21.479Z</time></trkpt><trkpt lat="45.6298309" lon="9.4952687"><ele>224.5</ele><time>2026-04-14T14:14:22.478Z</time></trkpt><trkpt lat="45.6298697" lon="9.4951189"><ele>224.33333333333334</ele><time>2026-04-14T14:14:24.478Z</time></trkpt><trkpt lat="45.629888" lon="9.4950301"><ele>224.16666666666669</ele><time>2026-04-14T14:14:25.479Z</time></trkpt><trkpt lat="45.6299401" lon="9.4949186"><ele>224.0</ele><time>2026-04-14T14:14:26.479Z</time></trkpt><trkpt lat="45.6300015" lon="9.4948172"><ele>224.00000000000003</ele><time>2026-04-14T14:14:27.479Z</time></trkpt><trkpt lat="45.6300468" lon="9.4947438"><ele>224.0</ele><time>2026-04-14T14:14:28.479Z</time></trkpt><trkpt lat="45.6301033" lon="9.494649"><ele>224.0</ele><time>2026-04-14T14:14:29.479Z</time></trkpt><trkpt lat="45.6301418" lon="9.4945537"><ele>224.0</ele><time>2026-04-14T14:14:30.478Z</time></trkpt><trkpt lat="45.6302205" lon="9.4944174"><ele>224.00000000000003</ele><time>2026-04-14T14:14:31.479Z</time></trkpt><trkpt lat="45.630266" lon="9.4943192"><ele>224.0</ele><time>2026-04-14T14:14:32.478Z</time></trkpt><trkpt lat="45.6303098" lon="9.4942461"><ele>224.50000000000003</ele><time>2026-04-14T14:14:33.478Z</time></trkpt><trkpt lat="45.6303697" lon="9.4941696"><ele>225.0</ele><time>2026-04-14T14:14:34.478Z</time></trkpt><trkpt lat="45.6304648" lon="9.4940454"><ele>225.5</ele><time>2026-04-14T14:14:36.479Z</time></trkpt><trkpt lat="45.6305057" lon="9.4939518"><ele>226.0</ele><time>2026-04-14T14:14:37.479Z</time></trkpt><trkpt lat="45.6305434" lon="9.4938524"><ele>226.50000000000003</ele><time>2026-04-14T14:14:38.479Z</time></trkpt><trkpt lat="45.6305836" lon="9.4937746"><ele>227.0</ele><time>2026-04-14T14:14:39.479Z</time></trkpt><trkpt lat="45.6306189" lon="9.493697"><ele>227.0</ele><time>2026-04-14T14:14:40.479Z</time></trkpt><trkpt lat="45.6306675" lon="9.4936167"><ele>227.0</ele><time>2026-04-14T14:14:41.479Z</time></trkpt><trkpt lat="45.6307068" lon="9.4934601"><ele>227.0</ele><time>2026-04-14T14:14:43.478Z</time></trkpt><trkpt lat="45.630678" lon="9.4932974"><ele>227.0</ele><time>2026-04-14T14:14:45.479Z</time></trkpt><trkpt lat="45.6306417" lon="9.493203"><ele>227.0</ele><time>2026-04-14T14:14:47.479Z</time></trkpt><trkpt lat="45.6305395" lon="9.4931305"><ele>227.0</ele><time>2026-04-14T14:14:49.479Z</time></trkpt><trkpt lat="45.6304637" lon="9.4930608"><ele>227.0</ele><time>2026-04-14T14:14:50.479Z</time></trkpt><trkpt lat="45.6303607" lon="9.4929475"><ele>227.0</ele><time>2026-04-14T14:14:51.478Z</time></trkpt><trkpt lat="45.6303008" lon="9.492919"><ele>227.0</ele><time>2026-04-14T14:14:52.479Z</time></trkpt><trkpt lat="45.6302367" lon="9.492852"><ele>227.0</ele><time>2026-04-14T14:14:53.478Z</time></trkpt><trkpt lat="45.6300942" lon="9.4927204"><ele>226.16666666666669</ele><time>2026-04-14T14:14:55.479Z</time></trkpt><trkpt lat="45.6300016" lon="9.4926449"><ele>225.33333333333334</ele><time>2026-04-14T14:14:56.478Z</time></trkpt><trkpt lat="45.6299246" lon="9.49258"><ele>224.5</ele><time>2026-04-14T14:14:57.479Z</time></trkpt><trkpt lat="45.6298506" lon="9.492581"><ele>223.66666666666669</ele><time>2026-04-14T14:14:58.478Z</time></trkpt><trkpt lat="45.6297928" lon="9.4925449"><ele>222.83333333333334</ele><time>2026-04-14T14:14:59.479Z</time></trkpt><trkpt lat="45.6297245" lon="9.4925311"><ele>222.0</ele><time>2026-04-14T14:15:00.479Z</time></trkpt><trkpt lat="45.6296546" lon="9.4925043"><ele>222.0</ele><time>2026-04-14T14:15:01.478Z</time></trkpt><trkpt lat="45.6295811" lon="9.4924105"><ele>222.0</ele><time>2026-04-14T14:15:02.479Z</time></trkpt><trkpt lat="45.629497" lon="9.4923889"><ele>222.0</ele><time>2026-04-14T14:15:03.479Z</time></trkpt><trkpt lat="45.6294363" lon="9.4923508"><ele>222.0</ele><time>2026-04-14T14:15:04.478Z</time></trkpt><trkpt lat="45.6293607" lon="9.4923531"><ele>222.0</ele><time>2026-04-14T14:15:05.478Z</time></trkpt><trkpt lat="45.6292895" lon="9.4922822"><ele>222.0</ele><time>2026-04-14T14:15:06.479Z</time></trkpt><trkpt lat="45.6292194" lon="9.4922581"><ele>221.83333333333334</ele><time>2026-04-14T14:15:07.479Z</time></trkpt><trkpt lat="45.6291346" lon="9.4921792"><ele>221.66666666666669</ele><time>2026-04-14T14:15:08.478Z</time></trkpt><trkpt lat="45.629071" lon="9.4921575"><ele>221.5</ele><time>2026-04-14T14:15:09.479Z</time></trkpt><trkpt lat="45.6289932" lon="9.4921199"><ele>221.33333333333334</ele><time>2026-04-14T14:15:10.479Z</time></trkpt><trkpt lat="45.6289134" lon="9.4920512"><ele>221.16666666666669</ele><time>2026-04-14T14:15:11.478Z</time></trkpt><trkpt lat="45.628838" lon="9.4920144"><ele>221.0</ele><time>2026-04-14T14:15:12.478Z</time></trkpt><trkpt lat="45.6287785" lon="9.4919476"><ele>221.0</ele><time>2026-04-14T14:15:13.478Z</time></trkpt><trkpt lat="45.6287096" lon="9.4919044"><ele>221.00000000000003</ele><time>2026-04-14T14:15:14.479Z</time></trkpt><trkpt lat="45.6286334" lon="9.4918475"><ele>221.00000000000003</ele><time>2026-04-14T14:15:15.479Z</time></trkpt><trkpt lat="45.6285517" lon="9.4917714"><ele>221.0</ele><time>2026-04-14T14:15:16.479Z</time></trkpt><trkpt lat="45.6284506" lon="9.4916914"><ele>221.0</ele><time>2026-04-14T14:15:17.479Z</time></trkpt><trkpt lat="45.628379" lon="9.4916359"><ele>220.83333333333334</ele><time>2026-04-14T14:15:18.478Z</time></trkpt><trkpt lat="45.6283143" lon="9.4916107"><ele>220.66666666666669</ele><time>2026-04-14T14:15:19.478Z</time></trkpt><trkpt lat="45.6282321" lon="9.491546"><ele>220.5</ele><time>2026-04-14T14:15:20.479Z</time></trkpt><trkpt lat="45.6281577" lon="9.4914797"><ele>220.33333333333331</ele><time>2026-04-14T14:15:21.479Z</time></trkpt><trkpt lat="45.6280778" lon="9.4914049"><ele>220.16666666666666</ele><time>2026-04-14T14:15:22.479Z</time></trkpt><trkpt lat="45.6280085" lon="9.491377"><ele>220.0</ele><time>2026-04-14T14:15:23.479Z</time></trkpt><trkpt lat="45.6279339" lon="9.4912986"><ele>220.16666666666666</ele><time>2026-04-14T14:15:24.479Z</time></trkpt><trkpt lat="45.627871" lon="9.4912285"><ele>220.33333333333331</ele><time>2026-04-14T14:15:25.479Z</time></trkpt><trkpt lat="45.6277956" lon="9.491189"><ele>220.5</ele><time>2026-04-14T14:15:26.478Z</time></trkpt><trkpt lat="45.6277116" lon="9.4911152"><ele>220.66666666666669</ele><time>2026-04-14T14:15:27.478Z</time></trkpt><trkpt lat="45.627641" lon="9.4910684"><ele>220.83333333333334</ele><time>2026-04-14T14:15:28.479Z</time></trkpt><trkpt lat="45.6275689" lon="9.4910135"><ele>221.0</ele><time>2026-04-14T14:15:29.478Z</time></trkpt><trkpt lat="45.6274906" lon="9.4909035"><ele>220.50000000000003</ele><time>2026-04-14T14:15:30.478Z</time></trkpt><trkpt lat="45.6274319" lon="9.4908565"><ele>220.0</ele><time>2026-04-14T14:15:31.478Z</time></trkpt><trkpt lat="45.6273602" lon="9.4908329"><ele>219.5</ele><time>2026-04-14T14:15:32.479Z</time></trkpt><trkpt lat="45.6272909" lon="9.4908226"><ele>219.0</ele><time>2026-04-14T14:15:33.478Z</time></trkpt><trkpt lat="45.6272103" lon="9.4907793"><ele>218.50000000000003</ele><time>2026-04-14T14:15:34.479Z</time></trkpt><trkpt lat="45.6270727" lon="9.4906988"><ele>218.0</ele><time>2026-04-14T14:15:36.479Z</time></trkpt><trkpt lat="45.6270096" lon="9.4906602"><ele>218.00000000000003</ele><time>2026-04-14T14:15:37.479Z</time></trkpt><trkpt lat="45.6269389" lon="9.4905921"><ele>218.0</ele><time>2026-04-14T14:15:38.478Z</time></trkpt><trkpt lat="45.6268745" lon="9.4905854"><ele>218.0</ele><time>2026-04-14T14:15:39.479Z</time></trkpt><trkpt lat="45.6268073" lon="9.4905544"><ele>218.0</ele><time>2026-04-14T14:15:40.478Z</time></trkpt><trkpt lat="45.6267227" lon="9.4904442"><ele>218.00000000000003</ele><time>2026-04-14T14:15:41.479Z</time></trkpt><trkpt lat="45.6266358" lon="9.4903616"><ele>218.0</ele><time>2026-04-14T14:15:42.479Z</time></trkpt><trkpt lat="45.62655" lon="9.4902845"><ele>218.0</ele><time>2026-04-14T14:15:43.479Z</time></trkpt><trkpt lat="45.6264603" lon="9.4902278"><ele>218.0</ele><time>2026-04-14T14:15:44.478Z</time></trkpt><trkpt lat="45.6263839" lon="9.4901871"><ele>218.0</ele><time>2026-04-14T14:15:45.479Z</time></trkpt><trkpt lat="45.6263092" lon="9.4901153"><ele>218.0</ele><time>2026-04-14T14:15:46.479Z</time></trkpt><trkpt lat="45.626155" lon="9.4899874"><ele>218.0</ele><time>2026-04-14T14:15:48.478Z</time></trkpt><trkpt lat="45.6260863" lon="9.4899262"><ele>218.33333333333334</ele><time>2026-04-14T14:15:49.478Z</time></trkpt><trkpt lat="45.6260208" lon="9.4899076"><ele>218.66666666666669</ele><time>2026-04-14T14:15:50.479Z</time></trkpt><trkpt lat="45.6259441" lon="9.4899025"><ele>219.0</ele><time>2026-04-14T14:15:51.479Z</time></trkpt><trkpt lat="45.6258723" lon="9.489854"><ele>219.33333333333331</ele><time>2026-04-14T14:15:52.478Z</time></trkpt><trkpt lat="45.6257883" lon="9.489781"><ele>219.66666666666666</ele><time>2026-04-14T14:15:53.479Z</time></trkpt><trkpt lat="45.6257054" lon="9.4897113"><ele>220.0</ele><time>2026-04-14T14:15:54.478Z</time></trkpt><trkpt lat="45.625639" lon="9.4896749"><ele>220.0</ele><time>2026-04-14T14:15:55.478Z</time></trkpt><trkpt lat="45.6255625" lon="9.4896637"><ele>220.0</ele><time>2026-04-14T14:15:56.478Z</time></trkpt><trkpt lat="45.6254901" lon="9.4896026"><ele>220.0</ele><time>2026-04-14T14:15:57.479Z</time></trkpt><trkpt lat="45.6254062" lon="9.4894872"><ele>220.0</ele><time>2026-04-14T14:15:58.479Z</time></trkpt><trkpt lat="45.6253287" lon="9.4894377"><ele>220.0</ele><time>2026-04-14T14:15:59.479Z</time></trkpt><trkpt lat="45.6252385" lon="9.4894302"><ele>219.16666666666666</ele><time>2026-04-14T14:16:00.479Z</time></trkpt><trkpt lat="45.6251548" lon="9.4893803"><ele>218.33333333333331</ele><time>2026-04-14T14:16:01.479Z</time></trkpt><trkpt lat="45.6250859" lon="9.4893387"><ele>217.5</ele><time>2026-04-14T14:16:02.479Z</time></trkpt><trkpt lat="45.625012" lon="9.4892792"><ele>216.66666666666669</ele><time>2026-04-14T14:16:03.478Z</time></trkpt><trkpt lat="45.6249394" lon="9.4892282"><ele>215.83333333333334</ele><time>2026-04-14T14:16:04.478Z</time></trkpt><trkpt lat="45.6248631" lon="9.4891822"><ele>215.0</ele><time>2026-04-14T14:16:05.478Z</time></trkpt><trkpt lat="45.6247889" lon="9.4891359"><ele>215.00000000000003</ele><time>2026-04-14T14:16:06.479Z</time></trkpt><trkpt lat="45.6247208" lon="9.4890853"><ele>215.0</ele><time>2026-04-14T14:16:07.478Z</time></trkpt><trkpt lat="45.6246637" lon="9.4890436"><ele>215.0</ele><time>2026-04-14T14:16:08.479Z</time></trkpt><trkpt lat="45.6245791" lon="9.4889373"><ele>215.0</ele><time>2026-04-14T14:16:10.478Z</time></trkpt><trkpt lat="45.6245945" lon="9.4888364"><ele>215.00000000000003</ele><time>2026-04-14T14:16:12.479Z</time></trkpt><trkpt lat="45.6246008" lon="9.4887337"><ele>215.0</ele><time>2026-04-14T14:16:13.479Z</time></trkpt><trkpt lat="45.6246658" lon="9.4884973"><ele>215.0</ele><time>2026-04-14T14:16:15.479Z</time></trkpt><trkpt lat="45.6247262" lon="9.4883808"><ele>215.0</ele><time>2026-04-14T14:16:16.478Z</time></trkpt><trkpt lat="45.6247759" lon="9.4882054"><ele>215.0</ele><time>2026-04-14T14:16:18.479Z</time></trkpt><trkpt lat="45.6248015" lon="9.4881099"><ele>215.0</ele><time>2026-04-14T14:16:19.478Z</time></trkpt><trkpt lat="45.6248693" lon="9.4879799"><ele>215.0</ele><time>2026-04-14T14:16:21.479Z</time></trkpt><trkpt lat="45.6249123" lon="9.4878792"><ele>215.00000000000003</ele><time>2026-04-14T14:16:22.479Z</time></trkpt><trkpt lat="45.624959" lon="9.4877919"><ele>215.0</ele><time>2026-04-14T14:16:23.479Z</time></trkpt><trkpt lat="45.6250062" lon="9.4876981"><ele>215.0</ele><time>2026-04-14T14:16:24.479Z</time></trkpt><trkpt lat="45.6250371" lon="9.4876159"><ele>215.0</ele><time>2026-04-14T14:16:25.479Z</time></trkpt><trkpt lat="45.6251012" lon="9.4875233"><ele>215.00000000000003</ele><time>2026-04-14T14:16:26.479Z</time></trkpt><trkpt lat="45.6251483" lon="9.4874375"><ele>215.0</ele><time>2026-04-14T14:16:27.479Z</time></trkpt><trkpt lat="45.6251994" lon="9.4873511"><ele>215.00000000000003</ele><time>2026-04-14T14:16:28.479Z</time></trkpt><trkpt lat="45.6252357" lon="9.4872685"><ele>215.0</ele><time>2026-04-14T14:16:29.479Z</time></trkpt><trkpt lat="45.6253006" lon="9.4870988"><ele>215.0</ele><time>2026-04-14T14:16:31.479Z</time></trkpt><trkpt lat="45.6253363" lon="9.4870228"><ele>215.0</ele><time>2026-04-14T14:16:32.479Z</time></trkpt><trkpt lat="45.625402" lon="9.486916"><ele>215.00000000000003</ele><time>2026-04-14T14:16:33.478Z</time></trkpt><trkpt lat="45.6254394" lon="9.4868357"><ele>215.0</ele><time>2026-04-14T14:16:34.478Z</time></trkpt><trkpt lat="45.6254767" lon="9.4867422"><ele>215.2</ele><time>2026-04-14T14:16:35.479Z</time></trkpt><trkpt lat="45.6255193" lon="9.4866513"><ele>215.4</ele><time>2026-04-14T14:16:36.478Z</time></trkpt><trkpt lat="45.6255848" lon="9.4865256"><ele>215.60000000000002</ele><time>2026-04-14T14:16:37.478Z</time></trkpt><trkpt lat="45.6256198" lon="9.486429"><ele>215.8</ele><time>2026-04-14T14:16:38.479Z</time></trkpt><trkpt lat="45.6256446" lon="9.4863153"><ele>216.0</ele><time>2026-04-14T14:16:39.478Z</time></trkpt><trkpt lat="45.6257068" lon="9.4861409"><ele>216.16666666666666</ele><time>2026-04-14T14:16:41.478Z</time></trkpt><trkpt lat="45.6257282" lon="9.4860318"><ele>216.33333333333331</ele><time>2026-04-14T14:16:42.478Z</time></trkpt><trkpt lat="45.6257594" lon="9.4859336"><ele>216.5</ele><time>2026-04-14T14:16:43.478Z</time></trkpt><trkpt lat="45.6258063" lon="9.4858032"><ele>216.66666666666666</ele><time>2026-04-14T14:16:44.478Z</time></trkpt><trkpt lat="45.6258474" lon="9.4856679"><ele>216.83333333333331</ele><time>2026-04-14T14:16:45.479Z</time></trkpt><trkpt lat="45.6258794" lon="9.4855632"><ele>217.0</ele><time>2026-04-14T14:16:46.478Z</time></trkpt><trkpt lat="45.6259408" lon="9.4854199"><ele>217.0</ele><time>2026-04-14T14:16:48.479Z</time></trkpt><trkpt lat="45.6259863" lon="9.4853238"><ele>217.0</ele><time>2026-04-14T14:16:49.479Z</time></trkpt><trkpt lat="45.6260131" lon="9.4852224"><ele>217.0</ele><time>2026-04-14T14:16:50.478Z</time></trkpt><trkpt lat="45.6260755" lon="9.4851064"><ele>217.0</ele><time>2026-04-14T14:16:51.479Z</time></trkpt><trkpt lat="45.6261026" lon="9.485016"><ele>217.0</ele><time>2026-04-14T14:16:52.479Z</time></trkpt><trkpt lat="45.6261573" lon="9.4848472"><ele>217.2</ele><time>2026-04-14T14:16:54.479Z</time></trkpt><trkpt lat="45.6262033" lon="9.4847145"><ele>217.39999999999998</ele><time>2026-04-14T14:16:55.478Z</time></trkpt><trkpt lat="45.6262517" lon="9.4846003"><ele>217.60000000000002</ele><time>2026-04-14T14:16:56.478Z</time></trkpt><trkpt lat="45.6262953" lon="9.4844847"><ele>217.8</ele><time>2026-04-14T14:16:57.478Z</time></trkpt><trkpt lat="45.6263498" lon="9.4843513"><ele>218.0</ele><time>2026-04-14T14:16:58.478Z</time></trkpt><trkpt lat="45.6264036" lon="9.4842416"><ele>218.2</ele><time>2026-04-14T14:16:59.479Z</time></trkpt><trkpt lat="45.6264315" lon="9.4840768"><ele>218.4</ele><time>2026-04-14T14:17:01.478Z</time></trkpt><trkpt lat="45.6264849" lon="9.4839053"><ele>218.59999999999997</ele><time>2026-04-14T14:17:03.479Z</time></trkpt><trkpt lat="45.6265319" lon="9.4837885"><ele>218.79999999999998</ele><time>2026-04-14T14:17:04.478Z</time></trkpt><trkpt lat="45.6265848" lon="9.4836621"><ele>219.0</ele><time>2026-04-14T14:17:05.479Z</time></trkpt><trkpt lat="45.6266131" lon="9.4835682"><ele>219.0</ele><time>2026-04-14T14:17:06.479Z</time></trkpt><trkpt lat="45.6266461" lon="9.4834754"><ele>219.0</ele><time>2026-04-14T14:17:07.479Z</time></trkpt><trkpt lat="45.6266875" lon="9.4833609"><ele>219.0</ele><time>2026-04-14T14:17:08.479Z</time></trkpt><trkpt lat="45.6267248" lon="9.4832771"><ele>219.0</ele><time>2026-04-14T14:17:09.479Z</time></trkpt><trkpt lat="45.6267602" lon="9.483201"><ele>219.0</ele><time>2026-04-14T14:17:10.478Z</time></trkpt><trkpt lat="45.6267904" lon="9.4831059"><ele>219.0</ele><time>2026-04-14T14:17:11.479Z</time></trkpt><trkpt lat="45.6268258" lon="9.482994"><ele>219.0</ele><time>2026-04-14T14:17:12.479Z</time></trkpt><trkpt lat="45.6268489" lon="9.4828978"><ele>219.0</ele><time>2026-04-14T14:17:13.479Z</time></trkpt><trkpt lat="45.6268807" lon="9.4827752"><ele>219.0</ele><time>2026-04-14T14:17:14.479Z</time></trkpt><trkpt lat="45.6269147" lon="9.4826668"><ele>219.0</ele><time>2026-04-14T14:17:15.479Z</time></trkpt><trkpt lat="45.6269401" lon="9.4825608"><ele>219.0</ele><time>2026-04-14T14:17:16.479Z</time></trkpt><trkpt lat="45.6269693" lon="9.4824666"><ele>219.0</ele><time>2026-04-14T14:17:17.479Z</time></trkpt><trkpt lat="45.627003" lon="9.4823729"><ele>219.0</ele><time>2026-04-14T14:17:18.479Z</time></trkpt><trkpt lat="45.6270366" lon="9.4822687"><ele>218.99999999999997</ele><time>2026-04-14T14:17:19.478Z</time></trkpt><trkpt lat="45.6270615" lon="9.4821795"><ele>218.99999999999997</ele><time>2026-04-14T14:17:20.479Z</time></trkpt><trkpt lat="45.6270908" lon="9.4820723"><ele>219.0</ele><time>2026-04-14T14:17:21.478Z</time></trkpt><trkpt lat="45.6271151" lon="9.4819621"><ele>219.0</ele><time>2026-04-14T14:17:22.479Z</time></trkpt><trkpt lat="45.62722" lon="9.4817649"><ele>219.0</ele><time>2026-04-14T14:17:24.479Z</time></trkpt><trkpt lat="45.6272609" lon="9.4816491"><ele>219.0</ele><time>2026-04-14T14:17:25.479Z</time></trkpt><trkpt lat="45.6272893" lon="9.4815626"><ele>219.0</ele><time>2026-04-14T14:17:26.479Z</time></trkpt><trkpt lat="45.6273381" lon="9.4814392"><ele>219.0</ele><time>2026-04-14T14:17:27.479Z</time></trkpt><trkpt lat="45.627376" lon="9.4813444"><ele>219.0</ele><time>2026-04-14T14:17:28.478Z</time></trkpt><trkpt lat="45.6274073" lon="9.4812456"><ele>219.0</ele><time>2026-04-14T14:17:29.479Z</time></trkpt><trkpt lat="45.6274613" lon="9.4811461"><ele>219.0</ele><time>2026-04-14T14:17:30.479Z</time></trkpt><trkpt lat="45.6275028" lon="9.4810385"><ele>219.0</ele><time>2026-04-14T14:17:31.478Z</time></trkpt><trkpt lat="45.6275417" lon="9.4809363"><ele>219.0</ele><time>2026-04-14T14:17:32.478Z</time></trkpt><trkpt lat="45.6275818" lon="9.4808328"><ele>219.0</ele><time>2026-04-14T14:17:33.478Z</time></trkpt><trkpt lat="45.6276181" lon="9.4807282"><ele>219.0</ele><time>2026-04-14T14:17:34.479Z</time></trkpt><trkpt lat="45.6276654" lon="9.4806242"><ele>219.0</ele><time>2026-04-14T14:17:35.478Z</time></trkpt><trkpt lat="45.6276961" lon="9.4805371"><ele>219.0</ele><time>2026-04-14T14:17:36.479Z</time></trkpt><trkpt lat="45.6277472" lon="9.4804349"><ele>219.0</ele><time>2026-04-14T14:17:37.479Z</time></trkpt><trkpt lat="45.6277878" lon="9.4803451"><ele>219.0</ele><time>2026-04-14T14:17:38.478Z</time></trkpt><trkpt lat="45.627818" lon="9.4802279"><ele>219.0</ele><time>2026-04-14T14:17:39.479Z</time></trkpt><trkpt lat="45.6278383" lon="9.4801165"><ele>219.0</ele><time>2026-04-14T14:17:40.479Z</time></trkpt><trkpt lat="45.6279007" lon="9.4799746"><ele>219.0</ele><time>2026-04-14T14:17:41.478Z</time></trkpt><trkpt lat="45.6279648" lon="9.479815"><ele>219.0</ele><time>2026-04-14T14:17:43.479Z</time></trkpt><trkpt lat="45.6280099" lon="9.4796873"><ele>219.0</ele><time>2026-04-14T14:17:44.479Z</time></trkpt><trkpt lat="45.628045" lon="9.4795838"><ele>219.0</ele><time>2026-04-14T14:17:45.478Z</time></trkpt><trkpt lat="45.6280767" lon="9.4794888"><ele>219.0</ele><time>2026-04-14T14:17:46.478Z</time></trkpt><trkpt lat="45.628105" lon="9.4793986"><ele>219.0</ele><time>2026-04-14T14:17:47.479Z</time></trkpt><trkpt lat="45.6281347" lon="9.4793048"><ele>219.0</ele><time>2026-04-14T14:17:48.479Z</time></trkpt><trkpt lat="45.6281669" lon="9.4792031"><ele>219.0</ele><time>2026-04-14T14:17:49.479Z</time></trkpt><trkpt lat="45.628211" lon="9.479078"><ele>218.99999999999997</ele><time>2026-04-14T14:17:50.479Z</time></trkpt><trkpt lat="45.6282452" lon="9.4789742"><ele>218.99999999999997</ele><time>2026-04-14T14:17:51.478Z</time></trkpt><trkpt lat="45.628295" lon="9.4788562"><ele>219.0</ele><time>2026-04-14T14:17:52.478Z</time></trkpt><trkpt lat="45.6283386" lon="9.4787325"><ele>219.0</ele><time>2026-04-14T14:17:53.479Z</time></trkpt><trkpt lat="45.628377" lon="9.4786314"><ele>219.0</ele><time>2026-04-14T14:17:54.478Z</time></trkpt><trkpt lat="45.6284074" lon="9.4785077"><ele>219.0</ele><time>2026-04-14T14:17:55.479Z</time></trkpt><trkpt lat="45.6284358" lon="9.4783858"><ele>219.0</ele><time>2026-04-14T14:17:56.479Z</time></trkpt><trkpt lat="45.6284716" lon="9.4782788"><ele>219.0</ele><time>2026-04-14T14:17:57.478Z</time></trkpt><trkpt lat="45.6285118" lon="9.4781583"><ele>219.0</ele><time>2026-04-14T14:17:58.479Z</time></trkpt><trkpt lat="45.6285504" lon="9.478051"><ele>219.0</ele><time>2026-04-14T14:17:59.479Z</time></trkpt><trkpt lat="45.6285991" lon="9.4779492"><ele>219.33333333333334</ele><time>2026-04-14T14:18:00.478Z</time></trkpt><trkpt lat="45.6286339" lon="9.47786"><ele>219.66666666666669</ele><time>2026-04-14T14:18:01.479Z</time></trkpt><trkpt lat="45.6286627" lon="9.4777705"><ele>220.0</ele><time>2026-04-14T14:18:02.478Z</time></trkpt><trkpt lat="45.6287038" lon="9.4776615"><ele>220.33333333333334</ele><time>2026-04-14T14:18:03.479Z</time></trkpt><trkpt lat="45.6287321" lon="9.4775784"><ele>220.66666666666669</ele><time>2026-04-14T14:18:04.478Z</time></trkpt><trkpt lat="45.6287611" lon="9.477456"><ele>221.0</ele><time>2026-04-14T14:18:05.479Z</time></trkpt><trkpt lat="45.6287911" lon="9.4773607"><ele>222.16666666666669</ele><time>2026-04-14T14:18:06.478Z</time></trkpt><trkpt lat="45.6288162" lon="9.4772566"><ele>223.33333333333334</ele><time>2026-04-14T14:18:07.479Z</time></trkpt><trkpt lat="45.6288506" lon="9.4771489"><ele>224.5</ele><time>2026-04-14T14:18:08.478Z</time></trkpt><trkpt lat="45.6288916" lon="9.4770307"><ele>225.66666666666669</ele><time>2026-04-14T14:18:09.479Z</time></trkpt><trkpt lat="45.6289297" lon="9.4769164"><ele>226.83333333333334</ele><time>2026-04-14T14:18:10.479Z</time></trkpt><trkpt lat="45.6289652" lon="9.4768046"><ele>228.0</ele><time>2026-04-14T14:18:11.479Z</time></trkpt><trkpt lat="45.6289952" lon="9.476704"><ele>228.0</ele><time>2026-04-14T14:18:12.479Z</time></trkpt><trkpt lat="45.6290292" lon="9.4766017"><ele>228.0</ele><time>2026-04-14T14:18:13.479Z</time></trkpt><trkpt lat="45.6290574" lon="9.4764965"><ele>228.0</ele><time>2026-04-14T14:18:14.478Z</time></trkpt><trkpt lat="45.6291242" lon="9.476284"><ele>228.0</ele><time>2026-04-14T14:18:16.479Z</time></trkpt><trkpt lat="45.6291447" lon="9.4761818"><ele>228.0</ele><time>2026-04-14T14:18:17.479Z</time></trkpt><trkpt lat="45.6291748" lon="9.476082"><ele>227.83333333333334</ele><time>2026-04-14T14:18:18.479Z</time></trkpt><trkpt lat="45.6291831" lon="9.4759876"><ele>227.66666666666669</ele><time>2026-04-14T14:18:19.478Z</time></trkpt><trkpt lat="45.6292034" lon="9.4758657"><ele>227.5</ele><time>2026-04-14T14:18:20.479Z</time></trkpt><trkpt lat="45.6292297" lon="9.4757594"><ele>227.33333333333334</ele><time>2026-04-14T14:18:21.478Z</time></trkpt><trkpt lat="45.6292563" lon="9.475639"><ele>227.16666666666669</ele><time>2026-04-14T14:18:22.479Z</time></trkpt><trkpt lat="45.6292849" lon="9.4755142"><ele>227.0</ele><time>2026-04-14T14:18:23.479Z</time></trkpt><trkpt lat="45.6293247" lon="9.4753863"><ele>226.66666666666669</ele><time>2026-04-14T14:18:24.479Z</time></trkpt><trkpt lat="45.6293543" lon="9.4752849"><ele>226.33333333333334</ele><time>2026-04-14T14:18:25.478Z</time></trkpt><trkpt lat="45.6293897" lon="9.4751667"><ele>226.0</ele><time>2026-04-14T14:18:26.478Z</time></trkpt><trkpt lat="45.6294127" lon="9.4750748"><ele>225.66666666666669</ele><time>2026-04-14T14:18:27.479Z</time></trkpt><trkpt lat="45.6294465" lon="9.474902"><ele>225.33333333333334</ele><time>2026-04-14T14:18:29.478Z</time></trkpt><trkpt lat="45.6294715" lon="9.4748056"><ele>225.0</ele><time>2026-04-14T14:18:30.479Z</time></trkpt><trkpt lat="45.6294951" lon="9.4747152"><ele>225.16666666666666</ele><time>2026-04-14T14:18:31.479Z</time></trkpt><trkpt lat="45.6295224" lon="9.4746132"><ele>225.33333333333331</ele><time>2026-04-14T14:18:32.479Z</time></trkpt><trkpt lat="45.629553" lon="9.4745317"><ele>225.5</ele><time>2026-04-14T14:18:33.479Z</time></trkpt><trkpt lat="45.6295942" lon="9.4744551"><ele>225.66666666666666</ele><time>2026-04-14T14:18:34.479Z</time></trkpt><trkpt lat="45.6296509" lon="9.4743527"><ele>225.83333333333331</ele><time>2026-04-14T14:18:35.478Z</time></trkpt><trkpt lat="45.6296942" lon="9.4742625"><ele>226.0</ele><time>2026-04-14T14:18:36.479Z</time></trkpt><trkpt lat="45.629749" lon="9.4741828"><ele>226.0</ele><time>2026-04-14T14:18:37.479Z</time></trkpt><trkpt lat="45.6297928" lon="9.4741037"><ele>226.00000000000003</ele><time>2026-04-14T14:18:38.479Z</time></trkpt><trkpt lat="45.6298777" lon="9.4739454"><ele>226.00000000000003</ele><time>2026-04-14T14:18:40.478Z</time></trkpt><trkpt lat="45.6299255" lon="9.4738477"><ele>226.0</ele><time>2026-04-14T14:18:41.479Z</time></trkpt><trkpt lat="45.6299856" lon="9.473779"><ele>226.0</ele><time>2026-04-14T14:18:42.479Z</time></trkpt><trkpt lat="45.6300936" lon="9.4736418"><ele>225.49999999999997</ele><time>2026-04-14T14:18:44.479Z</time></trkpt><trkpt lat="45.6301674" lon="9.4735652"><ele>225.0</ele><time>2026-04-14T14:18:45.478Z</time></trkpt><trkpt lat="45.6302144" lon="9.4734839"><ele>224.5</ele><time>2026-04-14T14:18:46.478Z</time></trkpt><trkpt lat="45.6302745" lon="9.4734014"><ele>224.0</ele><time>2026-04-14T14:18:47.478Z</time></trkpt><trkpt lat="45.6303367" lon="9.4733215"><ele>223.49999999999997</ele><time>2026-04-14T14:18:48.479Z</time></trkpt><trkpt lat="45.6303686" lon="9.4732332"><ele>223.0</ele><time>2026-04-14T14:18:49.478Z</time></trkpt><trkpt lat="45.6304681" lon="9.4731048"><ele>223.0</ele><time>2026-04-14T14:18:51.479Z</time></trkpt><trkpt lat="45.6305188" lon="9.4730439"><ele>223.0</ele><time>2026-04-14T14:18:52.479Z</time></trkpt><trkpt lat="45.6305763" lon="9.472989"><ele>223.0</ele><time>2026-04-14T14:18:53.478Z</time></trkpt><trkpt lat="45.630693" lon="9.472925"><ele>223.0</ele><time>2026-04-14T14:18:55.478Z</time></trkpt><trkpt lat="45.6308098" lon="9.4729075"><ele>223.0</ele><time>2026-04-14T14:18:57.479Z</time></trkpt><trkpt lat="45.6309138" lon="9.4728076"><ele>223.2</ele><time>2026-04-14T14:18:59.479Z</time></trkpt><trkpt lat="45.6309547" lon="9.4727132"><ele>223.4</ele><time>2026-04-14T14:19:00.479Z</time></trkpt><trkpt lat="45.6310308" lon="9.4725749"><ele>223.59999999999997</ele><time>2026-04-14T14:19:02.478Z</time></trkpt><trkpt lat="45.6310966" lon="9.4724411"><ele>223.79999999999998</ele><time>2026-04-14T14:19:04.479Z</time></trkpt><trkpt lat="45.6311302" lon="9.4723518"><ele>224.0</ele><time>2026-04-14T14:19:05.479Z</time></trkpt><trkpt lat="45.6312132" lon="9.4722291"><ele>224.16666666666669</ele><time>2026-04-14T14:19:08.479Z</time></trkpt><trkpt lat="45.6312708" lon="9.4721262"><ele>224.33333333333334</ele><time>2026-04-14T14:19:09.478Z</time></trkpt><trkpt lat="45.6313229" lon="9.4720238"><ele>224.5</ele><time>2026-04-14T14:19:10.478Z</time></trkpt><trkpt lat="45.6313775" lon="9.4719482"><ele>224.66666666666669</ele><time>2026-04-14T14:19:11.479Z</time></trkpt><trkpt lat="45.6314131" lon="9.4718635"><ele>224.83333333333334</ele><time>2026-04-14T14:19:12.479Z</time></trkpt><trkpt lat="45.6314538" lon="9.4717606"><ele>225.0</ele><time>2026-04-14T14:19:13.478Z</time></trkpt><trkpt lat="45.6315218" lon="9.4716973"><ele>225.25</ele><time>2026-04-14T14:19:14.479Z</time></trkpt><trkpt lat="45.6315772" lon="9.4715216"><ele>225.5</ele><time>2026-04-14T14:19:16.479Z</time></trkpt><trkpt lat="45.6316449" lon="9.4713039"><ele>225.75</ele><time>2026-04-14T14:19:18.478Z</time></trkpt><trkpt lat="45.6316749" lon="9.4712123"><ele>226.0</ele><time>2026-04-14T14:19:19.479Z</time></trkpt><trkpt lat="45.6317295" lon="9.4710899"><ele>226.0</ele><time>2026-04-14T14:19:21.479Z</time></trkpt><trkpt lat="45.6318065" lon="9.4709887"><ele>226.00000000000003</ele><time>2026-04-14T14:19:25.479Z</time></trkpt><trkpt lat="45.6317352" lon="9.4708919"><ele>226.00000000000003</ele><time>2026-04-14T14:19:26.479Z</time></trkpt><trkpt lat="45.6316623" lon="9.4708494"><ele>226.0</ele><time>2026-04-14T14:19:28.478Z</time></trkpt><trkpt lat="45.6315909" lon="9.4707345"><ele>226.0</ele><time>2026-04-14T14:19:32.479Z</time></trkpt><trkpt lat="45.631437" lon="9.4706295"><ele>226.0</ele><time>2026-04-14T14:19:34.479Z</time></trkpt><trkpt lat="45.6313656" lon="9.470583"><ele>226.00000000000003</ele><time>2026-04-14T14:19:36.478Z</time></trkpt><trkpt lat="45.6312324" lon="9.4705533"><ele>226.00000000000003</ele><time>2026-04-14T14:19:38.478Z</time></trkpt><trkpt lat="45.6312904" lon="9.4705024"><ele>226.0</ele><time>2026-04-14T14:19:40.478Z</time></trkpt><trkpt lat="45.6313264" lon="9.4703767"><ele>226.0</ele><time>2026-04-14T14:19:41.478Z</time></trkpt><trkpt lat="45.6313293" lon="9.4702311"><ele>225.8</ele><time>2026-04-14T14:19:43.478Z</time></trkpt><trkpt lat="45.6313413" lon="9.4700697"><ele>225.60000000000002</ele><time>2026-04-14T14:19:45.478Z</time></trkpt><trkpt lat="45.631384" lon="9.4699515"><ele>225.4</ele><time>2026-04-14T14:19:47.479Z</time></trkpt><trkpt lat="45.6314218" lon="9.4698623"><ele>225.2</ele><time>2026-04-14T14:19:48.479Z</time></trkpt><trkpt lat="45.6314826" lon="9.4697153"><ele>225.0</ele><time>2026-04-14T14:19:51.479Z</time></trkpt><trkpt lat="45.631546" lon="9.4696158"><ele>225.0</ele><time>2026-04-14T14:19:52.479Z</time></trkpt><trkpt lat="45.6315516" lon="9.4695058"><ele>225.0</ele><time>2026-04-14T14:19:54.478Z</time></trkpt><trkpt lat="45.6316173" lon="9.469332"><ele>225.0</ele><time>2026-04-14T14:19:56.478Z</time></trkpt><trkpt lat="45.6316646" lon="9.469224"><ele>225.0</ele><time>2026-04-14T14:19:57.478Z</time></trkpt><trkpt lat="45.6317138" lon="9.4690942"><ele>225.0</ele><time>2026-04-14T14:19:59.479Z</time></trkpt><trkpt lat="45.6317483" lon="9.469011"><ele>225.0</ele><time>2026-04-14T14:20:00.479Z</time></trkpt><trkpt lat="45.6317831" lon="9.4689295"><ele>225.0</ele><time>2026-04-14T14:20:01.479Z</time></trkpt><trkpt lat="45.6318164" lon="9.4688514"><ele>225.0</ele><time>2026-04-14T14:20:02.479Z</time></trkpt><trkpt lat="45.6318713" lon="9.468704"><ele>225.0</ele><time>2026-04-14T14:20:04.479Z</time></trkpt><trkpt lat="45.6319081" lon="9.468555"><ele>225.0</ele><time>2026-04-14T14:20:06.479Z</time></trkpt><trkpt lat="45.6319569" lon="9.4683592"><ele>225.2</ele><time>2026-04-14T14:20:08.478Z</time></trkpt><trkpt lat="45.6319978" lon="9.4682456"><ele>225.4</ele><time>2026-04-14T14:20:09.479Z</time></trkpt><trkpt lat="45.6320233" lon="9.4681505"><ele>225.60000000000002</ele><time>2026-04-14T14:20:10.479Z</time></trkpt><trkpt lat="45.6320566" lon="9.4679765"><ele>225.8</ele><time>2026-04-14T14:20:12.479Z</time></trkpt><trkpt lat="45.6320688" lon="9.4678853"><ele>226.0</ele><time>2026-04-14T14:20:13.479Z</time></trkpt><trkpt lat="45.6320925" lon="9.4677314"><ele>225.99999999999997</ele><time>2026-04-14T14:20:15.478Z</time></trkpt><trkpt lat="45.6321314" lon="9.4675753"><ele>226.0</ele><time>2026-04-14T14:20:17.479Z</time></trkpt><trkpt lat="45.6321585" lon="9.467491"><ele>226.0</ele><time>2026-04-14T14:20:18.479Z</time></trkpt><trkpt lat="45.6321897" lon="9.4673839"><ele>226.0</ele><time>2026-04-14T14:20:19.479Z</time></trkpt><trkpt lat="45.6322177" lon="9.4672804"><ele>225.99999999999997</ele><time>2026-04-14T14:20:20.479Z</time></trkpt><trkpt lat="45.6322428" lon="9.4671859"><ele>226.0</ele><time>2026-04-14T14:20:21.479Z</time></trkpt><trkpt lat="45.6322675" lon="9.4670978"><ele>226.28571428571428</ele><time>2026-04-14T14:20:22.479Z</time></trkpt><trkpt lat="45.6322969" lon="9.467013"><ele>226.57142857142856</ele><time>2026-04-14T14:20:23.479Z</time></trkpt><trkpt lat="45.6323231" lon="9.4669261"><ele>226.85714285714283</ele><time>2026-04-14T14:20:24.479Z</time></trkpt><trkpt lat="45.6323474" lon="9.4668351"><ele>227.14285714285714</ele><time>2026-04-14T14:20:25.478Z</time></trkpt><trkpt lat="45.6323665" lon="9.4667482"><ele>227.4285714285714</ele><time>2026-04-14T14:20:26.479Z</time></trkpt><trkpt lat="45.6323845" lon="9.4666537"><ele>227.7142857142857</ele><time>2026-04-14T14:20:27.479Z</time></trkpt><trkpt lat="45.632403" lon="9.4665565"><ele>228.0</ele><time>2026-04-14T14:20:28.479Z</time></trkpt><trkpt lat="45.6324224" lon="9.4664603"><ele>228.0</ele><time>2026-04-14T14:20:29.479Z</time></trkpt><trkpt lat="45.6324459" lon="9.4663603"><ele>228.0</ele><time>2026-04-14T14:20:30.478Z</time></trkpt><trkpt lat="45.6324657" lon="9.466271"><ele>228.0</ele><time>2026-04-14T14:20:31.479Z</time></trkpt><trkpt lat="45.6324899" lon="9.466172"><ele>228.0</ele><time>2026-04-14T14:20:32.479Z</time></trkpt><trkpt lat="45.6325138" lon="9.4660653"><ele>228.0</ele><time>2026-04-14T14:20:33.478Z</time></trkpt><trkpt lat="45.63254" lon="9.4659132"><ele>228.0</ele><time>2026-04-14T14:20:35.478Z</time></trkpt><trkpt lat="45.6325709" lon="9.4658166"><ele>228.2</ele><time>2026-04-14T14:20:36.478Z</time></trkpt><trkpt lat="45.6326023" lon="9.4657175"><ele>228.4</ele><time>2026-04-14T14:20:37.479Z</time></trkpt><trkpt lat="45.6326826" lon="9.4655199"><ele>228.59999999999997</ele><time>2026-04-14T14:20:39.479Z</time></trkpt><trkpt lat="45.6327253" lon="9.4654106"><ele>228.79999999999998</ele><time>2026-04-14T14:20:40.478Z</time></trkpt><trkpt lat="45.6327535" lon="9.465322"><ele>229.0</ele><time>2026-04-14T14:20:41.478Z</time></trkpt><trkpt lat="45.6327841" lon="9.4652347"><ele>228.99999999999997</ele><time>2026-04-14T14:20:42.479Z</time></trkpt><trkpt lat="45.6328127" lon="9.465149"><ele>229.0</ele><time>2026-04-14T14:20:43.479Z</time></trkpt><trkpt lat="45.6328398" lon="9.465054"><ele>229.0</ele><time>2026-04-14T14:20:44.479Z</time></trkpt><trkpt lat="45.6328566" lon="9.4649553"><ele>229.0</ele><time>2026-04-14T14:20:45.479Z</time></trkpt><trkpt lat="45.6328815" lon="9.4648482"><ele>228.99999999999997</ele><time>2026-04-14T14:20:46.479Z</time></trkpt><trkpt lat="45.6329117" lon="9.4646802"><ele>229.0</ele><time>2026-04-14T14:20:48.479Z</time></trkpt><trkpt lat="45.6329587" lon="9.464498"><ele>229.0</ele><time>2026-04-14T14:20:50.479Z</time></trkpt><trkpt lat="45.6329845" lon="9.4644088"><ele>229.0</ele><time>2026-04-14T14:20:51.479Z</time></trkpt><trkpt lat="45.6330103" lon="9.4643175"><ele>229.0</ele><time>2026-04-14T14:20:52.479Z</time></trkpt><trkpt lat="45.6330316" lon="9.4642218"><ele>229.0</ele><time>2026-04-14T14:20:53.479Z</time></trkpt><trkpt lat="45.6330568" lon="9.4641142"><ele>229.0</ele><time>2026-04-14T14:20:54.478Z</time></trkpt><trkpt lat="45.6330814" lon="9.4640053"><ele>229.0</ele><time>2026-04-14T14:20:55.479Z</time></trkpt><trkpt lat="45.6331081" lon="9.4638948"><ele>229.0</ele><time>2026-04-14T14:20:56.479Z</time></trkpt><trkpt lat="45.6331366" lon="9.4638024"><ele>228.99999999999997</ele><time>2026-04-14T14:20:57.478Z</time></trkpt><trkpt lat="45.6331688" lon="9.4636947"><ele>229.0</ele><time>2026-04-14T14:20:58.479Z</time></trkpt><trkpt lat="45.633193" lon="9.4635928"><ele>229.0</ele><time>2026-04-14T14:20:59.479Z</time></trkpt><trkpt lat="45.6332168" lon="9.4634906"><ele>229.0</ele><time>2026-04-14T14:21:00.479Z</time></trkpt><trkpt lat="45.6332362" lon="9.4633716"><ele>228.99999999999997</ele><time>2026-04-14T14:21:01.479Z</time></trkpt><trkpt lat="45.6332584" lon="9.4632603"><ele>229.0</ele><time>2026-04-14T14:21:02.478Z</time></trkpt><trkpt lat="45.6332859" lon="9.4631366"><ele>228.99999999999997</ele><time>2026-04-14T14:21:03.478Z</time></trkpt><trkpt lat="45.6333206" lon="9.463035"><ele>229.0</ele><time>2026-04-14T14:21:04.479Z</time></trkpt><trkpt lat="45.6333539" lon="9.4629183"><ele>229.0</ele><time>2026-04-14T14:21:05.478Z</time></trkpt><trkpt lat="45.6333732" lon="9.4627781"><ele>229.0</ele><time>2026-04-14T14:21:06.478Z</time></trkpt><trkpt lat="45.6333917" lon="9.4626886"><ele>228.99999999999997</ele><time>2026-04-14T14:21:07.479Z</time></trkpt><trkpt lat="45.6334124" lon="9.4625939"><ele>229.0</ele><time>2026-04-14T14:21:08.479Z</time></trkpt><trkpt lat="45.6334505" lon="9.4624875"><ele>228.66666666666666</ele><time>2026-04-14T14:21:09.478Z</time></trkpt><trkpt lat="45.6334814" lon="9.4623815"><ele>228.33333333333331</ele><time>2026-04-14T14:21:10.478Z</time></trkpt><trkpt lat="45.6335191" lon="9.4622972"><ele>228.0</ele><time>2026-04-14T14:21:11.479Z</time></trkpt><trkpt lat="45.6335588" lon="9.4622177"><ele>227.66666666666669</ele><time>2026-04-14T14:21:12.479Z</time></trkpt><trkpt lat="45.6336107" lon="9.4621324"><ele>227.33333333333334</ele><time>2026-04-14T14:21:13.479Z</time></trkpt><trkpt lat="45.6336586" lon="9.462046"><ele>227.0</ele><time>2026-04-14T14:21:14.479Z</time></trkpt><trkpt lat="45.6337114" lon="9.4619328"><ele>227.00000000000003</ele><time>2026-04-14T14:21:15.479Z</time></trkpt><trkpt lat="45.633766" lon="9.461847"><ele>227.0</ele><time>2026-04-14T14:21:16.479Z</time></trkpt><trkpt lat="45.6337781" lon="9.4617219"><ele>227.0</ele><time>2026-04-14T14:21:17.478Z</time></trkpt><trkpt lat="45.6337927" lon="9.4616077"><ele>227.0</ele><time>2026-04-14T14:21:18.479Z</time></trkpt><trkpt lat="45.6337863" lon="9.4614754"><ele>227.00000000000003</ele><time>2026-04-14T14:21:19.479Z</time></trkpt><trkpt lat="45.6337861" lon="9.461374"><ele>227.0</ele><time>2026-04-14T14:21:20.478Z</time></trkpt><trkpt lat="45.6337983" lon="9.4612415"><ele>227.0</ele><time>2026-04-14T14:21:21.479Z</time></trkpt><trkpt lat="45.6338326" lon="9.4610526"><ele>227.0</ele><time>2026-04-14T14:21:23.479Z</time></trkpt><trkpt lat="45.6338425" lon="9.4609583"><ele>227.0</ele><time>2026-04-14T14:21:24.479Z</time></trkpt><trkpt lat="45.6338699" lon="9.4608049"><ele>227.0</ele><time>2026-04-14T14:21:25.479Z</time></trkpt><trkpt lat="45.6338951" lon="9.4606813"><ele>227.0</ele><time>2026-04-14T14:21:26.479Z</time></trkpt><trkpt lat="45.6339294" lon="9.460565"><ele>227.00000000000003</ele><time>2026-04-14T14:21:27.479Z</time></trkpt><trkpt lat="45.6339505" lon="9.4604715"><ele>227.0</ele><time>2026-04-14T14:21:28.479Z</time></trkpt><trkpt lat="45.6339744" lon="9.4603676"><ele>227.0</ele><time>2026-04-14T14:21:29.479Z</time></trkpt><trkpt lat="45.6340026" lon="9.460271"><ele>227.0</ele><time>2026-04-14T14:21:30.478Z</time></trkpt><trkpt lat="45.6340236" lon="9.4601712"><ele>227.00000000000003</ele><time>2026-04-14T14:21:31.478Z</time></trkpt><trkpt lat="45.6340666" lon="9.4600462"><ele>227.0</ele><time>2026-04-14T14:21:32.479Z</time></trkpt><trkpt lat="45.6340927" lon="9.4599217"><ele>227.00000000000003</ele><time>2026-04-14T14:21:33.478Z</time></trkpt><trkpt lat="45.6341157" lon="9.4597919"><ele>227.0</ele><time>2026-04-14T14:21:34.478Z</time></trkpt><trkpt lat="45.6341395" lon="9.4596969"><ele>227.0</ele><time>2026-04-14T14:21:35.478Z</time></trkpt><trkpt lat="45.6341618" lon="9.4595761"><ele>227.0</ele><time>2026-04-14T14:21:36.479Z</time></trkpt><trkpt lat="45.6342074" lon="9.4594514"><ele>227.00000000000003</ele><time>2026-04-14T14:21:37.478Z</time></trkpt><trkpt lat="45.6342406" lon="9.4593501"><ele>227.0</ele><time>2026-04-14T14:21:38.479Z</time></trkpt><trkpt lat="45.6342693" lon="9.4592369"><ele>226.83333333333334</ele><time>2026-04-14T14:21:39.478Z</time></trkpt><trkpt lat="45.6343051" lon="9.4591312"><ele>226.66666666666669</ele><time>2026-04-14T14:21:40.478Z</time></trkpt><trkpt lat="45.634324" lon="9.4590291"><ele>226.5</ele><time>2026-04-14T14:21:41.479Z</time></trkpt><trkpt lat="45.6343589" lon="9.4589245"><ele>226.33333333333331</ele><time>2026-04-14T14:21:42.478Z</time></trkpt><trkpt lat="45.6343864" lon="9.4588133"><ele>226.16666666666666</ele><time>2026-04-14T14:21:43.479Z</time></trkpt><trkpt lat="45.6344107" lon="9.4587047"><ele>226.0</ele><time>2026-04-14T14:21:44.478Z</time></trkpt><trkpt lat="45.6344397" lon="9.4585907"><ele>225.8</ele><time>2026-04-14T14:21:45.479Z</time></trkpt><trkpt lat="45.6344695" lon="9.4584579"><ele>225.60000000000002</ele><time>2026-04-14T14:21:46.479Z</time></trkpt><trkpt lat="45.6345126" lon="9.4583182"><ele>225.4</ele><time>2026-04-14T14:21:47.478Z</time></trkpt><trkpt lat="45.6345381" lon="9.4582067"><ele>225.2</ele><time>2026-04-14T14:21:48.479Z</time></trkpt><trkpt lat="45.6345639" lon="9.4580959"><ele>225.0</ele><time>2026-04-14T14:21:49.479Z</time></trkpt><trkpt lat="45.6345842" lon="9.4579664"><ele>225.66666666666666</ele><time>2026-04-14T14:21:50.478Z</time></trkpt><trkpt lat="45.6346208" lon="9.4578524"><ele>226.33333333333331</ele><time>2026-04-14T14:21:51.478Z</time></trkpt><trkpt lat="45.6346656" lon="9.4577613"><ele>227.0</ele><time>2026-04-14T14:21:52.478Z</time></trkpt><trkpt lat="45.634693" lon="9.457651"><ele>227.66666666666666</ele><time>2026-04-14T14:21:53.479Z</time></trkpt><trkpt lat="45.6347488" lon="9.4575243"><ele>228.33333333333331</ele><time>2026-04-14T14:21:54.478Z</time></trkpt><trkpt lat="45.6347811" lon="9.4574233"><ele>229.0</ele><time>2026-04-14T14:21:55.478Z</time></trkpt><trkpt lat="45.6348543" lon="9.4573673"><ele>228.99999999999997</ele><time>2026-04-14T14:21:56.479Z</time></trkpt><trkpt lat="45.6348937" lon="9.4572903"><ele>229.0</ele><time>2026-04-14T14:21:57.479Z</time></trkpt><trkpt lat="45.6349415" lon="9.4572052"><ele>229.0</ele><time>2026-04-14T14:21:58.478Z</time></trkpt><trkpt lat="45.634992" lon="9.457119"><ele>229.0</ele><time>2026-04-14T14:21:59.478Z</time></trkpt><trkpt lat="45.6350728" lon="9.4570291"><ele>228.99999999999997</ele><time>2026-04-14T14:22:00.478Z</time></trkpt><trkpt lat="45.6351085" lon="9.4569429"><ele>229.0</ele><time>2026-04-14T14:22:01.479Z</time></trkpt><trkpt lat="45.6352217" lon="9.4569553"><ele>229.16666666666666</ele><time>2026-04-14T14:22:02.479Z</time></trkpt><trkpt lat="45.6352959" lon="9.4569185"><ele>229.33333333333331</ele><time>2026-04-14T14:22:03.479Z</time></trkpt><trkpt lat="45.6353726" lon="9.4568324"><ele>229.5</ele><time>2026-04-14T14:22:04.478Z</time></trkpt><trkpt lat="45.63546" lon="9.4567707"><ele>229.66666666666669</ele><time>2026-04-14T14:22:05.478Z</time></trkpt><trkpt lat="45.6355296" lon="9.4566986"><ele>229.83333333333334</ele><time>2026-04-14T14:22:06.479Z</time></trkpt><trkpt lat="45.6356076" lon="9.4566498"><ele>230.0</ele><time>2026-04-14T14:22:07.479Z</time></trkpt><trkpt lat="45.6356805" lon="9.4566103"><ele>229.33333333333334</ele><time>2026-04-14T14:22:08.479Z</time></trkpt><trkpt lat="45.6357569" lon="9.4565425"><ele>228.66666666666669</ele><time>2026-04-14T14:22:09.479Z</time></trkpt><trkpt lat="45.6358326" lon="9.456463"><ele>228.0</ele><time>2026-04-14T14:22:10.478Z</time></trkpt><trkpt lat="45.6358942" lon="9.4564157"><ele>227.33333333333331</ele><time>2026-04-14T14:22:11.478Z</time></trkpt><trkpt lat="45.6359416" lon="9.4563448"><ele>226.66666666666666</ele><time>2026-04-14T14:22:12.479Z</time></trkpt><trkpt lat="45.6360209" lon="9.4563132"><ele>226.0</ele><time>2026-04-14T14:22:13.479Z</time></trkpt><trkpt lat="45.6361062" lon="9.4562055"><ele>225.99999999999997</ele><time>2026-04-14T14:22:14.479Z</time></trkpt><trkpt lat="45.6361952" lon="9.4561489"><ele>226.0</ele><time>2026-04-14T14:22:15.478Z</time></trkpt><trkpt lat="45.6363066" lon="9.4561422"><ele>226.0</ele><time>2026-04-14T14:22:16.479Z</time></trkpt><trkpt lat="45.6363468" lon="9.4560641"><ele>226.0</ele><time>2026-04-14T14:22:17.478Z</time></trkpt><trkpt lat="45.6363995" lon="9.4559685"><ele>225.99999999999997</ele><time>2026-04-14T14:22:18.478Z</time></trkpt><trkpt lat="45.6364446" lon="9.4559056"><ele>226.0</ele><time>2026-04-14T14:22:19.479Z</time></trkpt><trkpt lat="45.6365044" lon="9.455843"><ele>225.99999999999997</ele><time>2026-04-14T14:22:20.478Z</time></trkpt><trkpt lat="45.6365776" lon="9.4557734"><ele>226.0</ele><time>2026-04-14T14:22:21.479Z</time></trkpt><trkpt lat="45.636635" lon="9.4556974"><ele>226.0</ele><time>2026-04-14T14:22:22.478Z</time></trkpt><trkpt lat="45.6367382" lon="9.4556971"><ele>226.0</ele><time>2026-04-14T14:22:23.479Z</time></trkpt><trkpt lat="45.6367872" lon="9.4556198"><ele>225.99999999999997</ele><time>2026-04-14T14:22:24.479Z</time></trkpt><trkpt lat="45.6368288" lon="9.455544"><ele>226.0</ele><time>2026-04-14T14:22:25.479Z</time></trkpt><trkpt lat="45.6369278" lon="9.4555507"><ele>226.0</ele><time>2026-04-14T14:22:26.479Z</time></trkpt><trkpt lat="45.6369828" lon="9.4554692"><ele>226.00000000000003</ele><time>2026-04-14T14:22:27.478Z</time></trkpt><trkpt lat="45.6370366" lon="9.4553962"><ele>226.00000000000003</ele><time>2026-04-14T14:22:28.478Z</time></trkpt><trkpt lat="45.6371211" lon="9.4553085"><ele>226.0</ele><time>2026-04-14T14:22:30.479Z</time></trkpt><trkpt lat="45.637178" lon="9.4552178"><ele>226.0</ele><time>2026-04-14T14:22:32.479Z</time></trkpt><trkpt lat="45.6371442" lon="9.4548894"><ele>226.0</ele><time>2026-04-14T14:22:43.479Z</time></trkpt><trkpt lat="45.6370991" lon="9.454759"><ele>226.00000000000003</ele><time>2026-04-14T14:22:45.478Z</time></trkpt><trkpt lat="45.6370297" lon="9.4546871"><ele>226.00000000000003</ele><time>2026-04-14T14:22:47.478Z</time></trkpt><trkpt lat="45.6369338" lon="9.4546245"><ele>226.0</ele><time>2026-04-14T14:22:49.478Z</time></trkpt><trkpt lat="45.6368224" lon="9.4545507"><ele>226.0</ele><time>2026-04-14T14:22:51.479Z</time></trkpt><trkpt lat="45.6367594" lon="9.4545037"><ele>226.20000000000002</ele><time>2026-04-14T14:22:52.478Z</time></trkpt><trkpt lat="45.6366936" lon="9.4544577"><ele>226.40000000000003</ele><time>2026-04-14T14:22:53.479Z</time></trkpt><trkpt lat="45.6366069" lon="9.4543702"><ele>226.6</ele><time>2026-04-14T14:22:54.479Z</time></trkpt><trkpt lat="45.6364949" lon="9.4543168"><ele>226.8</ele><time>2026-04-14T14:22:56.478Z</time></trkpt><trkpt lat="45.6364316" lon="9.4542862"><ele>227.0</ele><time>2026-04-14T14:22:57.478Z</time></trkpt><trkpt lat="45.63632" lon="9.4541972"><ele>227.00000000000003</ele><time>2026-04-14T14:22:59.479Z</time></trkpt><trkpt lat="45.6362671" lon="9.4540997"><ele>227.0</ele><time>2026-04-14T14:23:00.479Z</time></trkpt><trkpt lat="45.6362016" lon="9.4540704"><ele>227.0</ele><time>2026-04-14T14:23:01.479Z</time></trkpt><trkpt lat="45.6361346" lon="9.4540238"><ele>227.0</ele><time>2026-04-14T14:23:02.478Z</time></trkpt><trkpt lat="45.6360711" lon="9.4539477"><ele>227.00000000000003</ele><time>2026-04-14T14:23:03.479Z</time></trkpt><trkpt lat="45.6359907" lon="9.4538176"><ele>227.0</ele><time>2026-04-14T14:23:04.478Z</time></trkpt><trkpt lat="45.6359283" lon="9.4537679"><ele>226.66666666666669</ele><time>2026-04-14T14:23:05.478Z</time></trkpt><trkpt lat="45.6358681" lon="9.4537414"><ele>226.33333333333334</ele><time>2026-04-14T14:23:06.479Z</time></trkpt><trkpt lat="45.6357923" lon="9.4536572"><ele>226.0</ele><time>2026-04-14T14:23:07.478Z</time></trkpt><trkpt lat="45.6357308" lon="9.453615"><ele>225.66666666666669</ele><time>2026-04-14T14:23:08.478Z</time></trkpt><trkpt lat="45.6356649" lon="9.4535572"><ele>225.33333333333334</ele><time>2026-04-14T14:23:09.479Z</time></trkpt><trkpt lat="45.635595" lon="9.4535251"><ele>225.0</ele><time>2026-04-14T14:23:10.479Z</time></trkpt><trkpt lat="45.6355315" lon="9.4534567"><ele>225.0</ele><time>2026-04-14T14:23:11.479Z</time></trkpt><trkpt lat="45.6354818" lon="9.4533797"><ele>225.0</ele><time>2026-04-14T14:23:12.479Z</time></trkpt><trkpt lat="45.6354355" lon="9.453274"><ele>225.0</ele><time>2026-04-14T14:23:13.479Z</time></trkpt><trkpt lat="45.635376" lon="9.4530974"><ele>225.0</ele><time>2026-04-14T14:23:14.478Z</time></trkpt><trkpt lat="45.6353486" lon="9.453014"><ele>225.0</ele><time>2026-04-14T14:23:15.478Z</time></trkpt><trkpt lat="45.6353033" lon="9.4528779"><ele>225.0</ele><time>2026-04-14T14:23:16.479Z</time></trkpt><trkpt lat="45.6352136" lon="9.4527777"><ele>225.0</ele><time>2026-04-14T14:23:18.479Z</time></trkpt><trkpt lat="45.6351656" lon="9.4526942"><ele>225.0</ele><time>2026-04-14T14:23:19.478Z</time></trkpt><trkpt lat="45.6351005" lon="9.4525672"><ele>225.0</ele><time>2026-04-14T14:23:20.478Z</time></trkpt><trkpt lat="45.6350339" lon="9.4524847"><ele>225.0</ele><time>2026-04-14T14:23:21.479Z</time></trkpt><trkpt lat="45.6349435" lon="9.452335"><ele>225.0</ele><time>2026-04-14T14:23:22.479Z</time></trkpt><trkpt lat="45.6348647" lon="9.4522165"><ele>225.0</ele><time>2026-04-14T14:23:23.479Z</time></trkpt><trkpt lat="45.6347951" lon="9.4521466"><ele>225.0</ele><time>2026-04-14T14:23:24.478Z</time></trkpt><trkpt lat="45.6347255" lon="9.4520524"><ele>225.0</ele><time>2026-04-14T14:23:25.478Z</time></trkpt><trkpt lat="45.6346526" lon="9.4519606"><ele>225.0</ele><time>2026-04-14T14:23:26.479Z</time></trkpt><trkpt lat="45.6345728" lon="9.4518281"><ele>224.4</ele><time>2026-04-14T14:23:27.479Z</time></trkpt><trkpt lat="45.6344994" lon="9.4517488"><ele>223.8</ele><time>2026-04-14T14:23:28.479Z</time></trkpt><trkpt lat="45.63443" lon="9.45164"><ele>223.2</ele><time>2026-04-14T14:23:29.479Z</time></trkpt><trkpt lat="45.634349" lon="9.4515546"><ele>222.6</ele><time>2026-04-14T14:23:30.478Z</time></trkpt><trkpt lat="45.6342765" lon="9.4514823"><ele>222.0</ele><time>2026-04-14T14:23:31.479Z</time></trkpt><trkpt lat="45.6341737" lon="9.4513933"><ele>222.0</ele><time>2026-04-14T14:23:32.479Z</time></trkpt><trkpt lat="45.6340885" lon="9.4513206"><ele>222.0</ele><time>2026-04-14T14:23:33.478Z</time></trkpt><trkpt lat="45.6340038" lon="9.4511766"><ele>222.0</ele><time>2026-04-14T14:23:35.478Z</time></trkpt><trkpt lat="45.6339478" lon="9.4510613"><ele>222.0</ele><time>2026-04-14T14:23:36.478Z</time></trkpt><trkpt lat="45.6338654" lon="9.4510537"><ele>222.0</ele><time>2026-04-14T14:23:37.479Z</time></trkpt><trkpt lat="45.6337676" lon="9.4509997"><ele>222.0</ele><time>2026-04-14T14:23:38.479Z</time></trkpt><trkpt lat="45.6336883" lon="9.4509619"><ele>222.0</ele><time>2026-04-14T14:23:39.479Z</time></trkpt><trkpt lat="45.6335923" lon="9.4509065"><ele>222.0</ele><time>2026-04-14T14:23:40.479Z</time></trkpt><trkpt lat="45.6335167" lon="9.4508197"><ele>222.0</ele><time>2026-04-14T14:23:41.479Z</time></trkpt><trkpt lat="45.6334482" lon="9.4507759"><ele>222.0</ele><time>2026-04-14T14:23:42.478Z</time></trkpt><trkpt lat="45.633389" lon="9.4507427"><ele>222.0</ele><time>2026-04-14T14:23:43.479Z</time></trkpt><trkpt lat="45.6332872" lon="9.4506045"><ele>222.16666666666666</ele><time>2026-04-14T14:23:45.479Z</time></trkpt><trkpt lat="45.633245" lon="9.450473"><ele>222.33333333333331</ele><time>2026-04-14T14:23:46.478Z</time></trkpt><trkpt lat="45.6332181" lon="9.4503616"><ele>222.5</ele><time>2026-04-14T14:23:47.479Z</time></trkpt><trkpt lat="45.6331944" lon="9.4502667"><ele>222.66666666666666</ele><time>2026-04-14T14:23:48.479Z</time></trkpt><trkpt lat="45.6331824" lon="9.450129"><ele>222.83333333333331</ele><time>2026-04-14T14:23:49.479Z</time></trkpt><trkpt lat="45.6331518" lon="9.4500118"><ele>223.0</ele><time>2026-04-14T14:23:50.478Z</time></trkpt><trkpt lat="45.6331142" lon="9.4499004"><ele>223.4</ele><time>2026-04-14T14:23:51.479Z</time></trkpt><trkpt lat="45.6330827" lon="9.449798"><ele>223.8</ele><time>2026-04-14T14:23:52.479Z</time></trkpt><trkpt lat="45.6330319" lon="9.4496893"><ele>224.2</ele><time>2026-04-14T14:23:53.479Z</time></trkpt><trkpt lat="45.6329793" lon="9.4496028"><ele>224.6</ele><time>2026-04-14T14:23:54.479Z</time></trkpt><trkpt lat="45.6328964" lon="9.4495392"><ele>225.0</ele><time>2026-04-14T14:23:55.479Z</time></trkpt><trkpt lat="45.6328324" lon="9.4493786"><ele>225.0</ele><time>2026-04-14T14:23:56.479Z</time></trkpt><trkpt lat="45.6327941" lon="9.4493071"><ele>225.0</ele><time>2026-04-14T14:23:57.478Z</time></trkpt><trkpt lat="45.6327457" lon="9.4491209"><ele>225.0</ele><time>2026-04-14T14:23:59.479Z</time></trkpt><trkpt lat="45.632757" lon="9.4490074"><ele>225.0</ele><time>2026-04-14T14:24:00.478Z</time></trkpt><trkpt lat="45.6327568" lon="9.4488913"><ele>225.0</ele><time>2026-04-14T14:24:01.479Z</time></trkpt><trkpt lat="45.6327613" lon="9.4487009"><ele>225.0</ele><time>2026-04-14T14:24:03.479Z</time></trkpt><trkpt lat="45.6327785" lon="9.4486012"><ele>225.0</ele><time>2026-04-14T14:24:04.478Z</time></trkpt><trkpt lat="45.6327776" lon="9.4485061"><ele>225.0</ele><time>2026-04-14T14:24:05.479Z</time></trkpt><trkpt lat="45.6327808" lon="9.4483885"><ele>225.0</ele><time>2026-04-14T14:24:06.479Z</time></trkpt><trkpt lat="45.6327743" lon="9.4482898"><ele>225.0</ele><time>2026-04-14T14:24:07.479Z</time></trkpt><trkpt lat="45.6327699" lon="9.4481688"><ele>225.0</ele><time>2026-04-14T14:24:08.478Z</time></trkpt><trkpt lat="45.6327754" lon="9.4480468"><ele>224.66666666666666</ele><time>2026-04-14T14:24:09.478Z</time></trkpt><trkpt lat="45.6327789" lon="9.447928"><ele>224.33333333333331</ele><time>2026-04-14T14:24:10.478Z</time></trkpt><trkpt lat="45.632776" lon="9.4478246"><ele>224.0</ele><time>2026-04-14T14:24:11.479Z</time></trkpt><trkpt lat="45.63277" lon="9.4477046"><ele>223.66666666666666</ele><time>2026-04-14T14:24:12.479Z</time></trkpt><trkpt lat="45.6327601" lon="9.4475895"><ele>223.33333333333331</ele><time>2026-04-14T14:24:13.479Z</time></trkpt><trkpt lat="45.6327654" lon="9.4474651"><ele>223.0</ele><time>2026-04-14T14:24:14.478Z</time></trkpt><trkpt lat="45.6327666" lon="9.447332"><ele>223.0</ele><time>2026-04-14T14:24:15.479Z</time></trkpt><trkpt lat="45.6327594" lon="9.447219"><ele>223.0</ele><time>2026-04-14T14:24:16.479Z</time></trkpt><trkpt lat="45.6327718" lon="9.4470829"><ele>223.0</ele><time>2026-04-14T14:24:17.478Z</time></trkpt><trkpt lat="45.6327646" lon="9.4469487"><ele>223.0</ele><time>2026-04-14T14:24:18.479Z</time></trkpt><trkpt lat="45.6327738" lon="9.4467965"><ele>223.0</ele><time>2026-04-14T14:24:19.479Z</time></trkpt><trkpt lat="45.6327619" lon="9.4466836"><ele>223.0</ele><time>2026-04-14T14:24:20.479Z</time></trkpt><trkpt lat="45.6327924" lon="9.4465233"><ele>223.0</ele><time>2026-04-14T14:24:21.479Z</time></trkpt><trkpt lat="45.6327826" lon="9.4464068"><ele>223.0</ele><time>2026-04-14T14:24:22.479Z</time></trkpt><trkpt lat="45.6327944" lon="9.4462764"><ele>223.0</ele><time>2026-04-14T14:24:23.479Z</time></trkpt><trkpt lat="45.6327963" lon="9.4461444"><ele>223.0</ele><time>2026-04-14T14:24:24.479Z</time></trkpt><trkpt lat="45.632776" lon="9.4460147"><ele>223.0</ele><time>2026-04-14T14:24:25.479Z</time></trkpt><trkpt lat="45.6327813" lon="9.4458844"><ele>223.0</ele><time>2026-04-14T14:24:26.478Z</time></trkpt><trkpt lat="45.6327825" lon="9.445747"><ele>223.0</ele><time>2026-04-14T14:24:27.478Z</time></trkpt><trkpt lat="45.6327868" lon="9.4456069"><ele>223.0</ele><time>2026-04-14T14:24:28.479Z</time></trkpt><trkpt lat="45.6327834" lon="9.4454998"><ele>223.0</ele><time>2026-04-14T14:24:29.479Z</time></trkpt><trkpt lat="45.6327914" lon="9.4453724"><ele>223.2</ele><time>2026-04-14T14:24:30.479Z</time></trkpt><trkpt lat="45.6327874" lon="9.4452106"><ele>223.4</ele><time>2026-04-14T14:24:31.479Z</time></trkpt><trkpt lat="45.6328024" lon="9.4450688"><ele>223.59999999999997</ele><time>2026-04-14T14:24:32.478Z</time></trkpt><trkpt lat="45.6328142" lon="9.4449342"><ele>223.79999999999998</ele><time>2026-04-14T14:24:33.479Z</time></trkpt><trkpt lat="45.6328159" lon="9.444806"><ele>224.0</ele><time>2026-04-14T14:24:34.479Z</time></trkpt><trkpt lat="45.63283" lon="9.4446765"><ele>224.0</ele><time>2026-04-14T14:24:35.478Z</time></trkpt><trkpt lat="45.6328403" lon="9.4445397"><ele>223.99999999999997</ele><time>2026-04-14T14:24:36.478Z</time></trkpt><trkpt lat="45.6328463" lon="9.4444121"><ele>223.99999999999997</ele><time>2026-04-14T14:24:37.479Z</time></trkpt><trkpt lat="45.6328626" lon="9.4443037"><ele>224.0</ele><time>2026-04-14T14:24:38.479Z</time></trkpt><trkpt lat="45.6328679" lon="9.444162"><ele>224.0</ele><time>2026-04-14T14:24:39.479Z</time></trkpt><trkpt lat="45.6328579" lon="9.4440356"><ele>224.00000000000003</ele><time>2026-04-14T14:24:40.479Z</time></trkpt><trkpt lat="45.6328466" lon="9.4439335"><ele>224.0</ele><time>2026-04-14T14:24:41.479Z</time></trkpt><trkpt lat="45.6328176" lon="9.4438226"><ele>224.0</ele><time>2026-04-14T14:24:42.478Z</time></trkpt><trkpt lat="45.6327733" lon="9.4437149"><ele>224.0</ele><time>2026-04-14T14:24:43.479Z</time></trkpt><trkpt lat="45.6327544" lon="9.4435728"><ele>224.00000000000003</ele><time>2026-04-14T14:24:44.479Z</time></trkpt><trkpt lat="45.6327271" lon="9.4434804"><ele>224.0</ele><time>2026-04-14T14:24:45.479Z</time></trkpt><trkpt lat="45.632678" lon="9.4433126"><ele>224.25</ele><time>2026-04-14T14:24:46.478Z</time></trkpt><trkpt lat="45.6326294" lon="9.4430903"><ele>224.5</ele><time>2026-04-14T14:24:48.479Z</time></trkpt><trkpt lat="45.6325815" lon="9.442948"><ele>224.75</ele><time>2026-04-14T14:24:50.479Z</time></trkpt><trkpt lat="45.6325383" lon="9.4428286"><ele>225.0</ele><time>2026-04-14T14:24:51.478Z</time></trkpt><trkpt lat="45.6325216" lon="9.4426657"><ele>225.0</ele><time>2026-04-14T14:24:52.478Z</time></trkpt><trkpt lat="45.632591" lon="9.442525"><ele>225.0</ele><time>2026-04-14T14:24:53.478Z</time></trkpt><trkpt lat="45.6325935" lon="9.4424034"><ele>225.0</ele><time>2026-04-14T14:24:54.479Z</time></trkpt><trkpt lat="45.6325636" lon="9.4422672"><ele>225.0</ele><time>2026-04-14T14:24:55.478Z</time></trkpt><trkpt lat="45.6325826" lon="9.4421559"><ele>225.0</ele><time>2026-04-14T14:24:56.478Z</time></trkpt><trkpt lat="45.6325525" lon="9.4419589"><ele>225.0</ele><time>2026-04-14T14:24:58.479Z</time></trkpt><trkpt lat="45.6324252" lon="9.4419942"><ele>225.0</ele><time>2026-04-14T14:25:00.479Z</time></trkpt><trkpt lat="45.632343" lon="9.442006"><ele>225.0</ele><time>2026-04-14T14:25:01.479Z</time></trkpt><trkpt lat="45.6322445" lon="9.4419012"><ele>225.0</ele><time>2026-04-14T14:25:03.479Z</time></trkpt><trkpt lat="45.6321874" lon="9.4417656"><ele>225.0</ele><time>2026-04-14T14:25:05.479Z</time></trkpt><trkpt lat="45.6321671" lon="9.441664"><ele>225.0</ele><time>2026-04-14T14:25:06.479Z</time></trkpt><trkpt lat="45.6321694" lon="9.4415611"><ele>225.0</ele><time>2026-04-14T14:25:07.478Z</time></trkpt><trkpt lat="45.6321534" lon="9.4414637"><ele>225.0</ele><time>2026-04-14T14:25:08.479Z</time></trkpt><trkpt lat="45.632154" lon="9.4413651"><ele>225.0</ele><time>2026-04-14T14:25:09.478Z</time></trkpt><trkpt lat="45.6321562" lon="9.4411842"><ele>225.0</ele><time>2026-04-14T14:25:11.479Z</time></trkpt><trkpt lat="45.6321658" lon="9.4410777"><ele>225.0</ele><time>2026-04-14T14:25:12.479Z</time></trkpt><trkpt lat="45.6321802" lon="9.4409467"><ele>224.8571428571429</ele><time>2026-04-14T14:25:13.479Z</time></trkpt><trkpt lat="45.6321956" lon="9.4408335"><ele>224.71428571428572</ele><time>2026-04-14T14:25:14.479Z</time></trkpt><trkpt lat="45.632197" lon="9.440736"><ele>224.57142857142858</ele><time>2026-04-14T14:25:15.478Z</time></trkpt><trkpt lat="45.632199" lon="9.4406312"><ele>224.42857142857144</ele><time>2026-04-14T14:25:16.478Z</time></trkpt><trkpt lat="45.6322099" lon="9.4405218"><ele>224.28571428571428</ele><time>2026-04-14T14:25:17.479Z</time></trkpt><trkpt lat="45.6321995" lon="9.440423"><ele>224.14285714285714</ele><time>2026-04-14T14:25:18.478Z</time></trkpt><trkpt lat="45.6321767" lon="9.4403245"><ele>224.0</ele><time>2026-04-14T14:25:19.478Z</time></trkpt><trkpt lat="45.6321575" lon="9.4402197"><ele>224.00000000000003</ele><time>2026-04-14T14:25:20.479Z</time></trkpt><trkpt lat="45.6321378" lon="9.4400991"><ele>224.0</ele><time>2026-04-14T14:25:21.479Z</time></trkpt><trkpt lat="45.632114" lon="9.4399585"><ele>224.0</ele><time>2026-04-14T14:25:22.479Z</time></trkpt><trkpt lat="45.6320883" lon="9.4398661"><ele>224.0</ele><time>2026-04-14T14:25:23.478Z</time></trkpt><trkpt lat="45.6320615" lon="9.4397591"><ele>224.00000000000003</ele><time>2026-04-14T14:25:24.478Z</time></trkpt><trkpt lat="45.6320408" lon="9.4396319"><ele>224.0</ele><time>2026-04-14T14:25:25.479Z</time></trkpt><trkpt lat="45.6320152" lon="9.4395391"><ele>223.83333333333334</ele><time>2026-04-14T14:25:26.479Z</time></trkpt><trkpt lat="45.6319862" lon="9.4394297"><ele>223.66666666666669</ele><time>2026-04-14T14:25:27.479Z</time></trkpt><trkpt lat="45.631949" lon="9.4393292"><ele>223.5</ele><time>2026-04-14T14:25:28.479Z</time></trkpt><trkpt lat="45.6319072" lon="9.4392343"><ele>223.33333333333331</ele><time>2026-04-14T14:25:29.479Z</time></trkpt><trkpt lat="45.6318531" lon="9.4391291"><ele>223.16666666666666</ele><time>2026-04-14T14:25:30.479Z</time></trkpt><trkpt lat="45.6317958" lon="9.4390609"><ele>223.0</ele><time>2026-04-14T14:25:31.479Z</time></trkpt><trkpt lat="45.6317304" lon="9.4390251"><ele>222.83333333333331</ele><time>2026-04-14T14:25:32.479Z</time></trkpt><trkpt lat="45.6316633" lon="9.4389958"><ele>222.66666666666666</ele><time>2026-04-14T14:25:33.478Z</time></trkpt><trkpt lat="45.6315835" lon="9.4389472"><ele>222.5</ele><time>2026-04-14T14:25:34.479Z</time></trkpt><trkpt lat="45.6315202" lon="9.4389577"><ele>222.33333333333331</ele><time>2026-04-14T14:25:35.479Z</time></trkpt><trkpt lat="45.6314382" lon="9.4389292"><ele>222.16666666666666</ele><time>2026-04-14T14:25:36.479Z</time></trkpt><trkpt lat="45.6313666" lon="9.4389569"><ele>222.0</ele><time>2026-04-14T14:25:37.479Z</time></trkpt><trkpt lat="45.6312741" lon="9.4389328"><ele>222.0</ele><time>2026-04-14T14:25:39.479Z</time></trkpt><trkpt lat="45.6312075" lon="9.4389745"><ele>222.0</ele><time>2026-04-14T14:25:40.479Z</time></trkpt><trkpt lat="45.6311153" lon="9.4389182"><ele>222.0</ele><time>2026-04-14T14:25:41.479Z</time></trkpt><trkpt lat="45.6310186" lon="9.4389437"><ele>222.0</ele><time>2026-04-14T14:25:42.479Z</time></trkpt><trkpt lat="45.630921" lon="9.4389687"><ele>222.0</ele><time>2026-04-14T14:25:43.478Z</time></trkpt><trkpt lat="45.6308452" lon="9.4390119"><ele>222.16666666666666</ele><time>2026-04-14T14:25:44.479Z</time></trkpt><trkpt lat="45.6307711" lon="9.4390314"><ele>222.33333333333331</ele><time>2026-04-14T14:25:45.478Z</time></trkpt><trkpt lat="45.6306912" lon="9.4390508"><ele>222.5</ele><time>2026-04-14T14:25:46.478Z</time></trkpt><trkpt lat="45.630623" lon="9.4390436"><ele>222.66666666666666</ele><time>2026-04-14T14:25:47.479Z</time></trkpt><trkpt lat="45.6305349" lon="9.4390283"><ele>222.83333333333331</ele><time>2026-04-14T14:25:48.479Z</time></trkpt><trkpt lat="45.6304457" lon="9.4390257"><ele>223.0</ele><time>2026-04-14T14:25:49.479Z</time></trkpt><trkpt lat="45.6303322" lon="9.4389634"><ele>222.99999999999997</ele><time>2026-04-14T14:25:50.479Z</time></trkpt><trkpt lat="45.6302471" lon="9.4389571"><ele>223.0</ele><time>2026-04-14T14:25:51.479Z</time></trkpt><trkpt lat="45.6301637" lon="9.438972"><ele>223.0</ele><time>2026-04-14T14:25:52.478Z</time></trkpt><trkpt lat="45.6300723" lon="9.4389146"><ele>223.0</ele><time>2026-04-14T14:25:53.479Z</time></trkpt><trkpt lat="45.6299685" lon="9.4388871"><ele>222.99999999999997</ele><time>2026-04-14T14:25:54.479Z</time></trkpt><trkpt lat="45.629905" lon="9.4388436"><ele>223.0</ele><time>2026-04-14T14:25:55.478Z</time></trkpt><trkpt lat="45.629833" lon="9.4387972"><ele>223.0</ele><time>2026-04-14T14:25:56.479Z</time></trkpt><trkpt lat="45.6297535" lon="9.4387089"><ele>223.0</ele><time>2026-04-14T14:25:57.479Z</time></trkpt><trkpt lat="45.6296887" lon="9.4386154"><ele>223.0</ele><time>2026-04-14T14:25:58.478Z</time></trkpt><trkpt lat="45.6296131" lon="9.4384921"><ele>223.0</ele><time>2026-04-14T14:25:59.478Z</time></trkpt><trkpt lat="45.6295375" lon="9.4384043"><ele>223.0</ele><time>2026-04-14T14:26:00.479Z</time></trkpt><trkpt lat="45.6294487" lon="9.4383243"><ele>222.8</ele><time>2026-04-14T14:26:01.478Z</time></trkpt><trkpt lat="45.6293732" lon="9.438282"><ele>222.60000000000002</ele><time>2026-04-14T14:26:02.478Z</time></trkpt><trkpt lat="45.6292885" lon="9.4381952"><ele>222.39999999999998</ele><time>2026-04-14T14:26:03.478Z</time></trkpt><trkpt lat="45.6291994" lon="9.4381499"><ele>222.2</ele><time>2026-04-14T14:26:04.479Z</time></trkpt><trkpt lat="45.6291077" lon="9.4380747"><ele>222.0</ele><time>2026-04-14T14:26:05.478Z</time></trkpt><trkpt lat="45.6290282" lon="9.4380245"><ele>222.0</ele><time>2026-04-14T14:26:06.479Z</time></trkpt><trkpt lat="45.6289356" lon="9.438028"><ele>222.0</ele><time>2026-04-14T14:26:07.479Z</time></trkpt><trkpt lat="45.628846" lon="9.4379896"><ele>222.0</ele><time>2026-04-14T14:26:08.479Z</time></trkpt><trkpt lat="45.6287537" lon="9.4380016"><ele>222.0</ele><time>2026-04-14T14:26:09.478Z</time></trkpt><trkpt lat="45.6286621" lon="9.4379929"><ele>222.0</ele><time>2026-04-14T14:26:10.479Z</time></trkpt><trkpt lat="45.628565" lon="9.4379975"><ele>221.83333333333334</ele><time>2026-04-14T14:26:11.479Z</time></trkpt><trkpt lat="45.6284856" lon="9.4379827"><ele>221.66666666666669</ele><time>2026-04-14T14:26:12.479Z</time></trkpt><trkpt lat="45.6283969" lon="9.4379535"><ele>221.5</ele><time>2026-04-14T14:26:13.478Z</time></trkpt><trkpt lat="45.6283123" lon="9.4379748"><ele>221.33333333333334</ele><time>2026-04-14T14:26:14.478Z</time></trkpt><trkpt lat="45.6282202" lon="9.4379684"><ele>221.16666666666669</ele><time>2026-04-14T14:26:15.478Z</time></trkpt><trkpt lat="45.6281226" lon="9.4379521"><ele>221.0</ele><time>2026-04-14T14:26:16.478Z</time></trkpt><trkpt lat="45.6280297" lon="9.4379409"><ele>221.00000000000003</ele><time>2026-04-14T14:26:17.479Z</time></trkpt><trkpt lat="45.6279452" lon="9.4379428"><ele>221.0</ele><time>2026-04-14T14:26:18.479Z</time></trkpt><trkpt lat="45.62787" lon="9.4379308"><ele>221.0</ele><time>2026-04-14T14:26:19.478Z</time></trkpt><trkpt lat="45.6277897" lon="9.4378723"><ele>221.0</ele><time>2026-04-14T14:26:20.479Z</time></trkpt><trkpt lat="45.6277043" lon="9.4378162"><ele>221.00000000000003</ele><time>2026-04-14T14:26:21.479Z</time></trkpt><trkpt lat="45.6276307" lon="9.4377611"><ele>221.0</ele><time>2026-04-14T14:26:22.479Z</time></trkpt><trkpt lat="45.6275539" lon="9.4377507"><ele>220.60000000000002</ele><time>2026-04-14T14:26:23.479Z</time></trkpt><trkpt lat="45.6274811" lon="9.4377497"><ele>220.20000000000002</ele><time>2026-04-14T14:26:24.479Z</time></trkpt><trkpt lat="45.6273693" lon="9.4377867"><ele>219.79999999999998</ele><time>2026-04-14T14:26:26.478Z</time></trkpt><trkpt lat="45.6272974" lon="9.4378369"><ele>219.39999999999998</ele><time>2026-04-14T14:26:27.479Z</time></trkpt><trkpt lat="45.6272138" lon="9.4378948"><ele>219.0</ele><time>2026-04-14T14:26:28.479Z</time></trkpt><trkpt lat="45.6271244" lon="9.437886"><ele>219.0</ele><time>2026-04-14T14:26:30.478Z</time></trkpt><trkpt lat="45.6270101" lon="9.4379247"><ele>219.0</ele><time>2026-04-14T14:26:31.478Z</time></trkpt><trkpt lat="45.6268919" lon="9.4379623"><ele>219.0</ele><time>2026-04-14T14:26:32.479Z</time></trkpt><trkpt lat="45.6268239" lon="9.4379941"><ele>219.0</ele><time>2026-04-14T14:26:33.478Z</time></trkpt><trkpt lat="45.6266622" lon="9.4379517"><ele>218.6</ele><time>2026-04-14T14:26:35.479Z</time></trkpt><trkpt lat="45.6265761" lon="9.4379943"><ele>218.2</ele><time>2026-04-14T14:26:36.478Z</time></trkpt><trkpt lat="45.626462" lon="9.4380774"><ele>217.79999999999998</ele><time>2026-04-14T14:26:38.479Z</time></trkpt><trkpt lat="45.6263051" lon="9.4380993"><ele>217.39999999999998</ele><time>2026-04-14T14:26:40.479Z</time></trkpt><trkpt lat="45.6262449" lon="9.4381421"><ele>217.0</ele><time>2026-04-14T14:26:41.479Z</time></trkpt><trkpt lat="45.6261702" lon="9.4381482"><ele>216.66666666666666</ele><time>2026-04-14T14:26:42.478Z</time></trkpt><trkpt lat="45.6261027" lon="9.438197"><ele>216.33333333333331</ele><time>2026-04-14T14:26:43.479Z</time></trkpt><trkpt lat="45.6260242" lon="9.4382386"><ele>216.0</ele><time>2026-04-14T14:26:44.479Z</time></trkpt><trkpt lat="45.6259352" lon="9.4383076"><ele>215.66666666666669</ele><time>2026-04-14T14:26:45.478Z</time></trkpt><trkpt lat="45.625873" lon="9.4383667"><ele>215.33333333333334</ele><time>2026-04-14T14:26:46.478Z</time></trkpt><trkpt lat="45.6258261" lon="9.4385021"><ele>215.0</ele><time>2026-04-14T14:26:48.479Z</time></trkpt><trkpt lat="45.6257605" lon="9.4386561"><ele>215.00000000000003</ele><time>2026-04-14T14:26:50.478Z</time></trkpt><trkpt lat="45.6257697" lon="9.4388002"><ele>215.0</ele><time>2026-04-14T14:26:51.478Z</time></trkpt><trkpt lat="45.6257241" lon="9.4388689"><ele>215.0</ele><time>2026-04-14T14:26:52.479Z</time></trkpt><trkpt lat="45.625698" lon="9.4389883"><ele>215.0</ele><time>2026-04-14T14:26:53.478Z</time></trkpt><trkpt lat="45.6256419" lon="9.4390397"><ele>215.00000000000003</ele><time>2026-04-14T14:26:54.479Z</time></trkpt><trkpt lat="45.6255864" lon="9.4391031"><ele>215.0</ele><time>2026-04-14T14:26:55.478Z</time></trkpt><trkpt lat="45.6255395" lon="9.4391791"><ele>215.2</ele><time>2026-04-14T14:26:56.478Z</time></trkpt><trkpt lat="45.6254334" lon="9.4392535"><ele>215.4</ele><time>2026-04-14T14:26:58.479Z</time></trkpt><trkpt lat="45.6252846" lon="9.4392629"><ele>215.60000000000002</ele><time>2026-04-14T14:27:00.479Z</time></trkpt><trkpt lat="45.6252242" lon="9.4392274"><ele>215.8</ele><time>2026-04-14T14:27:01.478Z</time></trkpt><trkpt lat="45.6251465" lon="9.439232"><ele>216.0</ele><time>2026-04-14T14:27:02.479Z</time></trkpt><trkpt lat="45.625051" lon="9.4392055"><ele>215.4</ele><time>2026-04-14T14:27:03.479Z</time></trkpt><trkpt lat="45.6249528" lon="9.4392182"><ele>214.8</ele><time>2026-04-14T14:27:04.479Z</time></trkpt><trkpt lat="45.6248813" lon="9.4391466"><ele>214.20000000000002</ele><time>2026-04-14T14:27:05.479Z</time></trkpt><trkpt lat="45.6247977" lon="9.4390809"><ele>213.60000000000002</ele><time>2026-04-14T14:27:06.478Z</time></trkpt><trkpt lat="45.624696" lon="9.4391298"><ele>213.0</ele><time>2026-04-14T14:27:07.479Z</time></trkpt><trkpt lat="45.6246124" lon="9.4391213"><ele>213.0</ele><time>2026-04-14T14:27:08.479Z</time></trkpt><trkpt lat="45.624521" lon="9.4390495"><ele>213.0</ele><time>2026-04-14T14:27:09.478Z</time></trkpt><trkpt lat="45.6244428" lon="9.4390055"><ele>213.0</ele><time>2026-04-14T14:27:10.479Z</time></trkpt><trkpt lat="45.6243547" lon="9.4390384"><ele>213.0</ele><time>2026-04-14T14:27:11.479Z</time></trkpt><trkpt lat="45.62425" lon="9.4389596"><ele>213.0</ele><time>2026-04-14T14:27:12.479Z</time></trkpt><trkpt lat="45.624168" lon="9.4389621"><ele>213.0</ele><time>2026-04-14T14:27:13.479Z</time></trkpt><trkpt lat="45.6240819" lon="9.4389734"><ele>213.0</ele><time>2026-04-14T14:27:14.479Z</time></trkpt><trkpt lat="45.6239897" lon="9.4389732"><ele>213.0</ele><time>2026-04-14T14:27:15.478Z</time></trkpt><trkpt lat="45.6239202" lon="9.4389466"><ele>213.0</ele><time>2026-04-14T14:27:16.479Z</time></trkpt><trkpt lat="45.6238173" lon="9.4389033"><ele>213.0</ele><time>2026-04-14T14:27:17.479Z</time></trkpt><trkpt lat="45.6237272" lon="9.4388677"><ele>213.0</ele><time>2026-04-14T14:27:18.479Z</time></trkpt><trkpt lat="45.6236615" lon="9.4388403"><ele>213.0</ele><time>2026-04-14T14:27:19.479Z</time></trkpt><trkpt lat="45.6235689" lon="9.4388138"><ele>213.0</ele><time>2026-04-14T14:27:20.479Z</time></trkpt><trkpt lat="45.6234873" lon="9.4387743"><ele>213.0</ele><time>2026-04-14T14:27:21.479Z</time></trkpt><trkpt lat="45.6234005" lon="9.4387643"><ele>213.0</ele><time>2026-04-14T14:27:22.479Z</time></trkpt><trkpt lat="45.6233193" lon="9.4387484"><ele>213.0</ele><time>2026-04-14T14:27:23.479Z</time></trkpt><trkpt lat="45.6232324" lon="9.4387059"><ele>212.83333333333334</ele><time>2026-04-14T14:27:24.479Z</time></trkpt><trkpt lat="45.6231488" lon="9.4386682"><ele>212.66666666666669</ele><time>2026-04-14T14:27:25.479Z</time></trkpt><trkpt lat="45.6230665" lon="9.4386506"><ele>212.5</ele><time>2026-04-14T14:27:26.478Z</time></trkpt><trkpt lat="45.6229804" lon="9.4386142"><ele>212.33333333333334</ele><time>2026-04-14T14:27:27.479Z</time></trkpt><trkpt lat="45.6228967" lon="9.4385608"><ele>212.16666666666669</ele><time>2026-04-14T14:27:28.479Z</time></trkpt><trkpt lat="45.622816" lon="9.438521"><ele>212.0</ele><time>2026-04-14T14:27:29.478Z</time></trkpt><trkpt lat="45.622731" lon="9.4384832"><ele>212.0</ele><time>2026-04-14T14:27:30.478Z</time></trkpt><trkpt lat="45.6226162" lon="9.4384361"><ele>212.0</ele><time>2026-04-14T14:27:32.478Z</time></trkpt><trkpt lat="45.6225535" lon="9.4383748"><ele>212.0</ele><time>2026-04-14T14:27:33.479Z</time></trkpt><trkpt lat="45.6224343" lon="9.4383328"><ele>212.0</ele><time>2026-04-14T14:27:35.479Z</time></trkpt><trkpt lat="45.6223566" lon="9.4383047"><ele>212.0</ele><time>2026-04-14T14:27:36.479Z</time></trkpt><trkpt lat="45.6222824" lon="9.4382518"><ele>212.0</ele><time>2026-04-14T14:27:37.478Z</time></trkpt><trkpt lat="45.6221633" lon="9.4381741"><ele>212.0</ele><time>2026-04-14T14:27:39.478Z</time></trkpt><trkpt lat="45.6220432" lon="9.43818"><ele>212.0</ele><time>2026-04-14T14:27:41.478Z</time></trkpt><trkpt lat="45.6219664" lon="9.4381617"><ele>212.0</ele><time>2026-04-14T14:27:42.479Z</time></trkpt><trkpt lat="45.6218631" lon="9.4381285"><ele>212.0</ele><time>2026-04-14T14:27:44.479Z</time></trkpt><trkpt lat="45.6217583" lon="9.4380548"><ele>212.00000000000003</ele><time>2026-04-14T14:27:46.479Z</time></trkpt><trkpt lat="45.6217052" lon="9.4379929"><ele>212.0</ele><time>2026-04-14T14:27:49.478Z</time></trkpt><trkpt lat="45.6216795" lon="9.4378525"><ele>212.0</ele><time>2026-04-14T14:27:51.478Z</time></trkpt><trkpt lat="45.6217119" lon="9.4377156"><ele>212.0</ele><time>2026-04-14T14:27:53.478Z</time></trkpt><trkpt lat="45.621739" lon="9.4376301"><ele>212.00000000000003</ele><time>2026-04-14T14:27:54.479Z</time></trkpt><trkpt lat="45.6217436" lon="9.4374785"><ele>212.0</ele><time>2026-04-14T14:27:56.479Z</time></trkpt><trkpt lat="45.6217714" lon="9.4373304"><ele>211.83333333333334</ele><time>2026-04-14T14:27:58.479Z</time></trkpt><trkpt lat="45.6217847" lon="9.4372389"><ele>211.66666666666669</ele><time>2026-04-14T14:27:59.478Z</time></trkpt><trkpt lat="45.6218039" lon="9.437147"><ele>211.5</ele><time>2026-04-14T14:28:00.479Z</time></trkpt><trkpt lat="45.6218236" lon="9.4370412"><ele>211.33333333333331</ele><time>2026-04-14T14:28:01.479Z</time></trkpt><trkpt lat="45.6218468" lon="9.4369287"><ele>211.16666666666666</ele><time>2026-04-14T14:28:02.478Z</time></trkpt><trkpt lat="45.6218806" lon="9.4367452"><ele>211.0</ele><time>2026-04-14T14:28:04.478Z</time></trkpt><trkpt lat="45.6218948" lon="9.4366508"><ele>210.99999999999997</ele><time>2026-04-14T14:28:05.479Z</time></trkpt><trkpt lat="45.6219103" lon="9.4365538"><ele>211.0</ele><time>2026-04-14T14:28:06.479Z</time></trkpt><trkpt lat="45.6219287" lon="9.4364489"><ele>211.0</ele><time>2026-04-14T14:28:07.478Z</time></trkpt><trkpt lat="45.6219327" lon="9.4362592"><ele>211.0</ele><time>2026-04-14T14:28:09.479Z</time></trkpt><trkpt lat="45.6219527" lon="9.436154"><ele>210.99999999999997</ele><time>2026-04-14T14:28:10.479Z</time></trkpt><trkpt lat="45.6219712" lon="9.4360507"><ele>211.0</ele><time>2026-04-14T14:28:11.479Z</time></trkpt><trkpt lat="45.6219885" lon="9.4359576"><ele>211.0</ele><time>2026-04-14T14:28:12.479Z</time></trkpt><trkpt lat="45.6220141" lon="9.4358495"><ele>211.0</ele><time>2026-04-14T14:28:13.479Z</time></trkpt><trkpt lat="45.6220473" lon="9.435679"><ele>211.0</ele><time>2026-04-14T14:28:15.479Z</time></trkpt><trkpt lat="45.6220377" lon="9.4355325"><ele>211.0</ele><time>2026-04-14T14:28:17.478Z</time></trkpt><trkpt lat="45.6219889" lon="9.435456"><ele>211.0</ele><time>2026-04-14T14:28:19.478Z</time></trkpt><trkpt lat="45.6218904" lon="9.4354269"><ele>211.0</ele><time>2026-04-14T14:28:21.479Z</time></trkpt><trkpt lat="45.6218092" lon="9.4354158"><ele>211.0</ele><time>2026-04-14T14:28:22.478Z</time></trkpt><trkpt lat="45.6217451" lon="9.4353877"><ele>211.0</ele><time>2026-04-14T14:28:23.479Z</time></trkpt><trkpt lat="45.6216698" lon="9.4353667"><ele>211.0</ele><time>2026-04-14T14:28:24.478Z</time></trkpt><trkpt lat="45.6216062" lon="9.4353391"><ele>211.0</ele><time>2026-04-14T14:28:25.479Z</time></trkpt><trkpt lat="45.6215425" lon="9.4353213"><ele>211.0</ele><time>2026-04-14T14:28:26.479Z</time></trkpt><trkpt lat="45.6214774" lon="9.4352967"><ele>211.0</ele><time>2026-04-14T14:28:27.478Z</time></trkpt><trkpt lat="45.6214139" lon="9.435277"><ele>210.99999999999997</ele><time>2026-04-14T14:28:28.479Z</time></trkpt><trkpt lat="45.6213496" lon="9.4352993"><ele>211.0</ele><time>2026-04-14T14:28:29.479Z</time></trkpt><trkpt lat="45.6212837" lon="9.4352743"><ele>211.0</ele><time>2026-04-14T14:28:30.478Z</time></trkpt><trkpt lat="45.6211734" lon="9.4353022"><ele>211.0</ele><time>2026-04-14T14:28:32.479Z</time></trkpt><trkpt lat="45.6211042" lon="9.4352565"><ele>210.99999999999997</ele><time>2026-04-14T14:28:33.479Z</time></trkpt><trkpt lat="45.6210426" lon="9.4352281"><ele>211.0</ele><time>2026-04-14T14:28:34.479Z</time></trkpt><trkpt lat="45.6209004" lon="9.4351891"><ele>211.49999999999997</ele><time>2026-04-14T14:28:36.478Z</time></trkpt><trkpt lat="45.6208209" lon="9.4351546"><ele>212.0</ele><time>2026-04-14T14:28:37.479Z</time></trkpt><trkpt lat="45.6207422" lon="9.435106"><ele>212.5</ele><time>2026-04-14T14:28:38.479Z</time></trkpt><trkpt lat="45.6206788" lon="9.4350783"><ele>213.0</ele><time>2026-04-14T14:28:39.479Z</time></trkpt><trkpt lat="45.620612" lon="9.4350698"><ele>213.49999999999997</ele><time>2026-04-14T14:28:40.478Z</time></trkpt><trkpt lat="45.6204822" lon="9.4350124"><ele>214.0</ele><time>2026-04-14T14:28:42.479Z</time></trkpt><trkpt lat="45.6203783" lon="9.434915"><ele>214.0</ele><time>2026-04-14T14:28:44.478Z</time></trkpt><trkpt lat="45.6203338" lon="9.4348356"><ele>213.99999999999997</ele><time>2026-04-14T14:28:45.479Z</time></trkpt><trkpt lat="45.6203077" lon="9.4347411"><ele>213.99999999999997</ele><time>2026-04-14T14:28:46.479Z</time></trkpt><trkpt lat="45.6202581" lon="9.4346182"><ele>214.0</ele><time>2026-04-14T14:28:48.479Z</time></trkpt><trkpt lat="45.6202763" lon="9.4344763"><ele>214.0</ele><time>2026-04-14T14:28:50.479Z</time></trkpt><trkpt lat="45.6203107" lon="9.4343172"><ele>213.66666666666666</ele><time>2026-04-14T14:28:52.479Z</time></trkpt><trkpt lat="45.6203368" lon="9.434205"><ele>213.33333333333331</ele><time>2026-04-14T14:28:53.478Z</time></trkpt><trkpt lat="45.6203661" lon="9.4340969"><ele>213.0</ele><time>2026-04-14T14:28:54.479Z</time></trkpt><trkpt lat="45.6203839" lon="9.4339831"><ele>212.66666666666669</ele><time>2026-04-14T14:28:55.479Z</time></trkpt><trkpt lat="45.6204019" lon="9.4338872"><ele>212.33333333333334</ele><time>2026-04-14T14:28:56.479Z</time></trkpt><trkpt lat="45.6204116" lon="9.4337607"><ele>212.0</ele><time>2026-04-14T14:28:57.479Z</time></trkpt><trkpt lat="45.6204369" lon="9.4336541"><ele>211.66666666666669</ele><time>2026-04-14T14:28:58.478Z</time></trkpt><trkpt lat="45.6204666" lon="9.4335274"><ele>211.33333333333334</ele><time>2026-04-14T14:28:59.479Z</time></trkpt><trkpt lat="45.6204794" lon="9.4334368"><ele>211.0</ele><time>2026-04-14T14:29:00.479Z</time></trkpt><trkpt lat="45.6204972" lon="9.4333437"><ele>210.66666666666669</ele><time>2026-04-14T14:29:01.478Z</time></trkpt><trkpt lat="45.6205305" lon="9.433222"><ele>210.33333333333334</ele><time>2026-04-14T14:29:02.478Z</time></trkpt><trkpt lat="45.6205429" lon="9.4331284"><ele>210.0</ele><time>2026-04-14T14:29:03.478Z</time></trkpt><trkpt lat="45.6205672" lon="9.4330129"><ele>210.33333333333334</ele><time>2026-04-14T14:29:04.479Z</time></trkpt><trkpt lat="45.6205937" lon="9.4329076"><ele>210.66666666666669</ele><time>2026-04-14T14:29:05.479Z</time></trkpt><trkpt lat="45.6206163" lon="9.4327897"><ele>211.0</ele><time>2026-04-14T14:29:06.478Z</time></trkpt><trkpt lat="45.6206343" lon="9.432616"><ele>211.33333333333334</ele><time>2026-04-14T14:29:08.479Z</time></trkpt><trkpt lat="45.6206378" lon="9.4325228"><ele>211.66666666666669</ele><time>2026-04-14T14:29:09.479Z</time></trkpt><trkpt lat="45.6206339" lon="9.4323987"><ele>212.0</ele><time>2026-04-14T14:29:11.479Z</time></trkpt><trkpt lat="45.6206559" lon="9.4322613"><ele>211.8</ele><time>2026-04-14T14:29:12.478Z</time></trkpt><trkpt lat="45.620675" lon="9.432134"><ele>211.6</ele><time>2026-04-14T14:29:13.478Z</time></trkpt><trkpt lat="45.6206965" lon="9.4319699"><ele>211.4</ele><time>2026-04-14T14:29:15.479Z</time></trkpt><trkpt lat="45.6207177" lon="9.4318534"><ele>211.20000000000002</ele><time>2026-04-14T14:29:16.479Z</time></trkpt><trkpt lat="45.6207541" lon="9.4316822"><ele>211.0</ele><time>2026-04-14T14:29:17.478Z</time></trkpt><trkpt lat="45.6207622" lon="9.4315882"><ele>211.0</ele><time>2026-04-14T14:29:18.479Z</time></trkpt><trkpt lat="45.620774" lon="9.4314911"><ele>211.0</ele><time>2026-04-14T14:29:19.479Z</time></trkpt><trkpt lat="45.6207937" lon="9.4313069"><ele>211.0</ele><time>2026-04-14T14:29:21.479Z</time></trkpt><trkpt lat="45.6208028" lon="9.4312123"><ele>211.0</ele><time>2026-04-14T14:29:22.478Z</time></trkpt><trkpt lat="45.6208226" lon="9.4310966"><ele>211.0</ele><time>2026-04-14T14:29:23.479Z</time></trkpt><trkpt lat="45.6208492" lon="9.4309168"><ele>210.8</ele><time>2026-04-14T14:29:25.479Z</time></trkpt><trkpt lat="45.62086" lon="9.4307531"><ele>210.60000000000002</ele><time>2026-04-14T14:29:27.479Z</time></trkpt><trkpt lat="45.6208112" lon="9.4306105"><ele>210.4</ele><time>2026-04-14T14:29:29.479Z</time></trkpt><trkpt lat="45.6207486" lon="9.4305282"><ele>210.2</ele><time>2026-04-14T14:29:31.479Z</time></trkpt><trkpt lat="45.6206152" lon="9.4305708"><ele>210.0</ele><time>2026-04-14T14:29:33.479Z</time></trkpt><trkpt lat="45.6204919" lon="9.430596"><ele>210.0</ele><time>2026-04-14T14:29:35.479Z</time></trkpt><trkpt lat="45.6204264" lon="9.4305722"><ele>210.0</ele><time>2026-04-14T14:29:36.479Z</time></trkpt><trkpt lat="45.6203086" lon="9.4305602"><ele>210.0</ele><time>2026-04-14T14:29:38.478Z</time></trkpt><trkpt lat="45.6202351" lon="9.430563"><ele>210.0</ele><time>2026-04-14T14:29:39.479Z</time></trkpt><trkpt lat="45.6201637" lon="9.4305675"><ele>210.0</ele><time>2026-04-14T14:29:40.479Z</time></trkpt><trkpt lat="45.6200938" lon="9.4305461"><ele>210.0</ele><time>2026-04-14T14:29:41.479Z</time></trkpt><trkpt lat="45.6200077" lon="9.4305367"><ele>210.0</ele><time>2026-04-14T14:29:42.479Z</time></trkpt><trkpt lat="45.6199329" lon="9.430541"><ele>210.0</ele><time>2026-04-14T14:29:43.479Z</time></trkpt><trkpt lat="45.6198497" lon="9.4305174"><ele>210.0</ele><time>2026-04-14T14:29:44.479Z</time></trkpt><trkpt lat="45.6197669" lon="9.4305158"><ele>210.0</ele><time>2026-04-14T14:29:45.479Z</time></trkpt><trkpt lat="45.6196846" lon="9.4305234"><ele>210.0</ele><time>2026-04-14T14:29:46.479Z</time></trkpt><trkpt lat="45.61957" lon="9.4304802"><ele>210.0</ele><time>2026-04-14T14:29:48.479Z</time></trkpt><trkpt lat="45.6195063" lon="9.4304525"><ele>209.6</ele><time>2026-04-14T14:29:49.479Z</time></trkpt><trkpt lat="45.6193874" lon="9.4304139"><ele>209.2</ele><time>2026-04-14T14:29:51.479Z</time></trkpt><trkpt lat="45.6193217" lon="9.4304209"><ele>208.8</ele><time>2026-04-14T14:29:52.479Z</time></trkpt><trkpt lat="45.6191975" lon="9.430416"><ele>208.4</ele><time>2026-04-14T14:29:54.479Z</time></trkpt><trkpt lat="45.6191319" lon="9.4304217"><ele>208.0</ele><time>2026-04-14T14:29:55.479Z</time></trkpt><trkpt lat="45.6190151" lon="9.4303934"><ele>208.0</ele><time>2026-04-14T14:29:57.478Z</time></trkpt><trkpt lat="45.6189485" lon="9.4304487"><ele>208.0</ele><time>2026-04-14T14:29:58.479Z</time></trkpt><trkpt lat="45.6188146" lon="9.4305358"><ele>208.0</ele><time>2026-04-14T14:30:00.479Z</time></trkpt><trkpt lat="45.6186844" lon="9.4305627"><ele>208.0</ele><time>2026-04-14T14:30:02.478Z</time></trkpt><trkpt lat="45.6185646" lon="9.4305968"><ele>208.0</ele><time>2026-04-14T14:30:03.479Z</time></trkpt><trkpt lat="45.6184629" lon="9.4306317"><ele>208.0</ele><time>2026-04-14T14:30:04.479Z</time></trkpt><trkpt lat="45.6183207" lon="9.4307181"><ele>208.0</ele><time>2026-04-14T14:30:07.478Z</time></trkpt><trkpt lat="45.6182808" lon="9.4307885"><ele>208.0</ele><time>2026-04-14T14:30:08.479Z</time></trkpt><trkpt lat="45.6181927" lon="9.4308841"><ele>208.0</ele><time>2026-04-14T14:30:09.478Z</time></trkpt><trkpt lat="45.6181311" lon="9.4310045"><ele>207.99999999999997</ele><time>2026-04-14T14:30:11.479Z</time></trkpt><trkpt lat="45.6180507" lon="9.4311303"><ele>208.0</ele><time>2026-04-14T14:30:13.479Z</time></trkpt><trkpt lat="45.6180156" lon="9.431221"><ele>208.0</ele><time>2026-04-14T14:30:14.479Z</time></trkpt><trkpt lat="45.6179748" lon="9.4312979"><ele>208.0</ele><time>2026-04-14T14:30:15.479Z</time></trkpt><trkpt lat="45.6179559" lon="9.4314413"><ele>207.99999999999997</ele><time>2026-04-14T14:30:16.478Z</time></trkpt><trkpt lat="45.6179076" lon="9.431535"><ele>208.0</ele><time>2026-04-14T14:30:17.479Z</time></trkpt><trkpt lat="45.6178676" lon="9.4317054"><ele>207.60000000000002</ele><time>2026-04-14T14:30:19.479Z</time></trkpt><trkpt lat="45.6178138" lon="9.4318691"><ele>207.20000000000002</ele><time>2026-04-14T14:30:21.479Z</time></trkpt><trkpt lat="45.6177734" lon="9.4319919"><ele>206.8</ele><time>2026-04-14T14:30:23.479Z</time></trkpt><trkpt lat="45.6177334" lon="9.4321023"><ele>206.4</ele><time>2026-04-14T14:30:24.479Z</time></trkpt><trkpt lat="45.617689" lon="9.4321771"><ele>206.0</ele><time>2026-04-14T14:30:25.479Z</time></trkpt><trkpt lat="45.6176372" lon="9.4323862"><ele>206.00000000000003</ele><time>2026-04-14T14:30:27.479Z</time></trkpt><trkpt lat="45.6176224" lon="9.4324997"><ele>206.0</ele><time>2026-04-14T14:30:28.479Z</time></trkpt><trkpt lat="45.6175823" lon="9.4326249"><ele>206.0</ele><time>2026-04-14T14:30:30.479Z</time></trkpt><trkpt lat="45.6175384" lon="9.4326957"><ele>206.0</ele><time>2026-04-14T14:30:31.479Z</time></trkpt><trkpt lat="45.6174638" lon="9.432854"><ele>206.00000000000003</ele><time>2026-04-14T14:30:33.479Z</time></trkpt><trkpt lat="45.6174079" lon="9.4329042"><ele>206.0</ele><time>2026-04-14T14:30:34.478Z</time></trkpt><trkpt lat="45.6173403" lon="9.4329698"><ele>206.00000000000003</ele><time>2026-04-14T14:30:36.479Z</time></trkpt><trkpt lat="45.6172937" lon="9.4330477"><ele>206.0</ele><time>2026-04-14T14:30:37.479Z</time></trkpt><trkpt lat="45.6172459" lon="9.433111"><ele>206.0</ele><time>2026-04-14T14:30:38.479Z</time></trkpt><trkpt lat="45.617191" lon="9.4331895"><ele>206.0</ele><time>2026-04-14T14:30:39.479Z</time></trkpt><trkpt lat="45.617144" lon="9.433271"><ele>206.00000000000003</ele><time>2026-04-14T14:30:40.478Z</time></trkpt><trkpt lat="45.6170806" lon="9.433338"><ele>206.0</ele><time>2026-04-14T14:30:41.479Z</time></trkpt><trkpt lat="45.6170307" lon="9.4334399"><ele>206.00000000000003</ele><time>2026-04-14T14:30:42.479Z</time></trkpt><trkpt lat="45.6169859" lon="9.433532"><ele>206.0</ele><time>2026-04-14T14:30:43.478Z</time></trkpt><trkpt lat="45.6169464" lon="9.4336477"><ele>206.0</ele><time>2026-04-14T14:30:44.479Z</time></trkpt><trkpt lat="45.6169013" lon="9.4337117"><ele>206.0</ele><time>2026-04-14T14:30:45.479Z</time></trkpt><trkpt lat="45.6168536" lon="9.4337858"><ele>206.00000000000003</ele><time>2026-04-14T14:30:46.479Z</time></trkpt><trkpt lat="45.6167982" lon="9.4338695"><ele>206.0</ele><time>2026-04-14T14:30:47.479Z</time></trkpt><trkpt lat="45.6167444" lon="9.4339316"><ele>206.00000000000003</ele><time>2026-04-14T14:30:48.479Z</time></trkpt><trkpt lat="45.6166713" lon="9.4339846"><ele>206.0</ele><time>2026-04-14T14:30:50.478Z</time></trkpt><trkpt lat="45.6165643" lon="9.4339517"><ele>206.0</ele><time>2026-04-14T14:30:52.479Z</time></trkpt><trkpt lat="45.6165083" lon="9.4338982"><ele>206.0</ele><time>2026-04-14T14:30:53.479Z</time></trkpt><trkpt lat="45.6164521" lon="9.4338469"><ele>206.00000000000003</ele><time>2026-04-14T14:30:54.478Z</time></trkpt><trkpt lat="45.6164103" lon="9.4337437"><ele>206.0</ele><time>2026-04-14T14:30:55.479Z</time></trkpt><trkpt lat="45.6163264" lon="9.4335795"><ele>205.75</ele><time>2026-04-14T14:30:57.479Z</time></trkpt><trkpt lat="45.6162727" lon="9.4334554"><ele>205.5</ele><time>2026-04-14T14:30:59.479Z</time></trkpt><trkpt lat="45.6162164" lon="9.4332437"><ele>205.25</ele><time>2026-04-14T14:31:01.478Z</time></trkpt><trkpt lat="45.6162034" lon="9.4330589"><ele>205.0</ele><time>2026-04-14T14:31:03.479Z</time></trkpt><trkpt lat="45.6162005" lon="9.4328827"><ele>204.99999999999997</ele><time>2026-04-14T14:31:05.478Z</time></trkpt><trkpt lat="45.616187" lon="9.432782"><ele>205.0</ele><time>2026-04-14T14:31:06.479Z</time></trkpt><trkpt lat="45.6161703" lon="9.4326875"><ele>205.0</ele><time>2026-04-14T14:31:07.479Z</time></trkpt><trkpt lat="45.6161766" lon="9.4325738"><ele>205.0</ele><time>2026-04-14T14:31:08.478Z</time></trkpt><trkpt lat="45.6161694" lon="9.4324285"><ele>204.99999999999997</ele><time>2026-04-14T14:31:10.479Z</time></trkpt><trkpt lat="45.6161634" lon="9.4323284"><ele>205.0</ele><time>2026-04-14T14:31:11.479Z</time></trkpt><trkpt lat="45.616157" lon="9.4322288"><ele>205.0</ele><time>2026-04-14T14:31:12.479Z</time></trkpt><trkpt lat="45.616162" lon="9.4321364"><ele>205.0</ele><time>2026-04-14T14:31:13.478Z</time></trkpt><trkpt lat="45.6161474" lon="9.4319768"><ele>205.0</ele><time>2026-04-14T14:31:15.478Z</time></trkpt><trkpt lat="45.616062" lon="9.4319752"><ele>205.0</ele><time>2026-04-14T14:31:18.479Z</time></trkpt><trkpt lat="45.6159898" lon="9.432069"><ele>205.0</ele><time>2026-04-14T14:31:20.479Z</time></trkpt><trkpt lat="45.6159552" lon="9.4321893"><ele>204.8</ele><time>2026-04-14T14:31:22.478Z</time></trkpt><trkpt lat="45.6159226" lon="9.4323069"><ele>204.6</ele><time>2026-04-14T14:31:24.479Z</time></trkpt><trkpt lat="45.6158808" lon="9.432456"><ele>204.39999999999998</ele><time>2026-04-14T14:31:26.479Z</time></trkpt><trkpt lat="45.6158581" lon="9.4326404"><ele>204.2</ele><time>2026-04-14T14:31:28.479Z</time></trkpt><trkpt lat="45.6158979" lon="9.4327648"><ele>204.0</ele><time>2026-04-14T14:31:30.478Z</time></trkpt><trkpt lat="45.6158727" lon="9.4328511"><ele>204.0</ele><time>2026-04-14T14:31:33.479Z</time></trkpt><trkpt lat="45.6157744" lon="9.4330097"><ele>204.0</ele><time>2026-04-14T14:31:40.472Z</time></trkpt><trkpt lat="45.6157759" lon="9.4331344"><ele>204.0</ele><time>2026-04-14T14:31:41.469Z</time></trkpt><trkpt lat="45.615756" lon="9.433372"><ele>204.0</ele><time>2026-04-14T14:31:42.477Z</time></trkpt><trkpt lat="45.6157324" lon="9.4334642"><ele>204.0</ele><time>2026-04-14T14:31:43.478Z</time></trkpt><trkpt lat="45.6156644" lon="9.4335184"><ele>204.0</ele><time>2026-04-14T14:31:45.483Z</time></trkpt><trkpt lat="45.6155589" lon="9.4336041"><ele>204.0</ele><time>2026-04-14T14:31:47.483Z</time></trkpt><trkpt lat="45.6154746" lon="9.4336256"><ele>204.0</ele><time>2026-04-14T14:31:49.483Z</time></trkpt><trkpt lat="45.61542" lon="9.4335487"><ele>204.0</ele><time>2026-04-14T14:31:50.483Z</time></trkpt><trkpt lat="45.615353" lon="9.4335388"><ele>204.0</ele><time>2026-04-14T14:31:51.483Z</time></trkpt><trkpt lat="45.6152878" lon="9.4335166"><ele>204.16666666666666</ele><time>2026-04-14T14:31:52.483Z</time></trkpt><trkpt lat="45.6152354" lon="9.433463"><ele>204.33333333333331</ele><time>2026-04-14T14:31:53.483Z</time></trkpt><trkpt lat="45.615131" lon="9.4333803"><ele>204.5</ele><time>2026-04-14T14:31:55.483Z</time></trkpt><trkpt lat="45.6150543" lon="9.4333428"><ele>204.66666666666666</ele><time>2026-04-14T14:31:56.483Z</time></trkpt><trkpt lat="45.6149701" lon="9.4333246"><ele>204.83333333333331</ele><time>2026-04-14T14:31:58.483Z</time></trkpt><trkpt lat="45.6149011" lon="9.4333241"><ele>205.0</ele><time>2026-04-14T14:31:59.482Z</time></trkpt><trkpt lat="45.6148219" lon="9.4332653"><ele>205.0</ele><time>2026-04-14T14:32:00.482Z</time></trkpt><trkpt lat="45.6147306" lon="9.4332042"><ele>205.0</ele><time>2026-04-14T14:32:01.482Z</time></trkpt><trkpt lat="45.6145978" lon="9.4331465"><ele>205.0</ele><time>2026-04-14T14:32:03.482Z</time></trkpt><trkpt lat="45.6145411" lon="9.4331034"><ele>205.0</ele><time>2026-04-14T14:32:04.483Z</time></trkpt><trkpt lat="45.6144588" lon="9.4330484"><ele>205.0</ele><time>2026-04-14T14:32:06.483Z</time></trkpt><trkpt lat="45.6143355" lon="9.4329985"><ele>204.66666666666666</ele><time>2026-04-14T14:32:08.482Z</time></trkpt><trkpt lat="45.6142705" lon="9.432958"><ele>204.33333333333331</ele><time>2026-04-14T14:32:09.483Z</time></trkpt><trkpt lat="45.6141838" lon="9.4329338"><ele>204.0</ele><time>2026-04-14T14:32:10.482Z</time></trkpt><trkpt lat="45.6140874" lon="9.4328959"><ele>203.66666666666669</ele><time>2026-04-14T14:32:11.483Z</time></trkpt><trkpt lat="45.6140083" lon="9.4328929"><ele>203.33333333333334</ele><time>2026-04-14T14:32:12.483Z</time></trkpt><trkpt lat="45.6139245" lon="9.432894"><ele>203.0</ele><time>2026-04-14T14:32:14.483Z</time></trkpt><trkpt lat="45.6138243" lon="9.4329564"><ele>203.0</ele><time>2026-04-14T14:32:16.482Z</time></trkpt><trkpt lat="45.6137557" lon="9.4329948"><ele>203.0</ele><time>2026-04-14T14:32:18.483Z</time></trkpt><trkpt lat="45.6136629" lon="9.4330134"><ele>203.0</ele><time>2026-04-14T14:32:19.482Z</time></trkpt><trkpt lat="45.6135491" lon="9.4329765"><ele>203.0</ele><time>2026-04-14T14:32:21.482Z</time></trkpt><trkpt lat="45.6134223" lon="9.4328602"><ele>203.0</ele><time>2026-04-14T14:32:23.483Z</time></trkpt><trkpt lat="45.6132967" lon="9.4327819"><ele>203.00000000000003</ele><time>2026-04-14T14:32:25.483Z</time></trkpt><trkpt lat="45.6131675" lon="9.4326884"><ele>203.0</ele><time>2026-04-14T14:32:27.483Z</time></trkpt><trkpt lat="45.6130997" lon="9.4326598"><ele>203.0</ele><time>2026-04-14T14:32:28.483Z</time></trkpt><trkpt lat="45.6130377" lon="9.4326331"><ele>203.0</ele><time>2026-04-14T14:32:29.483Z</time></trkpt><trkpt lat="45.612972" lon="9.4326179"><ele>203.00000000000003</ele><time>2026-04-14T14:32:30.482Z</time></trkpt><trkpt lat="45.6129019" lon="9.4325879"><ele>203.0</ele><time>2026-04-14T14:32:31.483Z</time></trkpt><trkpt lat="45.6127784" lon="9.4325437"><ele>203.00000000000003</ele><time>2026-04-14T14:32:33.483Z</time></trkpt><trkpt lat="45.6127113" lon="9.4325078"><ele>203.0</ele><time>2026-04-14T14:32:34.483Z</time></trkpt><trkpt lat="45.6126367" lon="9.4324982"><ele>203.0</ele><time>2026-04-14T14:32:35.483Z</time></trkpt><trkpt lat="45.6125629" lon="9.4324965"><ele>203.0</ele><time>2026-04-14T14:32:36.483Z</time></trkpt><trkpt lat="45.6124846" lon="9.4324803"><ele>203.00000000000003</ele><time>2026-04-14T14:32:37.483Z</time></trkpt><trkpt lat="45.6123623" lon="9.4324667"><ele>203.0</ele><time>2026-04-14T14:32:39.482Z</time></trkpt><trkpt lat="45.6122888" lon="9.4324558"><ele>203.0</ele><time>2026-04-14T14:32:40.483Z</time></trkpt><trkpt lat="45.6121847" lon="9.4324436"><ele>203.0</ele><time>2026-04-14T14:32:41.483Z</time></trkpt><trkpt lat="45.6121147" lon="9.4324324"><ele>203.0</ele><time>2026-04-14T14:32:42.483Z</time></trkpt><trkpt lat="45.6119948" lon="9.4323972"><ele>203.0</ele><time>2026-04-14T14:32:44.483Z</time></trkpt><trkpt lat="45.61189" lon="9.4323244"><ele>203.0</ele><time>2026-04-14T14:32:46.483Z</time></trkpt><trkpt lat="45.6118323" lon="9.4322755"><ele>202.83333333333334</ele><time>2026-04-14T14:32:47.483Z</time></trkpt><trkpt lat="45.611777" lon="9.432169"><ele>202.66666666666669</ele><time>2026-04-14T14:32:49.482Z</time></trkpt><trkpt lat="45.6117248" lon="9.432113"><ele>202.5</ele><time>2026-04-14T14:32:50.482Z</time></trkpt><trkpt lat="45.6117022" lon="9.4320257"><ele>202.33333333333331</ele><time>2026-04-14T14:32:51.483Z</time></trkpt><trkpt lat="45.6115918" lon="9.4319987"><ele>202.16666666666666</ele><time>2026-04-14T14:32:53.482Z</time></trkpt><trkpt lat="45.6115188" lon="9.4319712"><ele>202.0</ele><time>2026-04-14T14:32:54.483Z</time></trkpt><trkpt lat="45.6113965" lon="9.4319924"><ele>202.0</ele><time>2026-04-14T14:32:56.483Z</time></trkpt><trkpt lat="45.6112726" lon="9.4319962"><ele>202.0</ele><time>2026-04-14T14:32:58.483Z</time></trkpt><trkpt lat="45.6111482" lon="9.4319703"><ele>202.0</ele><time>2026-04-14T14:33:00.482Z</time></trkpt><trkpt lat="45.6109729" lon="9.4319636"><ele>202.0</ele><time>2026-04-14T14:33:02.482Z</time></trkpt><trkpt lat="45.610837" lon="9.4319281"><ele>201.39999999999998</ele><time>2026-04-14T14:33:03.483Z</time></trkpt><trkpt lat="45.6107256" lon="9.4319221"><ele>200.79999999999998</ele><time>2026-04-14T14:33:04.483Z</time></trkpt><trkpt lat="45.6106242" lon="9.4319458"><ele>200.2</ele><time>2026-04-14T14:33:06.482Z</time></trkpt><trkpt lat="45.6105729" lon="9.4320761"><ele>199.6</ele><time>2026-04-14T14:33:07.482Z</time></trkpt><trkpt lat="45.6105257" lon="9.432164"><ele>199.0</ele><time>2026-04-14T14:33:08.482Z</time></trkpt><trkpt lat="45.6104595" lon="9.4322168"><ele>198.5</ele><time>2026-04-14T14:33:09.483Z</time></trkpt><trkpt lat="45.6103885" lon="9.4323267"><ele>198.0</ele><time>2026-04-14T14:33:11.483Z</time></trkpt><trkpt lat="45.6102806" lon="9.4323686"><ele>197.5</ele><time>2026-04-14T14:33:13.483Z</time></trkpt><trkpt lat="45.610147" lon="9.4323369"><ele>197.0</ele><time>2026-04-14T14:33:15.483Z</time></trkpt><trkpt lat="45.6100202" lon="9.432346"><ele>196.8</ele><time>2026-04-14T14:33:17.483Z</time></trkpt><trkpt lat="45.6099136" lon="9.4323815"><ele>196.6</ele><time>2026-04-14T14:33:19.483Z</time></trkpt><trkpt lat="45.609843" lon="9.4324705"><ele>196.4</ele><time>2026-04-14T14:33:20.482Z</time></trkpt><trkpt lat="45.6097846" lon="9.4324323"><ele>196.20000000000002</ele><time>2026-04-14T14:33:21.483Z</time></trkpt><trkpt lat="45.6096674" lon="9.4324316"><ele>196.0</ele><time>2026-04-14T14:33:23.483Z</time></trkpt><trkpt lat="45.6095381" lon="9.4323946"><ele>195.99999999999997</ele><time>2026-04-14T14:33:25.483Z</time></trkpt><trkpt lat="45.6094797" lon="9.432355"><ele>196.0</ele><time>2026-04-14T14:33:26.483Z</time></trkpt><trkpt lat="45.6094238" lon="9.4323124"><ele>196.0</ele><time>2026-04-14T14:33:27.482Z</time></trkpt><trkpt lat="45.6093431" lon="9.4322833"><ele>196.0</ele><time>2026-04-14T14:33:28.483Z</time></trkpt><trkpt lat="45.6092519" lon="9.4322401"><ele>195.99999999999997</ele><time>2026-04-14T14:33:29.483Z</time></trkpt><trkpt lat="45.6091259" lon="9.4321845"><ele>196.0</ele><time>2026-04-14T14:33:31.483Z</time></trkpt><trkpt lat="45.6090127" lon="9.432136"><ele>195.8</ele><time>2026-04-14T14:33:33.483Z</time></trkpt><trkpt lat="45.6089493" lon="9.4321075"><ele>195.60000000000002</ele><time>2026-04-14T14:33:34.482Z</time></trkpt><trkpt lat="45.6088598" lon="9.4320768"><ele>195.4</ele><time>2026-04-14T14:33:35.483Z</time></trkpt><trkpt lat="45.6087592" lon="9.4320371"><ele>195.2</ele><time>2026-04-14T14:33:37.483Z</time></trkpt><trkpt lat="45.6086682" lon="9.4319901"><ele>195.0</ele><time>2026-04-14T14:33:38.482Z</time></trkpt><trkpt lat="45.6085729" lon="9.4319056"><ele>195.6</ele><time>2026-04-14T14:33:40.483Z</time></trkpt><trkpt lat="45.6084655" lon="9.4318529"><ele>196.2</ele><time>2026-04-14T14:33:42.483Z</time></trkpt><trkpt lat="45.6083667" lon="9.4318519"><ele>196.8</ele><time>2026-04-14T14:33:43.483Z</time></trkpt><trkpt lat="45.6082717" lon="9.4319507"><ele>197.4</ele><time>2026-04-14T14:33:45.483Z</time></trkpt><trkpt lat="45.6081837" lon="9.4320368"><ele>198.0</ele><time>2026-04-14T14:33:47.483Z</time></trkpt><trkpt lat="45.6081202" lon="9.4320455"><ele>198.0</ele><time>2026-04-14T14:33:48.483Z</time></trkpt><trkpt lat="45.6079969" lon="9.4320557"><ele>198.0</ele><time>2026-04-14T14:33:50.483Z</time></trkpt><trkpt lat="45.6078877" lon="9.4320392"><ele>198.0</ele><time>2026-04-14T14:33:52.482Z</time></trkpt><trkpt lat="45.6077506" lon="9.4320215"><ele>198.0</ele><time>2026-04-14T14:33:54.482Z</time></trkpt><trkpt lat="45.6076912" lon="9.4320522"><ele>198.0</ele><time>2026-04-14T14:33:55.483Z</time></trkpt><trkpt lat="45.6076153" lon="9.4320521"><ele>197.83333333333334</ele><time>2026-04-14T14:33:56.483Z</time></trkpt><trkpt lat="45.6075437" lon="9.4320468"><ele>197.66666666666669</ele><time>2026-04-14T14:33:57.483Z</time></trkpt><trkpt lat="45.6074809" lon="9.4320334"><ele>197.5</ele><time>2026-04-14T14:33:58.483Z</time></trkpt><trkpt lat="45.6073947" lon="9.4319051"><ele>197.33333333333334</ele><time>2026-04-14T14:34:00.483Z</time></trkpt><trkpt lat="45.6073253" lon="9.4318181"><ele>197.16666666666669</ele><time>2026-04-14T14:34:02.482Z</time></trkpt><trkpt lat="45.6073077" lon="9.4317016"><ele>197.0</ele><time>2026-04-14T14:34:03.483Z</time></trkpt><trkpt lat="45.6073006" lon="9.4315167"><ele>197.0</ele><time>2026-04-14T14:34:05.483Z</time></trkpt><trkpt lat="45.6072525" lon="9.431431"><ele>197.0</ele><time>2026-04-14T14:34:07.482Z</time></trkpt><trkpt lat="45.6071316" lon="9.4312072"><ele>197.0</ele><time>2026-04-14T14:34:09.482Z</time></trkpt><trkpt lat="45.607014" lon="9.431211"><ele>197.0</ele><time>2026-04-14T14:34:10.483Z</time></trkpt><trkpt lat="45.6069224" lon="9.4311772"><ele>197.0</ele><time>2026-04-14T14:34:12.483Z</time></trkpt><trkpt lat="45.6068739" lon="9.4310846"><ele>197.0</ele><time>2026-04-14T14:34:14.482Z</time></trkpt><trkpt lat="45.6068572" lon="9.4309275"><ele>197.0</ele><time>2026-04-14T14:34:17.482Z</time></trkpt><trkpt lat="45.6068872" lon="9.4308175"><ele>197.0</ele><time>2026-04-14T14:34:18.483Z</time></trkpt><trkpt lat="45.6069035" lon="9.430722"><ele>197.0</ele><time>2026-04-14T14:34:19.483Z</time></trkpt><trkpt lat="45.6069323" lon="9.4305425"><ele>196.75</ele><time>2026-04-14T14:34:21.482Z</time></trkpt><trkpt lat="45.6070094" lon="9.4303992"><ele>196.5</ele><time>2026-04-14T14:34:23.483Z</time></trkpt><trkpt lat="45.6070766" lon="9.4302467"><ele>196.25</ele><time>2026-04-14T14:34:25.482Z</time></trkpt><trkpt lat="45.6071795" lon="9.4301304"><ele>196.0</ele><time>2026-04-14T14:34:27.483Z</time></trkpt><trkpt lat="45.6072444" lon="9.4300498"><ele>196.0</ele><time>2026-04-14T14:34:29.482Z</time></trkpt><trkpt lat="45.6072482" lon="9.4299004"><ele>196.0</ele><time>2026-04-14T14:34:31.482Z</time></trkpt><trkpt lat="45.6072556" lon="9.4297564"><ele>196.0</ele><time>2026-04-14T14:34:35.483Z</time></trkpt><trkpt lat="45.6072471" lon="9.4296497"><ele>196.0</ele><time>2026-04-14T14:34:37.482Z</time></trkpt><trkpt lat="45.607213" lon="9.4295017"><ele>196.0</ele><time>2026-04-14T14:34:38.483Z</time></trkpt><trkpt lat="45.6072342" lon="9.4293896"><ele>195.8</ele><time>2026-04-14T14:34:39.483Z</time></trkpt><trkpt lat="45.6072389" lon="9.4292281"><ele>195.60000000000002</ele><time>2026-04-14T14:34:41.483Z</time></trkpt><trkpt lat="45.6072443" lon="9.4289996"><ele>195.4</ele><time>2026-04-14T14:34:43.483Z</time></trkpt><trkpt lat="45.6072654" lon="9.428863"><ele>195.2</ele><time>2026-04-14T14:34:44.483Z</time></trkpt><trkpt lat="45.6072717" lon="9.4287589"><ele>195.0</ele><time>2026-04-14T14:34:45.483Z</time></trkpt><trkpt lat="45.607286" lon="9.4285901"><ele>195.0</ele><time>2026-04-14T14:34:46.482Z</time></trkpt><trkpt lat="45.6072855" lon="9.4284738"><ele>195.0</ele><time>2026-04-14T14:34:47.483Z</time></trkpt><trkpt lat="45.6073051" lon="9.4283493"><ele>195.0</ele><time>2026-04-14T14:34:48.482Z</time></trkpt><trkpt lat="45.6073139" lon="9.4281684"><ele>195.0</ele><time>2026-04-14T14:34:49.483Z</time></trkpt><trkpt lat="45.6073359" lon="9.4279608"><ele>195.0</ele><time>2026-04-14T14:34:50.482Z</time></trkpt><trkpt lat="45.6073757" lon="9.427864"><ele>195.0</ele><time>2026-04-14T14:34:51.482Z</time></trkpt><trkpt lat="45.6073846" lon="9.4276337"><ele>195.0</ele><time>2026-04-14T14:34:52.483Z</time></trkpt><trkpt lat="45.6074061" lon="9.4275419"><ele>195.0</ele><time>2026-04-14T14:34:53.482Z</time></trkpt><trkpt lat="45.6072966" lon="9.427204"><ele>195.0</ele><time>2026-04-14T14:34:59.483Z</time></trkpt><trkpt lat="45.6073097" lon="9.4271154"><ele>195.0</ele><time>2026-04-14T14:35:00.482Z</time></trkpt><trkpt lat="45.6072728" lon="9.4270302"><ele>195.0</ele><time>2026-04-14T14:35:02.482Z</time></trkpt><trkpt lat="45.6072673" lon="9.4268342"><ele>195.0</ele><time>2026-04-14T14:35:04.482Z</time></trkpt><trkpt lat="45.6072785" lon="9.4266085"><ele>195.0</ele><time>2026-04-14T14:35:06.483Z</time></trkpt><trkpt lat="45.6072977" lon="9.4265078"><ele>195.0</ele><time>2026-04-14T14:35:07.482Z</time></trkpt><trkpt lat="45.6073102" lon="9.4263148"><ele>195.0</ele><time>2026-04-14T14:35:08.483Z</time></trkpt><trkpt lat="45.6073354" lon="9.4261934"><ele>195.0</ele><time>2026-04-14T14:35:09.483Z</time></trkpt><trkpt lat="45.6073856" lon="9.4260831"><ele>195.0</ele><time>2026-04-14T14:35:10.483Z</time></trkpt><trkpt lat="45.6074057" lon="9.4259835"><ele>195.0</ele><time>2026-04-14T14:35:12.482Z</time></trkpt><trkpt lat="45.6077077" lon="9.4259617"><ele>195.0</ele><time>2026-04-14T14:35:18.483Z</time></trkpt><trkpt lat="45.6077744" lon="9.4259542"><ele>195.0</ele><time>2026-04-14T14:35:19.483Z</time></trkpt><trkpt lat="45.6078461" lon="9.4259682"><ele>195.0</ele><time>2026-04-14T14:35:20.483Z</time></trkpt><trkpt lat="45.6079136" lon="9.4259564"><ele>195.0</ele><time>2026-04-14T14:35:21.482Z</time></trkpt><trkpt lat="45.607997" lon="9.4259604"><ele>195.0</ele><time>2026-04-14T14:35:22.482Z</time></trkpt><trkpt lat="45.6080792" lon="9.4259559"><ele>195.0</ele><time>2026-04-14T14:35:23.482Z</time></trkpt><trkpt lat="45.6081753" lon="9.425949"><ele>195.25</ele><time>2026-04-14T14:35:24.483Z</time></trkpt><trkpt lat="45.6082867" lon="9.4259744"><ele>195.5</ele><time>2026-04-14T14:35:26.482Z</time></trkpt><trkpt lat="45.60843" lon="9.4259591"><ele>195.75</ele><time>2026-04-14T14:35:28.483Z</time></trkpt><trkpt lat="45.6085488" lon="9.4259956"><ele>196.0</ele><time>2026-04-14T14:35:30.482Z</time></trkpt><trkpt lat="45.6086239" lon="9.4259899"><ele>196.75</ele><time>2026-04-14T14:35:31.482Z</time></trkpt><trkpt lat="45.6087632" lon="9.426021"><ele>197.5</ele><time>2026-04-14T14:35:33.483Z</time></trkpt><trkpt lat="45.6088821" lon="9.4260366"><ele>198.25</ele><time>2026-04-14T14:35:35.483Z</time></trkpt><trkpt lat="45.6089777" lon="9.4260304"><ele>199.0</ele><time>2026-04-14T14:35:36.482Z</time></trkpt><trkpt lat="45.6090968" lon="9.4260209"><ele>198.99999999999997</ele><time>2026-04-14T14:35:38.483Z</time></trkpt><trkpt lat="45.6091702" lon="9.4260414"><ele>199.0</ele><time>2026-04-14T14:35:39.483Z</time></trkpt><trkpt lat="45.6092576" lon="9.4260407"><ele>199.0</ele><time>2026-04-14T14:35:41.483Z</time></trkpt><trkpt lat="45.6093284" lon="9.4260549"><ele>199.0</ele><time>2026-04-14T14:35:42.483Z</time></trkpt><trkpt lat="45.6094194" lon="9.4260459"><ele>198.99999999999997</ele><time>2026-04-14T14:35:43.482Z</time></trkpt><trkpt lat="45.6094876" lon="9.4260571"><ele>199.0</ele><time>2026-04-14T14:35:44.483Z</time></trkpt><trkpt lat="45.6095628" lon="9.4260444"><ele>199.49999999999997</ele><time>2026-04-14T14:35:45.483Z</time></trkpt><trkpt lat="45.6096489" lon="9.4260707"><ele>200.0</ele><time>2026-04-14T14:35:48.483Z</time></trkpt><trkpt lat="45.6097155" lon="9.4261188"><ele>200.5</ele><time>2026-04-14T14:35:53.482Z</time></trkpt><trkpt lat="45.6096925" lon="9.4260335"><ele>201.0</ele><time>2026-04-14T14:36:01.483Z</time></trkpt><trkpt lat="45.609622" lon="9.4259382"><ele>201.49999999999997</ele><time>2026-04-14T14:36:14.483Z</time></trkpt><trkpt lat="45.6096888" lon="9.4259902"><ele>202.0</ele><time>2026-04-14T14:36:18.482Z</time></trkpt><trkpt lat="45.6097305" lon="9.4260984"><ele>202.0</ele><time>2026-04-14T14:36:22.483Z</time></trkpt><trkpt lat="45.6097525" lon="9.4262266"><ele>202.0</ele><time>2026-04-14T14:36:24.483Z</time></trkpt><trkpt lat="45.6097677" lon="9.4263582"><ele>202.0</ele><time>2026-04-14T14:36:26.483Z</time></trkpt><trkpt lat="45.6097294" lon="9.4265135"><ele>202.0</ele><time>2026-04-14T14:36:28.483Z</time></trkpt><trkpt lat="45.6096948" lon="9.4265972"><ele>202.0</ele><time>2026-04-14T14:36:29.483Z</time></trkpt><trkpt lat="45.6096621" lon="9.426733"><ele>202.0</ele><time>2026-04-14T14:36:31.483Z</time></trkpt><trkpt lat="45.6096637" lon="9.4268596"><ele>202.0</ele><time>2026-04-14T14:36:33.482Z</time></trkpt><trkpt lat="45.6096721" lon="9.4269615"><ele>202.0</ele><time>2026-04-14T14:36:35.483Z</time></trkpt><trkpt lat="45.6096704" lon="9.4270519"><ele>202.0</ele><time>2026-04-14T14:36:37.483Z</time></trkpt><trkpt lat="45.6108567" lon="9.4269531"><ele>200.0</ele><time>2026-04-14T14:39:18.159Z</time></trkpt><trkpt lat="45.6099018" lon="9.4272334"><ele>200.0</ele><time>2026-04-14T14:39:50.09Z</time></trkpt><trkpt lat="45.6100132" lon="9.427161"><ele>200.0</ele><time>2026-04-14T14:40:16.469Z</time></trkpt><trkpt lat="45.6100132" lon="9.427161"><ele>200.0</ele><time>2026-04-14T14:40:16.469Z</time></trkpt></trkseg></trk></gpx>